<?xml version="1.0" encoding="UTF-8" standalone="no" ?>
<gpx xmlns="http://www.topografix.com/GPX/1/1" xmlns:xsi="http://www.w3.org/2001/XMLSchema-instance" xsi:schemaLocation="http://www.topografix.com/GPX/1/1 http://www.topografix.com/GPX/1/1/gpx.xsd" version="1.1" creator="VisuGPX - https://www.visugpx.com">
  <metadata>
    <name>Pic des 3 seigneurs</name>
    <desc><![CDATA[Pic des 3 seigneurs]]></desc>
  </metadata>
  <trk>
    <name><![CDATA[Rando-course]]></name>
    <cmt><![CDATA[pic des 3 seigneurs]]></cmt>
    <trkseg>
      <trkpt lat="42.84034" lon="1.48538">
        <ele>1030.6706542969</ele>
        <time>2013-09-28T08:14:43Z</time>
      </trkpt>
      <trkpt lat="42.84036" lon="1.4853">
        <ele>1030.6706542969</ele>
        <time>2013-09-28T08:14:49Z</time>
      </trkpt>
      <trkpt lat="42.84032" lon="1.48526">
        <ele>1029.7092285156</ele>
        <time>2013-09-28T08:14:55Z</time>
      </trkpt>
      <trkpt lat="42.8403" lon="1.4852">
        <ele>1034.03515625</ele>
        <time>2013-09-28T08:15:02Z</time>
      </trkpt>
      <trkpt lat="42.8403" lon="1.4851">
        <ele>1037.3999023438</ele>
        <time>2013-09-28T08:15:09Z</time>
      </trkpt>
      <trkpt lat="42.8403" lon="1.48501">
        <ele>1041.2451171875</ele>
        <time>2013-09-28T08:15:16Z</time>
      </trkpt>
      <trkpt lat="42.84027" lon="1.48498">
        <ele>1039.8032226562</ele>
        <time>2013-09-28T08:15:19Z</time>
      </trkpt>
      <trkpt lat="42.84024" lon="1.48488">
        <ele>1041.2451171875</ele>
        <time>2013-09-28T08:15:27Z</time>
      </trkpt>
      <trkpt lat="42.84022" lon="1.4848">
        <ele>1040.2839355469</ele>
        <time>2013-09-28T08:15:33Z</time>
      </trkpt>
      <trkpt lat="42.84019" lon="1.48474">
        <ele>1040.2839355469</ele>
        <time>2013-09-28T08:15:37Z</time>
      </trkpt>
      <trkpt lat="42.84018" lon="1.48472">
        <ele>1039.8032226562</ele>
        <time>2013-09-28T08:15:39Z</time>
      </trkpt>
      <trkpt lat="42.84014" lon="1.48467">
        <ele>1040.7644042969</ele>
        <time>2013-09-28T08:15:45Z</time>
      </trkpt>
      <trkpt lat="42.84011" lon="1.48467">
        <ele>1040.2839355469</ele>
        <time>2013-09-28T08:15:50Z</time>
      </trkpt>
      <trkpt lat="42.84011" lon="1.48465">
        <ele>1039.3225097656</ele>
        <time>2013-09-28T08:15:51Z</time>
      </trkpt>
      <trkpt lat="42.84013" lon="1.48456">
        <ele>1038.361328125</ele>
        <time>2013-09-28T08:15:56Z</time>
      </trkpt>
      <trkpt lat="42.84013" lon="1.48446">
        <ele>1036.4387207031</ele>
        <time>2013-09-28T08:16:03Z</time>
      </trkpt>
      <trkpt lat="42.84014" lon="1.48439">
        <ele>1038.8420410156</ele>
        <time>2013-09-28T08:16:12Z</time>
      </trkpt>
      <trkpt lat="42.84013" lon="1.48431">
        <ele>1043.6484375</ele>
        <time>2013-09-28T08:16:17Z</time>
      </trkpt>
      <trkpt lat="42.8401" lon="1.48428">
        <ele>1043.6484375</ele>
        <time>2013-09-28T08:16:19Z</time>
      </trkpt>
      <trkpt lat="42.84007" lon="1.48419">
        <ele>1041.7258300781</ele>
        <time>2013-09-28T08:16:26Z</time>
      </trkpt>
      <trkpt lat="42.84001" lon="1.4841">
        <ele>1042.6872558594</ele>
        <time>2013-09-28T08:16:33Z</time>
      </trkpt>
      <trkpt lat="42.83999" lon="1.48401">
        <ele>1042.2065429688</ele>
        <time>2013-09-28T08:16:39Z</time>
      </trkpt>
      <trkpt lat="42.83998" lon="1.48386">
        <ele>1045.0903320312</ele>
        <time>2013-09-28T08:16:46Z</time>
      </trkpt>
      <trkpt lat="42.83997" lon="1.48385">
        <ele>1045.0903320312</ele>
        <time>2013-09-28T08:16:47Z</time>
      </trkpt>
      <trkpt lat="42.83998" lon="1.48381">
        <ele>1046.5324707031</ele>
        <time>2013-09-28T08:16:49Z</time>
      </trkpt>
      <trkpt lat="42.83997" lon="1.48372">
        <ele>1046.0517578125</ele>
        <time>2013-09-28T08:16:54Z</time>
      </trkpt>
      <trkpt lat="42.83997" lon="1.48366">
        <ele>1045.5710449219</ele>
        <time>2013-09-28T08:16:57Z</time>
      </trkpt>
      <trkpt lat="42.83996" lon="1.4835">
        <ele>1043.6484375</ele>
        <time>2013-09-28T08:17:05Z</time>
      </trkpt>
      <trkpt lat="42.83994" lon="1.48347">
        <ele>1043.6484375</ele>
        <time>2013-09-28T08:17:07Z</time>
      </trkpt>
      <trkpt lat="42.83988" lon="1.48335">
        <ele>1047.9743652344</ele>
        <time>2013-09-28T08:17:14Z</time>
      </trkpt>
      <trkpt lat="42.83986" lon="1.48323">
        <ele>1050.8581542969</ele>
        <time>2013-09-28T08:17:19Z</time>
      </trkpt>
      <trkpt lat="42.83983" lon="1.48318">
        <ele>1051.3388671875</ele>
        <time>2013-09-28T08:17:22Z</time>
      </trkpt>
      <trkpt lat="42.83979" lon="1.48312">
        <ele>1051.3388671875</ele>
        <time>2013-09-28T08:17:27Z</time>
      </trkpt>
      <trkpt lat="42.83978" lon="1.48303">
        <ele>1050.3776855469</ele>
        <time>2013-09-28T08:17:32Z</time>
      </trkpt>
      <trkpt lat="42.83975" lon="1.48292">
        <ele>1049.8969726562</ele>
        <time>2013-09-28T08:17:38Z</time>
      </trkpt>
      <trkpt lat="42.83974" lon="1.48283">
        <ele>1051.3388671875</ele>
        <time>2013-09-28T08:17:43Z</time>
      </trkpt>
      <trkpt lat="42.83975" lon="1.48281">
        <ele>1051.3388671875</ele>
        <time>2013-09-28T08:17:44Z</time>
      </trkpt>
      <trkpt lat="42.83973" lon="1.48264">
        <ele>1050.3776855469</ele>
        <time>2013-09-28T08:17:52Z</time>
      </trkpt>
      <trkpt lat="42.83972" lon="1.48257">
        <ele>1050.3776855469</ele>
        <time>2013-09-28T08:17:56Z</time>
      </trkpt>
      <trkpt lat="42.83973" lon="1.48242">
        <ele>1049.4162597656</ele>
        <time>2013-09-28T08:18:04Z</time>
      </trkpt>
      <trkpt lat="42.83974" lon="1.4823">
        <ele>1047.0129394531</ele>
        <time>2013-09-28T08:18:10Z</time>
      </trkpt>
      <trkpt lat="42.83973" lon="1.48224">
        <ele>1047.4936523438</ele>
        <time>2013-09-28T08:18:13Z</time>
      </trkpt>
      <trkpt lat="42.83973" lon="1.48212">
        <ele>1048.935546875</ele>
        <time>2013-09-28T08:18:19Z</time>
      </trkpt>
      <trkpt lat="42.83971" lon="1.48196">
        <ele>1049.4162597656</ele>
        <time>2013-09-28T08:18:27Z</time>
      </trkpt>
      <trkpt lat="42.83974" lon="1.48185">
        <ele>1050.8581542969</ele>
        <time>2013-09-28T08:18:33Z</time>
      </trkpt>
      <trkpt lat="42.83975" lon="1.48179">
        <ele>1052.3002929688</ele>
        <time>2013-09-28T08:18:36Z</time>
      </trkpt>
      <trkpt lat="42.83972" lon="1.48165">
        <ele>1052.3002929688</ele>
        <time>2013-09-28T08:18:43Z</time>
      </trkpt>
      <trkpt lat="42.83968" lon="1.48155">
        <ele>1052.3002929688</ele>
        <time>2013-09-28T08:18:49Z</time>
      </trkpt>
      <trkpt lat="42.83967" lon="1.48151">
        <ele>1052.7810058594</ele>
        <time>2013-09-28T08:18:51Z</time>
      </trkpt>
      <trkpt lat="42.83966" lon="1.48144">
        <ele>1052.7810058594</ele>
        <time>2013-09-28T08:18:55Z</time>
      </trkpt>
      <trkpt lat="42.83963" lon="1.4813">
        <ele>1052.3002929688</ele>
        <time>2013-09-28T08:19:03Z</time>
      </trkpt>
      <trkpt lat="42.83959" lon="1.48119">
        <ele>1052.3002929688</ele>
        <time>2013-09-28T08:19:10Z</time>
      </trkpt>
      <trkpt lat="42.83956" lon="1.48115">
        <ele>1053.26171875</ele>
        <time>2013-09-28T08:19:13Z</time>
      </trkpt>
      <trkpt lat="42.83953" lon="1.48101">
        <ele>1053.7424316406</ele>
        <time>2013-09-28T08:19:21Z</time>
      </trkpt>
      <trkpt lat="42.83952" lon="1.48098">
        <ele>1053.7424316406</ele>
        <time>2013-09-28T08:19:23Z</time>
      </trkpt>
      <trkpt lat="42.83951" lon="1.48091">
        <ele>1055.1843261719</ele>
        <time>2013-09-28T08:19:27Z</time>
      </trkpt>
      <trkpt lat="42.8395" lon="1.48074">
        <ele>1057.1069335938</ele>
        <time>2013-09-28T08:19:35Z</time>
      </trkpt>
      <trkpt lat="42.83951" lon="1.48066">
        <ele>1058.068359375</ele>
        <time>2013-09-28T08:19:39Z</time>
      </trkpt>
      <trkpt lat="42.8395" lon="1.48054">
        <ele>1058.548828125</ele>
        <time>2013-09-28T08:19:46Z</time>
      </trkpt>
      <trkpt lat="42.83951" lon="1.48043">
        <ele>1058.548828125</ele>
        <time>2013-09-28T08:19:52Z</time>
      </trkpt>
      <trkpt lat="42.83953" lon="1.48033">
        <ele>1058.548828125</ele>
        <time>2013-09-28T08:19:57Z</time>
      </trkpt>
      <trkpt lat="42.83955" lon="1.48023">
        <ele>1058.548828125</ele>
        <time>2013-09-28T08:20:02Z</time>
      </trkpt>
      <trkpt lat="42.83955" lon="1.48012">
        <ele>1059.5102539062</ele>
        <time>2013-09-28T08:20:07Z</time>
      </trkpt>
      <trkpt lat="42.83955" lon="1.47997">
        <ele>1059.9907226562</ele>
        <time>2013-09-28T08:20:13Z</time>
      </trkpt>
      <trkpt lat="42.83956" lon="1.47993">
        <ele>1059.0295410156</ele>
        <time>2013-09-28T08:20:16Z</time>
      </trkpt>
      <trkpt lat="42.83952" lon="1.47985">
        <ele>1059.0295410156</ele>
        <time>2013-09-28T08:20:22Z</time>
      </trkpt>
      <trkpt lat="42.83949" lon="1.47979">
        <ele>1059.0295410156</ele>
        <time>2013-09-28T08:20:26Z</time>
      </trkpt>
      <trkpt lat="42.83945" lon="1.4797">
        <ele>1059.5102539062</ele>
        <time>2013-09-28T08:20:32Z</time>
      </trkpt>
      <trkpt lat="42.8394" lon="1.47965">
        <ele>1060.4714355469</ele>
        <time>2013-09-28T08:20:37Z</time>
      </trkpt>
      <trkpt lat="42.83937" lon="1.47956">
        <ele>1060.4714355469</ele>
        <time>2013-09-28T08:20:43Z</time>
      </trkpt>
      <trkpt lat="42.83935" lon="1.47952">
        <ele>1061.4328613281</ele>
        <time>2013-09-28T08:20:46Z</time>
      </trkpt>
      <trkpt lat="42.83929" lon="1.47946">
        <ele>1063.35546875</ele>
        <time>2013-09-28T08:20:52Z</time>
      </trkpt>
      <trkpt lat="42.83927" lon="1.47945">
        <ele>1064.3166503906</ele>
        <time>2013-09-28T08:20:53Z</time>
      </trkpt>
      <trkpt lat="42.83924" lon="1.47943">
        <ele>1065.7587890625</ele>
        <time>2013-09-28T08:20:55Z</time>
      </trkpt>
      <trkpt lat="42.83925" lon="1.47933">
        <ele>1066.2392578125</ele>
        <time>2013-09-28T08:21:00Z</time>
      </trkpt>
      <trkpt lat="42.83926" lon="1.47926">
        <ele>1065.2780761719</ele>
        <time>2013-09-28T08:21:03Z</time>
      </trkpt>
      <trkpt lat="42.83928" lon="1.47919">
        <ele>1065.2780761719</ele>
        <time>2013-09-28T08:21:07Z</time>
      </trkpt>
      <trkpt lat="42.83928" lon="1.47916">
        <ele>1065.7587890625</ele>
        <time>2013-09-28T08:21:09Z</time>
      </trkpt>
      <trkpt lat="42.83928" lon="1.4791">
        <ele>1066.7199707031</ele>
        <time>2013-09-28T08:21:13Z</time>
      </trkpt>
      <trkpt lat="42.83927" lon="1.47907">
        <ele>1066.7199707031</ele>
        <time>2013-09-28T08:21:15Z</time>
      </trkpt>
      <trkpt lat="42.83922" lon="1.47898">
        <ele>1068.162109375</ele>
        <time>2013-09-28T08:21:21Z</time>
      </trkpt>
      <trkpt lat="42.83921" lon="1.47897">
        <ele>1068.6428222656</ele>
        <time>2013-09-28T08:21:22Z</time>
      </trkpt>
      <trkpt lat="42.83918" lon="1.47895">
        <ele>1069.6042480469</ele>
        <time>2013-09-28T08:21:24Z</time>
      </trkpt>
      <trkpt lat="42.83917" lon="1.47888">
        <ele>1068.6428222656</ele>
        <time>2013-09-28T08:21:28Z</time>
      </trkpt>
      <trkpt lat="42.8391" lon="1.4788">
        <ele>1070.5654296875</ele>
        <time>2013-09-28T08:21:34Z</time>
      </trkpt>
      <trkpt lat="42.83908" lon="1.47878">
        <ele>1070.5654296875</ele>
        <time>2013-09-28T08:21:36Z</time>
      </trkpt>
      <trkpt lat="42.83905" lon="1.47869">
        <ele>1070.0847167969</ele>
        <time>2013-09-28T08:21:42Z</time>
      </trkpt>
      <trkpt lat="42.839" lon="1.47864">
        <ele>1072.4880371094</ele>
        <time>2013-09-28T08:21:47Z</time>
      </trkpt>
      <trkpt lat="42.839" lon="1.47853">
        <ele>1072.4880371094</ele>
        <time>2013-09-28T08:21:53Z</time>
      </trkpt>
      <trkpt lat="42.839" lon="1.47847">
        <ele>1072.96875</ele>
        <time>2013-09-28T08:21:56Z</time>
      </trkpt>
      <trkpt lat="42.839" lon="1.4784">
        <ele>1074.4106445312</ele>
        <time>2013-09-28T08:22:00Z</time>
      </trkpt>
      <trkpt lat="42.83899" lon="1.47825">
        <ele>1077.2946777344</ele>
        <time>2013-09-28T08:22:08Z</time>
      </trkpt>
      <trkpt lat="42.83897" lon="1.47816">
        <ele>1080.1784667969</ele>
        <time>2013-09-28T08:22:12Z</time>
      </trkpt>
      <trkpt lat="42.83893" lon="1.47801">
        <ele>1078.7365722656</ele>
        <time>2013-09-28T08:22:21Z</time>
      </trkpt>
      <trkpt lat="42.83892" lon="1.47793">
        <ele>1077.7751464844</ele>
        <time>2013-09-28T08:22:26Z</time>
      </trkpt>
      <trkpt lat="42.83891" lon="1.4778">
        <ele>1076.8139648438</ele>
        <time>2013-09-28T08:22:33Z</time>
      </trkpt>
      <trkpt lat="42.83892" lon="1.47765">
        <ele>1076.8139648438</ele>
        <time>2013-09-28T08:22:41Z</time>
      </trkpt>
      <trkpt lat="42.83892" lon="1.47752">
        <ele>1075.8525390625</ele>
        <time>2013-09-28T08:22:48Z</time>
      </trkpt>
      <trkpt lat="42.83894" lon="1.4774">
        <ele>1074.4106445312</ele>
        <time>2013-09-28T08:22:55Z</time>
      </trkpt>
      <trkpt lat="42.83898" lon="1.47726">
        <ele>1074.4106445312</ele>
        <time>2013-09-28T08:23:03Z</time>
      </trkpt>
      <trkpt lat="42.83899" lon="1.47707">
        <ele>1073.9299316406</ele>
        <time>2013-09-28T08:23:12Z</time>
      </trkpt>
      <trkpt lat="42.83899" lon="1.47687">
        <ele>1074.8913574219</ele>
        <time>2013-09-28T08:23:22Z</time>
      </trkpt>
      <trkpt lat="42.83898" lon="1.47672">
        <ele>1073.9299316406</ele>
        <time>2013-09-28T08:23:30Z</time>
      </trkpt>
      <trkpt lat="42.83899" lon="1.47659">
        <ele>1073.9299316406</ele>
        <time>2013-09-28T08:23:38Z</time>
      </trkpt>
      <trkpt lat="42.83898" lon="1.47648">
        <ele>1076.3332519531</ele>
        <time>2013-09-28T08:23:45Z</time>
      </trkpt>
      <trkpt lat="42.83898" lon="1.47644">
        <ele>1076.3332519531</ele>
        <time>2013-09-28T08:23:47Z</time>
      </trkpt>
      <trkpt lat="42.83898" lon="1.47631">
        <ele>1076.8139648438</ele>
        <time>2013-09-28T08:23:54Z</time>
      </trkpt>
      <trkpt lat="42.83897" lon="1.47623">
        <ele>1075.8525390625</ele>
        <time>2013-09-28T08:23:58Z</time>
      </trkpt>
      <trkpt lat="42.83894" lon="1.47614">
        <ele>1075.8525390625</ele>
        <time>2013-09-28T08:24:03Z</time>
      </trkpt>
      <trkpt lat="42.83887" lon="1.47606">
        <ele>1074.4106445312</ele>
        <time>2013-09-28T08:24:09Z</time>
      </trkpt>
      <trkpt lat="42.83885" lon="1.47597">
        <ele>1074.4106445312</ele>
        <time>2013-09-28T08:24:14Z</time>
      </trkpt>
      <trkpt lat="42.83879" lon="1.47589">
        <ele>1079.2170410156</ele>
        <time>2013-09-28T08:24:21Z</time>
      </trkpt>
      <trkpt lat="42.83879" lon="1.47586">
        <ele>1079.2170410156</ele>
        <time>2013-09-28T08:24:23Z</time>
      </trkpt>
      <trkpt lat="42.8388" lon="1.47577">
        <ele>1079.2170410156</ele>
        <time>2013-09-28T08:24:29Z</time>
      </trkpt>
      <trkpt lat="42.83879" lon="1.47571">
        <ele>1080.6591796875</ele>
        <time>2013-09-28T08:24:34Z</time>
      </trkpt>
      <trkpt lat="42.83881" lon="1.4757">
        <ele>1081.6203613281</ele>
        <time>2013-09-28T08:24:39Z</time>
      </trkpt>
      <trkpt lat="42.8388" lon="1.47565">
        <ele>1081.6203613281</ele>
        <time>2013-09-28T08:24:43Z</time>
      </trkpt>
      <trkpt lat="42.83879" lon="1.47562">
        <ele>1082.1010742188</ele>
        <time>2013-09-28T08:24:45Z</time>
      </trkpt>
      <trkpt lat="42.8388" lon="1.47556">
        <ele>1082.5817871094</ele>
        <time>2013-09-28T08:24:49Z</time>
      </trkpt>
      <trkpt lat="42.83875" lon="1.47551">
        <ele>1084.5046386719</ele>
        <time>2013-09-28T08:24:55Z</time>
      </trkpt>
      <trkpt lat="42.83873" lon="1.47542">
        <ele>1081.1398925781</ele>
        <time>2013-09-28T08:25:02Z</time>
      </trkpt>
      <trkpt lat="42.83869" lon="1.4754">
        <ele>1079.6977539062</ele>
        <time>2013-09-28T08:25:07Z</time>
      </trkpt>
      <trkpt lat="42.83867" lon="1.4754">
        <ele>1080.1784667969</ele>
        <time>2013-09-28T08:25:08Z</time>
      </trkpt>
      <trkpt lat="42.83862" lon="1.47543">
        <ele>1081.6203613281</ele>
        <time>2013-09-28T08:25:14Z</time>
      </trkpt>
      <trkpt lat="42.83852" lon="1.47544">
        <ele>1082.1010742188</ele>
        <time>2013-09-28T08:25:20Z</time>
      </trkpt>
      <trkpt lat="42.83844" lon="1.47537">
        <ele>1080.1784667969</ele>
        <time>2013-09-28T08:25:26Z</time>
      </trkpt>
      <trkpt lat="42.83837" lon="1.47527">
        <ele>1079.6977539062</ele>
        <time>2013-09-28T08:25:33Z</time>
      </trkpt>
      <trkpt lat="42.83836" lon="1.47519">
        <ele>1081.1398925781</ele>
        <time>2013-09-28T08:25:37Z</time>
      </trkpt>
      <trkpt lat="42.83832" lon="1.47514">
        <ele>1083.0622558594</ele>
        <time>2013-09-28T08:25:43Z</time>
      </trkpt>
      <trkpt lat="42.83831" lon="1.47506">
        <ele>1087.869140625</ele>
        <time>2013-09-28T08:25:50Z</time>
      </trkpt>
      <trkpt lat="42.83833" lon="1.47498">
        <ele>1093.15625</ele>
        <time>2013-09-28T08:25:57Z</time>
      </trkpt>
      <trkpt lat="42.83827" lon="1.47489">
        <ele>1093.6369628906</ele>
        <time>2013-09-28T08:26:03Z</time>
      </trkpt>
      <trkpt lat="42.83821" lon="1.47483">
        <ele>1095.0788574219</ele>
        <time>2013-09-28T08:26:09Z</time>
      </trkpt>
      <trkpt lat="42.83813" lon="1.47478">
        <ele>1094.5981445312</ele>
        <time>2013-09-28T08:26:15Z</time>
      </trkpt>
      <trkpt lat="42.83812" lon="1.47478">
        <ele>1094.5981445312</ele>
        <time>2013-09-28T08:26:16Z</time>
      </trkpt>
      <trkpt lat="42.83805" lon="1.47483">
        <ele>1093.15625</ele>
        <time>2013-09-28T08:26:24Z</time>
      </trkpt>
      <trkpt lat="42.83801" lon="1.47497">
        <ele>1092.1950683594</ele>
        <time>2013-09-28T08:26:33Z</time>
      </trkpt>
      <trkpt lat="42.83801" lon="1.47509">
        <ele>1091.2336425781</ele>
        <time>2013-09-28T08:26:40Z</time>
      </trkpt>
      <trkpt lat="42.838" lon="1.47525">
        <ele>1091.7143554688</ele>
        <time>2013-09-28T08:26:50Z</time>
      </trkpt>
      <trkpt lat="42.83799" lon="1.47536">
        <ele>1092.1950683594</ele>
        <time>2013-09-28T08:26:57Z</time>
      </trkpt>
      <trkpt lat="42.83801" lon="1.47546">
        <ele>1096.0402832031</ele>
        <time>2013-09-28T08:27:04Z</time>
      </trkpt>
      <trkpt lat="42.83801" lon="1.47552">
        <ele>1097.0014648438</ele>
        <time>2013-09-28T08:27:09Z</time>
      </trkpt>
      <trkpt lat="42.83803" lon="1.47561">
        <ele>1096.5209960938</ele>
        <time>2013-09-28T08:27:16Z</time>
      </trkpt>
      <trkpt lat="42.83804" lon="1.47566">
        <ele>1097.0014648438</ele>
        <time>2013-09-28T08:27:19Z</time>
      </trkpt>
      <trkpt lat="42.8381" lon="1.47573">
        <ele>1101.3276367188</ele>
        <time>2013-09-28T08:27:23Z</time>
      </trkpt>
      <trkpt lat="42.83813" lon="1.47581">
        <ele>1103.2502441406</ele>
        <time>2013-09-28T08:27:28Z</time>
      </trkpt>
      <trkpt lat="42.83816" lon="1.4759">
        <ele>1105.1728515625</ele>
        <time>2013-09-28T08:27:34Z</time>
      </trkpt>
      <trkpt lat="42.83818" lon="1.47593">
        <ele>1106.6147460938</ele>
        <time>2013-09-28T08:27:36Z</time>
      </trkpt>
      <trkpt lat="42.83821" lon="1.47608">
        <ele>1111.4213867188</ele>
        <time>2013-09-28T08:27:45Z</time>
      </trkpt>
      <trkpt lat="42.83822" lon="1.47618">
        <ele>1114.3051757812</ele>
        <time>2013-09-28T08:27:51Z</time>
      </trkpt>
      <trkpt lat="42.83821" lon="1.47628">
        <ele>1116.2280273438</ele>
        <time>2013-09-28T08:27:57Z</time>
      </trkpt>
      <trkpt lat="42.8382" lon="1.47629">
        <ele>1115.7473144531</ele>
        <time>2013-09-28T08:27:58Z</time>
      </trkpt>
      <trkpt lat="42.8382" lon="1.47636">
        <ele>1116.7087402344</ele>
        <time>2013-09-28T08:28:02Z</time>
      </trkpt>
      <trkpt lat="42.83817" lon="1.4765">
        <ele>1118.6313476562</ele>
        <time>2013-09-28T08:28:11Z</time>
      </trkpt>
      <trkpt lat="42.83815" lon="1.47665">
        <ele>1118.1506347656</ele>
        <time>2013-09-28T08:28:19Z</time>
      </trkpt>
      <trkpt lat="42.83815" lon="1.47681">
        <ele>1119.5927734375</ele>
        <time>2013-09-28T08:28:28Z</time>
      </trkpt>
      <trkpt lat="42.83815" lon="1.47689">
        <ele>1120.0732421875</ele>
        <time>2013-09-28T08:28:33Z</time>
      </trkpt>
      <trkpt lat="42.83814" lon="1.47696">
        <ele>1119.1120605469</ele>
        <time>2013-09-28T08:28:38Z</time>
      </trkpt>
      <trkpt lat="42.83812" lon="1.47707">
        <ele>1117.669921875</ele>
        <time>2013-09-28T08:28:45Z</time>
      </trkpt>
      <trkpt lat="42.83812" lon="1.47715">
        <ele>1119.1120605469</ele>
        <time>2013-09-28T08:28:49Z</time>
      </trkpt>
      <trkpt lat="42.83811" lon="1.47718">
        <ele>1119.1120605469</ele>
        <time>2013-09-28T08:28:51Z</time>
      </trkpt>
      <trkpt lat="42.83812" lon="1.47734">
        <ele>1121.5151367188</ele>
        <time>2013-09-28T08:28:59Z</time>
      </trkpt>
      <trkpt lat="42.8381" lon="1.47744">
        <ele>1121.5151367188</ele>
        <time>2013-09-28T08:29:05Z</time>
      </trkpt>
      <trkpt lat="42.8381" lon="1.47754">
        <ele>1121.9958496094</ele>
        <time>2013-09-28T08:29:12Z</time>
      </trkpt>
      <trkpt lat="42.83808" lon="1.47767">
        <ele>1121.5151367188</ele>
        <time>2013-09-28T08:29:20Z</time>
      </trkpt>
      <trkpt lat="42.83807" lon="1.47777">
        <ele>1121.9958496094</ele>
        <time>2013-09-28T08:29:26Z</time>
      </trkpt>
      <trkpt lat="42.83805" lon="1.4779">
        <ele>1124.3991699219</ele>
        <time>2013-09-28T08:29:34Z</time>
      </trkpt>
      <trkpt lat="42.83803" lon="1.47803">
        <ele>1123.9184570312</ele>
        <time>2013-09-28T08:29:42Z</time>
      </trkpt>
      <trkpt lat="42.83803" lon="1.47812">
        <ele>1125.3603515625</ele>
        <time>2013-09-28T08:29:48Z</time>
      </trkpt>
      <trkpt lat="42.83807" lon="1.47827">
        <ele>1127.763671875</ele>
        <time>2013-09-28T08:29:57Z</time>
      </trkpt>
      <trkpt lat="42.83807" lon="1.47832">
        <ele>1127.763671875</ele>
        <time>2013-09-28T08:30:01Z</time>
      </trkpt>
      <trkpt lat="42.83807" lon="1.47842">
        <ele>1129.2055664062</ele>
        <time>2013-09-28T08:30:07Z</time>
      </trkpt>
      <trkpt lat="42.83806" lon="1.47845">
        <ele>1128.7250976562</ele>
        <time>2013-09-28T08:30:09Z</time>
      </trkpt>
      <trkpt lat="42.83805" lon="1.47854">
        <ele>1129.6862792969</ele>
        <time>2013-09-28T08:30:15Z</time>
      </trkpt>
      <trkpt lat="42.83804" lon="1.47858">
        <ele>1129.2055664062</ele>
        <time>2013-09-28T08:30:18Z</time>
      </trkpt>
      <trkpt lat="42.83801" lon="1.47868">
        <ele>1129.2055664062</ele>
        <time>2013-09-28T08:30:25Z</time>
      </trkpt>
      <trkpt lat="42.83796" lon="1.47876">
        <ele>1129.6862792969</ele>
        <time>2013-09-28T08:30:31Z</time>
      </trkpt>
      <trkpt lat="42.83793" lon="1.47883">
        <ele>1130.6477050781</ele>
        <time>2013-09-28T08:30:36Z</time>
      </trkpt>
      <trkpt lat="42.83791" lon="1.47888">
        <ele>1130.6477050781</ele>
        <time>2013-09-28T08:30:40Z</time>
      </trkpt>
      <trkpt lat="42.83789" lon="1.47895">
        <ele>1130.6477050781</ele>
        <time>2013-09-28T08:30:45Z</time>
      </trkpt>
      <trkpt lat="42.8379" lon="1.47901">
        <ele>1134.9738769531</ele>
        <time>2013-09-28T08:30:50Z</time>
      </trkpt>
      <trkpt lat="42.83791" lon="1.47909">
        <ele>1137.8576660156</ele>
        <time>2013-09-28T08:30:55Z</time>
      </trkpt>
      <trkpt lat="42.8379" lon="1.47917">
        <ele>1141.2221679688</ele>
        <time>2013-09-28T08:31:01Z</time>
      </trkpt>
      <trkpt lat="42.83789" lon="1.4792">
        <ele>1141.7028808594</ele>
        <time>2013-09-28T08:31:03Z</time>
      </trkpt>
      <trkpt lat="42.83782" lon="1.47918">
        <ele>1136.4157714844</ele>
        <time>2013-09-28T08:31:08Z</time>
      </trkpt>
      <trkpt lat="42.83781" lon="1.47916">
        <ele>1135.4543457031</ele>
        <time>2013-09-28T08:31:10Z</time>
      </trkpt>
      <trkpt lat="42.83778" lon="1.47909">
        <ele>1133.5317382812</ele>
        <time>2013-09-28T08:31:14Z</time>
      </trkpt>
      <trkpt lat="42.83776" lon="1.47902">
        <ele>1132.08984375</ele>
        <time>2013-09-28T08:31:19Z</time>
      </trkpt>
      <trkpt lat="42.83774" lon="1.47895">
        <ele>1131.1284179688</ele>
        <time>2013-09-28T08:31:25Z</time>
      </trkpt>
      <trkpt lat="42.83774" lon="1.47892">
        <ele>1131.1284179688</ele>
        <time>2013-09-28T08:31:28Z</time>
      </trkpt>
      <trkpt lat="42.83773" lon="1.47881">
        <ele>1131.1284179688</ele>
        <time>2013-09-28T08:31:36Z</time>
      </trkpt>
      <trkpt lat="42.83773" lon="1.47875">
        <ele>1131.6088867188</ele>
        <time>2013-09-28T08:31:41Z</time>
      </trkpt>
      <trkpt lat="42.83773" lon="1.47866">
        <ele>1132.5705566406</ele>
        <time>2013-09-28T08:31:47Z</time>
      </trkpt>
      <trkpt lat="42.83769" lon="1.4786">
        <ele>1133.5317382812</ele>
        <time>2013-09-28T08:31:53Z</time>
      </trkpt>
      <trkpt lat="42.83767" lon="1.47852">
        <ele>1134.4931640625</ele>
        <time>2013-09-28T08:31:59Z</time>
      </trkpt>
      <trkpt lat="42.83765" lon="1.47849">
        <ele>1134.9738769531</ele>
        <time>2013-09-28T08:32:02Z</time>
      </trkpt>
      <trkpt lat="42.83759" lon="1.47841">
        <ele>1135.9350585938</ele>
        <time>2013-09-28T08:32:09Z</time>
      </trkpt>
      <trkpt lat="42.83757" lon="1.47834">
        <ele>1141.2221679688</ele>
        <time>2013-09-28T08:32:16Z</time>
      </trkpt>
      <trkpt lat="42.83756" lon="1.4783">
        <ele>1141.2221679688</ele>
        <time>2013-09-28T08:32:19Z</time>
      </trkpt>
      <trkpt lat="42.83757" lon="1.47825">
        <ele>1144.1062011719</ele>
        <time>2013-09-28T08:32:23Z</time>
      </trkpt>
      <trkpt lat="42.83756" lon="1.47822">
        <ele>1147.9514160156</ele>
        <time>2013-09-28T08:32:27Z</time>
      </trkpt>
      <trkpt lat="42.83758" lon="1.47818">
        <ele>1153.7194824219</ele>
        <time>2013-09-28T08:32:31Z</time>
      </trkpt>
      <trkpt lat="42.83755" lon="1.47813">
        <ele>1157.5646972656</ele>
        <time>2013-09-28T08:32:37Z</time>
      </trkpt>
      <trkpt lat="42.83753" lon="1.47811">
        <ele>1156.6032714844</ele>
        <time>2013-09-28T08:32:39Z</time>
      </trkpt>
      <trkpt lat="42.83752" lon="1.47808">
        <ele>1159.9677734375</ele>
        <time>2013-09-28T08:32:44Z</time>
      </trkpt>
      <trkpt lat="42.83753" lon="1.47801">
        <ele>1162.37109375</ele>
        <time>2013-09-28T08:32:50Z</time>
      </trkpt>
      <trkpt lat="42.83752" lon="1.47795">
        <ele>1162.37109375</ele>
        <time>2013-09-28T08:32:55Z</time>
      </trkpt>
      <trkpt lat="42.83752" lon="1.47792">
        <ele>1164.2939453125</ele>
        <time>2013-09-28T08:32:59Z</time>
      </trkpt>
      <trkpt lat="42.83753" lon="1.47786">
        <ele>1164.2939453125</ele>
        <time>2013-09-28T08:33:03Z</time>
      </trkpt>
      <trkpt lat="42.83752" lon="1.47785">
        <ele>1164.2939453125</ele>
        <time>2013-09-28T08:33:04Z</time>
      </trkpt>
      <trkpt lat="42.83747" lon="1.47778">
        <ele>1159.4873046875</ele>
        <time>2013-09-28T08:33:09Z</time>
      </trkpt>
      <trkpt lat="42.83743" lon="1.47773">
        <ele>1156.6032714844</ele>
        <time>2013-09-28T08:33:13Z</time>
      </trkpt>
      <trkpt lat="42.83739" lon="1.47768">
        <ele>1157.083984375</ele>
        <time>2013-09-28T08:33:18Z</time>
      </trkpt>
      <trkpt lat="42.83735" lon="1.47762">
        <ele>1156.6032714844</ele>
        <time>2013-09-28T08:33:22Z</time>
      </trkpt>
      <trkpt lat="42.83735" lon="1.47759">
        <ele>1158.5258789062</ele>
        <time>2013-09-28T08:33:25Z</time>
      </trkpt>
      <trkpt lat="42.83735" lon="1.47755">
        <ele>1162.37109375</ele>
        <time>2013-09-28T08:33:29Z</time>
      </trkpt>
      <trkpt lat="42.83732" lon="1.47749">
        <ele>1163.8129882812</ele>
        <time>2013-09-28T08:33:35Z</time>
      </trkpt>
      <trkpt lat="42.83731" lon="1.47745">
        <ele>1164.2939453125</ele>
        <time>2013-09-28T08:33:39Z</time>
      </trkpt>
      <trkpt lat="42.83733" lon="1.47739">
        <ele>1168.1391601562</ele>
        <time>2013-09-28T08:33:45Z</time>
      </trkpt>
      <trkpt lat="42.83731" lon="1.47733">
        <ele>1168.1391601562</ele>
        <time>2013-09-28T08:33:50Z</time>
      </trkpt>
      <trkpt lat="42.83728" lon="1.47729">
        <ele>1167.1779785156</ele>
        <time>2013-09-28T08:33:54Z</time>
      </trkpt>
      <trkpt lat="42.83726" lon="1.47724">
        <ele>1165.2553710938</ele>
        <time>2013-09-28T08:33:58Z</time>
      </trkpt>
      <trkpt lat="42.83725" lon="1.47719">
        <ele>1167.6584472656</ele>
        <time>2013-09-28T08:34:02Z</time>
      </trkpt>
      <trkpt lat="42.83725" lon="1.47716">
        <ele>1169.1005859375</ele>
        <time>2013-09-28T08:34:05Z</time>
      </trkpt>
      <trkpt lat="42.83723" lon="1.47712">
        <ele>1171.0231933594</ele>
        <time>2013-09-28T08:34:09Z</time>
      </trkpt>
      <trkpt lat="42.83722" lon="1.47707">
        <ele>1172.9458007812</ele>
        <time>2013-09-28T08:34:13Z</time>
      </trkpt>
      <trkpt lat="42.83724" lon="1.47701">
        <ele>1176.791015625</ele>
        <time>2013-09-28T08:34:19Z</time>
      </trkpt>
      <trkpt lat="42.83723" lon="1.47698">
        <ele>1176.791015625</ele>
        <time>2013-09-28T08:34:22Z</time>
      </trkpt>
      <trkpt lat="42.8372" lon="1.47693">
        <ele>1178.7136230469</ele>
        <time>2013-09-28T08:34:28Z</time>
      </trkpt>
      <trkpt lat="42.83721" lon="1.47687">
        <ele>1180.6364746094</ele>
        <time>2013-09-28T08:34:32Z</time>
      </trkpt>
      <trkpt lat="42.83719" lon="1.47683">
        <ele>1182.0783691406</ele>
        <time>2013-09-28T08:34:36Z</time>
      </trkpt>
      <trkpt lat="42.83719" lon="1.47682">
        <ele>1182.0783691406</ele>
        <time>2013-09-28T08:34:37Z</time>
      </trkpt>
      <trkpt lat="42.83717" lon="1.47676">
        <ele>1185.9235839844</ele>
        <time>2013-09-28T08:34:43Z</time>
      </trkpt>
      <trkpt lat="42.83717" lon="1.47675">
        <ele>1186.404296875</ele>
        <time>2013-09-28T08:34:44Z</time>
      </trkpt>
      <trkpt lat="42.83721" lon="1.47672">
        <ele>1194.0947265625</ele>
        <time>2013-09-28T08:34:48Z</time>
      </trkpt>
      <trkpt lat="42.83718" lon="1.4767">
        <ele>1193.1333007812</ele>
        <time>2013-09-28T08:34:50Z</time>
      </trkpt>
      <trkpt lat="42.83717" lon="1.47665">
        <ele>1194.5751953125</ele>
        <time>2013-09-28T08:34:55Z</time>
      </trkpt>
      <trkpt lat="42.83714" lon="1.47661">
        <ele>1194.5751953125</ele>
        <time>2013-09-28T08:34:59Z</time>
      </trkpt>
      <trkpt lat="42.83712" lon="1.47657">
        <ele>1196.4982910156</ele>
        <time>2013-09-28T08:35:03Z</time>
      </trkpt>
      <trkpt lat="42.83709" lon="1.47653">
        <ele>1195.5366210938</ele>
        <time>2013-09-28T08:35:07Z</time>
      </trkpt>
      <trkpt lat="42.83704" lon="1.47648">
        <ele>1192.1721191406</ele>
        <time>2013-09-28T08:35:11Z</time>
      </trkpt>
      <trkpt lat="42.83699" lon="1.47642">
        <ele>1190.2495117188</ele>
        <time>2013-09-28T08:35:17Z</time>
      </trkpt>
      <trkpt lat="42.83696" lon="1.47637">
        <ele>1189.7687988281</ele>
        <time>2013-09-28T08:35:22Z</time>
      </trkpt>
      <trkpt lat="42.83693" lon="1.47633">
        <ele>1189.7687988281</ele>
        <time>2013-09-28T08:35:26Z</time>
      </trkpt>
      <trkpt lat="42.83686" lon="1.47624">
        <ele>1186.884765625</ele>
        <time>2013-09-28T08:35:32Z</time>
      </trkpt>
      <trkpt lat="42.83683" lon="1.47619">
        <ele>1186.404296875</ele>
        <time>2013-09-28T08:35:36Z</time>
      </trkpt>
      <trkpt lat="42.83678" lon="1.47611">
        <ele>1185.9235839844</ele>
        <time>2013-09-28T08:35:42Z</time>
      </trkpt>
      <trkpt lat="42.83677" lon="1.47609">
        <ele>1184.9624023438</ele>
        <time>2013-09-28T08:35:43Z</time>
      </trkpt>
      <trkpt lat="42.83672" lon="1.476">
        <ele>1186.884765625</ele>
        <time>2013-09-28T08:35:49Z</time>
      </trkpt>
      <trkpt lat="42.83667" lon="1.47589">
        <ele>1186.884765625</ele>
        <time>2013-09-28T08:35:57Z</time>
      </trkpt>
      <trkpt lat="42.83667" lon="1.47581">
        <ele>1189.2880859375</ele>
        <time>2013-09-28T08:36:03Z</time>
      </trkpt>
      <trkpt lat="42.83673" lon="1.47575">
        <ele>1202.2658691406</ele>
        <time>2013-09-28T08:36:09Z</time>
      </trkpt>
      <trkpt lat="42.83675" lon="1.4757">
        <ele>1208.0339355469</ele>
        <time>2013-09-28T08:36:14Z</time>
      </trkpt>
      <trkpt lat="42.83678" lon="1.47559">
        <ele>1216.6857910156</ele>
        <time>2013-09-28T08:36:22Z</time>
      </trkpt>
      <trkpt lat="42.8368" lon="1.47557">
        <ele>1219.0891113281</ele>
        <time>2013-09-28T08:36:24Z</time>
      </trkpt>
      <trkpt lat="42.83679" lon="1.47548">
        <ele>1219.0891113281</ele>
        <time>2013-09-28T08:36:29Z</time>
      </trkpt>
      <trkpt lat="42.83679" lon="1.47537">
        <ele>1215.724609375</ele>
        <time>2013-09-28T08:36:36Z</time>
      </trkpt>
      <trkpt lat="42.83677" lon="1.47536">
        <ele>1213.8017578125</ele>
        <time>2013-09-28T08:36:37Z</time>
      </trkpt>
      <trkpt lat="42.83665" lon="1.47523">
        <ele>1199.8627929688</ele>
        <time>2013-09-28T08:36:44Z</time>
      </trkpt>
      <trkpt lat="42.83662" lon="1.47516">
        <ele>1195.5366210938</ele>
        <time>2013-09-28T08:36:49Z</time>
      </trkpt>
      <trkpt lat="42.8366" lon="1.47512">
        <ele>1195.0559082031</ele>
        <time>2013-09-28T08:36:51Z</time>
      </trkpt>
      <trkpt lat="42.83656" lon="1.475">
        <ele>1192.6528320312</ele>
        <time>2013-09-28T08:36:58Z</time>
      </trkpt>
      <trkpt lat="42.83655" lon="1.47497">
        <ele>1193.1333007812</ele>
        <time>2013-09-28T08:37:00Z</time>
      </trkpt>
      <trkpt lat="42.83656" lon="1.47493">
        <ele>1193.1333007812</ele>
        <time>2013-09-28T08:37:03Z</time>
      </trkpt>
      <trkpt lat="42.83654" lon="1.47485">
        <ele>1194.0947265625</ele>
        <time>2013-09-28T08:37:09Z</time>
      </trkpt>
      <trkpt lat="42.83651" lon="1.47479">
        <ele>1194.0947265625</ele>
        <time>2013-09-28T08:37:13Z</time>
      </trkpt>
      <trkpt lat="42.83648" lon="1.47472">
        <ele>1194.5751953125</ele>
        <time>2013-09-28T08:37:19Z</time>
      </trkpt>
      <trkpt lat="42.83649" lon="1.4747">
        <ele>1195.0559082031</ele>
        <time>2013-09-28T08:37:21Z</time>
      </trkpt>
      <trkpt lat="42.83649" lon="1.47468">
        <ele>1194.5751953125</ele>
        <time>2013-09-28T08:37:23Z</time>
      </trkpt>
      <trkpt lat="42.83648" lon="1.47459">
        <ele>1196.4982910156</ele>
        <time>2013-09-28T08:37:30Z</time>
      </trkpt>
      <trkpt lat="42.83648" lon="1.47456">
        <ele>1199.3820800781</ele>
        <time>2013-09-28T08:37:34Z</time>
      </trkpt>
      <trkpt lat="42.83649" lon="1.47447">
        <ele>1199.3820800781</ele>
        <time>2013-09-28T08:37:40Z</time>
      </trkpt>
      <trkpt lat="42.83649" lon="1.47445">
        <ele>1200.3435058594</ele>
        <time>2013-09-28T08:37:42Z</time>
      </trkpt>
      <trkpt lat="42.83648" lon="1.47438">
        <ele>1204.1887207031</ele>
        <time>2013-09-28T08:37:48Z</time>
      </trkpt>
      <trkpt lat="42.83647" lon="1.47432">
        <ele>1206.591796875</ele>
        <time>2013-09-28T08:37:53Z</time>
      </trkpt>
      <trkpt lat="42.83649" lon="1.47428">
        <ele>1208.0339355469</ele>
        <time>2013-09-28T08:37:56Z</time>
      </trkpt>
      <trkpt lat="42.83643" lon="1.47422">
        <ele>1210.4370117188</ele>
        <time>2013-09-28T08:38:02Z</time>
      </trkpt>
      <trkpt lat="42.83641" lon="1.47418">
        <ele>1212.3598632812</ele>
        <time>2013-09-28T08:38:06Z</time>
      </trkpt>
      <trkpt lat="42.83637" lon="1.47412">
        <ele>1215.2438964844</ele>
        <time>2013-09-28T08:38:11Z</time>
      </trkpt>
      <trkpt lat="42.83632" lon="1.47406">
        <ele>1213.3212890625</ele>
        <time>2013-09-28T08:38:15Z</time>
      </trkpt>
      <trkpt lat="42.83631" lon="1.47402">
        <ele>1213.8017578125</ele>
        <time>2013-09-28T08:38:19Z</time>
      </trkpt>
      <trkpt lat="42.8363" lon="1.47398">
        <ele>1213.8017578125</ele>
        <time>2013-09-28T08:38:22Z</time>
      </trkpt>
      <trkpt lat="42.83628" lon="1.4739">
        <ele>1214.7631835938</ele>
        <time>2013-09-28T08:38:28Z</time>
      </trkpt>
      <trkpt lat="42.83625" lon="1.47386">
        <ele>1214.7631835938</ele>
        <time>2013-09-28T08:38:32Z</time>
      </trkpt>
      <trkpt lat="42.83625" lon="1.47378">
        <ele>1215.724609375</ele>
        <time>2013-09-28T08:38:38Z</time>
      </trkpt>
      <trkpt lat="42.83622" lon="1.47368">
        <ele>1218.6083984375</ele>
        <time>2013-09-28T08:38:46Z</time>
      </trkpt>
      <trkpt lat="42.8362" lon="1.47363">
        <ele>1220.0502929688</ele>
        <time>2013-09-28T08:38:50Z</time>
      </trkpt>
      <trkpt lat="42.83618" lon="1.47357">
        <ele>1221.9729003906</ele>
        <time>2013-09-28T08:38:57Z</time>
      </trkpt>
      <trkpt lat="42.8362" lon="1.47354">
        <ele>1224.8569335938</ele>
        <time>2013-09-28T08:39:00Z</time>
      </trkpt>
      <trkpt lat="42.83621" lon="1.47351">
        <ele>1226.7795410156</ele>
        <time>2013-09-28T08:39:04Z</time>
      </trkpt>
      <trkpt lat="42.83618" lon="1.47344">
        <ele>1225.8181152344</ele>
        <time>2013-09-28T08:39:10Z</time>
      </trkpt>
      <trkpt lat="42.83617" lon="1.47339">
        <ele>1226.7795410156</ele>
        <time>2013-09-28T08:39:15Z</time>
      </trkpt>
      <trkpt lat="42.83614" lon="1.47333">
        <ele>1225.8181152344</ele>
        <time>2013-09-28T08:39:20Z</time>
      </trkpt>
      <trkpt lat="42.83611" lon="1.47328">
        <ele>1224.3762207031</ele>
        <time>2013-09-28T08:39:25Z</time>
      </trkpt>
      <trkpt lat="42.8361" lon="1.47324">
        <ele>1224.3762207031</ele>
        <time>2013-09-28T08:39:29Z</time>
      </trkpt>
      <trkpt lat="42.83608" lon="1.47318">
        <ele>1225.8181152344</ele>
        <time>2013-09-28T08:39:34Z</time>
      </trkpt>
      <trkpt lat="42.83607" lon="1.47314">
        <ele>1226.7795410156</ele>
        <time>2013-09-28T08:39:38Z</time>
      </trkpt>
      <trkpt lat="42.83608" lon="1.4731">
        <ele>1229.6635742188</ele>
        <time>2013-09-28T08:39:42Z</time>
      </trkpt>
      <trkpt lat="42.83604" lon="1.47303">
        <ele>1229.1828613281</ele>
        <time>2013-09-28T08:39:47Z</time>
      </trkpt>
      <trkpt lat="42.83599" lon="1.47295">
        <ele>1229.6635742188</ele>
        <time>2013-09-28T08:39:54Z</time>
      </trkpt>
      <trkpt lat="42.83599" lon="1.47293">
        <ele>1230.625</ele>
        <time>2013-09-28T08:39:56Z</time>
      </trkpt>
      <trkpt lat="42.836" lon="1.4729">
        <ele>1233.0280761719</ele>
        <time>2013-09-28T08:39:58Z</time>
      </trkpt>
      <trkpt lat="42.83599" lon="1.47286">
        <ele>1233.9895019531</ele>
        <time>2013-09-28T08:40:03Z</time>
      </trkpt>
      <trkpt lat="42.83597" lon="1.47285">
        <ele>1234.4702148438</ele>
        <time>2013-09-28T08:40:07Z</time>
      </trkpt>
      <trkpt lat="42.83593" lon="1.47284">
        <ele>1233.9895019531</ele>
        <time>2013-09-28T08:40:11Z</time>
      </trkpt>
      <trkpt lat="42.83591" lon="1.47284">
        <ele>1234.4702148438</ele>
        <time>2013-09-28T08:40:15Z</time>
      </trkpt>
      <trkpt lat="42.8359" lon="1.47285">
        <ele>1236.8732910156</ele>
        <time>2013-09-28T08:40:19Z</time>
      </trkpt>
      <trkpt lat="42.83586" lon="1.47285">
        <ele>1237.3540039062</ele>
        <time>2013-09-28T08:40:24Z</time>
      </trkpt>
      <trkpt lat="42.83584" lon="1.47283">
        <ele>1237.8347167969</ele>
        <time>2013-09-28T08:40:30Z</time>
      </trkpt>
      <trkpt lat="42.8358" lon="1.47281">
        <ele>1237.8347167969</ele>
        <time>2013-09-28T08:40:34Z</time>
      </trkpt>
      <trkpt lat="42.83575" lon="1.47279">
        <ele>1238.7961425781</ele>
        <time>2013-09-28T08:40:41Z</time>
      </trkpt>
      <trkpt lat="42.83572" lon="1.47277">
        <ele>1244.5639648438</ele>
        <time>2013-09-28T08:40:51Z</time>
      </trkpt>
      <trkpt lat="42.8357" lon="1.47274">
        <ele>1248.4091796875</ele>
        <time>2013-09-28T08:40:54Z</time>
      </trkpt>
      <trkpt lat="42.83571" lon="1.47264">
        <ele>1254.6577148438</ele>
        <time>2013-09-28T08:41:00Z</time>
      </trkpt>
      <trkpt lat="42.83577" lon="1.47258">
        <ele>1254.1772460938</ele>
        <time>2013-09-28T08:41:06Z</time>
      </trkpt>
      <trkpt lat="42.83585" lon="1.47253">
        <ele>1261.8679199219</ele>
        <time>2013-09-28T08:41:11Z</time>
      </trkpt>
      <trkpt lat="42.83584" lon="1.4725">
        <ele>1261.8679199219</ele>
        <time>2013-09-28T08:41:14Z</time>
      </trkpt>
      <trkpt lat="42.83574" lon="1.47243">
        <ele>1255.619140625</ele>
        <time>2013-09-28T08:41:20Z</time>
      </trkpt>
      <trkpt lat="42.83569" lon="1.4724">
        <ele>1251.2932128906</ele>
        <time>2013-09-28T08:41:25Z</time>
      </trkpt>
      <trkpt lat="42.8357" lon="1.47233">
        <ele>1256.099609375</ele>
        <time>2013-09-28T08:41:36Z</time>
      </trkpt>
      <trkpt lat="42.8357" lon="1.47231">
        <ele>1255.1384277344</ele>
        <time>2013-09-28T08:41:38Z</time>
      </trkpt>
      <trkpt lat="42.83567" lon="1.47224">
        <ele>1250.33203125</ele>
        <time>2013-09-28T08:41:43Z</time>
      </trkpt>
      <trkpt lat="42.83566" lon="1.4722">
        <ele>1251.2932128906</ele>
        <time>2013-09-28T08:41:48Z</time>
      </trkpt>
      <trkpt lat="42.83561" lon="1.47214">
        <ele>1250.33203125</ele>
        <time>2013-09-28T08:41:55Z</time>
      </trkpt>
      <trkpt lat="42.83558" lon="1.47211">
        <ele>1251.2932128906</ele>
        <time>2013-09-28T08:42:00Z</time>
      </trkpt>
      <trkpt lat="42.83554" lon="1.47211">
        <ele>1253.2158203125</ele>
        <time>2013-09-28T08:42:05Z</time>
      </trkpt>
      <trkpt lat="42.83542" lon="1.47207">
        <ele>1258.5029296875</ele>
        <time>2013-09-28T08:42:22Z</time>
      </trkpt>
      <trkpt lat="42.83525" lon="1.47213">
        <ele>1258.9836425781</ele>
        <time>2013-09-28T08:42:40Z</time>
      </trkpt>
      <trkpt lat="42.83523" lon="1.47208">
        <ele>1261.8679199219</ele>
        <time>2013-09-28T08:42:46Z</time>
      </trkpt>
      <trkpt lat="42.83514" lon="1.47201">
        <ele>1272.9228515625</ele>
        <time>2013-09-28T08:43:06Z</time>
      </trkpt>
      <trkpt lat="42.83509" lon="1.47198">
        <ele>1271.4807128906</ele>
        <time>2013-09-28T08:43:12Z</time>
      </trkpt>
      <trkpt lat="42.83507" lon="1.47193">
        <ele>1272.9228515625</ele>
        <time>2013-09-28T08:43:18Z</time>
      </trkpt>
      <trkpt lat="42.83506" lon="1.47189">
        <ele>1274.8454589844</ele>
        <time>2013-09-28T08:43:22Z</time>
      </trkpt>
      <trkpt lat="42.835" lon="1.47186">
        <ele>1277.2490234375</ele>
        <time>2013-09-28T08:43:28Z</time>
      </trkpt>
      <trkpt lat="42.83482" lon="1.47177">
        <ele>1274.8454589844</ele>
        <time>2013-09-28T08:43:45Z</time>
      </trkpt>
      <trkpt lat="42.8347" lon="1.4717">
        <ele>1271.9614257812</ele>
        <time>2013-09-28T08:43:55Z</time>
      </trkpt>
      <trkpt lat="42.83468" lon="1.47168">
        <ele>1270.51953125</ele>
        <time>2013-09-28T08:43:57Z</time>
      </trkpt>
      <trkpt lat="42.83457" lon="1.47162">
        <ele>1266.6743164062</ele>
        <time>2013-09-28T08:44:04Z</time>
      </trkpt>
      <trkpt lat="42.8343" lon="1.47142">
        <ele>1264.7517089844</ele>
        <time>2013-09-28T08:44:39Z</time>
      </trkpt>
      <trkpt lat="42.83421" lon="1.47139">
        <ele>1267.1550292969</ele>
        <time>2013-09-28T08:44:51Z</time>
      </trkpt>
      <trkpt lat="42.83418" lon="1.47133">
        <ele>1269.0776367188</ele>
        <time>2013-09-28T08:44:56Z</time>
      </trkpt>
      <trkpt lat="42.83416" lon="1.47133">
        <ele>1268.5969238281</ele>
        <time>2013-09-28T08:44:58Z</time>
      </trkpt>
      <trkpt lat="42.83411" lon="1.47128">
        <ele>1268.5969238281</ele>
        <time>2013-09-28T08:45:04Z</time>
      </trkpt>
      <trkpt lat="42.83408" lon="1.47125">
        <ele>1268.5969238281</ele>
        <time>2013-09-28T08:45:08Z</time>
      </trkpt>
      <trkpt lat="42.83404" lon="1.47118">
        <ele>1269.5583496094</ele>
        <time>2013-09-28T08:45:14Z</time>
      </trkpt>
      <trkpt lat="42.83402" lon="1.47115">
        <ele>1271.9614257812</ele>
        <time>2013-09-28T08:45:18Z</time>
      </trkpt>
      <trkpt lat="42.83401" lon="1.47111">
        <ele>1272.9228515625</ele>
        <time>2013-09-28T08:45:22Z</time>
      </trkpt>
      <trkpt lat="42.83398" lon="1.47105">
        <ele>1274.8454589844</ele>
        <time>2013-09-28T08:45:28Z</time>
      </trkpt>
      <trkpt lat="42.83389" lon="1.47102">
        <ele>1275.3259277344</ele>
        <time>2013-09-28T08:45:34Z</time>
      </trkpt>
      <trkpt lat="42.83384" lon="1.47105">
        <ele>1279.6520996094</ele>
        <time>2013-09-28T08:45:40Z</time>
      </trkpt>
      <trkpt lat="42.83377" lon="1.47107">
        <ele>1279.1713867188</ele>
        <time>2013-09-28T08:45:46Z</time>
      </trkpt>
      <trkpt lat="42.83372" lon="1.47108">
        <ele>1278.6909179688</ele>
        <time>2013-09-28T08:45:50Z</time>
      </trkpt>
      <trkpt lat="42.83369" lon="1.47111">
        <ele>1280.6135253906</ele>
        <time>2013-09-28T08:45:54Z</time>
      </trkpt>
      <trkpt lat="42.83366" lon="1.47113">
        <ele>1282.5361328125</ele>
        <time>2013-09-28T08:45:58Z</time>
      </trkpt>
      <trkpt lat="42.83358" lon="1.47112">
        <ele>1281.5747070312</ele>
        <time>2013-09-28T08:46:02Z</time>
      </trkpt>
      <trkpt lat="42.83352" lon="1.4711">
        <ele>1280.1328125</ele>
        <time>2013-09-28T08:46:07Z</time>
      </trkpt>
      <trkpt lat="42.83339" lon="1.47101">
        <ele>1279.1713867188</ele>
        <time>2013-09-28T08:46:17Z</time>
      </trkpt>
      <trkpt lat="42.83337" lon="1.47096">
        <ele>1279.1713867188</ele>
        <time>2013-09-28T08:46:22Z</time>
      </trkpt>
      <trkpt lat="42.83335" lon="1.47086">
        <ele>1282.0554199219</ele>
        <time>2013-09-28T08:46:35Z</time>
      </trkpt>
      <trkpt lat="42.83334" lon="1.47083">
        <ele>1284.939453125</ele>
        <time>2013-09-28T08:46:40Z</time>
      </trkpt>
      <trkpt lat="42.83324" lon="1.47075">
        <ele>1288.3039550781</ele>
        <time>2013-09-28T08:46:57Z</time>
      </trkpt>
      <trkpt lat="42.83321" lon="1.47074">
        <ele>1294.0720214844</ele>
        <time>2013-09-28T08:47:05Z</time>
      </trkpt>
      <trkpt lat="42.83316" lon="1.47068">
        <ele>1299.83984375</ele>
        <time>2013-09-28T08:47:14Z</time>
      </trkpt>
      <trkpt lat="42.83273" lon="1.47041">
        <ele>1297.9172363281</ele>
        <time>2013-09-28T08:47:46Z</time>
      </trkpt>
      <trkpt lat="42.8327" lon="1.47039">
        <ele>1297.9172363281</ele>
        <time>2013-09-28T08:47:51Z</time>
      </trkpt>
      <trkpt lat="42.83258" lon="1.47035">
        <ele>1298.3977050781</ele>
        <time>2013-09-28T08:48:06Z</time>
      </trkpt>
      <trkpt lat="42.83254" lon="1.47031">
        <ele>1297.4365234375</ele>
        <time>2013-09-28T08:48:12Z</time>
      </trkpt>
      <trkpt lat="42.83255" lon="1.47027">
        <ele>1297.4365234375</ele>
        <time>2013-09-28T08:48:16Z</time>
      </trkpt>
      <trkpt lat="42.83258" lon="1.47023">
        <ele>1298.8784179688</ele>
        <time>2013-09-28T08:48:20Z</time>
      </trkpt>
      <trkpt lat="42.83258" lon="1.47019">
        <ele>1300.8010253906</ele>
        <time>2013-09-28T08:48:26Z</time>
      </trkpt>
      <trkpt lat="42.83255" lon="1.47017">
        <ele>1300.8010253906</ele>
        <time>2013-09-28T08:48:31Z</time>
      </trkpt>
      <trkpt lat="42.83252" lon="1.47013">
        <ele>1302.2429199219</ele>
        <time>2013-09-28T08:48:36Z</time>
      </trkpt>
      <trkpt lat="42.83249" lon="1.47014">
        <ele>1304.6462402344</ele>
        <time>2013-09-28T08:48:40Z</time>
      </trkpt>
      <trkpt lat="42.83247" lon="1.47012">
        <ele>1306.0881347656</ele>
        <time>2013-09-28T08:48:44Z</time>
      </trkpt>
      <trkpt lat="42.83245" lon="1.47012">
        <ele>1308.4916992188</ele>
        <time>2013-09-28T08:48:48Z</time>
      </trkpt>
      <trkpt lat="42.83244" lon="1.47007">
        <ele>1308.9724121094</ele>
        <time>2013-09-28T08:48:53Z</time>
      </trkpt>
      <trkpt lat="42.83241" lon="1.47006">
        <ele>1310.4143066406</ele>
        <time>2013-09-28T08:48:58Z</time>
      </trkpt>
      <trkpt lat="42.83239" lon="1.4701">
        <ele>1317.1435546875</ele>
        <time>2013-09-28T08:49:05Z</time>
      </trkpt>
      <trkpt lat="42.83238" lon="1.47008">
        <ele>1318.5854492188</ele>
        <time>2013-09-28T08:49:11Z</time>
      </trkpt>
      <trkpt lat="42.83234" lon="1.47007">
        <ele>1321.4692382812</ele>
        <time>2013-09-28T08:49:19Z</time>
      </trkpt>
      <trkpt lat="42.83226" lon="1.47008">
        <ele>1320.02734375</ele>
        <time>2013-09-28T08:49:27Z</time>
      </trkpt>
      <trkpt lat="42.83212" lon="1.47002">
        <ele>1325.3146972656</ele>
        <time>2013-09-28T08:49:49Z</time>
      </trkpt>
      <trkpt lat="42.8321" lon="1.47001">
        <ele>1327.7180175781</ele>
        <time>2013-09-28T08:49:53Z</time>
      </trkpt>
      <trkpt lat="42.83207" lon="1.46999">
        <ele>1328.6794433594</ele>
        <time>2013-09-28T08:49:56Z</time>
      </trkpt>
      <trkpt lat="42.83203" lon="1.46996">
        <ele>1329.640625</ele>
        <time>2013-09-28T08:50:03Z</time>
      </trkpt>
      <trkpt lat="42.83197" lon="1.46993">
        <ele>1326.2761230469</ele>
        <time>2013-09-28T08:50:12Z</time>
      </trkpt>
      <trkpt lat="42.83194" lon="1.46987">
        <ele>1325.3146972656</ele>
        <time>2013-09-28T08:50:17Z</time>
      </trkpt>
      <trkpt lat="42.83191" lon="1.46988">
        <ele>1326.7568359375</ele>
        <time>2013-09-28T08:50:22Z</time>
      </trkpt>
      <trkpt lat="42.8318" lon="1.46979">
        <ele>1326.2761230469</ele>
        <time>2013-09-28T08:50:34Z</time>
      </trkpt>
      <trkpt lat="42.83177" lon="1.46971">
        <ele>1325.3146972656</ele>
        <time>2013-09-28T08:50:41Z</time>
      </trkpt>
      <trkpt lat="42.83174" lon="1.46969">
        <ele>1326.2761230469</ele>
        <time>2013-09-28T08:50:45Z</time>
      </trkpt>
      <trkpt lat="42.83171" lon="1.46969">
        <ele>1327.7180175781</ele>
        <time>2013-09-28T08:50:48Z</time>
      </trkpt>
      <trkpt lat="42.83169" lon="1.46966">
        <ele>1328.1987304688</ele>
        <time>2013-09-28T08:50:55Z</time>
      </trkpt>
      <trkpt lat="42.83168" lon="1.46962">
        <ele>1344.060546875</ele>
        <time>2013-09-28T08:51:26Z</time>
      </trkpt>
      <trkpt lat="42.83163" lon="1.46963">
        <ele>1344.541015625</ele>
        <time>2013-09-28T08:51:31Z</time>
      </trkpt>
      <trkpt lat="42.83157" lon="1.46962">
        <ele>1345.5024414062</ele>
        <time>2013-09-28T08:51:36Z</time>
      </trkpt>
      <trkpt lat="42.83137" lon="1.46955">
        <ele>1344.060546875</ele>
        <time>2013-09-28T08:52:03Z</time>
      </trkpt>
      <trkpt lat="42.83134" lon="1.46958">
        <ele>1345.9831542969</ele>
        <time>2013-09-28T08:52:09Z</time>
      </trkpt>
      <trkpt lat="42.83131" lon="1.46958">
        <ele>1346.9443359375</ele>
        <time>2013-09-28T08:52:15Z</time>
      </trkpt>
      <trkpt lat="42.83126" lon="1.46961">
        <ele>1347.4250488281</ele>
        <time>2013-09-28T08:52:23Z</time>
      </trkpt>
      <trkpt lat="42.83118" lon="1.46961">
        <ele>1348.8669433594</ele>
        <time>2013-09-28T08:52:32Z</time>
      </trkpt>
      <trkpt lat="42.83113" lon="1.46957">
        <ele>1356.0769042969</ele>
        <time>2013-09-28T08:52:55Z</time>
      </trkpt>
      <trkpt lat="42.83112" lon="1.46952">
        <ele>1357.5190429688</ele>
        <time>2013-09-28T08:53:02Z</time>
      </trkpt>
      <trkpt lat="42.83106" lon="1.46951">
        <ele>1358.9609375</ele>
        <time>2013-09-28T08:53:10Z</time>
      </trkpt>
      <trkpt lat="42.83101" lon="1.46952">
        <ele>1360.8835449219</ele>
        <time>2013-09-28T08:53:20Z</time>
      </trkpt>
      <trkpt lat="42.83092" lon="1.46953">
        <ele>1360.8835449219</ele>
        <time>2013-09-28T08:53:31Z</time>
      </trkpt>
      <trkpt lat="42.83083" lon="1.46955">
        <ele>1370.4965820312</ele>
        <time>2013-09-28T08:54:00Z</time>
      </trkpt>
      <trkpt lat="42.83083" lon="1.46951">
        <ele>1375.3032226562</ele>
        <time>2013-09-28T08:54:08Z</time>
      </trkpt>
      <trkpt lat="42.83073" lon="1.46958">
        <ele>1380.1098632812</ele>
        <time>2013-09-28T08:54:30Z</time>
      </trkpt>
      <trkpt lat="42.83072" lon="1.46959">
        <ele>1383.4743652344</ele>
        <time>2013-09-28T08:54:36Z</time>
      </trkpt>
      <trkpt lat="42.83065" lon="1.46961">
        <ele>1386.8388671875</ele>
        <time>2013-09-28T08:54:53Z</time>
      </trkpt>
      <trkpt lat="42.83064" lon="1.46966">
        <ele>1388.28125</ele>
        <time>2013-09-28T08:54:59Z</time>
      </trkpt>
      <trkpt lat="42.83064" lon="1.4697">
        <ele>1388.7619628906</ele>
        <time>2013-09-28T08:55:05Z</time>
      </trkpt>
      <trkpt lat="42.83064" lon="1.46979">
        <ele>1389.2424316406</ele>
        <time>2013-09-28T08:55:13Z</time>
      </trkpt>
      <trkpt lat="42.83062" lon="1.46982">
        <ele>1390.2038574219</ele>
        <time>2013-09-28T08:55:18Z</time>
      </trkpt>
      <trkpt lat="42.8306" lon="1.46983">
        <ele>1391.6457519531</ele>
        <time>2013-09-28T08:55:23Z</time>
      </trkpt>
      <trkpt lat="42.83057" lon="1.46988">
        <ele>1394.0490722656</ele>
        <time>2013-09-28T08:55:31Z</time>
      </trkpt>
      <trkpt lat="42.83054" lon="1.46992">
        <ele>1395.4909667969</ele>
        <time>2013-09-28T08:55:37Z</time>
      </trkpt>
      <trkpt lat="42.83053" lon="1.46994">
        <ele>1395.9716796875</ele>
        <time>2013-09-28T08:55:41Z</time>
      </trkpt>
      <trkpt lat="42.8305" lon="1.46993">
        <ele>1397.4135742188</ele>
        <time>2013-09-28T08:55:48Z</time>
      </trkpt>
      <trkpt lat="42.83046" lon="1.46993">
        <ele>1397.8942871094</ele>
        <time>2013-09-28T08:55:54Z</time>
      </trkpt>
      <trkpt lat="42.83043" lon="1.47005">
        <ele>1417.1206054688</ele>
        <time>2013-09-28T08:56:38Z</time>
      </trkpt>
      <trkpt lat="42.83042" lon="1.47013">
        <ele>1420.4853515625</ele>
        <time>2013-09-28T08:56:46Z</time>
      </trkpt>
      <trkpt lat="42.83038" lon="1.47026">
        <ele>1420.4853515625</ele>
        <time>2013-09-28T08:57:04Z</time>
      </trkpt>
      <trkpt lat="42.83035" lon="1.47031">
        <ele>1420.9660644531</ele>
        <time>2013-09-28T08:57:11Z</time>
      </trkpt>
      <trkpt lat="42.83032" lon="1.47037">
        <ele>1421.9272460938</ele>
        <time>2013-09-28T08:57:21Z</time>
      </trkpt>
      <trkpt lat="42.8303" lon="1.4704">
        <ele>1422.888671875</ele>
        <time>2013-09-28T08:57:25Z</time>
      </trkpt>
      <trkpt lat="42.83029" lon="1.47043">
        <ele>1423.8498535156</ele>
        <time>2013-09-28T08:57:31Z</time>
      </trkpt>
      <trkpt lat="42.83026" lon="1.47043">
        <ele>1424.3305664062</ele>
        <time>2013-09-28T08:57:37Z</time>
      </trkpt>
      <trkpt lat="42.83025" lon="1.47037">
        <ele>1426.7338867188</ele>
        <time>2013-09-28T08:57:50Z</time>
      </trkpt>
      <trkpt lat="42.83001" lon="1.47033">
        <ele>1427.6950683594</ele>
        <time>2013-09-28T08:58:27Z</time>
      </trkpt>
      <trkpt lat="42.82996" lon="1.47038">
        <ele>1432.5017089844</ele>
        <time>2013-09-28T08:58:39Z</time>
      </trkpt>
      <trkpt lat="42.82994" lon="1.47039">
        <ele>1435.3854980469</ele>
        <time>2013-09-28T08:58:49Z</time>
      </trkpt>
      <trkpt lat="42.8299" lon="1.47037">
        <ele>1439.2309570312</ele>
        <time>2013-09-28T08:59:04Z</time>
      </trkpt>
      <trkpt lat="42.82979" lon="1.47039">
        <ele>1441.6342773438</ele>
        <time>2013-09-28T08:59:25Z</time>
      </trkpt>
      <trkpt lat="42.82978" lon="1.47043">
        <ele>1447.8828125</ele>
        <time>2013-09-28T08:59:39Z</time>
      </trkpt>
      <trkpt lat="42.82975" lon="1.47046">
        <ele>1449.8054199219</ele>
        <time>2013-09-28T08:59:44Z</time>
      </trkpt>
      <trkpt lat="42.82973" lon="1.47051">
        <ele>1450.2861328125</ele>
        <time>2013-09-28T08:59:49Z</time>
      </trkpt>
      <trkpt lat="42.82973" lon="1.47055">
        <ele>1450.2861328125</ele>
        <time>2013-09-28T08:59:53Z</time>
      </trkpt>
      <trkpt lat="42.82972" lon="1.47059">
        <ele>1453.1701660156</ele>
        <time>2013-09-28T09:00:00Z</time>
      </trkpt>
      <trkpt lat="42.8297" lon="1.47059">
        <ele>1453.6508789062</ele>
        <time>2013-09-28T09:00:02Z</time>
      </trkpt>
      <trkpt lat="42.82968" lon="1.47063">
        <ele>1455.0927734375</ele>
        <time>2013-09-28T09:00:08Z</time>
      </trkpt>
      <trkpt lat="42.82968" lon="1.47073">
        <ele>1459.8991699219</ele>
        <time>2013-09-28T09:00:24Z</time>
      </trkpt>
      <trkpt lat="42.82969" lon="1.47077">
        <ele>1461.8220214844</ele>
        <time>2013-09-28T09:00:28Z</time>
      </trkpt>
      <trkpt lat="42.82973" lon="1.47086">
        <ele>1461.8220214844</ele>
        <time>2013-09-28T09:00:44Z</time>
      </trkpt>
      <trkpt lat="42.82977" lon="1.47091">
        <ele>1464.7058105469</ele>
        <time>2013-09-28T09:00:49Z</time>
      </trkpt>
      <trkpt lat="42.82978" lon="1.47095">
        <ele>1466.1477050781</ele>
        <time>2013-09-28T09:00:53Z</time>
      </trkpt>
      <trkpt lat="42.82978" lon="1.47099">
        <ele>1466.1477050781</ele>
        <time>2013-09-28T09:00:57Z</time>
      </trkpt>
      <trkpt lat="42.82977" lon="1.47102">
        <ele>1467.1091308594</ele>
        <time>2013-09-28T09:01:03Z</time>
      </trkpt>
      <trkpt lat="42.82977" lon="1.47108">
        <ele>1466.6284179688</ele>
        <time>2013-09-28T09:01:10Z</time>
      </trkpt>
      <trkpt lat="42.82979" lon="1.47113">
        <ele>1467.1091308594</ele>
        <time>2013-09-28T09:01:15Z</time>
      </trkpt>
      <trkpt lat="42.8298" lon="1.47118">
        <ele>1466.1477050781</ele>
        <time>2013-09-28T09:01:19Z</time>
      </trkpt>
      <trkpt lat="42.82979" lon="1.47124">
        <ele>1467.1091308594</ele>
        <time>2013-09-28T09:01:25Z</time>
      </trkpt>
      <trkpt lat="42.82981" lon="1.47126">
        <ele>1468.0705566406</ele>
        <time>2013-09-28T09:01:27Z</time>
      </trkpt>
      <trkpt lat="42.82984" lon="1.47133">
        <ele>1469.5126953125</ele>
        <time>2013-09-28T09:01:33Z</time>
      </trkpt>
      <trkpt lat="42.82982" lon="1.47141">
        <ele>1468.0705566406</ele>
        <time>2013-09-28T09:01:39Z</time>
      </trkpt>
      <trkpt lat="42.82982" lon="1.47145">
        <ele>1469.0319824219</ele>
        <time>2013-09-28T09:01:43Z</time>
      </trkpt>
      <trkpt lat="42.82983" lon="1.4715">
        <ele>1470.4738769531</ele>
        <time>2013-09-28T09:01:49Z</time>
      </trkpt>
      <trkpt lat="42.82983" lon="1.47153">
        <ele>1471.4350585938</ele>
        <time>2013-09-28T09:01:53Z</time>
      </trkpt>
      <trkpt lat="42.82985" lon="1.4716">
        <ele>1476.7224121094</ele>
        <time>2013-09-28T09:02:06Z</time>
      </trkpt>
      <trkpt lat="42.82991" lon="1.47164">
        <ele>1478.1643066406</ele>
        <time>2013-09-28T09:02:12Z</time>
      </trkpt>
      <trkpt lat="42.82992" lon="1.47164">
        <ele>1478.6450195312</ele>
        <time>2013-09-28T09:02:13Z</time>
      </trkpt>
      <trkpt lat="42.82996" lon="1.47166">
        <ele>1479.6062011719</ele>
        <time>2013-09-28T09:02:17Z</time>
      </trkpt>
      <trkpt lat="42.82996" lon="1.47172">
        <ele>1480.0869140625</ele>
        <time>2013-09-28T09:02:24Z</time>
      </trkpt>
      <trkpt lat="42.82992" lon="1.47174">
        <ele>1478.6450195312</ele>
        <time>2013-09-28T09:02:29Z</time>
      </trkpt>
      <trkpt lat="42.8299" lon="1.47176">
        <ele>1481.0483398438</ele>
        <time>2013-09-28T09:02:38Z</time>
      </trkpt>
      <trkpt lat="42.82983" lon="1.4718">
        <ele>1479.6062011719</ele>
        <time>2013-09-28T09:02:45Z</time>
      </trkpt>
      <trkpt lat="42.8298" lon="1.4718">
        <ele>1480.0869140625</ele>
        <time>2013-09-28T09:02:51Z</time>
      </trkpt>
      <trkpt lat="42.8298" lon="1.47179">
        <ele>1482.490234375</ele>
        <time>2013-09-28T09:02:55Z</time>
      </trkpt>
      <trkpt lat="42.82977" lon="1.47179">
        <ele>1483.4514160156</ele>
        <time>2013-09-28T09:02:59Z</time>
      </trkpt>
      <trkpt lat="42.82972" lon="1.47172">
        <ele>1483.4514160156</ele>
        <time>2013-09-28T09:03:15Z</time>
      </trkpt>
      <trkpt lat="42.82969" lon="1.47172">
        <ele>1485.3742675781</ele>
        <time>2013-09-28T09:03:21Z</time>
      </trkpt>
      <trkpt lat="42.82962" lon="1.47164">
        <ele>1483.9321289062</ele>
        <time>2013-09-28T09:04:05Z</time>
      </trkpt>
      <trkpt lat="42.82957" lon="1.47163">
        <ele>1492.5842285156</ele>
        <time>2013-09-28T09:04:27Z</time>
      </trkpt>
      <trkpt lat="42.82954" lon="1.47164">
        <ele>1493.0646972656</ele>
        <time>2013-09-28T09:04:33Z</time>
      </trkpt>
      <trkpt lat="42.82944" lon="1.47172">
        <ele>1498.8325195312</ele>
        <time>2013-09-28T09:05:02Z</time>
      </trkpt>
      <trkpt lat="42.82929" lon="1.47163">
        <ele>1497.8713378906</ele>
        <time>2013-09-28T09:05:25Z</time>
      </trkpt>
      <trkpt lat="42.82924" lon="1.47161">
        <ele>1498.8325195312</ele>
        <time>2013-09-28T09:05:33Z</time>
      </trkpt>
      <trkpt lat="42.8292" lon="1.47159">
        <ele>1499.3132324219</ele>
        <time>2013-09-28T09:05:40Z</time>
      </trkpt>
      <trkpt lat="42.82916" lon="1.47159">
        <ele>1512.291015625</ele>
        <time>2013-09-28T09:06:07Z</time>
      </trkpt>
      <trkpt lat="42.8291" lon="1.47159">
        <ele>1510.3684082031</ele>
        <time>2013-09-28T09:06:13Z</time>
      </trkpt>
      <trkpt lat="42.82907" lon="1.47162">
        <ele>1510.8491210938</ele>
        <time>2013-09-28T09:06:18Z</time>
      </trkpt>
      <trkpt lat="42.82905" lon="1.47158">
        <ele>1513.2524414062</ele>
        <time>2013-09-28T09:06:29Z</time>
      </trkpt>
      <trkpt lat="42.82903" lon="1.4716">
        <ele>1515.1750488281</ele>
        <time>2013-09-28T09:06:34Z</time>
      </trkpt>
      <trkpt lat="42.82902" lon="1.47163">
        <ele>1516.1364746094</ele>
        <time>2013-09-28T09:06:40Z</time>
      </trkpt>
      <trkpt lat="42.82903" lon="1.47167">
        <ele>1519.9816894531</ele>
        <time>2013-09-28T09:06:47Z</time>
      </trkpt>
      <trkpt lat="42.82902" lon="1.47172">
        <ele>1525.2687988281</ele>
        <time>2013-09-28T09:06:57Z</time>
      </trkpt>
      <trkpt lat="42.82892" lon="1.4717">
        <ele>1530.5561523438</ele>
        <time>2013-09-28T09:07:25Z</time>
      </trkpt>
      <trkpt lat="42.82892" lon="1.47177">
        <ele>1532.4790039062</ele>
        <time>2013-09-28T09:07:34Z</time>
      </trkpt>
      <trkpt lat="42.82891" lon="1.47179">
        <ele>1533.4401855469</ele>
        <time>2013-09-28T09:07:38Z</time>
      </trkpt>
      <trkpt lat="42.82888" lon="1.47177">
        <ele>1535.8435058594</ele>
        <time>2013-09-28T09:07:45Z</time>
      </trkpt>
      <trkpt lat="42.82887" lon="1.47174">
        <ele>1535.8435058594</ele>
        <time>2013-09-28T09:07:49Z</time>
      </trkpt>
      <trkpt lat="42.82885" lon="1.47172">
        <ele>1535.8435058594</ele>
        <time>2013-09-28T09:07:54Z</time>
      </trkpt>
      <trkpt lat="42.82882" lon="1.47175">
        <ele>1538.7275390625</ele>
        <time>2013-09-28T09:08:04Z</time>
      </trkpt>
      <trkpt lat="42.82879" lon="1.47178">
        <ele>1539.6887207031</ele>
        <time>2013-09-28T09:08:13Z</time>
      </trkpt>
      <trkpt lat="42.8288" lon="1.47182">
        <ele>1539.6887207031</ele>
        <time>2013-09-28T09:08:17Z</time>
      </trkpt>
      <trkpt lat="42.82878" lon="1.47181">
        <ele>1538.7275390625</ele>
        <time>2013-09-28T09:08:22Z</time>
      </trkpt>
      <trkpt lat="42.82876" lon="1.47178">
        <ele>1538.7275390625</ele>
        <time>2013-09-28T09:08:28Z</time>
      </trkpt>
      <trkpt lat="42.82874" lon="1.47175">
        <ele>1539.6887207031</ele>
        <time>2013-09-28T09:08:34Z</time>
      </trkpt>
      <trkpt lat="42.82871" lon="1.47168">
        <ele>1539.2080078125</ele>
        <time>2013-09-28T09:08:43Z</time>
      </trkpt>
      <trkpt lat="42.8287" lon="1.47165">
        <ele>1540.6499023438</ele>
        <time>2013-09-28T09:08:47Z</time>
      </trkpt>
      <trkpt lat="42.82868" lon="1.47171">
        <ele>1542.5727539062</ele>
        <time>2013-09-28T09:08:54Z</time>
      </trkpt>
      <trkpt lat="42.82867" lon="1.47175">
        <ele>1543.0532226562</ele>
        <time>2013-09-28T09:08:58Z</time>
      </trkpt>
      <trkpt lat="42.82867" lon="1.4718">
        <ele>1543.5339355469</ele>
        <time>2013-09-28T09:09:03Z</time>
      </trkpt>
      <trkpt lat="42.82868" lon="1.47189">
        <ele>1543.5339355469</ele>
        <time>2013-09-28T09:09:11Z</time>
      </trkpt>
      <trkpt lat="42.82866" lon="1.47188">
        <ele>1544.0146484375</ele>
        <time>2013-09-28T09:09:15Z</time>
      </trkpt>
      <trkpt lat="42.82863" lon="1.47187">
        <ele>1548.3405761719</ele>
        <time>2013-09-28T09:09:29Z</time>
      </trkpt>
      <trkpt lat="42.82861" lon="1.47187">
        <ele>1550.2634277344</ele>
        <time>2013-09-28T09:09:35Z</time>
      </trkpt>
      <trkpt lat="42.82857" lon="1.47182">
        <ele>1550.7438964844</ele>
        <time>2013-09-28T09:09:45Z</time>
      </trkpt>
      <trkpt lat="42.82856" lon="1.47179">
        <ele>1551.7053222656</ele>
        <time>2013-09-28T09:09:50Z</time>
      </trkpt>
      <trkpt lat="42.82854" lon="1.47181">
        <ele>1552.6665039062</ele>
        <time>2013-09-28T09:09:55Z</time>
      </trkpt>
      <trkpt lat="42.82851" lon="1.47179">
        <ele>1555.0698242188</ele>
        <time>2013-09-28T09:10:03Z</time>
      </trkpt>
      <trkpt lat="42.82846" lon="1.47175">
        <ele>1557.4731445312</ele>
        <time>2013-09-28T09:10:17Z</time>
      </trkpt>
      <trkpt lat="42.82843" lon="1.47172">
        <ele>1558.9150390625</ele>
        <time>2013-09-28T09:10:24Z</time>
      </trkpt>
      <trkpt lat="42.82841" lon="1.4717">
        <ele>1560.3569335938</ele>
        <time>2013-09-28T09:10:28Z</time>
      </trkpt>
      <trkpt lat="42.8284" lon="1.47166">
        <ele>1563.2409667969</ele>
        <time>2013-09-28T09:10:35Z</time>
      </trkpt>
      <trkpt lat="42.8284" lon="1.47161">
        <ele>1565.1638183594</ele>
        <time>2013-09-28T09:10:41Z</time>
      </trkpt>
      <trkpt lat="42.82838" lon="1.47159">
        <ele>1566.6057128906</ele>
        <time>2013-09-28T09:10:48Z</time>
      </trkpt>
      <trkpt lat="42.82834" lon="1.47157">
        <ele>1569.4897460938</ele>
        <time>2013-09-28T09:10:58Z</time>
      </trkpt>
      <trkpt lat="42.82831" lon="1.47156">
        <ele>1569.4897460938</ele>
        <time>2013-09-28T09:11:04Z</time>
      </trkpt>
      <trkpt lat="42.82828" lon="1.47154">
        <ele>1569.9702148438</ele>
        <time>2013-09-28T09:11:10Z</time>
      </trkpt>
      <trkpt lat="42.82824" lon="1.47148">
        <ele>1568.5283203125</ele>
        <time>2013-09-28T09:11:19Z</time>
      </trkpt>
      <trkpt lat="42.82821" lon="1.47143">
        <ele>1568.5283203125</ele>
        <time>2013-09-28T09:11:24Z</time>
      </trkpt>
      <trkpt lat="42.82818" lon="1.47137">
        <ele>1569.0090332031</ele>
        <time>2013-09-28T09:11:29Z</time>
      </trkpt>
      <trkpt lat="42.82817" lon="1.47133">
        <ele>1570.931640625</ele>
        <time>2013-09-28T09:11:33Z</time>
      </trkpt>
      <trkpt lat="42.82815" lon="1.47131">
        <ele>1571.8928222656</ele>
        <time>2013-09-28T09:11:37Z</time>
      </trkpt>
      <trkpt lat="42.82813" lon="1.4713">
        <ele>1572.8542480469</ele>
        <time>2013-09-28T09:11:40Z</time>
      </trkpt>
      <trkpt lat="42.82811" lon="1.47129">
        <ele>1574.2961425781</ele>
        <time>2013-09-28T09:11:44Z</time>
      </trkpt>
      <trkpt lat="42.82807" lon="1.4713">
        <ele>1575.2573242188</ele>
        <time>2013-09-28T09:11:50Z</time>
      </trkpt>
      <trkpt lat="42.82805" lon="1.47128">
        <ele>1576.21875</ele>
        <time>2013-09-28T09:11:55Z</time>
      </trkpt>
      <trkpt lat="42.82803" lon="1.47125">
        <ele>1577.6606445312</ele>
        <time>2013-09-28T09:12:01Z</time>
      </trkpt>
      <trkpt lat="42.828" lon="1.47124">
        <ele>1579.1025390625</ele>
        <time>2013-09-28T09:12:06Z</time>
      </trkpt>
      <trkpt lat="42.82799" lon="1.47121">
        <ele>1581.5061035156</ele>
        <time>2013-09-28T09:12:13Z</time>
      </trkpt>
      <trkpt lat="42.82793" lon="1.47115">
        <ele>1583.4287109375</ele>
        <time>2013-09-28T09:12:23Z</time>
      </trkpt>
      <trkpt lat="42.8279" lon="1.47113">
        <ele>1584.3901367188</ele>
        <time>2013-09-28T09:12:27Z</time>
      </trkpt>
      <trkpt lat="42.82788" lon="1.47113">
        <ele>1585.83203125</ele>
        <time>2013-09-28T09:12:31Z</time>
      </trkpt>
      <trkpt lat="42.82785" lon="1.4711">
        <ele>1586.7932128906</ele>
        <time>2013-09-28T09:12:36Z</time>
      </trkpt>
      <trkpt lat="42.82782" lon="1.47106">
        <ele>1587.7546386719</ele>
        <time>2013-09-28T09:12:40Z</time>
      </trkpt>
      <trkpt lat="42.82779" lon="1.47104">
        <ele>1588.7160644531</ele>
        <time>2013-09-28T09:12:44Z</time>
      </trkpt>
      <trkpt lat="42.82777" lon="1.47102">
        <ele>1589.6772460938</ele>
        <time>2013-09-28T09:12:49Z</time>
      </trkpt>
      <trkpt lat="42.82773" lon="1.47097">
        <ele>1592.0805664062</ele>
        <time>2013-09-28T09:13:03Z</time>
      </trkpt>
      <trkpt lat="42.82771" lon="1.47094">
        <ele>1593.0417480469</ele>
        <time>2013-09-28T09:13:07Z</time>
      </trkpt>
      <trkpt lat="42.82769" lon="1.47091">
        <ele>1593.0417480469</ele>
        <time>2013-09-28T09:13:11Z</time>
      </trkpt>
      <trkpt lat="42.82767" lon="1.47089">
        <ele>1593.5224609375</ele>
        <time>2013-09-28T09:13:15Z</time>
      </trkpt>
      <trkpt lat="42.82764" lon="1.47085">
        <ele>1594.0031738281</ele>
        <time>2013-09-28T09:13:19Z</time>
      </trkpt>
      <trkpt lat="42.82763" lon="1.47083">
        <ele>1595.4450683594</ele>
        <time>2013-09-28T09:13:23Z</time>
      </trkpt>
      <trkpt lat="42.82758" lon="1.47079">
        <ele>1596.4067382812</ele>
        <time>2013-09-28T09:13:31Z</time>
      </trkpt>
      <trkpt lat="42.82753" lon="1.47074">
        <ele>1597.8486328125</ele>
        <time>2013-09-28T09:13:39Z</time>
      </trkpt>
      <trkpt lat="42.82752" lon="1.47068">
        <ele>1596.8872070312</ele>
        <time>2013-09-28T09:13:44Z</time>
      </trkpt>
      <trkpt lat="42.82751" lon="1.47063">
        <ele>1596.8872070312</ele>
        <time>2013-09-28T09:13:48Z</time>
      </trkpt>
      <trkpt lat="42.82749" lon="1.47061">
        <ele>1597.8486328125</ele>
        <time>2013-09-28T09:13:52Z</time>
      </trkpt>
      <trkpt lat="42.82747" lon="1.47053">
        <ele>1599.2905273438</ele>
        <time>2013-09-28T09:14:01Z</time>
      </trkpt>
      <trkpt lat="42.82747" lon="1.47049">
        <ele>1600.251953125</ele>
        <time>2013-09-28T09:14:07Z</time>
      </trkpt>
      <trkpt lat="42.82748" lon="1.47042">
        <ele>1602.1743164062</ele>
        <time>2013-09-28T09:14:17Z</time>
      </trkpt>
      <trkpt lat="42.82748" lon="1.47037">
        <ele>1601.2131347656</ele>
        <time>2013-09-28T09:14:22Z</time>
      </trkpt>
      <trkpt lat="42.8275" lon="1.47035">
        <ele>1603.6164550781</ele>
        <time>2013-09-28T09:14:26Z</time>
      </trkpt>
      <trkpt lat="42.82757" lon="1.47021">
        <ele>1612.2683105469</ele>
        <time>2013-09-28T09:14:43Z</time>
      </trkpt>
      <trkpt lat="42.82758" lon="1.47017">
        <ele>1610.826171875</ele>
        <time>2013-09-28T09:14:49Z</time>
      </trkpt>
      <trkpt lat="42.82759" lon="1.47011">
        <ele>1610.3454589844</ele>
        <time>2013-09-28T09:14:54Z</time>
      </trkpt>
      <trkpt lat="42.82758" lon="1.47005">
        <ele>1609.8647460938</ele>
        <time>2013-09-28T09:14:59Z</time>
      </trkpt>
      <trkpt lat="42.82758" lon="1.47001">
        <ele>1609.8647460938</ele>
        <time>2013-09-28T09:15:01Z</time>
      </trkpt>
      <trkpt lat="42.82759" lon="1.46995">
        <ele>1608.4228515625</ele>
        <time>2013-09-28T09:15:05Z</time>
      </trkpt>
      <trkpt lat="42.82761" lon="1.46986">
        <ele>1608.4228515625</ele>
        <time>2013-09-28T09:15:12Z</time>
      </trkpt>
      <trkpt lat="42.82763" lon="1.46979">
        <ele>1607.9423828125</ele>
        <time>2013-09-28T09:15:17Z</time>
      </trkpt>
      <trkpt lat="42.82766" lon="1.46967">
        <ele>1607.4616699219</ele>
        <time>2013-09-28T09:15:25Z</time>
      </trkpt>
      <trkpt lat="42.82769" lon="1.46961">
        <ele>1608.4228515625</ele>
        <time>2013-09-28T09:15:30Z</time>
      </trkpt>
      <trkpt lat="42.8277" lon="1.46958">
        <ele>1608.4228515625</ele>
        <time>2013-09-28T09:15:33Z</time>
      </trkpt>
      <trkpt lat="42.82769" lon="1.46951">
        <ele>1606.5002441406</ele>
        <time>2013-09-28T09:15:40Z</time>
      </trkpt>
      <trkpt lat="42.82767" lon="1.46947">
        <ele>1606.01953125</ele>
        <time>2013-09-28T09:15:44Z</time>
      </trkpt>
      <trkpt lat="42.82766" lon="1.46944">
        <ele>1607.4616699219</ele>
        <time>2013-09-28T09:15:49Z</time>
      </trkpt>
      <trkpt lat="42.82764" lon="1.46942">
        <ele>1608.4228515625</ele>
        <time>2013-09-28T09:15:52Z</time>
      </trkpt>
      <trkpt lat="42.82759" lon="1.46937">
        <ele>1607.9423828125</ele>
        <time>2013-09-28T09:15:58Z</time>
      </trkpt>
      <trkpt lat="42.82758" lon="1.46932">
        <ele>1607.4616699219</ele>
        <time>2013-09-28T09:16:02Z</time>
      </trkpt>
      <trkpt lat="42.82753" lon="1.46924">
        <ele>1607.4616699219</ele>
        <time>2013-09-28T09:16:09Z</time>
      </trkpt>
      <trkpt lat="42.82751" lon="1.4692">
        <ele>1607.9423828125</ele>
        <time>2013-09-28T09:16:13Z</time>
      </trkpt>
      <trkpt lat="42.82749" lon="1.46917">
        <ele>1609.3842773438</ele>
        <time>2013-09-28T09:16:17Z</time>
      </trkpt>
      <trkpt lat="42.82746" lon="1.46915">
        <ele>1610.826171875</ele>
        <time>2013-09-28T09:16:22Z</time>
      </trkpt>
      <trkpt lat="42.82743" lon="1.46913">
        <ele>1612.2683105469</ele>
        <time>2013-09-28T09:16:26Z</time>
      </trkpt>
      <trkpt lat="42.8274" lon="1.46909">
        <ele>1613.7102050781</ele>
        <time>2013-09-28T09:16:31Z</time>
      </trkpt>
      <trkpt lat="42.82738" lon="1.46907">
        <ele>1614.6716308594</ele>
        <time>2013-09-28T09:16:35Z</time>
      </trkpt>
      <trkpt lat="42.82735" lon="1.46908">
        <ele>1616.5942382812</ele>
        <time>2013-09-28T09:16:41Z</time>
      </trkpt>
      <trkpt lat="42.82732" lon="1.46905">
        <ele>1618.0361328125</ele>
        <time>2013-09-28T09:16:46Z</time>
      </trkpt>
      <trkpt lat="42.8273" lon="1.46903">
        <ele>1619.9587402344</ele>
        <time>2013-09-28T09:16:50Z</time>
      </trkpt>
      <trkpt lat="42.82726" lon="1.46898">
        <ele>1623.8039550781</ele>
        <time>2013-09-28T09:17:05Z</time>
      </trkpt>
      <trkpt lat="42.82723" lon="1.46895">
        <ele>1624.7653808594</ele>
        <time>2013-09-28T09:17:10Z</time>
      </trkpt>
      <trkpt lat="42.8272" lon="1.46893">
        <ele>1624.7653808594</ele>
        <time>2013-09-28T09:17:15Z</time>
      </trkpt>
      <trkpt lat="42.82716" lon="1.46892">
        <ele>1625.2458496094</ele>
        <time>2013-09-28T09:17:20Z</time>
      </trkpt>
      <trkpt lat="42.82713" lon="1.46891">
        <ele>1626.2072753906</ele>
        <time>2013-09-28T09:17:26Z</time>
      </trkpt>
      <trkpt lat="42.8271" lon="1.46891">
        <ele>1627.6491699219</ele>
        <time>2013-09-28T09:17:31Z</time>
      </trkpt>
      <trkpt lat="42.82708" lon="1.46889">
        <ele>1629.0913085938</ele>
        <time>2013-09-28T09:17:37Z</time>
      </trkpt>
      <trkpt lat="42.82705" lon="1.4689">
        <ele>1630.5334472656</ele>
        <time>2013-09-28T09:17:45Z</time>
      </trkpt>
      <trkpt lat="42.82703" lon="1.4689">
        <ele>1631.9753417969</ele>
        <time>2013-09-28T09:17:50Z</time>
      </trkpt>
      <trkpt lat="42.827" lon="1.46888">
        <ele>1632.4560546875</ele>
        <time>2013-09-28T09:17:58Z</time>
      </trkpt>
      <trkpt lat="42.82697" lon="1.46885">
        <ele>1631.9753417969</ele>
        <time>2013-09-28T09:18:04Z</time>
      </trkpt>
      <trkpt lat="42.82695" lon="1.46881">
        <ele>1631.9753417969</ele>
        <time>2013-09-28T09:18:08Z</time>
      </trkpt>
      <trkpt lat="42.8269" lon="1.46878">
        <ele>1633.4172363281</ele>
        <time>2013-09-28T09:18:15Z</time>
      </trkpt>
      <trkpt lat="42.82688" lon="1.46876">
        <ele>1633.8979492188</ele>
        <time>2013-09-28T09:18:19Z</time>
      </trkpt>
      <trkpt lat="42.82685" lon="1.46876">
        <ele>1634.859375</ele>
        <time>2013-09-28T09:18:24Z</time>
      </trkpt>
      <trkpt lat="42.82681" lon="1.46871">
        <ele>1634.859375</ele>
        <time>2013-09-28T09:18:31Z</time>
      </trkpt>
      <trkpt lat="42.82677" lon="1.46869">
        <ele>1634.3786621094</ele>
        <time>2013-09-28T09:18:36Z</time>
      </trkpt>
      <trkpt lat="42.82673" lon="1.46866">
        <ele>1634.859375</ele>
        <time>2013-09-28T09:18:41Z</time>
      </trkpt>
      <trkpt lat="42.82671" lon="1.46866">
        <ele>1635.8205566406</ele>
        <time>2013-09-28T09:18:45Z</time>
      </trkpt>
      <trkpt lat="42.82668" lon="1.46865">
        <ele>1637.2624511719</ele>
        <time>2013-09-28T09:18:50Z</time>
      </trkpt>
      <trkpt lat="42.82665" lon="1.46866">
        <ele>1639.6657714844</ele>
        <time>2013-09-28T09:18:57Z</time>
      </trkpt>
      <trkpt lat="42.82661" lon="1.46867">
        <ele>1641.5883789062</ele>
        <time>2013-09-28T09:19:05Z</time>
      </trkpt>
      <trkpt lat="42.82658" lon="1.46866">
        <ele>1643.5109863281</ele>
        <time>2013-09-28T09:19:11Z</time>
      </trkpt>
      <trkpt lat="42.82651" lon="1.46868">
        <ele>1645.4338378906</ele>
        <time>2013-09-28T09:19:18Z</time>
      </trkpt>
      <trkpt lat="42.82648" lon="1.4687">
        <ele>1648.3176269531</ele>
        <time>2013-09-28T09:19:23Z</time>
      </trkpt>
      <trkpt lat="42.82643" lon="1.4687">
        <ele>1651.2016601562</ele>
        <time>2013-09-28T09:19:30Z</time>
      </trkpt>
      <trkpt lat="42.82639" lon="1.46867">
        <ele>1651.2016601562</ele>
        <time>2013-09-28T09:19:37Z</time>
      </trkpt>
      <trkpt lat="42.82635" lon="1.46866">
        <ele>1651.6823730469</ele>
        <time>2013-09-28T09:19:43Z</time>
      </trkpt>
      <trkpt lat="42.82631" lon="1.46864">
        <ele>1652.6435546875</ele>
        <time>2013-09-28T09:19:49Z</time>
      </trkpt>
      <trkpt lat="42.82626" lon="1.4686">
        <ele>1654.0856933594</ele>
        <time>2013-09-28T09:19:55Z</time>
      </trkpt>
      <trkpt lat="42.82623" lon="1.46856">
        <ele>1654.5661621094</ele>
        <time>2013-09-28T09:19:59Z</time>
      </trkpt>
      <trkpt lat="42.82617" lon="1.46848">
        <ele>1655.046875</ele>
        <time>2013-09-28T09:20:07Z</time>
      </trkpt>
      <trkpt lat="42.8261" lon="1.46844">
        <ele>1654.5661621094</ele>
        <time>2013-09-28T09:20:15Z</time>
      </trkpt>
      <trkpt lat="42.82605" lon="1.46843">
        <ele>1654.0856933594</ele>
        <time>2013-09-28T09:20:21Z</time>
      </trkpt>
      <trkpt lat="42.82599" lon="1.46843">
        <ele>1654.0856933594</ele>
        <time>2013-09-28T09:20:27Z</time>
      </trkpt>
      <trkpt lat="42.82594" lon="1.46842">
        <ele>1654.0856933594</ele>
        <time>2013-09-28T09:20:33Z</time>
      </trkpt>
      <trkpt lat="42.82588" lon="1.46838">
        <ele>1654.0856933594</ele>
        <time>2013-09-28T09:20:40Z</time>
      </trkpt>
      <trkpt lat="42.82584" lon="1.46834">
        <ele>1654.0856933594</ele>
        <time>2013-09-28T09:20:46Z</time>
      </trkpt>
      <trkpt lat="42.8258" lon="1.46832">
        <ele>1654.0856933594</ele>
        <time>2013-09-28T09:20:52Z</time>
      </trkpt>
      <trkpt lat="42.82578" lon="1.46828">
        <ele>1654.0856933594</ele>
        <time>2013-09-28T09:20:57Z</time>
      </trkpt>
      <trkpt lat="42.82574" lon="1.46823">
        <ele>1654.0856933594</ele>
        <time>2013-09-28T09:21:03Z</time>
      </trkpt>
      <trkpt lat="42.82569" lon="1.46816">
        <ele>1654.5661621094</ele>
        <time>2013-09-28T09:21:11Z</time>
      </trkpt>
      <trkpt lat="42.82566" lon="1.46811">
        <ele>1654.5661621094</ele>
        <time>2013-09-28T09:21:17Z</time>
      </trkpt>
      <trkpt lat="42.82562" lon="1.46808">
        <ele>1655.046875</ele>
        <time>2013-09-28T09:21:23Z</time>
      </trkpt>
      <trkpt lat="42.82558" lon="1.46804">
        <ele>1655.046875</ele>
        <time>2013-09-28T09:21:29Z</time>
      </trkpt>
      <trkpt lat="42.8256" lon="1.46797">
        <ele>1655.046875</ele>
        <time>2013-09-28T09:21:35Z</time>
      </trkpt>
      <trkpt lat="42.82559" lon="1.46793">
        <ele>1655.046875</ele>
        <time>2013-09-28T09:21:40Z</time>
      </trkpt>
      <trkpt lat="42.82554" lon="1.46786">
        <ele>1655.5275878906</ele>
        <time>2013-09-28T09:21:47Z</time>
      </trkpt>
      <trkpt lat="42.8255" lon="1.46783">
        <ele>1655.5275878906</ele>
        <time>2013-09-28T09:21:53Z</time>
      </trkpt>
      <trkpt lat="42.82544" lon="1.46782">
        <ele>1655.5275878906</ele>
        <time>2013-09-28T09:22:00Z</time>
      </trkpt>
      <trkpt lat="42.82541" lon="1.46781">
        <ele>1656.0080566406</ele>
        <time>2013-09-28T09:22:06Z</time>
      </trkpt>
      <trkpt lat="42.82537" lon="1.46778">
        <ele>1656.4887695312</ele>
        <time>2013-09-28T09:22:12Z</time>
      </trkpt>
      <trkpt lat="42.82533" lon="1.46775">
        <ele>1656.4887695312</ele>
        <time>2013-09-28T09:22:18Z</time>
      </trkpt>
      <trkpt lat="42.8253" lon="1.46774">
        <ele>1656.4887695312</ele>
        <time>2013-09-28T09:22:24Z</time>
      </trkpt>
      <trkpt lat="42.82525" lon="1.46775">
        <ele>1656.9694824219</ele>
        <time>2013-09-28T09:22:30Z</time>
      </trkpt>
      <trkpt lat="42.8252" lon="1.46775">
        <ele>1657.4501953125</ele>
        <time>2013-09-28T09:22:37Z</time>
      </trkpt>
      <trkpt lat="42.82518" lon="1.46775">
        <ele>1657.4501953125</ele>
        <time>2013-09-28T09:22:42Z</time>
      </trkpt>
      <trkpt lat="42.82515" lon="1.46773">
        <ele>1657.4501953125</ele>
        <time>2013-09-28T09:22:47Z</time>
      </trkpt>
      <trkpt lat="42.82516" lon="1.46766">
        <ele>1657.4501953125</ele>
        <time>2013-09-28T09:22:53Z</time>
      </trkpt>
      <trkpt lat="42.82518" lon="1.46759">
        <ele>1656.9694824219</ele>
        <time>2013-09-28T09:23:00Z</time>
      </trkpt>
      <trkpt lat="42.82519" lon="1.46755">
        <ele>1656.9694824219</ele>
        <time>2013-09-28T09:23:06Z</time>
      </trkpt>
      <trkpt lat="42.8252" lon="1.46751">
        <ele>1656.9694824219</ele>
        <time>2013-09-28T09:23:11Z</time>
      </trkpt>
      <trkpt lat="42.82519" lon="1.46746">
        <ele>1656.4887695312</ele>
        <time>2013-09-28T09:23:17Z</time>
      </trkpt>
      <trkpt lat="42.82515" lon="1.46739">
        <ele>1656.9694824219</ele>
        <time>2013-09-28T09:23:24Z</time>
      </trkpt>
      <trkpt lat="42.8251" lon="1.46734">
        <ele>1657.4501953125</ele>
        <time>2013-09-28T09:23:32Z</time>
      </trkpt>
      <trkpt lat="42.82507" lon="1.46731">
        <ele>1657.4501953125</ele>
        <time>2013-09-28T09:23:37Z</time>
      </trkpt>
      <trkpt lat="42.82503" lon="1.46728">
        <ele>1657.9309082031</ele>
        <time>2013-09-28T09:23:44Z</time>
      </trkpt>
      <trkpt lat="42.82499" lon="1.46723">
        <ele>1657.4501953125</ele>
        <time>2013-09-28T09:23:50Z</time>
      </trkpt>
      <trkpt lat="42.82496" lon="1.4672">
        <ele>1657.9309082031</ele>
        <time>2013-09-28T09:23:56Z</time>
      </trkpt>
      <trkpt lat="42.82492" lon="1.46718">
        <ele>1657.9309082031</ele>
        <time>2013-09-28T09:24:02Z</time>
      </trkpt>
      <trkpt lat="42.82489" lon="1.46715">
        <ele>1657.9309082031</ele>
        <time>2013-09-28T09:24:08Z</time>
      </trkpt>
      <trkpt lat="42.82486" lon="1.46709">
        <ele>1657.9309082031</ele>
        <time>2013-09-28T09:24:15Z</time>
      </trkpt>
      <trkpt lat="42.82483" lon="1.46705">
        <ele>1657.9309082031</ele>
        <time>2013-09-28T09:24:20Z</time>
      </trkpt>
      <trkpt lat="42.8248" lon="1.46702">
        <ele>1657.9309082031</ele>
        <time>2013-09-28T09:24:25Z</time>
      </trkpt>
      <trkpt lat="42.82474" lon="1.467">
        <ele>1658.4113769531</ele>
        <time>2013-09-28T09:24:31Z</time>
      </trkpt>
      <trkpt lat="42.82468" lon="1.46695">
        <ele>1658.8920898438</ele>
        <time>2013-09-28T09:24:38Z</time>
      </trkpt>
      <trkpt lat="42.82465" lon="1.46692">
        <ele>1658.8920898438</ele>
        <time>2013-09-28T09:24:41Z</time>
      </trkpt>
      <trkpt lat="42.82462" lon="1.46688">
        <ele>1658.4113769531</ele>
        <time>2013-09-28T09:24:45Z</time>
      </trkpt>
      <trkpt lat="42.8246" lon="1.46687">
        <ele>1658.8920898438</ele>
        <time>2013-09-28T09:24:47Z</time>
      </trkpt>
      <trkpt lat="42.82452" lon="1.46686">
        <ele>1658.8920898438</ele>
        <time>2013-09-28T09:24:55Z</time>
      </trkpt>
      <trkpt lat="42.82449" lon="1.46685">
        <ele>1658.8920898438</ele>
        <time>2013-09-28T09:24:58Z</time>
      </trkpt>
      <trkpt lat="42.82447" lon="1.46681">
        <ele>1658.8920898438</ele>
        <time>2013-09-28T09:25:02Z</time>
      </trkpt>
      <trkpt lat="42.82444" lon="1.46676">
        <ele>1658.8920898438</ele>
        <time>2013-09-28T09:25:06Z</time>
      </trkpt>
      <trkpt lat="42.82442" lon="1.46671">
        <ele>1658.4113769531</ele>
        <time>2013-09-28T09:25:11Z</time>
      </trkpt>
      <trkpt lat="42.82434" lon="1.46666">
        <ele>1658.4113769531</ele>
        <time>2013-09-28T09:25:19Z</time>
      </trkpt>
      <trkpt lat="42.82433" lon="1.46665">
        <ele>1658.4113769531</ele>
        <time>2013-09-28T09:25:21Z</time>
      </trkpt>
      <trkpt lat="42.8243" lon="1.4666">
        <ele>1658.4113769531</ele>
        <time>2013-09-28T09:25:27Z</time>
      </trkpt>
      <trkpt lat="42.82427" lon="1.46655">
        <ele>1658.8920898438</ele>
        <time>2013-09-28T09:25:33Z</time>
      </trkpt>
      <trkpt lat="42.82425" lon="1.46647">
        <ele>1658.8920898438</ele>
        <time>2013-09-28T09:25:41Z</time>
      </trkpt>
      <trkpt lat="42.82425" lon="1.4664">
        <ele>1658.8920898438</ele>
        <time>2013-09-28T09:25:46Z</time>
      </trkpt>
      <trkpt lat="42.82422" lon="1.46631">
        <ele>1658.4113769531</ele>
        <time>2013-09-28T09:25:53Z</time>
      </trkpt>
      <trkpt lat="42.82417" lon="1.46628">
        <ele>1657.9309082031</ele>
        <time>2013-09-28T09:25:59Z</time>
      </trkpt>
      <trkpt lat="42.82413" lon="1.46621">
        <ele>1657.9309082031</ele>
        <time>2013-09-28T09:26:06Z</time>
      </trkpt>
      <trkpt lat="42.82409" lon="1.46617">
        <ele>1657.4501953125</ele>
        <time>2013-09-28T09:26:12Z</time>
      </trkpt>
      <trkpt lat="42.82405" lon="1.46615">
        <ele>1656.9694824219</ele>
        <time>2013-09-28T09:26:19Z</time>
      </trkpt>
      <trkpt lat="42.82402" lon="1.46611">
        <ele>1656.4887695312</ele>
        <time>2013-09-28T09:26:24Z</time>
      </trkpt>
      <trkpt lat="42.82401" lon="1.46607">
        <ele>1656.4887695312</ele>
        <time>2013-09-28T09:26:29Z</time>
      </trkpt>
      <trkpt lat="42.82401" lon="1.46602">
        <ele>1656.0080566406</ele>
        <time>2013-09-28T09:26:35Z</time>
      </trkpt>
      <trkpt lat="42.82401" lon="1.46597">
        <ele>1656.0080566406</ele>
        <time>2013-09-28T09:26:41Z</time>
      </trkpt>
      <trkpt lat="42.82399" lon="1.46595">
        <ele>1655.5275878906</ele>
        <time>2013-09-28T09:26:47Z</time>
      </trkpt>
      <trkpt lat="42.82397" lon="1.46591">
        <ele>1655.046875</ele>
        <time>2013-09-28T09:26:52Z</time>
      </trkpt>
      <trkpt lat="42.82396" lon="1.46588">
        <ele>1655.046875</ele>
        <time>2013-09-28T09:26:56Z</time>
      </trkpt>
      <trkpt lat="42.82393" lon="1.46586">
        <ele>1654.5661621094</ele>
        <time>2013-09-28T09:27:02Z</time>
      </trkpt>
      <trkpt lat="42.82391" lon="1.46582">
        <ele>1654.0856933594</ele>
        <time>2013-09-28T09:27:08Z</time>
      </trkpt>
      <trkpt lat="42.8239" lon="1.4658">
        <ele>1653.6049804688</ele>
        <time>2013-09-28T09:27:13Z</time>
      </trkpt>
      <trkpt lat="42.82387" lon="1.46575">
        <ele>1653.6049804688</ele>
        <time>2013-09-28T09:27:20Z</time>
      </trkpt>
      <trkpt lat="42.82384" lon="1.46574">
        <ele>1653.1242675781</ele>
        <time>2013-09-28T09:27:25Z</time>
      </trkpt>
      <trkpt lat="42.82382" lon="1.46575">
        <ele>1653.1242675781</ele>
        <time>2013-09-28T09:27:30Z</time>
      </trkpt>
      <trkpt lat="42.82379" lon="1.46571">
        <ele>1653.1242675781</ele>
        <time>2013-09-28T09:27:37Z</time>
      </trkpt>
      <trkpt lat="42.82376" lon="1.46569">
        <ele>1652.6435546875</ele>
        <time>2013-09-28T09:27:43Z</time>
      </trkpt>
      <trkpt lat="42.82373" lon="1.46566">
        <ele>1652.6435546875</ele>
        <time>2013-09-28T09:27:49Z</time>
      </trkpt>
      <trkpt lat="42.82373" lon="1.46561">
        <ele>1652.6435546875</ele>
        <time>2013-09-28T09:27:54Z</time>
      </trkpt>
      <trkpt lat="42.82373" lon="1.46556">
        <ele>1652.6435546875</ele>
        <time>2013-09-28T09:27:59Z</time>
      </trkpt>
      <trkpt lat="42.82371" lon="1.46553">
        <ele>1652.6435546875</ele>
        <time>2013-09-28T09:28:02Z</time>
      </trkpt>
      <trkpt lat="42.82369" lon="1.46547">
        <ele>1652.1628417969</ele>
        <time>2013-09-28T09:28:09Z</time>
      </trkpt>
      <trkpt lat="42.82365" lon="1.46544">
        <ele>1652.6435546875</ele>
        <time>2013-09-28T09:28:14Z</time>
      </trkpt>
      <trkpt lat="42.82364" lon="1.4654">
        <ele>1652.6435546875</ele>
        <time>2013-09-28T09:28:19Z</time>
      </trkpt>
      <trkpt lat="42.82364" lon="1.46536">
        <ele>1652.6435546875</ele>
        <time>2013-09-28T09:28:23Z</time>
      </trkpt>
      <trkpt lat="42.82364" lon="1.46531">
        <ele>1652.6435546875</ele>
        <time>2013-09-28T09:28:28Z</time>
      </trkpt>
      <trkpt lat="42.82365" lon="1.46525">
        <ele>1652.6435546875</ele>
        <time>2013-09-28T09:28:34Z</time>
      </trkpt>
      <trkpt lat="42.82366" lon="1.46516">
        <ele>1652.6435546875</ele>
        <time>2013-09-28T09:28:43Z</time>
      </trkpt>
      <trkpt lat="42.82365" lon="1.46505">
        <ele>1652.6435546875</ele>
        <time>2013-09-28T09:28:52Z</time>
      </trkpt>
      <trkpt lat="42.82364" lon="1.46498">
        <ele>1652.1628417969</ele>
        <time>2013-09-28T09:29:00Z</time>
      </trkpt>
      <trkpt lat="42.82356" lon="1.46508">
        <ele>1692.5385742188</ele>
        <time>2013-09-28T09:29:02Z</time>
      </trkpt>
      <trkpt lat="42.8235" lon="1.46507">
        <ele>1718.0131835938</ele>
        <time>2013-09-28T09:29:10Z</time>
      </trkpt>
      <trkpt lat="42.82349" lon="1.46502">
        <ele>1720.4165039062</ele>
        <time>2013-09-28T09:29:16Z</time>
      </trkpt>
      <trkpt lat="42.82347" lon="1.46493">
        <ele>1720.8972167969</ele>
        <time>2013-09-28T09:29:23Z</time>
      </trkpt>
      <trkpt lat="42.82345" lon="1.46489">
        <ele>1721.3776855469</ele>
        <time>2013-09-28T09:29:30Z</time>
      </trkpt>
      <trkpt lat="42.82343" lon="1.46483">
        <ele>1721.8583984375</ele>
        <time>2013-09-28T09:29:37Z</time>
      </trkpt>
      <trkpt lat="42.82343" lon="1.46479">
        <ele>1721.3776855469</ele>
        <time>2013-09-28T09:29:42Z</time>
      </trkpt>
      <trkpt lat="42.8234" lon="1.4647">
        <ele>1722.3391113281</ele>
        <time>2013-09-28T09:29:49Z</time>
      </trkpt>
      <trkpt lat="42.82339" lon="1.46466">
        <ele>1722.3391113281</ele>
        <time>2013-09-28T09:29:52Z</time>
      </trkpt>
      <trkpt lat="42.82336" lon="1.46456">
        <ele>1723.3005371094</ele>
        <time>2013-09-28T09:29:59Z</time>
      </trkpt>
      <trkpt lat="42.82335" lon="1.46455">
        <ele>1723.7810058594</ele>
        <time>2013-09-28T09:30:00Z</time>
      </trkpt>
      <trkpt lat="42.82331" lon="1.46448">
        <ele>1725.2231445312</ele>
        <time>2013-09-28T09:30:06Z</time>
      </trkpt>
      <trkpt lat="42.82328" lon="1.46442">
        <ele>1724.2619628906</ele>
        <time>2013-09-28T09:30:12Z</time>
      </trkpt>
      <trkpt lat="42.82327" lon="1.46439">
        <ele>1724.2619628906</ele>
        <time>2013-09-28T09:30:14Z</time>
      </trkpt>
      <trkpt lat="42.82321" lon="1.46432">
        <ele>1726.1845703125</ele>
        <time>2013-09-28T09:30:22Z</time>
      </trkpt>
      <trkpt lat="42.82315" lon="1.46425">
        <ele>1727.6264648438</ele>
        <time>2013-09-28T09:30:30Z</time>
      </trkpt>
      <trkpt lat="42.82314" lon="1.4642">
        <ele>1727.6264648438</ele>
        <time>2013-09-28T09:30:34Z</time>
      </trkpt>
      <trkpt lat="42.82308" lon="1.4641">
        <ele>1727.1459960938</ele>
        <time>2013-09-28T09:30:43Z</time>
      </trkpt>
      <trkpt lat="42.82306" lon="1.46407">
        <ele>1726.6652832031</ele>
        <time>2013-09-28T09:30:47Z</time>
      </trkpt>
      <trkpt lat="42.82303" lon="1.464">
        <ele>1726.6652832031</ele>
        <time>2013-09-28T09:30:53Z</time>
      </trkpt>
      <trkpt lat="42.82301" lon="1.46391">
        <ele>1726.1845703125</ele>
        <time>2013-09-28T09:31:01Z</time>
      </trkpt>
      <trkpt lat="42.82299" lon="1.46384">
        <ele>1725.7038574219</ele>
        <time>2013-09-28T09:31:07Z</time>
      </trkpt>
      <trkpt lat="42.82298" lon="1.46379">
        <ele>1725.2231445312</ele>
        <time>2013-09-28T09:31:12Z</time>
      </trkpt>
      <trkpt lat="42.82296" lon="1.46372">
        <ele>1724.7426757812</ele>
        <time>2013-09-28T09:31:19Z</time>
      </trkpt>
      <trkpt lat="42.82296" lon="1.46365">
        <ele>1724.2619628906</ele>
        <time>2013-09-28T09:31:25Z</time>
      </trkpt>
      <trkpt lat="42.82296" lon="1.46358">
        <ele>1723.7810058594</ele>
        <time>2013-09-28T09:31:32Z</time>
      </trkpt>
      <trkpt lat="42.82296" lon="1.46355">
        <ele>1722.8198242188</ele>
        <time>2013-09-28T09:31:38Z</time>
      </trkpt>
      <trkpt lat="42.82295" lon="1.46356">
        <ele>1726.1845703125</ele>
        <time>2013-09-28T09:31:50Z</time>
      </trkpt>
      <trkpt lat="42.82291" lon="1.46355">
        <ele>1737.2395019531</ele>
        <time>2013-09-28T09:32:05Z</time>
      </trkpt>
      <trkpt lat="42.82288" lon="1.46352">
        <ele>1738.681640625</ele>
        <time>2013-09-28T09:32:10Z</time>
      </trkpt>
      <trkpt lat="42.82285" lon="1.46349">
        <ele>1740.6042480469</ele>
        <time>2013-09-28T09:32:15Z</time>
      </trkpt>
      <trkpt lat="42.82283" lon="1.46346">
        <ele>1741.5656738281</ele>
        <time>2013-09-28T09:32:20Z</time>
      </trkpt>
      <trkpt lat="42.82281" lon="1.46343">
        <ele>1742.5270996094</ele>
        <time>2013-09-28T09:32:26Z</time>
      </trkpt>
      <trkpt lat="42.82279" lon="1.46338">
        <ele>1743.0075683594</ele>
        <time>2013-09-28T09:32:32Z</time>
      </trkpt>
      <trkpt lat="42.82279" lon="1.46332">
        <ele>1743.0075683594</ele>
        <time>2013-09-28T09:32:40Z</time>
      </trkpt>
      <trkpt lat="42.82278" lon="1.46327">
        <ele>1742.5270996094</ele>
        <time>2013-09-28T09:32:45Z</time>
      </trkpt>
      <trkpt lat="42.82276" lon="1.46324">
        <ele>1743.48828125</ele>
        <time>2013-09-28T09:32:50Z</time>
      </trkpt>
      <trkpt lat="42.82273" lon="1.46322">
        <ele>1744.9301757812</ele>
        <time>2013-09-28T09:32:55Z</time>
      </trkpt>
      <trkpt lat="42.8227" lon="1.46318">
        <ele>1745.8916015625</ele>
        <time>2013-09-28T09:33:00Z</time>
      </trkpt>
      <trkpt lat="42.82269" lon="1.46314">
        <ele>1746.8527832031</ele>
        <time>2013-09-28T09:33:05Z</time>
      </trkpt>
      <trkpt lat="42.82267" lon="1.4631">
        <ele>1748.2946777344</ele>
        <time>2013-09-28T09:33:11Z</time>
      </trkpt>
      <trkpt lat="42.82267" lon="1.46305">
        <ele>1749.7368164062</ele>
        <time>2013-09-28T09:33:16Z</time>
      </trkpt>
      <trkpt lat="42.82267" lon="1.46301">
        <ele>1750.6979980469</ele>
        <time>2013-09-28T09:33:21Z</time>
      </trkpt>
      <trkpt lat="42.82265" lon="1.46295">
        <ele>1752.6206054688</ele>
        <time>2013-09-28T09:33:28Z</time>
      </trkpt>
      <trkpt lat="42.82265" lon="1.46291">
        <ele>1754.0627441406</ele>
        <time>2013-09-28T09:33:33Z</time>
      </trkpt>
      <trkpt lat="42.82266" lon="1.46289">
        <ele>1755.5046386719</ele>
        <time>2013-09-28T09:33:37Z</time>
      </trkpt>
      <trkpt lat="42.82267" lon="1.46286">
        <ele>1756.9467773438</ele>
        <time>2013-09-28T09:33:43Z</time>
      </trkpt>
      <trkpt lat="42.82269" lon="1.46283">
        <ele>1759.8305664062</ele>
        <time>2013-09-28T09:33:48Z</time>
      </trkpt>
      <trkpt lat="42.8227" lon="1.4628">
        <ele>1760.3112792969</ele>
        <time>2013-09-28T09:33:53Z</time>
      </trkpt>
      <trkpt lat="42.82272" lon="1.46278">
        <ele>1761.7534179688</ele>
        <time>2013-09-28T09:33:58Z</time>
      </trkpt>
      <trkpt lat="42.82273" lon="1.46276">
        <ele>1763.1953125</ele>
        <time>2013-09-28T09:34:03Z</time>
      </trkpt>
      <trkpt lat="42.82272" lon="1.46273">
        <ele>1763.67578125</ele>
        <time>2013-09-28T09:34:08Z</time>
      </trkpt>
      <trkpt lat="42.82273" lon="1.4627">
        <ele>1764.1564941406</ele>
        <time>2013-09-28T09:34:12Z</time>
      </trkpt>
      <trkpt lat="42.82273" lon="1.46268">
        <ele>1765.1179199219</ele>
        <time>2013-09-28T09:34:18Z</time>
      </trkpt>
      <trkpt lat="42.82274" lon="1.46264">
        <ele>1765.5986328125</ele>
        <time>2013-09-28T09:34:26Z</time>
      </trkpt>
      <trkpt lat="42.82275" lon="1.4626">
        <ele>1767.0405273438</ele>
        <time>2013-09-28T09:34:31Z</time>
      </trkpt>
      <trkpt lat="42.82277" lon="1.46257">
        <ele>1767.0405273438</ele>
        <time>2013-09-28T09:34:36Z</time>
      </trkpt>
      <trkpt lat="42.82277" lon="1.46253">
        <ele>1767.0405273438</ele>
        <time>2013-09-28T09:34:42Z</time>
      </trkpt>
      <trkpt lat="42.82277" lon="1.46249">
        <ele>1768.482421875</ele>
        <time>2013-09-28T09:34:47Z</time>
      </trkpt>
      <trkpt lat="42.82278" lon="1.46245">
        <ele>1769.9243164062</ele>
        <time>2013-09-28T09:34:52Z</time>
      </trkpt>
      <trkpt lat="42.82281" lon="1.46244">
        <ele>1770.4050292969</ele>
        <time>2013-09-28T09:34:57Z</time>
      </trkpt>
      <trkpt lat="42.82282" lon="1.46241">
        <ele>1771.8469238281</ele>
        <time>2013-09-28T09:35:02Z</time>
      </trkpt>
      <trkpt lat="42.82283" lon="1.46238">
        <ele>1773.2893066406</ele>
        <time>2013-09-28T09:35:08Z</time>
      </trkpt>
      <trkpt lat="42.82287" lon="1.46234">
        <ele>1776.6538085938</ele>
        <time>2013-09-28T09:35:15Z</time>
      </trkpt>
      <trkpt lat="42.82288" lon="1.46229">
        <ele>1777.6149902344</ele>
        <time>2013-09-28T09:35:20Z</time>
      </trkpt>
      <trkpt lat="42.82291" lon="1.46226">
        <ele>1777.6149902344</ele>
        <time>2013-09-28T09:35:25Z</time>
      </trkpt>
      <trkpt lat="42.82293" lon="1.46221">
        <ele>1778.095703125</ele>
        <time>2013-09-28T09:35:31Z</time>
      </trkpt>
      <trkpt lat="42.82296" lon="1.46217">
        <ele>1779.0568847656</ele>
        <time>2013-09-28T09:35:37Z</time>
      </trkpt>
      <trkpt lat="42.82302" lon="1.4621">
        <ele>1778.5764160156</ele>
        <time>2013-09-28T09:35:46Z</time>
      </trkpt>
      <trkpt lat="42.82306" lon="1.46206">
        <ele>1779.0568847656</ele>
        <time>2013-09-28T09:35:54Z</time>
      </trkpt>
      <trkpt lat="42.82307" lon="1.46202">
        <ele>1779.0568847656</ele>
        <time>2013-09-28T09:36:00Z</time>
      </trkpt>
      <trkpt lat="42.82305" lon="1.46201">
        <ele>1780.4990234375</ele>
        <time>2013-09-28T09:36:05Z</time>
      </trkpt>
      <trkpt lat="42.82302" lon="1.46199">
        <ele>1782.4216308594</ele>
        <time>2013-09-28T09:36:11Z</time>
      </trkpt>
      <trkpt lat="42.82303" lon="1.46192">
        <ele>1782.4216308594</ele>
        <time>2013-09-28T09:36:19Z</time>
      </trkpt>
      <trkpt lat="42.82303" lon="1.46187">
        <ele>1783.3828125</ele>
        <time>2013-09-28T09:36:25Z</time>
      </trkpt>
      <trkpt lat="42.82306" lon="1.4618">
        <ele>1784.3442382812</ele>
        <time>2013-09-28T09:36:32Z</time>
      </trkpt>
      <trkpt lat="42.82306" lon="1.46176">
        <ele>1785.3054199219</ele>
        <time>2013-09-28T09:36:37Z</time>
      </trkpt>
      <trkpt lat="42.82305" lon="1.46167">
        <ele>1784.8249511719</ele>
        <time>2013-09-28T09:36:44Z</time>
      </trkpt>
      <trkpt lat="42.82301" lon="1.46157">
        <ele>1784.3442382812</ele>
        <time>2013-09-28T09:36:52Z</time>
      </trkpt>
      <trkpt lat="42.82298" lon="1.46152">
        <ele>1784.8249511719</ele>
        <time>2013-09-28T09:36:58Z</time>
      </trkpt>
      <trkpt lat="42.82296" lon="1.46143">
        <ele>1784.8249511719</ele>
        <time>2013-09-28T09:37:07Z</time>
      </trkpt>
      <trkpt lat="42.82293" lon="1.46137">
        <ele>1785.7861328125</ele>
        <time>2013-09-28T09:37:13Z</time>
      </trkpt>
      <trkpt lat="42.82293" lon="1.46131">
        <ele>1787.2280273438</ele>
        <time>2013-09-28T09:37:19Z</time>
      </trkpt>
      <trkpt lat="42.82292" lon="1.46125">
        <ele>1786.2668457031</ele>
        <time>2013-09-28T09:37:24Z</time>
      </trkpt>
      <trkpt lat="42.8229" lon="1.46121">
        <ele>1784.8249511719</ele>
        <time>2013-09-28T09:37:28Z</time>
      </trkpt>
      <trkpt lat="42.82285" lon="1.46115">
        <ele>1784.8249511719</ele>
        <time>2013-09-28T09:37:36Z</time>
      </trkpt>
      <trkpt lat="42.82282" lon="1.4611">
        <ele>1785.3054199219</ele>
        <time>2013-09-28T09:37:42Z</time>
      </trkpt>
      <trkpt lat="42.82277" lon="1.46104">
        <ele>1787.2280273438</ele>
        <time>2013-09-28T09:37:50Z</time>
      </trkpt>
      <trkpt lat="42.82275" lon="1.46097">
        <ele>1787.7087402344</ele>
        <time>2013-09-28T09:37:57Z</time>
      </trkpt>
      <trkpt lat="42.82278" lon="1.4609">
        <ele>1789.6315917969</ele>
        <time>2013-09-28T09:38:04Z</time>
      </trkpt>
      <trkpt lat="42.8228" lon="1.46082">
        <ele>1790.1123046875</ele>
        <time>2013-09-28T09:38:11Z</time>
      </trkpt>
      <trkpt lat="42.82278" lon="1.46076">
        <ele>1791.0734863281</ele>
        <time>2013-09-28T09:38:16Z</time>
      </trkpt>
      <trkpt lat="42.82274" lon="1.46074">
        <ele>1792.0349121094</ele>
        <time>2013-09-28T09:38:22Z</time>
      </trkpt>
      <trkpt lat="42.82269" lon="1.46069">
        <ele>1793.4768066406</ele>
        <time>2013-09-28T09:38:29Z</time>
      </trkpt>
      <trkpt lat="42.82266" lon="1.46065">
        <ele>1794.4379882812</ele>
        <time>2013-09-28T09:38:37Z</time>
      </trkpt>
      <trkpt lat="42.82263" lon="1.46064">
        <ele>1794.4379882812</ele>
        <time>2013-09-28T09:38:52Z</time>
      </trkpt>
      <trkpt lat="42.82258" lon="1.46071">
        <ele>1795.3994140625</ele>
        <time>2013-09-28T09:39:00Z</time>
      </trkpt>
      <trkpt lat="42.82251" lon="1.46077">
        <ele>1795.8801269531</ele>
        <time>2013-09-28T09:39:09Z</time>
      </trkpt>
      <trkpt lat="42.82243" lon="1.4608">
        <ele>1795.3994140625</ele>
        <time>2013-09-28T09:39:17Z</time>
      </trkpt>
      <trkpt lat="42.82239" lon="1.4608">
        <ele>1794.9187011719</ele>
        <time>2013-09-28T09:39:21Z</time>
      </trkpt>
      <trkpt lat="42.82233" lon="1.46083">
        <ele>1794.4379882812</ele>
        <time>2013-09-28T09:39:26Z</time>
      </trkpt>
      <trkpt lat="42.82224" lon="1.46088">
        <ele>1794.4379882812</ele>
        <time>2013-09-28T09:39:36Z</time>
      </trkpt>
      <trkpt lat="42.82222" lon="1.46088">
        <ele>1794.4379882812</ele>
        <time>2013-09-28T09:39:37Z</time>
      </trkpt>
      <trkpt lat="42.82212" lon="1.46091">
        <ele>1794.4379882812</ele>
        <time>2013-09-28T09:39:47Z</time>
      </trkpt>
      <trkpt lat="42.82209" lon="1.4609">
        <ele>1793.9575195312</ele>
        <time>2013-09-28T09:39:50Z</time>
      </trkpt>
      <trkpt lat="42.82199" lon="1.46086">
        <ele>1794.4379882812</ele>
        <time>2013-09-28T09:40:00Z</time>
      </trkpt>
      <trkpt lat="42.82197" lon="1.46083">
        <ele>1792.99609375</ele>
        <time>2013-09-28T09:40:03Z</time>
      </trkpt>
      <trkpt lat="42.82195" lon="1.46081">
        <ele>1792.515625</ele>
        <time>2013-09-28T09:40:09Z</time>
      </trkpt>
      <trkpt lat="42.82193" lon="1.46077">
        <ele>1793.9575195312</ele>
        <time>2013-09-28T09:40:13Z</time>
      </trkpt>
      <trkpt lat="42.82186" lon="1.46074">
        <ele>1794.4379882812</ele>
        <time>2013-09-28T09:40:21Z</time>
      </trkpt>
      <trkpt lat="42.82181" lon="1.46074">
        <ele>1794.9187011719</ele>
        <time>2013-09-28T09:40:26Z</time>
      </trkpt>
      <trkpt lat="42.82174" lon="1.46077">
        <ele>1795.3994140625</ele>
        <time>2013-09-28T09:40:34Z</time>
      </trkpt>
      <trkpt lat="42.82167" lon="1.46078">
        <ele>1795.8801269531</ele>
        <time>2013-09-28T09:40:41Z</time>
      </trkpt>
      <trkpt lat="42.82164" lon="1.46078">
        <ele>1797.3220214844</ele>
        <time>2013-09-28T09:40:47Z</time>
      </trkpt>
      <trkpt lat="42.82161" lon="1.4608">
        <ele>1798.7639160156</ele>
        <time>2013-09-28T09:40:51Z</time>
      </trkpt>
      <trkpt lat="42.82156" lon="1.46082">
        <ele>1800.2060546875</ele>
        <time>2013-09-28T09:40:57Z</time>
      </trkpt>
      <trkpt lat="42.82156" lon="1.46085">
        <ele>1803.08984375</ele>
        <time>2013-09-28T09:41:05Z</time>
      </trkpt>
      <trkpt lat="42.8215" lon="1.46087">
        <ele>1803.08984375</ele>
        <time>2013-09-28T09:41:12Z</time>
      </trkpt>
      <trkpt lat="42.82143" lon="1.4609">
        <ele>1801.6479492188</ele>
        <time>2013-09-28T09:41:19Z</time>
      </trkpt>
      <trkpt lat="42.82141" lon="1.46094">
        <ele>1801.1672363281</ele>
        <time>2013-09-28T09:41:22Z</time>
      </trkpt>
      <trkpt lat="42.82135" lon="1.46098">
        <ele>1800.2060546875</ele>
        <time>2013-09-28T09:41:29Z</time>
      </trkpt>
      <trkpt lat="42.82126" lon="1.46097">
        <ele>1798.7639160156</ele>
        <time>2013-09-28T09:41:37Z</time>
      </trkpt>
      <trkpt lat="42.82119" lon="1.4609">
        <ele>1798.283203125</ele>
        <time>2013-09-28T09:41:44Z</time>
      </trkpt>
      <trkpt lat="42.82112" lon="1.46088">
        <ele>1798.7639160156</ele>
        <time>2013-09-28T09:41:51Z</time>
      </trkpt>
      <trkpt lat="42.82105" lon="1.46092">
        <ele>1799.7253417969</ele>
        <time>2013-09-28T09:41:59Z</time>
      </trkpt>
      <trkpt lat="42.821" lon="1.46097">
        <ele>1800.2060546875</ele>
        <time>2013-09-28T09:42:05Z</time>
      </trkpt>
      <trkpt lat="42.82099" lon="1.46098">
        <ele>1800.2060546875</ele>
        <time>2013-09-28T09:42:06Z</time>
      </trkpt>
      <trkpt lat="42.82093" lon="1.46099">
        <ele>1801.1672363281</ele>
        <time>2013-09-28T09:42:13Z</time>
      </trkpt>
      <trkpt lat="42.8209" lon="1.46101">
        <ele>1801.6479492188</ele>
        <time>2013-09-28T09:42:18Z</time>
      </trkpt>
      <trkpt lat="42.82085" lon="1.46102">
        <ele>1801.1672363281</ele>
        <time>2013-09-28T09:42:23Z</time>
      </trkpt>
      <trkpt lat="42.82077" lon="1.46101">
        <ele>1801.6479492188</ele>
        <time>2013-09-28T09:42:30Z</time>
      </trkpt>
      <trkpt lat="42.82073" lon="1.46101">
        <ele>1801.1672363281</ele>
        <time>2013-09-28T09:42:35Z</time>
      </trkpt>
      <trkpt lat="42.82069" lon="1.46099">
        <ele>1800.6865234375</ele>
        <time>2013-09-28T09:42:40Z</time>
      </trkpt>
      <trkpt lat="42.82068" lon="1.46097">
        <ele>1799.7253417969</ele>
        <time>2013-09-28T09:42:46Z</time>
      </trkpt>
      <trkpt lat="42.82064" lon="1.46093">
        <ele>1798.283203125</ele>
        <time>2013-09-28T09:42:55Z</time>
      </trkpt>
      <trkpt lat="42.82058" lon="1.46093">
        <ele>1798.7639160156</ele>
        <time>2013-09-28T09:43:02Z</time>
      </trkpt>
      <trkpt lat="42.82053" lon="1.46094">
        <ele>1802.1284179688</ele>
        <time>2013-09-28T09:43:07Z</time>
      </trkpt>
      <trkpt lat="42.82048" lon="1.46096">
        <ele>1806.9353027344</ele>
        <time>2013-09-28T09:43:12Z</time>
      </trkpt>
      <trkpt lat="42.82043" lon="1.461">
        <ele>1806.4545898438</ele>
        <time>2013-09-28T09:43:19Z</time>
      </trkpt>
      <trkpt lat="42.82042" lon="1.46104">
        <ele>1806.4545898438</ele>
        <time>2013-09-28T09:43:23Z</time>
      </trkpt>
      <trkpt lat="42.82041" lon="1.4611">
        <ele>1805.9738769531</ele>
        <time>2013-09-28T09:43:28Z</time>
      </trkpt>
      <trkpt lat="42.82037" lon="1.46111">
        <ele>1805.0126953125</ele>
        <time>2013-09-28T09:43:34Z</time>
      </trkpt>
      <trkpt lat="42.82036" lon="1.46113">
        <ele>1804.0515136719</ele>
        <time>2013-09-28T09:43:38Z</time>
      </trkpt>
      <trkpt lat="42.82033" lon="1.46114">
        <ele>1803.5705566406</ele>
        <time>2013-09-28T09:43:43Z</time>
      </trkpt>
      <trkpt lat="42.82029" lon="1.46114">
        <ele>1803.08984375</ele>
        <time>2013-09-28T09:43:49Z</time>
      </trkpt>
      <trkpt lat="42.82024" lon="1.46113">
        <ele>1802.1284179688</ele>
        <time>2013-09-28T09:43:56Z</time>
      </trkpt>
      <trkpt lat="42.82022" lon="1.46113">
        <ele>1802.1284179688</ele>
        <time>2013-09-28T09:44:02Z</time>
      </trkpt>
      <trkpt lat="42.82019" lon="1.46115">
        <ele>1802.1284179688</ele>
        <time>2013-09-28T09:44:09Z</time>
      </trkpt>
      <trkpt lat="42.82014" lon="1.4612">
        <ele>1815.1064453125</ele>
        <time>2013-09-28T09:44:15Z</time>
      </trkpt>
      <trkpt lat="42.82011" lon="1.46121">
        <ele>1817.5095214844</ele>
        <time>2013-09-28T09:44:18Z</time>
      </trkpt>
      <trkpt lat="42.82007" lon="1.46123">
        <ele>1820.3937988281</ele>
        <time>2013-09-28T09:44:23Z</time>
      </trkpt>
      <trkpt lat="42.82004" lon="1.46123">
        <ele>1819.4323730469</ele>
        <time>2013-09-28T09:44:29Z</time>
      </trkpt>
      <trkpt lat="42.81999" lon="1.46121">
        <ele>1820.3937988281</ele>
        <time>2013-09-28T09:44:37Z</time>
      </trkpt>
      <trkpt lat="42.81997" lon="1.4612">
        <ele>1820.3937988281</ele>
        <time>2013-09-28T09:44:42Z</time>
      </trkpt>
      <trkpt lat="42.81993" lon="1.4612">
        <ele>1820.8745117188</ele>
        <time>2013-09-28T09:44:48Z</time>
      </trkpt>
      <trkpt lat="42.81992" lon="1.46118">
        <ele>1821.3549804688</ele>
        <time>2013-09-28T09:44:51Z</time>
      </trkpt>
      <trkpt lat="42.81989" lon="1.46114">
        <ele>1820.3937988281</ele>
        <time>2013-09-28T09:44:56Z</time>
      </trkpt>
      <trkpt lat="42.81987" lon="1.46113">
        <ele>1821.3549804688</ele>
        <time>2013-09-28T09:45:01Z</time>
      </trkpt>
      <trkpt lat="42.81984" lon="1.46113">
        <ele>1822.7971191406</ele>
        <time>2013-09-28T09:45:07Z</time>
      </trkpt>
      <trkpt lat="42.81982" lon="1.46113">
        <ele>1823.7583007812</ele>
        <time>2013-09-28T09:45:12Z</time>
      </trkpt>
      <trkpt lat="42.81979" lon="1.46113">
        <ele>1825.2001953125</ele>
        <time>2013-09-28T09:45:17Z</time>
      </trkpt>
      <trkpt lat="42.81976" lon="1.46112">
        <ele>1826.1616210938</ele>
        <time>2013-09-28T09:45:22Z</time>
      </trkpt>
      <trkpt lat="42.81974" lon="1.46111">
        <ele>1827.603515625</ele>
        <time>2013-09-28T09:45:27Z</time>
      </trkpt>
      <trkpt lat="42.81971" lon="1.46111">
        <ele>1829.0454101562</ele>
        <time>2013-09-28T09:45:32Z</time>
      </trkpt>
      <trkpt lat="42.81969" lon="1.46113">
        <ele>1830.4875488281</ele>
        <time>2013-09-28T09:45:36Z</time>
      </trkpt>
      <trkpt lat="42.81967" lon="1.46115">
        <ele>1831.4487304688</ele>
        <time>2013-09-28T09:45:41Z</time>
      </trkpt>
      <trkpt lat="42.81964" lon="1.46114">
        <ele>1832.890625</ele>
        <time>2013-09-28T09:45:47Z</time>
      </trkpt>
      <trkpt lat="42.81961" lon="1.46113">
        <ele>1833.8520507812</ele>
        <time>2013-09-28T09:45:53Z</time>
      </trkpt>
      <trkpt lat="42.81959" lon="1.46111">
        <ele>1833.8520507812</ele>
        <time>2013-09-28T09:45:58Z</time>
      </trkpt>
      <trkpt lat="42.81956" lon="1.46109">
        <ele>1834.3327636719</ele>
        <time>2013-09-28T09:46:03Z</time>
      </trkpt>
      <trkpt lat="42.81953" lon="1.46108">
        <ele>1835.2939453125</ele>
        <time>2013-09-28T09:46:08Z</time>
      </trkpt>
      <trkpt lat="42.8195" lon="1.4611">
        <ele>1837.216796875</ele>
        <time>2013-09-28T09:46:14Z</time>
      </trkpt>
      <trkpt lat="42.81948" lon="1.46111">
        <ele>1838.6589355469</ele>
        <time>2013-09-28T09:46:19Z</time>
      </trkpt>
      <trkpt lat="42.81944" lon="1.46109">
        <ele>1841.0620117188</ele>
        <time>2013-09-28T09:46:26Z</time>
      </trkpt>
      <trkpt lat="42.81941" lon="1.4611">
        <ele>1842.5041503906</ele>
        <time>2013-09-28T09:46:32Z</time>
      </trkpt>
      <trkpt lat="42.81939" lon="1.46112">
        <ele>1843.9460449219</ele>
        <time>2013-09-28T09:46:37Z</time>
      </trkpt>
      <trkpt lat="42.81937" lon="1.46115">
        <ele>1845.3879394531</ele>
        <time>2013-09-28T09:46:43Z</time>
      </trkpt>
      <trkpt lat="42.81935" lon="1.46115">
        <ele>1846.3493652344</ele>
        <time>2013-09-28T09:46:49Z</time>
      </trkpt>
      <trkpt lat="42.81932" lon="1.46117">
        <ele>1848.2717285156</ele>
        <time>2013-09-28T09:46:56Z</time>
      </trkpt>
      <trkpt lat="42.8193" lon="1.46116">
        <ele>1849.2331542969</ele>
        <time>2013-09-28T09:47:01Z</time>
      </trkpt>
      <trkpt lat="42.81928" lon="1.46117">
        <ele>1850.1945800781</ele>
        <time>2013-09-28T09:47:07Z</time>
      </trkpt>
      <trkpt lat="42.81925" lon="1.46118">
        <ele>1851.6364746094</ele>
        <time>2013-09-28T09:47:13Z</time>
      </trkpt>
      <trkpt lat="42.81922" lon="1.46117">
        <ele>1852.1171875</ele>
        <time>2013-09-28T09:47:18Z</time>
      </trkpt>
      <trkpt lat="42.8192" lon="1.46119">
        <ele>1856.4431152344</ele>
        <time>2013-09-28T09:47:27Z</time>
      </trkpt>
      <trkpt lat="42.81919" lon="1.46118">
        <ele>1856.4431152344</ele>
        <time>2013-09-28T09:47:45Z</time>
      </trkpt>
      <trkpt lat="42.81917" lon="1.46121">
        <ele>1856.923828125</ele>
        <time>2013-09-28T09:47:50Z</time>
      </trkpt>
      <trkpt lat="42.81914" lon="1.46126">
        <ele>1857.8852539062</ele>
        <time>2013-09-28T09:47:56Z</time>
      </trkpt>
      <trkpt lat="42.8191" lon="1.46127">
        <ele>1859.3271484375</ele>
        <time>2013-09-28T09:48:01Z</time>
      </trkpt>
      <trkpt lat="42.81907" lon="1.4613">
        <ele>1860.7690429688</ele>
        <time>2013-09-28T09:48:07Z</time>
      </trkpt>
      <trkpt lat="42.81903" lon="1.46131">
        <ele>1862.2109375</ele>
        <time>2013-09-28T09:48:13Z</time>
      </trkpt>
      <trkpt lat="42.819" lon="1.46136">
        <ele>1863.1723632812</ele>
        <time>2013-09-28T09:48:19Z</time>
      </trkpt>
      <trkpt lat="42.81896" lon="1.46138">
        <ele>1863.6528320312</ele>
        <time>2013-09-28T09:48:25Z</time>
      </trkpt>
      <trkpt lat="42.81891" lon="1.46139">
        <ele>1863.1723632812</ele>
        <time>2013-09-28T09:48:32Z</time>
      </trkpt>
      <trkpt lat="42.8189" lon="1.46136">
        <ele>1863.6528320312</ele>
        <time>2013-09-28T09:48:36Z</time>
      </trkpt>
      <trkpt lat="42.81887" lon="1.46136">
        <ele>1864.6142578125</ele>
        <time>2013-09-28T09:48:41Z</time>
      </trkpt>
      <trkpt lat="42.81884" lon="1.4614">
        <ele>1865.5756835938</ele>
        <time>2013-09-28T09:48:47Z</time>
      </trkpt>
      <trkpt lat="42.8188" lon="1.46146">
        <ele>1866.5368652344</ele>
        <time>2013-09-28T09:48:54Z</time>
      </trkpt>
      <trkpt lat="42.81875" lon="1.46152">
        <ele>1867.498046875</ele>
        <time>2013-09-28T09:49:01Z</time>
      </trkpt>
      <trkpt lat="42.81869" lon="1.46154">
        <ele>1870.8630371094</ele>
        <time>2013-09-28T09:49:07Z</time>
      </trkpt>
      <trkpt lat="42.81863" lon="1.46157">
        <ele>1868.4597167969</ele>
        <time>2013-09-28T09:49:14Z</time>
      </trkpt>
      <trkpt lat="42.8186" lon="1.46159">
        <ele>1870.3823242188</ele>
        <time>2013-09-28T09:49:18Z</time>
      </trkpt>
      <trkpt lat="42.81853" lon="1.46163">
        <ele>1869.9016113281</ele>
        <time>2013-09-28T09:49:25Z</time>
      </trkpt>
      <trkpt lat="42.81849" lon="1.46169">
        <ele>1868.4597167969</ele>
        <time>2013-09-28T09:49:32Z</time>
      </trkpt>
      <trkpt lat="42.81844" lon="1.46174">
        <ele>1867.017578125</ele>
        <time>2013-09-28T09:49:39Z</time>
      </trkpt>
      <trkpt lat="42.81839" lon="1.46174">
        <ele>1866.0561523438</ele>
        <time>2013-09-28T09:49:45Z</time>
      </trkpt>
      <trkpt lat="42.81837" lon="1.46177">
        <ele>1864.6142578125</ele>
        <time>2013-09-28T09:49:50Z</time>
      </trkpt>
      <trkpt lat="42.81834" lon="1.46178">
        <ele>1867.017578125</ele>
        <time>2013-09-28T09:49:55Z</time>
      </trkpt>
      <trkpt lat="42.81831" lon="1.46181">
        <ele>1869.9016113281</ele>
        <time>2013-09-28T09:50:00Z</time>
      </trkpt>
      <trkpt lat="42.81828" lon="1.46183">
        <ele>1870.8630371094</ele>
        <time>2013-09-28T09:50:05Z</time>
      </trkpt>
      <trkpt lat="42.81826" lon="1.46182">
        <ele>1872.7856445312</ele>
        <time>2013-09-28T09:50:10Z</time>
      </trkpt>
      <trkpt lat="42.81823" lon="1.46181">
        <ele>1874.2275390625</ele>
        <time>2013-09-28T09:50:16Z</time>
      </trkpt>
      <trkpt lat="42.8182" lon="1.46181">
        <ele>1875.6694335938</ele>
        <time>2013-09-28T09:50:21Z</time>
      </trkpt>
      <trkpt lat="42.81817" lon="1.4618">
        <ele>1877.1115722656</ele>
        <time>2013-09-28T09:50:26Z</time>
      </trkpt>
      <trkpt lat="42.81815" lon="1.4618">
        <ele>1878.0727539062</ele>
        <time>2013-09-28T09:50:30Z</time>
      </trkpt>
      <trkpt lat="42.81813" lon="1.46179">
        <ele>1879.9953613281</ele>
        <time>2013-09-28T09:50:35Z</time>
      </trkpt>
      <trkpt lat="42.8181" lon="1.46176">
        <ele>1881.4372558594</ele>
        <time>2013-09-28T09:50:41Z</time>
      </trkpt>
      <trkpt lat="42.81806" lon="1.46172">
        <ele>1881.91796875</ele>
        <time>2013-09-28T09:50:47Z</time>
      </trkpt>
      <trkpt lat="42.81804" lon="1.46169">
        <ele>1883.8405761719</ele>
        <time>2013-09-28T09:50:53Z</time>
      </trkpt>
      <trkpt lat="42.81802" lon="1.46168">
        <ele>1884.8022460938</ele>
        <time>2013-09-28T09:50:58Z</time>
      </trkpt>
      <trkpt lat="42.818" lon="1.46165">
        <ele>1884.8022460938</ele>
        <time>2013-09-28T09:51:05Z</time>
      </trkpt>
      <trkpt lat="42.81798" lon="1.46164">
        <ele>1885.7634277344</ele>
        <time>2013-09-28T09:51:10Z</time>
      </trkpt>
      <trkpt lat="42.81796" lon="1.46161">
        <ele>1885.7634277344</ele>
        <time>2013-09-28T09:51:17Z</time>
      </trkpt>
      <trkpt lat="42.81795" lon="1.46158">
        <ele>1886.244140625</ele>
        <time>2013-09-28T09:51:21Z</time>
      </trkpt>
      <trkpt lat="42.81794" lon="1.46154">
        <ele>1886.244140625</ele>
        <time>2013-09-28T09:51:26Z</time>
      </trkpt>
      <trkpt lat="42.81792" lon="1.4615">
        <ele>1886.244140625</ele>
        <time>2013-09-28T09:51:31Z</time>
      </trkpt>
      <trkpt lat="42.81791" lon="1.46147">
        <ele>1888.1667480469</ele>
        <time>2013-09-28T09:51:36Z</time>
      </trkpt>
      <trkpt lat="42.81789" lon="1.46145">
        <ele>1888.6474609375</ele>
        <time>2013-09-28T09:51:42Z</time>
      </trkpt>
      <trkpt lat="42.81787" lon="1.46142">
        <ele>1889.6086425781</ele>
        <time>2013-09-28T09:51:46Z</time>
      </trkpt>
      <trkpt lat="42.81784" lon="1.46141">
        <ele>1891.53125</ele>
        <time>2013-09-28T09:51:52Z</time>
      </trkpt>
      <trkpt lat="42.8178" lon="1.46137">
        <ele>1892.0119628906</ele>
        <time>2013-09-28T09:52:01Z</time>
      </trkpt>
      <trkpt lat="42.81779" lon="1.46135">
        <ele>1892.4926757812</ele>
        <time>2013-09-28T09:52:06Z</time>
      </trkpt>
      <trkpt lat="42.81774" lon="1.46136">
        <ele>1897.2990722656</ele>
        <time>2013-09-28T09:52:36Z</time>
      </trkpt>
      <trkpt lat="42.81771" lon="1.46133">
        <ele>1898.7409667969</ele>
        <time>2013-09-28T09:52:42Z</time>
      </trkpt>
      <trkpt lat="42.81769" lon="1.46132">
        <ele>1900.1833496094</ele>
        <time>2013-09-28T09:52:46Z</time>
      </trkpt>
      <trkpt lat="42.81767" lon="1.4613">
        <ele>1901.14453125</ele>
        <time>2013-09-28T09:52:51Z</time>
      </trkpt>
      <trkpt lat="42.81763" lon="1.46132">
        <ele>1903.5478515625</ele>
        <time>2013-09-28T09:52:58Z</time>
      </trkpt>
      <trkpt lat="42.8176" lon="1.46131">
        <ele>1904.9897460938</ele>
        <time>2013-09-28T09:53:04Z</time>
      </trkpt>
      <trkpt lat="42.81757" lon="1.4613">
        <ele>1906.9123535156</ele>
        <time>2013-09-28T09:53:10Z</time>
      </trkpt>
      <trkpt lat="42.81754" lon="1.46127">
        <ele>1907.8737792969</ele>
        <time>2013-09-28T09:53:15Z</time>
      </trkpt>
      <trkpt lat="42.81752" lon="1.46125">
        <ele>1908.3542480469</ele>
        <time>2013-09-28T09:53:20Z</time>
      </trkpt>
      <trkpt lat="42.81749" lon="1.46124">
        <ele>1909.7961425781</ele>
        <time>2013-09-28T09:53:26Z</time>
      </trkpt>
      <trkpt lat="42.81746" lon="1.46122">
        <ele>1911.23828125</ele>
        <time>2013-09-28T09:53:32Z</time>
      </trkpt>
      <trkpt lat="42.81744" lon="1.46121">
        <ele>1912.1994628906</ele>
        <time>2013-09-28T09:53:37Z</time>
      </trkpt>
      <trkpt lat="42.81742" lon="1.46123">
        <ele>1913.6413574219</ele>
        <time>2013-09-28T09:53:43Z</time>
      </trkpt>
      <trkpt lat="42.81739" lon="1.46125">
        <ele>1914.6027832031</ele>
        <time>2013-09-28T09:53:49Z</time>
      </trkpt>
      <trkpt lat="42.81739" lon="1.46124">
        <ele>1915.5642089844</ele>
        <time>2013-09-28T09:53:58Z</time>
      </trkpt>
      <trkpt lat="42.81739" lon="1.46126">
        <ele>1916.5256347656</ele>
        <time>2013-09-28T09:54:17Z</time>
      </trkpt>
      <trkpt lat="42.81737" lon="1.46126">
        <ele>1917.0063476562</ele>
        <time>2013-09-28T09:54:25Z</time>
      </trkpt>
      <trkpt lat="42.81734" lon="1.46126">
        <ele>1917.9675292969</ele>
        <time>2013-09-28T09:54:30Z</time>
      </trkpt>
      <trkpt lat="42.81731" lon="1.46126">
        <ele>1919.4096679688</ele>
        <time>2013-09-28T09:54:35Z</time>
      </trkpt>
      <trkpt lat="42.81729" lon="1.46126">
        <ele>1920.3708496094</ele>
        <time>2013-09-28T09:54:39Z</time>
      </trkpt>
      <trkpt lat="42.81727" lon="1.46127">
        <ele>1921.8127441406</ele>
        <time>2013-09-28T09:54:44Z</time>
      </trkpt>
      <trkpt lat="42.81724" lon="1.46126">
        <ele>1922.2934570312</ele>
        <time>2013-09-28T09:54:49Z</time>
      </trkpt>
      <trkpt lat="42.81721" lon="1.46127">
        <ele>1923.7353515625</ele>
        <time>2013-09-28T09:54:54Z</time>
      </trkpt>
      <trkpt lat="42.81719" lon="1.46128">
        <ele>1924.6967773438</ele>
        <time>2013-09-28T09:54:59Z</time>
      </trkpt>
      <trkpt lat="42.81716" lon="1.46126">
        <ele>1925.6579589844</ele>
        <time>2013-09-28T09:55:05Z</time>
      </trkpt>
      <trkpt lat="42.81713" lon="1.46126">
        <ele>1926.6193847656</ele>
        <time>2013-09-28T09:55:10Z</time>
      </trkpt>
      <trkpt lat="42.81711" lon="1.46127">
        <ele>1928.0612792969</ele>
        <time>2013-09-28T09:55:15Z</time>
      </trkpt>
      <trkpt lat="42.81708" lon="1.46128">
        <ele>1930.4645996094</ele>
        <time>2013-09-28T09:55:21Z</time>
      </trkpt>
      <trkpt lat="42.81705" lon="1.46127">
        <ele>1931.42578125</ele>
        <time>2013-09-28T09:55:27Z</time>
      </trkpt>
      <trkpt lat="42.81702" lon="1.46126">
        <ele>1932.3874511719</ele>
        <time>2013-09-28T09:55:32Z</time>
      </trkpt>
      <trkpt lat="42.817" lon="1.46125">
        <ele>1933.8293457031</ele>
        <time>2013-09-28T09:55:38Z</time>
      </trkpt>
      <trkpt lat="42.817" lon="1.46127">
        <ele>1940.0778808594</ele>
        <time>2013-09-28T09:56:13Z</time>
      </trkpt>
      <trkpt lat="42.81696" lon="1.46125">
        <ele>1940.5583496094</ele>
        <time>2013-09-28T09:56:18Z</time>
      </trkpt>
      <trkpt lat="42.81693" lon="1.46127">
        <ele>1941.5197753906</ele>
        <time>2013-09-28T09:56:24Z</time>
      </trkpt>
      <trkpt lat="42.8169" lon="1.46128">
        <ele>1942.9616699219</ele>
        <time>2013-09-28T09:56:30Z</time>
      </trkpt>
      <trkpt lat="42.81688" lon="1.46133">
        <ele>1944.8842773438</ele>
        <time>2013-09-28T09:56:39Z</time>
      </trkpt>
      <trkpt lat="42.81687" lon="1.46136">
        <ele>1946.8068847656</ele>
        <time>2013-09-28T09:56:44Z</time>
      </trkpt>
      <trkpt lat="42.81686" lon="1.46139">
        <ele>1948.7297363281</ele>
        <time>2013-09-28T09:56:51Z</time>
      </trkpt>
      <trkpt lat="42.81686" lon="1.46142">
        <ele>1949.6911621094</ele>
        <time>2013-09-28T09:56:56Z</time>
      </trkpt>
      <trkpt lat="42.81684" lon="1.46143">
        <ele>1950.171875</ele>
        <time>2013-09-28T09:57:01Z</time>
      </trkpt>
      <trkpt lat="42.81681" lon="1.46143">
        <ele>1950.171875</ele>
        <time>2013-09-28T09:57:06Z</time>
      </trkpt>
      <trkpt lat="42.81679" lon="1.46143">
        <ele>1950.65234375</ele>
        <time>2013-09-28T09:57:11Z</time>
      </trkpt>
      <trkpt lat="42.81678" lon="1.46142">
        <ele>1952.0942382812</ele>
        <time>2013-09-28T09:57:16Z</time>
      </trkpt>
      <trkpt lat="42.81676" lon="1.46142">
        <ele>1953.5363769531</ele>
        <time>2013-09-28T09:57:22Z</time>
      </trkpt>
      <trkpt lat="42.81674" lon="1.46141">
        <ele>1954.0170898438</ele>
        <time>2013-09-28T09:57:27Z</time>
      </trkpt>
      <trkpt lat="42.81671" lon="1.4614">
        <ele>1955.939453125</ele>
        <time>2013-09-28T09:57:34Z</time>
      </trkpt>
      <trkpt lat="42.8167" lon="1.4614">
        <ele>1956.4201660156</ele>
        <time>2013-09-28T09:57:43Z</time>
      </trkpt>
      <trkpt lat="42.81668" lon="1.4614">
        <ele>1956.9008789062</ele>
        <time>2013-09-28T09:57:49Z</time>
      </trkpt>
      <trkpt lat="42.81666" lon="1.4614">
        <ele>1958.3427734375</ele>
        <time>2013-09-28T09:57:55Z</time>
      </trkpt>
      <trkpt lat="42.81665" lon="1.46138">
        <ele>1959.3041992188</ele>
        <time>2013-09-28T09:58:01Z</time>
      </trkpt>
      <trkpt lat="42.81662" lon="1.4614">
        <ele>1960.74609375</ele>
        <time>2013-09-28T09:58:06Z</time>
      </trkpt>
      <trkpt lat="42.8166" lon="1.46138">
        <ele>1961.7075195312</ele>
        <time>2013-09-28T09:58:12Z</time>
      </trkpt>
      <trkpt lat="42.81658" lon="1.46138">
        <ele>1962.6687011719</ele>
        <time>2013-09-28T09:58:18Z</time>
      </trkpt>
      <trkpt lat="42.81657" lon="1.46135">
        <ele>1963.1494140625</ele>
        <time>2013-09-28T09:58:25Z</time>
      </trkpt>
      <trkpt lat="42.81656" lon="1.46131">
        <ele>1965.072265625</ele>
        <time>2013-09-28T09:58:32Z</time>
      </trkpt>
      <trkpt lat="42.81653" lon="1.46125">
        <ele>1966.5141601562</ele>
        <time>2013-09-28T09:58:40Z</time>
      </trkpt>
      <trkpt lat="42.81653" lon="1.46124">
        <ele>1966.9948730469</ele>
        <time>2013-09-28T09:58:47Z</time>
      </trkpt>
      <trkpt lat="42.81652" lon="1.46123">
        <ele>1966.9948730469</ele>
        <time>2013-09-28T09:58:59Z</time>
      </trkpt>
      <trkpt lat="42.81652" lon="1.46123">
        <ele>1967.4753417969</ele>
        <time>2013-09-28T09:59:08Z</time>
      </trkpt>
      <trkpt lat="42.81653" lon="1.46122">
        <ele>1967.9560546875</ele>
        <time>2013-09-28T09:59:25Z</time>
      </trkpt>
      <trkpt lat="42.81652" lon="1.46124">
        <ele>1967.4753417969</ele>
        <time>2013-09-28T09:59:52Z</time>
      </trkpt>
      <trkpt lat="42.81652" lon="1.46118">
        <ele>1967.4753417969</ele>
        <time>2013-09-28T10:00:02Z</time>
      </trkpt>
      <trkpt lat="42.81652" lon="1.46111">
        <ele>1968.4367675781</ele>
        <time>2013-09-28T10:00:09Z</time>
      </trkpt>
      <trkpt lat="42.81655" lon="1.46101">
        <ele>1969.8786621094</ele>
        <time>2013-09-28T10:00:18Z</time>
      </trkpt>
      <trkpt lat="42.81657" lon="1.46096">
        <ele>1970.359375</ele>
        <time>2013-09-28T10:00:26Z</time>
      </trkpt>
      <trkpt lat="42.81658" lon="1.46089">
        <ele>1969.8786621094</ele>
        <time>2013-09-28T10:00:32Z</time>
      </trkpt>
      <trkpt lat="42.8166" lon="1.46079">
        <ele>1968.9174804688</ele>
        <time>2013-09-28T10:00:39Z</time>
      </trkpt>
      <trkpt lat="42.81664" lon="1.46068">
        <ele>1969.8786621094</ele>
        <time>2013-09-28T10:00:49Z</time>
      </trkpt>
      <trkpt lat="42.81665" lon="1.4606">
        <ele>1970.8400878906</ele>
        <time>2013-09-28T10:00:56Z</time>
      </trkpt>
      <trkpt lat="42.81668" lon="1.46057">
        <ele>1972.7626953125</ele>
        <time>2013-09-28T10:01:03Z</time>
      </trkpt>
      <trkpt lat="42.81668" lon="1.46055">
        <ele>1972.7626953125</ele>
        <time>2013-09-28T10:01:09Z</time>
      </trkpt>
      <trkpt lat="42.81672" lon="1.46048">
        <ele>1973.7238769531</ele>
        <time>2013-09-28T10:01:16Z</time>
      </trkpt>
      <trkpt lat="42.81676" lon="1.46041">
        <ele>1974.2045898438</ele>
        <time>2013-09-28T10:01:23Z</time>
      </trkpt>
      <trkpt lat="42.81678" lon="1.46036">
        <ele>1974.2045898438</ele>
        <time>2013-09-28T10:01:29Z</time>
      </trkpt>
      <trkpt lat="42.81679" lon="1.46032">
        <ele>1973.7238769531</ele>
        <time>2013-09-28T10:01:36Z</time>
      </trkpt>
      <trkpt lat="42.8168" lon="1.46027">
        <ele>1974.6853027344</ele>
        <time>2013-09-28T10:01:41Z</time>
      </trkpt>
      <trkpt lat="42.81681" lon="1.46022">
        <ele>1976.6079101562</ele>
        <time>2013-09-28T10:01:47Z</time>
      </trkpt>
      <trkpt lat="42.81684" lon="1.4602">
        <ele>1977.5690917969</ele>
        <time>2013-09-28T10:01:53Z</time>
      </trkpt>
      <trkpt lat="42.81686" lon="1.46012">
        <ele>1979.0109863281</ele>
        <time>2013-09-28T10:02:01Z</time>
      </trkpt>
      <trkpt lat="42.81685" lon="1.46008">
        <ele>1979.4916992188</ele>
        <time>2013-09-28T10:02:07Z</time>
      </trkpt>
      <trkpt lat="42.81683" lon="1.46002">
        <ele>1979.9724121094</ele>
        <time>2013-09-28T10:02:15Z</time>
      </trkpt>
      <trkpt lat="42.81687" lon="1.45995">
        <ele>1981.8952636719</ele>
        <time>2013-09-28T10:02:22Z</time>
      </trkpt>
      <trkpt lat="42.81689" lon="1.45989">
        <ele>1984.2985839844</ele>
        <time>2013-09-28T10:02:31Z</time>
      </trkpt>
      <trkpt lat="42.8169" lon="1.45984">
        <ele>1986.2211914062</ele>
        <time>2013-09-28T10:02:36Z</time>
      </trkpt>
      <trkpt lat="42.81695" lon="1.45977">
        <ele>1987.1823730469</ele>
        <time>2013-09-28T10:02:43Z</time>
      </trkpt>
      <trkpt lat="42.81696" lon="1.45976">
        <ele>1986.7016601562</ele>
        <time>2013-09-28T10:02:44Z</time>
      </trkpt>
      <trkpt lat="42.817" lon="1.45972">
        <ele>1985.7404785156</ele>
        <time>2013-09-28T10:02:49Z</time>
      </trkpt>
      <trkpt lat="42.81706" lon="1.45965">
        <ele>1986.2211914062</ele>
        <time>2013-09-28T10:02:56Z</time>
      </trkpt>
      <trkpt lat="42.81712" lon="1.45963">
        <ele>1988.1437988281</ele>
        <time>2013-09-28T10:03:03Z</time>
      </trkpt>
      <trkpt lat="42.81715" lon="1.4596">
        <ele>1989.5856933594</ele>
        <time>2013-09-28T10:03:08Z</time>
      </trkpt>
      <trkpt lat="42.81723" lon="1.45961">
        <ele>1991.0275878906</ele>
        <time>2013-09-28T10:03:15Z</time>
      </trkpt>
      <trkpt lat="42.81725" lon="1.45956">
        <ele>1991.0275878906</ele>
        <time>2013-09-28T10:03:22Z</time>
      </trkpt>
      <trkpt lat="42.81728" lon="1.4595">
        <ele>1990.546875</ele>
        <time>2013-09-28T10:03:29Z</time>
      </trkpt>
      <trkpt lat="42.81727" lon="1.45948">
        <ele>1990.546875</ele>
        <time>2013-09-28T10:03:34Z</time>
      </trkpt>
      <trkpt lat="42.81726" lon="1.45945">
        <ele>1991.0275878906</ele>
        <time>2013-09-28T10:03:40Z</time>
      </trkpt>
      <trkpt lat="42.81724" lon="1.45942">
        <ele>1991.9890136719</ele>
        <time>2013-09-28T10:03:46Z</time>
      </trkpt>
      <trkpt lat="42.81726" lon="1.4594">
        <ele>1992.9501953125</ele>
        <time>2013-09-28T10:03:52Z</time>
      </trkpt>
      <trkpt lat="42.81726" lon="1.45939">
        <ele>1992.4697265625</ele>
        <time>2013-09-28T10:03:57Z</time>
      </trkpt>
      <trkpt lat="42.81725" lon="1.45937">
        <ele>1993.4309082031</ele>
        <time>2013-09-28T10:04:03Z</time>
      </trkpt>
      <trkpt lat="42.81725" lon="1.45936">
        <ele>1994.3920898438</ele>
        <time>2013-09-28T10:04:09Z</time>
      </trkpt>
      <trkpt lat="42.81723" lon="1.45935">
        <ele>1995.353515625</ele>
        <time>2013-09-28T10:04:16Z</time>
      </trkpt>
      <trkpt lat="42.81723" lon="1.45933">
        <ele>1998.2375488281</ele>
        <time>2013-09-28T10:04:22Z</time>
      </trkpt>
      <trkpt lat="42.81724" lon="1.45932">
        <ele>2000.6408691406</ele>
        <time>2013-09-28T10:04:28Z</time>
      </trkpt>
      <trkpt lat="42.81723" lon="1.45932">
        <ele>2001.6022949219</ele>
        <time>2013-09-28T10:04:34Z</time>
      </trkpt>
      <trkpt lat="42.81725" lon="1.45931">
        <ele>2003.5249023438</ele>
        <time>2013-09-28T10:04:40Z</time>
      </trkpt>
      <trkpt lat="42.81728" lon="1.4593">
        <ele>2004.4860839844</ele>
        <time>2013-09-28T10:04:47Z</time>
      </trkpt>
      <trkpt lat="42.8173" lon="1.45925">
        <ele>2004.966796875</ele>
        <time>2013-09-28T10:04:53Z</time>
      </trkpt>
      <trkpt lat="42.81731" lon="1.45922">
        <ele>2005.4475097656</ele>
        <time>2013-09-28T10:05:00Z</time>
      </trkpt>
      <trkpt lat="42.81731" lon="1.45917">
        <ele>2004.966796875</ele>
        <time>2013-09-28T10:05:07Z</time>
      </trkpt>
      <trkpt lat="42.81733" lon="1.45911">
        <ele>2003.0441894531</ele>
        <time>2013-09-28T10:05:13Z</time>
      </trkpt>
      <trkpt lat="42.81736" lon="1.45903">
        <ele>2001.6022949219</ele>
        <time>2013-09-28T10:05:20Z</time>
      </trkpt>
      <trkpt lat="42.8174" lon="1.45894">
        <ele>2001.1215820312</ele>
        <time>2013-09-28T10:05:27Z</time>
      </trkpt>
      <trkpt lat="42.81742" lon="1.4589">
        <ele>2001.6022949219</ele>
        <time>2013-09-28T10:05:34Z</time>
      </trkpt>
      <trkpt lat="42.81743" lon="1.45886">
        <ele>2002.5634765625</ele>
        <time>2013-09-28T10:05:38Z</time>
      </trkpt>
      <trkpt lat="42.81744" lon="1.45883">
        <ele>2003.5249023438</ele>
        <time>2013-09-28T10:05:43Z</time>
      </trkpt>
      <trkpt lat="42.81744" lon="1.45879">
        <ele>2004.4860839844</ele>
        <time>2013-09-28T10:05:47Z</time>
      </trkpt>
      <trkpt lat="42.81743" lon="1.45876">
        <ele>2005.4475097656</ele>
        <time>2013-09-28T10:05:51Z</time>
      </trkpt>
      <trkpt lat="42.81742" lon="1.45871">
        <ele>2007.3701171875</ele>
        <time>2013-09-28T10:05:57Z</time>
      </trkpt>
      <trkpt lat="42.81745" lon="1.45868">
        <ele>2008.8120117188</ele>
        <time>2013-09-28T10:06:02Z</time>
      </trkpt>
      <trkpt lat="42.81746" lon="1.45866">
        <ele>2009.7731933594</ele>
        <time>2013-09-28T10:06:08Z</time>
      </trkpt>
      <trkpt lat="42.81746" lon="1.45863">
        <ele>2009.2927246094</ele>
        <time>2013-09-28T10:06:14Z</time>
      </trkpt>
      <trkpt lat="42.81746" lon="1.45861">
        <ele>2009.2927246094</ele>
        <time>2013-09-28T10:06:24Z</time>
      </trkpt>
      <trkpt lat="42.81746" lon="1.45859">
        <ele>2009.7731933594</ele>
        <time>2013-09-28T10:06:29Z</time>
      </trkpt>
      <trkpt lat="42.81747" lon="1.45857">
        <ele>2010.25390625</ele>
        <time>2013-09-28T10:06:34Z</time>
      </trkpt>
      <trkpt lat="42.81747" lon="1.45854">
        <ele>2010.7346191406</ele>
        <time>2013-09-28T10:06:40Z</time>
      </trkpt>
      <trkpt lat="42.81749" lon="1.4585">
        <ele>2012.6574707031</ele>
        <time>2013-09-28T10:06:46Z</time>
      </trkpt>
      <trkpt lat="42.8175" lon="1.45848">
        <ele>2015.0607910156</ele>
        <time>2013-09-28T10:06:53Z</time>
      </trkpt>
      <trkpt lat="42.81752" lon="1.45848">
        <ele>2017.4638671875</ele>
        <time>2013-09-28T10:07:00Z</time>
      </trkpt>
      <trkpt lat="42.81755" lon="1.4585">
        <ele>2020.3479003906</ele>
        <time>2013-09-28T10:07:06Z</time>
      </trkpt>
      <trkpt lat="42.81761" lon="1.45852">
        <ele>2022.2705078125</ele>
        <time>2013-09-28T10:07:13Z</time>
      </trkpt>
      <trkpt lat="42.81765" lon="1.45849">
        <ele>2023.2319335938</ele>
        <time>2013-09-28T10:07:19Z</time>
      </trkpt>
      <trkpt lat="42.81768" lon="1.45847">
        <ele>2024.673828125</ele>
        <time>2013-09-28T10:07:25Z</time>
      </trkpt>
      <trkpt lat="42.8177" lon="1.45846">
        <ele>2026.1157226562</ele>
        <time>2013-09-28T10:07:32Z</time>
      </trkpt>
      <trkpt lat="42.81771" lon="1.45844">
        <ele>2027.0771484375</ele>
        <time>2013-09-28T10:07:41Z</time>
      </trkpt>
      <trkpt lat="42.81771" lon="1.45843">
        <ele>2027.5576171875</ele>
        <time>2013-09-28T10:07:51Z</time>
      </trkpt>
      <trkpt lat="42.81776" lon="1.45844">
        <ele>2028.5192871094</ele>
        <time>2013-09-28T10:07:57Z</time>
      </trkpt>
      <trkpt lat="42.8178" lon="1.45843">
        <ele>2029.48046875</ele>
        <time>2013-09-28T10:08:04Z</time>
      </trkpt>
      <trkpt lat="42.81785" lon="1.45843">
        <ele>2030.9226074219</ele>
        <time>2013-09-28T10:08:10Z</time>
      </trkpt>
      <trkpt lat="42.81791" lon="1.45842">
        <ele>2030.9226074219</ele>
        <time>2013-09-28T10:08:17Z</time>
      </trkpt>
      <trkpt lat="42.81798" lon="1.45841">
        <ele>2029.48046875</ele>
        <time>2013-09-28T10:08:25Z</time>
      </trkpt>
      <trkpt lat="42.81803" lon="1.45839">
        <ele>2030.4418945312</ele>
        <time>2013-09-28T10:08:31Z</time>
      </trkpt>
      <trkpt lat="42.81807" lon="1.45835">
        <ele>2032.3645019531</ele>
        <time>2013-09-28T10:08:38Z</time>
      </trkpt>
      <trkpt lat="42.8181" lon="1.45834">
        <ele>2033.3256835938</ele>
        <time>2013-09-28T10:08:43Z</time>
      </trkpt>
      <trkpt lat="42.81812" lon="1.45835">
        <ele>2034.287109375</ele>
        <time>2013-09-28T10:08:48Z</time>
      </trkpt>
      <trkpt lat="42.81812" lon="1.4584">
        <ele>2035.2482910156</ele>
        <time>2013-09-28T10:08:54Z</time>
      </trkpt>
      <trkpt lat="42.81814" lon="1.45844">
        <ele>2034.7678222656</ele>
        <time>2013-09-28T10:08:59Z</time>
      </trkpt>
      <trkpt lat="42.81816" lon="1.45846">
        <ele>2035.2482910156</ele>
        <time>2013-09-28T10:09:06Z</time>
      </trkpt>
      <trkpt lat="42.81813" lon="1.45842">
        <ele>2033.3256835938</ele>
        <time>2013-09-28T10:09:20Z</time>
      </trkpt>
      <trkpt lat="42.81813" lon="1.45837">
        <ele>2033.8063964844</ele>
        <time>2013-09-28T10:09:26Z</time>
      </trkpt>
      <trkpt lat="42.81813" lon="1.45834">
        <ele>2034.287109375</ele>
        <time>2013-09-28T10:09:32Z</time>
      </trkpt>
      <trkpt lat="42.81813" lon="1.45831">
        <ele>2033.3256835938</ele>
        <time>2013-09-28T10:09:40Z</time>
      </trkpt>
      <trkpt lat="42.81812" lon="1.45832">
        <ele>2032.3645019531</ele>
        <time>2013-09-28T10:09:46Z</time>
      </trkpt>
      <trkpt lat="42.81813" lon="1.45829">
        <ele>2036.6901855469</ele>
        <time>2013-09-28T10:10:04Z</time>
      </trkpt>
      <trkpt lat="42.81815" lon="1.45827">
        <ele>2037.6516113281</ele>
        <time>2013-09-28T10:10:11Z</time>
      </trkpt>
      <trkpt lat="42.81817" lon="1.45829">
        <ele>2037.6516113281</ele>
        <time>2013-09-28T10:10:16Z</time>
      </trkpt>
      <trkpt lat="42.81818" lon="1.45831">
        <ele>2038.1323242188</ele>
        <time>2013-09-28T10:10:21Z</time>
      </trkpt>
      <trkpt lat="42.81818" lon="1.45832">
        <ele>2038.6130371094</ele>
        <time>2013-09-28T10:10:26Z</time>
      </trkpt>
      <trkpt lat="42.81818" lon="1.45833">
        <ele>2039.0935058594</ele>
        <time>2013-09-28T10:10:31Z</time>
      </trkpt>
      <trkpt lat="42.81818" lon="1.45833">
        <ele>2039.0935058594</ele>
        <time>2013-09-28T10:10:39Z</time>
      </trkpt>
      <trkpt lat="42.81818" lon="1.45831">
        <ele>2039.57421875</ele>
        <time>2013-09-28T10:10:45Z</time>
      </trkpt>
      <trkpt lat="42.81819" lon="1.4583">
        <ele>2040.0549316406</ele>
        <time>2013-09-28T10:10:51Z</time>
      </trkpt>
      <trkpt lat="42.81821" lon="1.45827">
        <ele>2040.5354003906</ele>
        <time>2013-09-28T10:10:57Z</time>
      </trkpt>
      <trkpt lat="42.81821" lon="1.45824">
        <ele>2041.4968261719</ele>
        <time>2013-09-28T10:11:04Z</time>
      </trkpt>
      <trkpt lat="42.81824" lon="1.45823">
        <ele>2042.4582519531</ele>
        <time>2013-09-28T10:11:10Z</time>
      </trkpt>
      <trkpt lat="42.81826" lon="1.45821">
        <ele>2044.8615722656</ele>
        <time>2013-09-28T10:11:19Z</time>
      </trkpt>
      <trkpt lat="42.81828" lon="1.4582">
        <ele>2047.2648925781</ele>
        <time>2013-09-28T10:11:29Z</time>
      </trkpt>
      <trkpt lat="42.81829" lon="1.45821">
        <ele>2048.2260742188</ele>
        <time>2013-09-28T10:11:34Z</time>
      </trkpt>
      <trkpt lat="42.8183" lon="1.45823">
        <ele>2048.2260742188</ele>
        <time>2013-09-28T10:11:39Z</time>
      </trkpt>
      <trkpt lat="42.81832" lon="1.45823">
        <ele>2050.1489257812</ele>
        <time>2013-09-28T10:11:46Z</time>
      </trkpt>
      <trkpt lat="42.81834" lon="1.45821">
        <ele>2050.1489257812</ele>
        <time>2013-09-28T10:11:51Z</time>
      </trkpt>
      <trkpt lat="42.81839" lon="1.4582">
        <ele>2050.6293945312</ele>
        <time>2013-09-28T10:11:57Z</time>
      </trkpt>
      <trkpt lat="42.81844" lon="1.45817">
        <ele>2051.1101074219</ele>
        <time>2013-09-28T10:12:03Z</time>
      </trkpt>
      <trkpt lat="42.81848" lon="1.45815">
        <ele>2053.0327148438</ele>
        <time>2013-09-28T10:12:09Z</time>
      </trkpt>
      <trkpt lat="42.81854" lon="1.45813">
        <ele>2054.9553222656</ele>
        <time>2013-09-28T10:12:16Z</time>
      </trkpt>
      <trkpt lat="42.81858" lon="1.45816">
        <ele>2056.8779296875</ele>
        <time>2013-09-28T10:12:23Z</time>
      </trkpt>
      <trkpt lat="42.81861" lon="1.45816">
        <ele>2057.8393554688</ele>
        <time>2013-09-28T10:12:29Z</time>
      </trkpt>
      <trkpt lat="42.81865" lon="1.45814">
        <ele>2058.8005371094</ele>
        <time>2013-09-28T10:12:34Z</time>
      </trkpt>
      <trkpt lat="42.81868" lon="1.4581">
        <ele>2059.76171875</ele>
        <time>2013-09-28T10:12:40Z</time>
      </trkpt>
      <trkpt lat="42.8187" lon="1.45807">
        <ele>2060.7233886719</ele>
        <time>2013-09-28T10:12:45Z</time>
      </trkpt>
      <trkpt lat="42.81873" lon="1.45803">
        <ele>2062.1652832031</ele>
        <time>2013-09-28T10:12:51Z</time>
      </trkpt>
      <trkpt lat="42.81875" lon="1.45798">
        <ele>2063.1267089844</ele>
        <time>2013-09-28T10:12:58Z</time>
      </trkpt>
      <trkpt lat="42.81878" lon="1.45793">
        <ele>2065.0493164062</ele>
        <time>2013-09-28T10:13:04Z</time>
      </trkpt>
      <trkpt lat="42.81879" lon="1.45791">
        <ele>2065.5300292969</ele>
        <time>2013-09-28T10:13:10Z</time>
      </trkpt>
      <trkpt lat="42.81882" lon="1.45784">
        <ele>2066.4912109375</ele>
        <time>2013-09-28T10:13:18Z</time>
      </trkpt>
      <trkpt lat="42.81885" lon="1.45779">
        <ele>2066.9719238281</ele>
        <time>2013-09-28T10:13:25Z</time>
      </trkpt>
      <trkpt lat="42.8189" lon="1.45775">
        <ele>2067.4523925781</ele>
        <time>2013-09-28T10:13:32Z</time>
      </trkpt>
      <trkpt lat="42.81894" lon="1.45774">
        <ele>2068.4138183594</ele>
        <time>2013-09-28T10:13:38Z</time>
      </trkpt>
      <trkpt lat="42.81896" lon="1.45773">
        <ele>2068.4138183594</ele>
        <time>2013-09-28T10:13:45Z</time>
      </trkpt>
      <trkpt lat="42.81897" lon="1.45772">
        <ele>2068.89453125</ele>
        <time>2013-09-28T10:13:52Z</time>
      </trkpt>
      <trkpt lat="42.81898" lon="1.4577">
        <ele>2069.3752441406</ele>
        <time>2013-09-28T10:13:59Z</time>
      </trkpt>
      <trkpt lat="42.81903" lon="1.45764">
        <ele>2069.8557128906</ele>
        <time>2013-09-28T10:14:07Z</time>
      </trkpt>
      <trkpt lat="42.81909" lon="1.45758">
        <ele>2070.3364257812</ele>
        <time>2013-09-28T10:14:16Z</time>
      </trkpt>
      <trkpt lat="42.81915" lon="1.45752">
        <ele>2069.3752441406</ele>
        <time>2013-09-28T10:14:24Z</time>
      </trkpt>
      <trkpt lat="42.8192" lon="1.45746">
        <ele>2068.89453125</ele>
        <time>2013-09-28T10:14:30Z</time>
      </trkpt>
      <trkpt lat="42.81925" lon="1.45742">
        <ele>2068.89453125</ele>
        <time>2013-09-28T10:14:35Z</time>
      </trkpt>
      <trkpt lat="42.8193" lon="1.4573">
        <ele>2067.4523925781</ele>
        <time>2013-09-28T10:14:44Z</time>
      </trkpt>
      <trkpt lat="42.81934" lon="1.45723">
        <ele>2067.4523925781</ele>
        <time>2013-09-28T10:14:52Z</time>
      </trkpt>
      <trkpt lat="42.81936" lon="1.45719">
        <ele>2067.9331054688</ele>
        <time>2013-09-28T10:14:58Z</time>
      </trkpt>
      <trkpt lat="42.81942" lon="1.45712">
        <ele>2068.4138183594</ele>
        <time>2013-09-28T10:15:06Z</time>
      </trkpt>
      <trkpt lat="42.81949" lon="1.45704">
        <ele>2068.89453125</ele>
        <time>2013-09-28T10:15:13Z</time>
      </trkpt>
      <trkpt lat="42.8195" lon="1.45702">
        <ele>2069.3752441406</ele>
        <time>2013-09-28T10:15:15Z</time>
      </trkpt>
      <trkpt lat="42.81955" lon="1.457">
        <ele>2071.7783203125</ele>
        <time>2013-09-28T10:15:23Z</time>
      </trkpt>
      <trkpt lat="42.81956" lon="1.45696">
        <ele>2072.2590332031</ele>
        <time>2013-09-28T10:15:30Z</time>
      </trkpt>
      <trkpt lat="42.81958" lon="1.45692">
        <ele>2073.2204589844</ele>
        <time>2013-09-28T10:15:37Z</time>
      </trkpt>
      <trkpt lat="42.81962" lon="1.45689">
        <ele>2074.181640625</ele>
        <time>2013-09-28T10:15:43Z</time>
      </trkpt>
      <trkpt lat="42.81963" lon="1.45686">
        <ele>2075.1428222656</ele>
        <time>2013-09-28T10:15:49Z</time>
      </trkpt>
      <trkpt lat="42.81966" lon="1.45683">
        <ele>2075.6235351562</ele>
        <time>2013-09-28T10:15:55Z</time>
      </trkpt>
      <trkpt lat="42.81968" lon="1.45681">
        <ele>2076.5852050781</ele>
        <time>2013-09-28T10:16:00Z</time>
      </trkpt>
      <trkpt lat="42.8197" lon="1.45679">
        <ele>2078.98828125</ele>
        <time>2013-09-28T10:16:06Z</time>
      </trkpt>
      <trkpt lat="42.81972" lon="1.45679">
        <ele>2080.9111328125</ele>
        <time>2013-09-28T10:16:13Z</time>
      </trkpt>
      <trkpt lat="42.81974" lon="1.45681">
        <ele>2082.3530273438</ele>
        <time>2013-09-28T10:16:18Z</time>
      </trkpt>
      <trkpt lat="42.81976" lon="1.45681">
        <ele>2082.8334960938</ele>
        <time>2013-09-28T10:16:25Z</time>
      </trkpt>
      <trkpt lat="42.81978" lon="1.45678">
        <ele>2084.7563476562</ele>
        <time>2013-09-28T10:16:31Z</time>
      </trkpt>
      <trkpt lat="42.8198" lon="1.45675">
        <ele>2085.7175292969</ele>
        <time>2013-09-28T10:16:38Z</time>
      </trkpt>
      <trkpt lat="42.81983" lon="1.45672">
        <ele>2087.1594238281</ele>
        <time>2013-09-28T10:16:45Z</time>
      </trkpt>
      <trkpt lat="42.81985" lon="1.4567">
        <ele>2087.6401367188</ele>
        <time>2013-09-28T10:16:51Z</time>
      </trkpt>
      <trkpt lat="42.81987" lon="1.45667">
        <ele>2088.1208496094</ele>
        <time>2013-09-28T10:16:56Z</time>
      </trkpt>
      <trkpt lat="42.81989" lon="1.45662">
        <ele>2088.1208496094</ele>
        <time>2013-09-28T10:17:01Z</time>
      </trkpt>
      <trkpt lat="42.81994" lon="1.45656">
        <ele>2089.08203125</ele>
        <time>2013-09-28T10:17:08Z</time>
      </trkpt>
      <trkpt lat="42.81997" lon="1.45652">
        <ele>2089.5627441406</ele>
        <time>2013-09-28T10:17:14Z</time>
      </trkpt>
      <trkpt lat="42.81999" lon="1.45647">
        <ele>2089.5627441406</ele>
        <time>2013-09-28T10:17:19Z</time>
      </trkpt>
      <trkpt lat="42.82002" lon="1.45643">
        <ele>2090.0434570312</ele>
        <time>2013-09-28T10:17:23Z</time>
      </trkpt>
      <trkpt lat="42.82009" lon="1.45634">
        <ele>2089.5627441406</ele>
        <time>2013-09-28T10:17:32Z</time>
      </trkpt>
      <trkpt lat="42.82014" lon="1.45625">
        <ele>2088.6015625</ele>
        <time>2013-09-28T10:17:40Z</time>
      </trkpt>
      <trkpt lat="42.82018" lon="1.4562">
        <ele>2089.5627441406</ele>
        <time>2013-09-28T10:17:45Z</time>
      </trkpt>
      <trkpt lat="42.82021" lon="1.45615">
        <ele>2091.4853515625</ele>
        <time>2013-09-28T10:17:53Z</time>
      </trkpt>
      <trkpt lat="42.82023" lon="1.45607">
        <ele>2091.9660644531</ele>
        <time>2013-09-28T10:17:58Z</time>
      </trkpt>
      <trkpt lat="42.82028" lon="1.45603">
        <ele>2092.9274902344</ele>
        <time>2013-09-28T10:18:04Z</time>
      </trkpt>
      <trkpt lat="42.82028" lon="1.45602">
        <ele>2092.9274902344</ele>
        <time>2013-09-28T10:18:05Z</time>
      </trkpt>
      <trkpt lat="42.82033" lon="1.45597">
        <ele>2094.3693847656</ele>
        <time>2013-09-28T10:18:12Z</time>
      </trkpt>
      <trkpt lat="42.82038" lon="1.45595">
        <ele>2095.3308105469</ele>
        <time>2013-09-28T10:18:18Z</time>
      </trkpt>
      <trkpt lat="42.82043" lon="1.45593">
        <ele>2095.8115234375</ele>
        <time>2013-09-28T10:18:24Z</time>
      </trkpt>
      <trkpt lat="42.82048" lon="1.45587">
        <ele>2096.7727050781</ele>
        <time>2013-09-28T10:18:30Z</time>
      </trkpt>
      <trkpt lat="42.82053" lon="1.45587">
        <ele>2097.7341308594</ele>
        <time>2013-09-28T10:18:36Z</time>
      </trkpt>
      <trkpt lat="42.82057" lon="1.45587">
        <ele>2099.1760253906</ele>
        <time>2013-09-28T10:18:43Z</time>
      </trkpt>
      <trkpt lat="42.82061" lon="1.45586">
        <ele>2100.1374511719</ele>
        <time>2013-09-28T10:18:50Z</time>
      </trkpt>
      <trkpt lat="42.82061" lon="1.45582">
        <ele>2099.6567382812</ele>
        <time>2013-09-28T10:18:57Z</time>
      </trkpt>
      <trkpt lat="42.82063" lon="1.45576">
        <ele>2098.6953125</ele>
        <time>2013-09-28T10:19:02Z</time>
      </trkpt>
      <trkpt lat="42.82067" lon="1.45574">
        <ele>2099.6567382812</ele>
        <time>2013-09-28T10:19:09Z</time>
      </trkpt>
      <trkpt lat="42.82069" lon="1.45576">
        <ele>2100.6179199219</ele>
        <time>2013-09-28T10:19:14Z</time>
      </trkpt>
      <trkpt lat="42.82069" lon="1.45576">
        <ele>2100.6179199219</ele>
        <time>2013-09-28T10:19:19Z</time>
      </trkpt>
      <trkpt lat="42.82071" lon="1.45573">
        <ele>2101.0986328125</ele>
        <time>2013-09-28T10:19:25Z</time>
      </trkpt>
      <trkpt lat="42.82072" lon="1.45571">
        <ele>2101.5793457031</ele>
        <time>2013-09-28T10:19:30Z</time>
      </trkpt>
      <trkpt lat="42.82074" lon="1.45568">
        <ele>2103.0212402344</ele>
        <time>2013-09-28T10:19:36Z</time>
      </trkpt>
      <trkpt lat="42.82075" lon="1.45563">
        <ele>2103.501953125</ele>
        <time>2013-09-28T10:19:43Z</time>
      </trkpt>
      <trkpt lat="42.82076" lon="1.45557">
        <ele>2103.0212402344</ele>
        <time>2013-09-28T10:19:50Z</time>
      </trkpt>
      <trkpt lat="42.82081" lon="1.45556">
        <ele>2103.501953125</ele>
        <time>2013-09-28T10:19:56Z</time>
      </trkpt>
      <trkpt lat="42.82083" lon="1.45547">
        <ele>2103.501953125</ele>
        <time>2013-09-28T10:20:04Z</time>
      </trkpt>
      <trkpt lat="42.82083" lon="1.45542">
        <ele>2103.0212402344</ele>
        <time>2013-09-28T10:20:10Z</time>
      </trkpt>
      <trkpt lat="42.82085" lon="1.45534">
        <ele>2102.5405273438</ele>
        <time>2013-09-28T10:20:16Z</time>
      </trkpt>
      <trkpt lat="42.82087" lon="1.4553">
        <ele>2102.5405273438</ele>
        <time>2013-09-28T10:20:19Z</time>
      </trkpt>
      <trkpt lat="42.82089" lon="1.45523">
        <ele>2102.5405273438</ele>
        <time>2013-09-28T10:20:24Z</time>
      </trkpt>
      <trkpt lat="42.82092" lon="1.45515">
        <ele>2103.501953125</ele>
        <time>2013-09-28T10:20:31Z</time>
      </trkpt>
      <trkpt lat="42.82094" lon="1.45512">
        <ele>2104.9438476562</ele>
        <time>2013-09-28T10:20:37Z</time>
      </trkpt>
      <trkpt lat="42.82095" lon="1.45508">
        <ele>2106.3857421875</ele>
        <time>2013-09-28T10:20:43Z</time>
      </trkpt>
      <trkpt lat="42.82097" lon="1.45507">
        <ele>2107.3471679688</ele>
        <time>2013-09-28T10:20:48Z</time>
      </trkpt>
      <trkpt lat="42.82099" lon="1.45505">
        <ele>2108.30859375</ele>
        <time>2013-09-28T10:20:53Z</time>
      </trkpt>
      <trkpt lat="42.82101" lon="1.45501">
        <ele>2109.7504882812</ele>
        <time>2013-09-28T10:20:59Z</time>
      </trkpt>
      <trkpt lat="42.82104" lon="1.45496">
        <ele>2110.7119140625</ele>
        <time>2013-09-28T10:21:05Z</time>
      </trkpt>
      <trkpt lat="42.82107" lon="1.45491">
        <ele>2112.1538085938</ele>
        <time>2013-09-28T10:21:12Z</time>
      </trkpt>
      <trkpt lat="42.82108" lon="1.45484">
        <ele>2112.6345214844</ele>
        <time>2013-09-28T10:21:18Z</time>
      </trkpt>
      <trkpt lat="42.8211" lon="1.45477">
        <ele>2112.6345214844</ele>
        <time>2013-09-28T10:21:25Z</time>
      </trkpt>
      <trkpt lat="42.8211" lon="1.45467">
        <ele>2114.0764160156</ele>
        <time>2013-09-28T10:21:33Z</time>
      </trkpt>
      <trkpt lat="42.82111" lon="1.45461">
        <ele>2115.0378417969</ele>
        <time>2013-09-28T10:21:38Z</time>
      </trkpt>
      <trkpt lat="42.82113" lon="1.45456">
        <ele>2116.9604492188</ele>
        <time>2013-09-28T10:21:45Z</time>
      </trkpt>
      <trkpt lat="42.82114" lon="1.45452">
        <ele>2117.9216308594</ele>
        <time>2013-09-28T10:21:50Z</time>
      </trkpt>
      <trkpt lat="42.82117" lon="1.45446">
        <ele>2119.3637695312</ele>
        <time>2013-09-28T10:21:56Z</time>
      </trkpt>
      <trkpt lat="42.82119" lon="1.45443">
        <ele>2120.8056640625</ele>
        <time>2013-09-28T10:22:01Z</time>
      </trkpt>
      <trkpt lat="42.82122" lon="1.45439">
        <ele>2122.2475585938</ele>
        <time>2013-09-28T10:22:08Z</time>
      </trkpt>
      <trkpt lat="42.82124" lon="1.45435">
        <ele>2123.208984375</ele>
        <time>2013-09-28T10:22:14Z</time>
      </trkpt>
      <trkpt lat="42.82125" lon="1.4543">
        <ele>2124.1704101562</ele>
        <time>2013-09-28T10:22:20Z</time>
      </trkpt>
      <trkpt lat="42.82126" lon="1.45424">
        <ele>2125.6123046875</ele>
        <time>2013-09-28T10:22:27Z</time>
      </trkpt>
      <trkpt lat="42.82126" lon="1.45422">
        <ele>2127.0544433594</ele>
        <time>2013-09-28T10:22:35Z</time>
      </trkpt>
      <trkpt lat="42.82127" lon="1.45418">
        <ele>2128.015625</ele>
        <time>2013-09-28T10:22:40Z</time>
      </trkpt>
      <trkpt lat="42.82129" lon="1.45415">
        <ele>2128.9768066406</ele>
        <time>2013-09-28T10:22:47Z</time>
      </trkpt>
      <trkpt lat="42.82129" lon="1.45411">
        <ele>2129.4575195312</ele>
        <time>2013-09-28T10:23:02Z</time>
      </trkpt>
      <trkpt lat="42.8213" lon="1.45406">
        <ele>2130.4189453125</ele>
        <time>2013-09-28T10:23:10Z</time>
      </trkpt>
      <trkpt lat="42.82132" lon="1.45401">
        <ele>2130.8996582031</ele>
        <time>2013-09-28T10:23:16Z</time>
      </trkpt>
      <trkpt lat="42.82136" lon="1.45394">
        <ele>2132.3415527344</ele>
        <time>2013-09-28T10:23:24Z</time>
      </trkpt>
      <trkpt lat="42.82137" lon="1.45386">
        <ele>2133.7834472656</ele>
        <time>2013-09-28T10:23:31Z</time>
      </trkpt>
      <trkpt lat="42.8214" lon="1.45381">
        <ele>2134.7448730469</ele>
        <time>2013-09-28T10:23:37Z</time>
      </trkpt>
      <trkpt lat="42.82143" lon="1.45376">
        <ele>2135.7060546875</ele>
        <time>2013-09-28T10:23:44Z</time>
      </trkpt>
      <trkpt lat="42.82145" lon="1.45372">
        <ele>2136.6672363281</ele>
        <time>2013-09-28T10:23:48Z</time>
      </trkpt>
      <trkpt lat="42.82147" lon="1.45367">
        <ele>2138.109375</ele>
        <time>2013-09-28T10:23:54Z</time>
      </trkpt>
      <trkpt lat="42.8215" lon="1.45367">
        <ele>2139.0705566406</ele>
        <time>2013-09-28T10:24:00Z</time>
      </trkpt>
      <trkpt lat="42.82151" lon="1.45371">
        <ele>2140.0322265625</ele>
        <time>2013-09-28T10:24:06Z</time>
      </trkpt>
      <trkpt lat="42.82154" lon="1.45375">
        <ele>2140.5126953125</ele>
        <time>2013-09-28T10:24:12Z</time>
      </trkpt>
      <trkpt lat="42.82156" lon="1.45379">
        <ele>2141.4741210938</ele>
        <time>2013-09-28T10:24:19Z</time>
      </trkpt>
      <trkpt lat="42.82157" lon="1.45382">
        <ele>2141.9548339844</ele>
        <time>2013-09-28T10:24:25Z</time>
      </trkpt>
      <trkpt lat="42.82158" lon="1.45388">
        <ele>2141.9548339844</ele>
        <time>2013-09-28T10:24:32Z</time>
      </trkpt>
      <trkpt lat="42.82158" lon="1.45391">
        <ele>2141.9548339844</ele>
        <time>2013-09-28T10:24:39Z</time>
      </trkpt>
      <trkpt lat="42.82161" lon="1.4539">
        <ele>2143.3967285156</ele>
        <time>2013-09-28T10:24:45Z</time>
      </trkpt>
      <trkpt lat="42.82162" lon="1.45393">
        <ele>2143.8774414062</ele>
        <time>2013-09-28T10:24:51Z</time>
      </trkpt>
      <trkpt lat="42.82162" lon="1.45391">
        <ele>2144.3579101562</ele>
        <time>2013-09-28T10:24:56Z</time>
      </trkpt>
      <trkpt lat="42.82164" lon="1.45388">
        <ele>2145.3193359375</ele>
        <time>2013-09-28T10:25:01Z</time>
      </trkpt>
      <trkpt lat="42.82166" lon="1.45384">
        <ele>2146.7612304688</ele>
        <time>2013-09-28T10:25:07Z</time>
      </trkpt>
      <trkpt lat="42.82167" lon="1.45379">
        <ele>2148.203125</ele>
        <time>2013-09-28T10:25:15Z</time>
      </trkpt>
      <trkpt lat="42.82168" lon="1.45375">
        <ele>2149.1645507812</ele>
        <time>2013-09-28T10:25:21Z</time>
      </trkpt>
      <trkpt lat="42.82169" lon="1.45372">
        <ele>2150.1259765625</ele>
        <time>2013-09-28T10:25:27Z</time>
      </trkpt>
      <trkpt lat="42.8217" lon="1.4537">
        <ele>2151.0871582031</ele>
        <time>2013-09-28T10:25:34Z</time>
      </trkpt>
      <trkpt lat="42.82172" lon="1.45365">
        <ele>2152.0483398438</ele>
        <time>2013-09-28T10:25:41Z</time>
      </trkpt>
      <trkpt lat="42.82174" lon="1.45364">
        <ele>2153.009765625</ele>
        <time>2013-09-28T10:25:46Z</time>
      </trkpt>
      <trkpt lat="42.82174" lon="1.45364">
        <ele>2153.4904785156</ele>
        <time>2013-09-28T10:25:52Z</time>
      </trkpt>
      <trkpt lat="42.82177" lon="1.45362">
        <ele>2154.9323730469</ele>
        <time>2013-09-28T10:25:59Z</time>
      </trkpt>
      <trkpt lat="42.82178" lon="1.45363">
        <ele>2156.3745117188</ele>
        <time>2013-09-28T10:26:05Z</time>
      </trkpt>
      <trkpt lat="42.8218" lon="1.45364">
        <ele>2158.2971191406</ele>
        <time>2013-09-28T10:26:13Z</time>
      </trkpt>
      <trkpt lat="42.82182" lon="1.45364">
        <ele>2159.2585449219</ele>
        <time>2013-09-28T10:26:19Z</time>
      </trkpt>
      <trkpt lat="42.82185" lon="1.45363">
        <ele>2160.7004394531</ele>
        <time>2013-09-28T10:26:26Z</time>
      </trkpt>
      <trkpt lat="42.82187" lon="1.45362">
        <ele>2161.6618652344</ele>
        <time>2013-09-28T10:26:33Z</time>
      </trkpt>
      <trkpt lat="42.8219" lon="1.45362">
        <ele>2162.623046875</ele>
        <time>2013-09-28T10:26:37Z</time>
      </trkpt>
      <trkpt lat="42.82191" lon="1.45361">
        <ele>2163.5842285156</ele>
        <time>2013-09-28T10:26:42Z</time>
      </trkpt>
      <trkpt lat="42.82194" lon="1.45358">
        <ele>2164.5456542969</ele>
        <time>2013-09-28T10:26:49Z</time>
      </trkpt>
      <trkpt lat="42.82198" lon="1.45351">
        <ele>2165.9875488281</ele>
        <time>2013-09-28T10:26:57Z</time>
      </trkpt>
      <trkpt lat="42.82201" lon="1.45346">
        <ele>2166.9489746094</ele>
        <time>2013-09-28T10:27:03Z</time>
      </trkpt>
      <trkpt lat="42.82206" lon="1.45342">
        <ele>2167.4294433594</ele>
        <time>2013-09-28T10:27:10Z</time>
      </trkpt>
      <trkpt lat="42.82211" lon="1.45338">
        <ele>2167.91015625</ele>
        <time>2013-09-28T10:27:17Z</time>
      </trkpt>
      <trkpt lat="42.82215" lon="1.45337">
        <ele>2168.8715820312</ele>
        <time>2013-09-28T10:27:23Z</time>
      </trkpt>
      <trkpt lat="42.82222" lon="1.45337">
        <ele>2169.3522949219</ele>
        <time>2013-09-28T10:27:32Z</time>
      </trkpt>
      <trkpt lat="42.82228" lon="1.45336">
        <ele>2170.7941894531</ele>
        <time>2013-09-28T10:27:40Z</time>
      </trkpt>
      <trkpt lat="42.82234" lon="1.45331">
        <ele>2171.2746582031</ele>
        <time>2013-09-28T10:27:48Z</time>
      </trkpt>
      <trkpt lat="42.82237" lon="1.45326">
        <ele>2171.7553710938</ele>
        <time>2013-09-28T10:27:54Z</time>
      </trkpt>
      <trkpt lat="42.82243" lon="1.45317">
        <ele>2172.236328125</ele>
        <time>2013-09-28T10:28:02Z</time>
      </trkpt>
      <trkpt lat="42.8225" lon="1.45309">
        <ele>2171.2746582031</ele>
        <time>2013-09-28T10:28:10Z</time>
      </trkpt>
      <trkpt lat="42.82254" lon="1.45296">
        <ele>2170.3134765625</ele>
        <time>2013-09-28T10:28:19Z</time>
      </trkpt>
      <trkpt lat="42.82259" lon="1.4528">
        <ele>2169.8327636719</ele>
        <time>2013-09-28T10:28:30Z</time>
      </trkpt>
      <trkpt lat="42.82264" lon="1.45269">
        <ele>2168.3908691406</ele>
        <time>2013-09-28T10:28:38Z</time>
      </trkpt>
      <trkpt lat="42.82268" lon="1.45257">
        <ele>2167.91015625</ele>
        <time>2013-09-28T10:28:46Z</time>
      </trkpt>
      <trkpt lat="42.82274" lon="1.45245">
        <ele>2167.4294433594</ele>
        <time>2013-09-28T10:28:54Z</time>
      </trkpt>
      <trkpt lat="42.82281" lon="1.4523">
        <ele>2167.4294433594</ele>
        <time>2013-09-28T10:29:04Z</time>
      </trkpt>
      <trkpt lat="42.82286" lon="1.45216">
        <ele>2167.4294433594</ele>
        <time>2013-09-28T10:29:13Z</time>
      </trkpt>
      <trkpt lat="42.82291" lon="1.45201">
        <ele>2167.4294433594</ele>
        <time>2013-09-28T10:29:22Z</time>
      </trkpt>
      <trkpt lat="42.82296" lon="1.4519">
        <ele>2166.4682617188</ele>
        <time>2013-09-28T10:29:31Z</time>
      </trkpt>
      <trkpt lat="42.82299" lon="1.45185">
        <ele>2165.0263671875</ele>
        <time>2013-09-28T10:29:38Z</time>
      </trkpt>
      <trkpt lat="42.82302" lon="1.45176">
        <ele>2163.5842285156</ele>
        <time>2013-09-28T10:29:45Z</time>
      </trkpt>
      <trkpt lat="42.82306" lon="1.45165">
        <ele>2162.623046875</ele>
        <time>2013-09-28T10:29:53Z</time>
      </trkpt>
      <trkpt lat="42.8231" lon="1.45154">
        <ele>2162.1423339844</ele>
        <time>2013-09-28T10:30:01Z</time>
      </trkpt>
      <trkpt lat="42.82314" lon="1.45143">
        <ele>2161.1811523438</ele>
        <time>2013-09-28T10:30:09Z</time>
      </trkpt>
      <trkpt lat="42.82319" lon="1.45133">
        <ele>2160.2197265625</ele>
        <time>2013-09-28T10:30:17Z</time>
      </trkpt>
      <trkpt lat="42.82323" lon="1.45122">
        <ele>2158.7778320312</ele>
        <time>2013-09-28T10:30:24Z</time>
      </trkpt>
      <trkpt lat="42.82328" lon="1.45112">
        <ele>2158.7778320312</ele>
        <time>2013-09-28T10:30:32Z</time>
      </trkpt>
      <trkpt lat="42.82333" lon="1.45098">
        <ele>2158.2971191406</ele>
        <time>2013-09-28T10:30:41Z</time>
      </trkpt>
      <trkpt lat="42.82338" lon="1.45089">
        <ele>2157.3359375</ele>
        <time>2013-09-28T10:30:49Z</time>
      </trkpt>
      <trkpt lat="42.82341" lon="1.4508">
        <ele>2156.3745117188</ele>
        <time>2013-09-28T10:30:55Z</time>
      </trkpt>
      <trkpt lat="42.82347" lon="1.4507">
        <ele>2153.9711914062</ele>
        <time>2013-09-28T10:31:05Z</time>
      </trkpt>
      <trkpt lat="42.82351" lon="1.45062">
        <ele>2152.5290527344</ele>
        <time>2013-09-28T10:31:12Z</time>
      </trkpt>
      <trkpt lat="42.82356" lon="1.45052">
        <ele>2150.6064453125</ele>
        <time>2013-09-28T10:31:20Z</time>
      </trkpt>
      <trkpt lat="42.82356" lon="1.45045">
        <ele>2149.1645507812</ele>
        <time>2013-09-28T10:31:26Z</time>
      </trkpt>
      <trkpt lat="42.82362" lon="1.45038">
        <ele>2146.7612304688</ele>
        <time>2013-09-28T10:31:33Z</time>
      </trkpt>
      <trkpt lat="42.82365" lon="1.45028">
        <ele>2144.8386230469</ele>
        <time>2013-09-28T10:31:41Z</time>
      </trkpt>
      <trkpt lat="42.8237" lon="1.45019">
        <ele>2143.3967285156</ele>
        <time>2013-09-28T10:31:48Z</time>
      </trkpt>
      <trkpt lat="42.82378" lon="1.45009">
        <ele>2142.435546875</ele>
        <time>2013-09-28T10:31:57Z</time>
      </trkpt>
      <trkpt lat="42.82384" lon="1.45">
        <ele>2141.4741210938</ele>
        <time>2013-09-28T10:32:04Z</time>
      </trkpt>
      <trkpt lat="42.82388" lon="1.4499">
        <ele>2141.4741210938</ele>
        <time>2013-09-28T10:32:11Z</time>
      </trkpt>
      <trkpt lat="42.82392" lon="1.44978">
        <ele>2140.0322265625</ele>
        <time>2013-09-28T10:32:19Z</time>
      </trkpt>
      <trkpt lat="42.82398" lon="1.4497">
        <ele>2138.5900878906</ele>
        <time>2013-09-28T10:32:27Z</time>
      </trkpt>
      <trkpt lat="42.82404" lon="1.4496">
        <ele>2136.6672363281</ele>
        <time>2013-09-28T10:32:35Z</time>
      </trkpt>
      <trkpt lat="42.82409" lon="1.44952">
        <ele>2134.7448730469</ele>
        <time>2013-09-28T10:32:42Z</time>
      </trkpt>
      <trkpt lat="42.8241" lon="1.44948">
        <ele>2134.2641601562</ele>
        <time>2013-09-28T10:32:45Z</time>
      </trkpt>
      <trkpt lat="42.82412" lon="1.44944">
        <ele>2133.7834472656</ele>
        <time>2013-09-28T10:32:48Z</time>
      </trkpt>
      <trkpt lat="42.82415" lon="1.44941">
        <ele>2133.302734375</ele>
        <time>2013-09-28T10:32:51Z</time>
      </trkpt>
      <trkpt lat="42.82417" lon="1.44933">
        <ele>2132.3415527344</ele>
        <time>2013-09-28T10:32:56Z</time>
      </trkpt>
      <trkpt lat="42.82419" lon="1.44924">
        <ele>2130.4189453125</ele>
        <time>2013-09-28T10:33:02Z</time>
      </trkpt>
      <trkpt lat="42.8242" lon="1.44919">
        <ele>2129.4575195312</ele>
        <time>2013-09-28T10:33:05Z</time>
      </trkpt>
      <trkpt lat="42.8242" lon="1.44912">
        <ele>2128.9768066406</ele>
        <time>2013-09-28T10:33:10Z</time>
      </trkpt>
      <trkpt lat="42.82423" lon="1.44906">
        <ele>2127.5349121094</ele>
        <time>2013-09-28T10:33:15Z</time>
      </trkpt>
      <trkpt lat="42.82427" lon="1.449">
        <ele>2126.5737304688</ele>
        <time>2013-09-28T10:33:22Z</time>
      </trkpt>
      <trkpt lat="42.82429" lon="1.44892">
        <ele>2124.1704101562</ele>
        <time>2013-09-28T10:33:28Z</time>
      </trkpt>
      <trkpt lat="42.8243" lon="1.44884">
        <ele>2121.7668457031</ele>
        <time>2013-09-28T10:33:34Z</time>
      </trkpt>
      <trkpt lat="42.82429" lon="1.44878">
        <ele>2120.8056640625</ele>
        <time>2013-09-28T10:33:39Z</time>
      </trkpt>
      <trkpt lat="42.82431" lon="1.4487">
        <ele>2118.8830566406</ele>
        <time>2013-09-28T10:33:46Z</time>
      </trkpt>
      <trkpt lat="42.82432" lon="1.44864">
        <ele>2117.9216308594</ele>
        <time>2013-09-28T10:33:52Z</time>
      </trkpt>
      <trkpt lat="42.82432" lon="1.44858">
        <ele>2116.4797363281</ele>
        <time>2013-09-28T10:33:58Z</time>
      </trkpt>
      <trkpt lat="42.82433" lon="1.44852">
        <ele>2115.0378417969</ele>
        <time>2013-09-28T10:34:04Z</time>
      </trkpt>
      <trkpt lat="42.82436" lon="1.44843">
        <ele>2113.115234375</ele>
        <time>2013-09-28T10:34:11Z</time>
      </trkpt>
      <trkpt lat="42.82437" lon="1.4484">
        <ele>2113.115234375</ele>
        <time>2013-09-28T10:34:13Z</time>
      </trkpt>
      <trkpt lat="42.8244" lon="1.44831">
        <ele>2112.1538085938</ele>
        <time>2013-09-28T10:34:19Z</time>
      </trkpt>
      <trkpt lat="42.82445" lon="1.44824">
        <ele>2112.6345214844</ele>
        <time>2013-09-28T10:34:27Z</time>
      </trkpt>
      <trkpt lat="42.82449" lon="1.4482">
        <ele>2113.115234375</ele>
        <time>2013-09-28T10:34:32Z</time>
      </trkpt>
      <trkpt lat="42.82455" lon="1.44817">
        <ele>2114.0764160156</ele>
        <time>2013-09-28T10:34:39Z</time>
      </trkpt>
      <trkpt lat="42.82457" lon="1.44814">
        <ele>2115.0378417969</ele>
        <time>2013-09-28T10:34:44Z</time>
      </trkpt>
      <trkpt lat="42.82459" lon="1.4481">
        <ele>2115.9990234375</ele>
        <time>2013-09-28T10:34:50Z</time>
      </trkpt>
      <trkpt lat="42.82461" lon="1.44806">
        <ele>2117.4409179688</ele>
        <time>2013-09-28T10:34:57Z</time>
      </trkpt>
      <trkpt lat="42.82463" lon="1.44805">
        <ele>2118.40234375</ele>
        <time>2013-09-28T10:35:02Z</time>
      </trkpt>
      <trkpt lat="42.82465" lon="1.44802">
        <ele>2119.3637695312</ele>
        <time>2013-09-28T10:35:08Z</time>
      </trkpt>
      <trkpt lat="42.82465" lon="1.44801">
        <ele>2120.3249511719</ele>
        <time>2013-09-28T10:35:13Z</time>
      </trkpt>
      <trkpt lat="42.82466" lon="1.44798">
        <ele>2121.2861328125</ele>
        <time>2013-09-28T10:35:20Z</time>
      </trkpt>
      <trkpt lat="42.82468" lon="1.44797">
        <ele>2121.7668457031</ele>
        <time>2013-09-28T10:35:25Z</time>
      </trkpt>
      <trkpt lat="42.8247" lon="1.44792">
        <ele>2122.2475585938</ele>
        <time>2013-09-28T10:35:31Z</time>
      </trkpt>
      <trkpt lat="42.82473" lon="1.44791">
        <ele>2123.208984375</ele>
        <time>2013-09-28T10:35:36Z</time>
      </trkpt>
      <trkpt lat="42.82476" lon="1.44789">
        <ele>2124.6511230469</ele>
        <time>2013-09-28T10:35:42Z</time>
      </trkpt>
      <trkpt lat="42.82476" lon="1.44786">
        <ele>2126.0930175781</ele>
        <time>2013-09-28T10:35:48Z</time>
      </trkpt>
      <trkpt lat="42.82478" lon="1.44783">
        <ele>2128.015625</ele>
        <time>2013-09-28T10:35:53Z</time>
      </trkpt>
      <trkpt lat="42.82479" lon="1.4478">
        <ele>2128.9768066406</ele>
        <time>2013-09-28T10:35:59Z</time>
      </trkpt>
      <trkpt lat="42.82481" lon="1.44776">
        <ele>2129.9382324219</ele>
        <time>2013-09-28T10:36:05Z</time>
      </trkpt>
      <trkpt lat="42.82483" lon="1.44775">
        <ele>2130.8996582031</ele>
        <time>2013-09-28T10:36:10Z</time>
      </trkpt>
      <trkpt lat="42.82484" lon="1.44771">
        <ele>2132.3415527344</ele>
        <time>2013-09-28T10:36:17Z</time>
      </trkpt>
      <trkpt lat="42.82485" lon="1.44768">
        <ele>2133.302734375</ele>
        <time>2013-09-28T10:36:23Z</time>
      </trkpt>
      <trkpt lat="42.82487" lon="1.44765">
        <ele>2134.2641601562</ele>
        <time>2013-09-28T10:36:29Z</time>
      </trkpt>
      <trkpt lat="42.8249" lon="1.44765">
        <ele>2135.2253417969</ele>
        <time>2013-09-28T10:36:34Z</time>
      </trkpt>
      <trkpt lat="42.82492" lon="1.44765">
        <ele>2136.1867675781</ele>
        <time>2013-09-28T10:36:40Z</time>
      </trkpt>
      <trkpt lat="42.82494" lon="1.44764">
        <ele>2137.6286621094</ele>
        <time>2013-09-28T10:36:47Z</time>
      </trkpt>
      <trkpt lat="42.82495" lon="1.44761">
        <ele>2138.5900878906</ele>
        <time>2013-09-28T10:36:52Z</time>
      </trkpt>
      <trkpt lat="42.82497" lon="1.44758">
        <ele>2140.0322265625</ele>
        <time>2013-09-28T10:36:57Z</time>
      </trkpt>
      <trkpt lat="42.82499" lon="1.44757">
        <ele>2141.4741210938</ele>
        <time>2013-09-28T10:37:03Z</time>
      </trkpt>
      <trkpt lat="42.82501" lon="1.44754">
        <ele>2142.435546875</ele>
        <time>2013-09-28T10:37:10Z</time>
      </trkpt>
      <trkpt lat="42.82503" lon="1.4475">
        <ele>2143.8774414062</ele>
        <time>2013-09-28T10:37:15Z</time>
      </trkpt>
      <trkpt lat="42.82505" lon="1.44749">
        <ele>2144.3579101562</ele>
        <time>2013-09-28T10:37:20Z</time>
      </trkpt>
      <trkpt lat="42.82507" lon="1.4475">
        <ele>2145.3193359375</ele>
        <time>2013-09-28T10:37:25Z</time>
      </trkpt>
      <trkpt lat="42.8251" lon="1.44754">
        <ele>2145.8000488281</ele>
        <time>2013-09-28T10:37:31Z</time>
      </trkpt>
      <trkpt lat="42.82512" lon="1.44756">
        <ele>2146.2807617188</ele>
        <time>2013-09-28T10:37:38Z</time>
      </trkpt>
      <trkpt lat="42.82513" lon="1.44754">
        <ele>2147.72265625</ele>
        <time>2013-09-28T10:37:44Z</time>
      </trkpt>
      <trkpt lat="42.82513" lon="1.44748">
        <ele>2148.6838378906</ele>
        <time>2013-09-28T10:37:50Z</time>
      </trkpt>
      <trkpt lat="42.82513" lon="1.44741">
        <ele>2149.1645507812</ele>
        <time>2013-09-28T10:37:56Z</time>
      </trkpt>
      <trkpt lat="42.82515" lon="1.44735">
        <ele>2150.1259765625</ele>
        <time>2013-09-28T10:38:02Z</time>
      </trkpt>
      <trkpt lat="42.82517" lon="1.44729">
        <ele>2151.5678710938</ele>
        <time>2013-09-28T10:38:09Z</time>
      </trkpt>
      <trkpt lat="42.8252" lon="1.44725">
        <ele>2152.0483398438</ele>
        <time>2013-09-28T10:38:14Z</time>
      </trkpt>
      <trkpt lat="42.82521" lon="1.44721">
        <ele>2153.009765625</ele>
        <time>2013-09-28T10:38:19Z</time>
      </trkpt>
      <trkpt lat="42.82524" lon="1.44713">
        <ele>2153.9711914062</ele>
        <time>2013-09-28T10:38:25Z</time>
      </trkpt>
      <trkpt lat="42.82527" lon="1.44707">
        <ele>2154.9323730469</ele>
        <time>2013-09-28T10:38:31Z</time>
      </trkpt>
      <trkpt lat="42.82531" lon="1.44699">
        <ele>2155.8935546875</ele>
        <time>2013-09-28T10:38:39Z</time>
      </trkpt>
      <trkpt lat="42.82535" lon="1.44692">
        <ele>2156.8552246094</ele>
        <time>2013-09-28T10:38:47Z</time>
      </trkpt>
      <trkpt lat="42.8254" lon="1.44682">
        <ele>2158.7778320312</ele>
        <time>2013-09-28T10:38:56Z</time>
      </trkpt>
      <trkpt lat="42.82544" lon="1.44676">
        <ele>2159.2585449219</ele>
        <time>2013-09-28T10:39:02Z</time>
      </trkpt>
      <trkpt lat="42.82549" lon="1.44669">
        <ele>2160.2197265625</ele>
        <time>2013-09-28T10:39:09Z</time>
      </trkpt>
      <trkpt lat="42.82554" lon="1.44661">
        <ele>2160.7004394531</ele>
        <time>2013-09-28T10:39:16Z</time>
      </trkpt>
      <trkpt lat="42.8256" lon="1.44655">
        <ele>2161.6618652344</ele>
        <time>2013-09-28T10:39:23Z</time>
      </trkpt>
      <trkpt lat="42.82562" lon="1.4465">
        <ele>2162.1423339844</ele>
        <time>2013-09-28T10:39:27Z</time>
      </trkpt>
      <trkpt lat="42.8257" lon="1.44638">
        <ele>2163.1037597656</ele>
        <time>2013-09-28T10:39:37Z</time>
      </trkpt>
      <trkpt lat="42.82577" lon="1.44629">
        <ele>2164.0649414062</ele>
        <time>2013-09-28T10:39:45Z</time>
      </trkpt>
      <trkpt lat="42.82582" lon="1.44621">
        <ele>2164.0649414062</ele>
        <time>2013-09-28T10:39:52Z</time>
      </trkpt>
      <trkpt lat="42.82591" lon="1.44611">
        <ele>2165.0263671875</ele>
        <time>2013-09-28T10:40:02Z</time>
      </trkpt>
      <trkpt lat="42.82599" lon="1.44605">
        <ele>2165.5070800781</ele>
        <time>2013-09-28T10:40:10Z</time>
      </trkpt>
      <trkpt lat="42.82608" lon="1.44599">
        <ele>2165.5070800781</ele>
        <time>2013-09-28T10:40:18Z</time>
      </trkpt>
      <trkpt lat="42.82615" lon="1.44595">
        <ele>2165.0263671875</ele>
        <time>2013-09-28T10:40:25Z</time>
      </trkpt>
      <trkpt lat="42.82625" lon="1.44592">
        <ele>2164.0649414062</ele>
        <time>2013-09-28T10:40:33Z</time>
      </trkpt>
      <trkpt lat="42.82634" lon="1.44588">
        <ele>2162.623046875</ele>
        <time>2013-09-28T10:40:41Z</time>
      </trkpt>
      <trkpt lat="42.82646" lon="1.44582">
        <ele>2160.7004394531</ele>
        <time>2013-09-28T10:40:51Z</time>
      </trkpt>
      <trkpt lat="42.82656" lon="1.44576">
        <ele>2160.2197265625</ele>
        <time>2013-09-28T10:40:59Z</time>
      </trkpt>
      <trkpt lat="42.82658" lon="1.44574">
        <ele>2160.2197265625</ele>
        <time>2013-09-28T10:41:01Z</time>
      </trkpt>
      <trkpt lat="42.82663" lon="1.44572">
        <ele>2161.1811523438</ele>
        <time>2013-09-28T10:41:06Z</time>
      </trkpt>
      <trkpt lat="42.8267" lon="1.44571">
        <ele>2162.1423339844</ele>
        <time>2013-09-28T10:41:15Z</time>
      </trkpt>
      <trkpt lat="42.82674" lon="1.44568">
        <ele>2163.1037597656</ele>
        <time>2013-09-28T10:41:20Z</time>
      </trkpt>
      <trkpt lat="42.82679" lon="1.44565">
        <ele>2164.5456542969</ele>
        <time>2013-09-28T10:41:27Z</time>
      </trkpt>
      <trkpt lat="42.82683" lon="1.44563">
        <ele>2165.5070800781</ele>
        <time>2013-09-28T10:41:34Z</time>
      </trkpt>
      <trkpt lat="42.82688" lon="1.44561">
        <ele>2166.9489746094</ele>
        <time>2013-09-28T10:41:42Z</time>
      </trkpt>
      <trkpt lat="42.82692" lon="1.44561">
        <ele>2167.4294433594</ele>
        <time>2013-09-28T10:41:49Z</time>
      </trkpt>
      <trkpt lat="42.82697" lon="1.44559">
        <ele>2168.3908691406</ele>
        <time>2013-09-28T10:41:56Z</time>
      </trkpt>
      <trkpt lat="42.82703" lon="1.44558">
        <ele>2169.3522949219</ele>
        <time>2013-09-28T10:42:04Z</time>
      </trkpt>
      <trkpt lat="42.82709" lon="1.44557">
        <ele>2170.3134765625</ele>
        <time>2013-09-28T10:42:11Z</time>
      </trkpt>
      <trkpt lat="42.82715" lon="1.44556">
        <ele>2170.7941894531</ele>
        <time>2013-09-28T10:42:17Z</time>
      </trkpt>
      <trkpt lat="42.82723" lon="1.44556">
        <ele>2172.236328125</ele>
        <time>2013-09-28T10:42:26Z</time>
      </trkpt>
      <trkpt lat="42.82727" lon="1.44553">
        <ele>2172.236328125</ele>
        <time>2013-09-28T10:42:32Z</time>
      </trkpt>
      <trkpt lat="42.82732" lon="1.44552">
        <ele>2171.7553710938</ele>
        <time>2013-09-28T10:42:38Z</time>
      </trkpt>
      <trkpt lat="42.82737" lon="1.44549">
        <ele>2170.7941894531</ele>
        <time>2013-09-28T10:42:45Z</time>
      </trkpt>
      <trkpt lat="42.82742" lon="1.44545">
        <ele>2170.7941894531</ele>
        <time>2013-09-28T10:42:50Z</time>
      </trkpt>
      <trkpt lat="42.82748" lon="1.44539">
        <ele>2171.2746582031</ele>
        <time>2013-09-28T10:42:58Z</time>
      </trkpt>
      <trkpt lat="42.82751" lon="1.44532">
        <ele>2170.7941894531</ele>
        <time>2013-09-28T10:43:05Z</time>
      </trkpt>
      <trkpt lat="42.82754" lon="1.4453">
        <ele>2171.2746582031</ele>
        <time>2013-09-28T10:43:10Z</time>
      </trkpt>
      <trkpt lat="42.82758" lon="1.44524">
        <ele>2171.2746582031</ele>
        <time>2013-09-28T10:43:16Z</time>
      </trkpt>
      <trkpt lat="42.82761" lon="1.44522">
        <ele>2172.236328125</ele>
        <time>2013-09-28T10:43:22Z</time>
      </trkpt>
      <trkpt lat="42.82764" lon="1.44523">
        <ele>2172.7170410156</ele>
        <time>2013-09-28T10:43:28Z</time>
      </trkpt>
      <trkpt lat="42.82763" lon="1.44522">
        <ele>2173.1977539062</ele>
        <time>2013-09-28T10:43:35Z</time>
      </trkpt>
      <trkpt lat="42.82763" lon="1.44517">
        <ele>2172.7170410156</ele>
        <time>2013-09-28T10:43:42Z</time>
      </trkpt>
      <trkpt lat="42.82761" lon="1.44514">
        <ele>2171.7553710938</ele>
        <time>2013-09-28T10:43:48Z</time>
      </trkpt>
      <trkpt lat="42.82762" lon="1.44509">
        <ele>2170.7941894531</ele>
        <time>2013-09-28T10:43:55Z</time>
      </trkpt>
      <trkpt lat="42.82764" lon="1.44502">
        <ele>2170.3134765625</ele>
        <time>2013-09-28T10:44:01Z</time>
      </trkpt>
      <trkpt lat="42.82766" lon="1.44495">
        <ele>2169.3522949219</ele>
        <time>2013-09-28T10:44:08Z</time>
      </trkpt>
      <trkpt lat="42.82766" lon="1.44489">
        <ele>2168.3908691406</ele>
        <time>2013-09-28T10:44:14Z</time>
      </trkpt>
      <trkpt lat="42.82769" lon="1.44484">
        <ele>2168.3908691406</ele>
        <time>2013-09-28T10:44:20Z</time>
      </trkpt>
      <trkpt lat="42.82771" lon="1.44477">
        <ele>2167.91015625</ele>
        <time>2013-09-28T10:44:27Z</time>
      </trkpt>
      <trkpt lat="42.82774" lon="1.44469">
        <ele>2166.9489746094</ele>
        <time>2013-09-28T10:44:34Z</time>
      </trkpt>
      <trkpt lat="42.82775" lon="1.44464">
        <ele>2165.9875488281</ele>
        <time>2013-09-28T10:44:39Z</time>
      </trkpt>
      <trkpt lat="42.82778" lon="1.44456">
        <ele>2165.0263671875</ele>
        <time>2013-09-28T10:44:47Z</time>
      </trkpt>
      <trkpt lat="42.82781" lon="1.4445">
        <ele>2164.5456542969</ele>
        <time>2013-09-28T10:44:53Z</time>
      </trkpt>
      <trkpt lat="42.82782" lon="1.44442">
        <ele>2164.5456542969</ele>
        <time>2013-09-28T10:45:00Z</time>
      </trkpt>
      <trkpt lat="42.82784" lon="1.44433">
        <ele>2164.5456542969</ele>
        <time>2013-09-28T10:45:07Z</time>
      </trkpt>
      <trkpt lat="42.82784" lon="1.44431">
        <ele>2164.0649414062</ele>
        <time>2013-09-28T10:45:13Z</time>
      </trkpt>
      <trkpt lat="42.82786" lon="1.44424">
        <ele>2164.5456542969</ele>
        <time>2013-09-28T10:45:19Z</time>
      </trkpt>
      <trkpt lat="42.8279" lon="1.44415">
        <ele>2164.5456542969</ele>
        <time>2013-09-28T10:45:27Z</time>
      </trkpt>
      <trkpt lat="42.82793" lon="1.44407">
        <ele>2164.5456542969</ele>
        <time>2013-09-28T10:45:34Z</time>
      </trkpt>
      <trkpt lat="42.82794" lon="1.444">
        <ele>2164.0649414062</ele>
        <time>2013-09-28T10:45:41Z</time>
      </trkpt>
      <trkpt lat="42.82796" lon="1.44395">
        <ele>2164.5456542969</ele>
        <time>2013-09-28T10:45:47Z</time>
      </trkpt>
      <trkpt lat="42.828" lon="1.44389">
        <ele>2164.5456542969</ele>
        <time>2013-09-28T10:45:53Z</time>
      </trkpt>
      <trkpt lat="42.82802" lon="1.44387">
        <ele>2164.5456542969</ele>
        <time>2013-09-28T10:45:59Z</time>
      </trkpt>
      <trkpt lat="42.82805" lon="1.44383">
        <ele>2164.5456542969</ele>
        <time>2013-09-28T10:46:05Z</time>
      </trkpt>
      <trkpt lat="42.82806" lon="1.44382">
        <ele>2164.5456542969</ele>
        <time>2013-09-28T10:46:12Z</time>
      </trkpt>
      <trkpt lat="42.82809" lon="1.44377">
        <ele>2165.0263671875</ele>
        <time>2013-09-28T10:46:18Z</time>
      </trkpt>
      <trkpt lat="42.82813" lon="1.44372">
        <ele>2165.0263671875</ele>
        <time>2013-09-28T10:46:25Z</time>
      </trkpt>
      <trkpt lat="42.82817" lon="1.44367">
        <ele>2165.5070800781</ele>
        <time>2013-09-28T10:46:32Z</time>
      </trkpt>
      <trkpt lat="42.82821" lon="1.44364">
        <ele>2166.4682617188</ele>
        <time>2013-09-28T10:46:39Z</time>
      </trkpt>
      <trkpt lat="42.82823" lon="1.44361">
        <ele>2166.9489746094</ele>
        <time>2013-09-28T10:46:45Z</time>
      </trkpt>
      <trkpt lat="42.82825" lon="1.4436">
        <ele>2167.91015625</ele>
        <time>2013-09-28T10:46:52Z</time>
      </trkpt>
      <trkpt lat="42.82827" lon="1.44357">
        <ele>2167.4294433594</ele>
        <time>2013-09-28T10:46:58Z</time>
      </trkpt>
      <trkpt lat="42.8283" lon="1.44353">
        <ele>2167.91015625</ele>
        <time>2013-09-28T10:47:05Z</time>
      </trkpt>
      <trkpt lat="42.82834" lon="1.44351">
        <ele>2168.8715820312</ele>
        <time>2013-09-28T10:47:12Z</time>
      </trkpt>
      <trkpt lat="42.82837" lon="1.44351">
        <ele>2168.8715820312</ele>
        <time>2013-09-28T10:47:17Z</time>
      </trkpt>
      <trkpt lat="42.82842" lon="1.44345">
        <ele>2169.3522949219</ele>
        <time>2013-09-28T10:47:25Z</time>
      </trkpt>
      <trkpt lat="42.82846" lon="1.44344">
        <ele>2170.7941894531</ele>
        <time>2013-09-28T10:47:32Z</time>
      </trkpt>
      <trkpt lat="42.8285" lon="1.44342">
        <ele>2170.7941894531</ele>
        <time>2013-09-28T10:47:38Z</time>
      </trkpt>
      <trkpt lat="42.82854" lon="1.44337">
        <ele>2170.7941894531</ele>
        <time>2013-09-28T10:47:45Z</time>
      </trkpt>
      <trkpt lat="42.82858" lon="1.44332">
        <ele>2170.3134765625</ele>
        <time>2013-09-28T10:47:53Z</time>
      </trkpt>
      <trkpt lat="42.82861" lon="1.4433">
        <ele>2170.7941894531</ele>
        <time>2013-09-28T10:47:58Z</time>
      </trkpt>
      <trkpt lat="42.82865" lon="1.44326">
        <ele>2171.2746582031</ele>
        <time>2013-09-28T10:48:04Z</time>
      </trkpt>
      <trkpt lat="42.82868" lon="1.44324">
        <ele>2171.7553710938</ele>
        <time>2013-09-28T10:48:09Z</time>
      </trkpt>
      <trkpt lat="42.8287" lon="1.4432">
        <ele>2172.236328125</ele>
        <time>2013-09-28T10:48:16Z</time>
      </trkpt>
      <trkpt lat="42.82872" lon="1.44316">
        <ele>2172.236328125</ele>
        <time>2013-09-28T10:48:23Z</time>
      </trkpt>
      <trkpt lat="42.82875" lon="1.44311">
        <ele>2172.236328125</ele>
        <time>2013-09-28T10:48:32Z</time>
      </trkpt>
      <trkpt lat="42.82877" lon="1.44308">
        <ele>2172.7170410156</ele>
        <time>2013-09-28T10:48:37Z</time>
      </trkpt>
      <trkpt lat="42.8288" lon="1.44303">
        <ele>2173.6782226562</ele>
        <time>2013-09-28T10:48:44Z</time>
      </trkpt>
      <trkpt lat="42.82883" lon="1.443">
        <ele>2173.6782226562</ele>
        <time>2013-09-28T10:48:51Z</time>
      </trkpt>
      <trkpt lat="42.82887" lon="1.44295">
        <ele>2173.1977539062</ele>
        <time>2013-09-28T10:48:57Z</time>
      </trkpt>
      <trkpt lat="42.82888" lon="1.44294">
        <ele>2174.1589355469</ele>
        <time>2013-09-28T10:49:02Z</time>
      </trkpt>
      <trkpt lat="42.8289" lon="1.44291">
        <ele>2174.1589355469</ele>
        <time>2013-09-28T10:49:07Z</time>
      </trkpt>
      <trkpt lat="42.82893" lon="1.44288">
        <ele>2174.6396484375</ele>
        <time>2013-09-28T10:49:14Z</time>
      </trkpt>
      <trkpt lat="42.82896" lon="1.44285">
        <ele>2175.1201171875</ele>
        <time>2013-09-28T10:49:20Z</time>
      </trkpt>
      <trkpt lat="42.82899" lon="1.44283">
        <ele>2175.6008300781</ele>
        <time>2013-09-28T10:49:24Z</time>
      </trkpt>
      <trkpt lat="42.82901" lon="1.44279">
        <ele>2175.6008300781</ele>
        <time>2013-09-28T10:49:30Z</time>
      </trkpt>
      <trkpt lat="42.82904" lon="1.44274">
        <ele>2174.6396484375</ele>
        <time>2013-09-28T10:49:37Z</time>
      </trkpt>
      <trkpt lat="42.82907" lon="1.44268">
        <ele>2174.6396484375</ele>
        <time>2013-09-28T10:49:45Z</time>
      </trkpt>
      <trkpt lat="42.8291" lon="1.44264">
        <ele>2175.6008300781</ele>
        <time>2013-09-28T10:49:52Z</time>
      </trkpt>
      <trkpt lat="42.82911" lon="1.4426">
        <ele>2175.1201171875</ele>
        <time>2013-09-28T10:49:58Z</time>
      </trkpt>
      <trkpt lat="42.82913" lon="1.44257">
        <ele>2175.6008300781</ele>
        <time>2013-09-28T10:50:04Z</time>
      </trkpt>
      <trkpt lat="42.82916" lon="1.44251">
        <ele>2176.0815429688</ele>
        <time>2013-09-28T10:50:11Z</time>
      </trkpt>
      <trkpt lat="42.82918" lon="1.44246">
        <ele>2176.0815429688</ele>
        <time>2013-09-28T10:50:17Z</time>
      </trkpt>
      <trkpt lat="42.82921" lon="1.44238">
        <ele>2175.6008300781</ele>
        <time>2013-09-28T10:50:25Z</time>
      </trkpt>
      <trkpt lat="42.82924" lon="1.44234">
        <ele>2176.0815429688</ele>
        <time>2013-09-28T10:50:30Z</time>
      </trkpt>
      <trkpt lat="42.82926" lon="1.4423">
        <ele>2176.5622558594</ele>
        <time>2013-09-28T10:50:36Z</time>
      </trkpt>
      <trkpt lat="42.82927" lon="1.44227">
        <ele>2177.04296875</ele>
        <time>2013-09-28T10:50:42Z</time>
      </trkpt>
      <trkpt lat="42.8293" lon="1.44224">
        <ele>2177.04296875</ele>
        <time>2013-09-28T10:50:47Z</time>
      </trkpt>
      <trkpt lat="42.82931" lon="1.44219">
        <ele>2176.5622558594</ele>
        <time>2013-09-28T10:50:53Z</time>
      </trkpt>
      <trkpt lat="42.82933" lon="1.44214">
        <ele>2176.5622558594</ele>
        <time>2013-09-28T10:50:58Z</time>
      </trkpt>
      <trkpt lat="42.82934" lon="1.4421">
        <ele>2177.04296875</ele>
        <time>2013-09-28T10:51:02Z</time>
      </trkpt>
      <trkpt lat="42.82937" lon="1.44203">
        <ele>2177.5234375</ele>
        <time>2013-09-28T10:51:09Z</time>
      </trkpt>
      <trkpt lat="42.82943" lon="1.44201">
        <ele>2177.04296875</ele>
        <time>2013-09-28T10:51:15Z</time>
      </trkpt>
      <trkpt lat="42.82947" lon="1.44199">
        <ele>2177.04296875</ele>
        <time>2013-09-28T10:51:21Z</time>
      </trkpt>
      <trkpt lat="42.82952" lon="1.44196">
        <ele>2176.5622558594</ele>
        <time>2013-09-28T10:51:27Z</time>
      </trkpt>
      <trkpt lat="42.82955" lon="1.44191">
        <ele>2175.1201171875</ele>
        <time>2013-09-28T10:51:33Z</time>
      </trkpt>
      <trkpt lat="42.82958" lon="1.44186">
        <ele>2174.1589355469</ele>
        <time>2013-09-28T10:51:40Z</time>
      </trkpt>
      <trkpt lat="42.82961" lon="1.44179">
        <ele>2172.7170410156</ele>
        <time>2013-09-28T10:51:47Z</time>
      </trkpt>
      <trkpt lat="42.82965" lon="1.44174">
        <ele>2172.236328125</ele>
        <time>2013-09-28T10:51:53Z</time>
      </trkpt>
      <trkpt lat="42.8297" lon="1.4417">
        <ele>2171.2746582031</ele>
        <time>2013-09-28T10:51:59Z</time>
      </trkpt>
      <trkpt lat="42.82977" lon="1.44165">
        <ele>2170.3134765625</ele>
        <time>2013-09-28T10:52:06Z</time>
      </trkpt>
      <trkpt lat="42.82978" lon="1.44164">
        <ele>2169.8327636719</ele>
        <time>2013-09-28T10:52:08Z</time>
      </trkpt>
      <trkpt lat="42.82985" lon="1.44158">
        <ele>2169.8327636719</ele>
        <time>2013-09-28T10:52:14Z</time>
      </trkpt>
      <trkpt lat="42.8299" lon="1.44156">
        <ele>2167.91015625</ele>
        <time>2013-09-28T10:52:21Z</time>
      </trkpt>
      <trkpt lat="42.82995" lon="1.44153">
        <ele>2167.4294433594</ele>
        <time>2013-09-28T10:52:26Z</time>
      </trkpt>
      <trkpt lat="42.82998" lon="1.44151">
        <ele>2167.91015625</ele>
        <time>2013-09-28T10:52:32Z</time>
      </trkpt>
      <trkpt lat="42.83002" lon="1.44147">
        <ele>2168.8715820312</ele>
        <time>2013-09-28T10:52:38Z</time>
      </trkpt>
      <trkpt lat="42.83007" lon="1.44142">
        <ele>2168.3908691406</ele>
        <time>2013-09-28T10:52:45Z</time>
      </trkpt>
      <trkpt lat="42.83009" lon="1.44137">
        <ele>2168.8715820312</ele>
        <time>2013-09-28T10:52:51Z</time>
      </trkpt>
      <trkpt lat="42.83011" lon="1.44132">
        <ele>2168.3908691406</ele>
        <time>2013-09-28T10:52:57Z</time>
      </trkpt>
      <trkpt lat="42.83016" lon="1.44124">
        <ele>2168.3908691406</ele>
        <time>2013-09-28T10:53:04Z</time>
      </trkpt>
      <trkpt lat="42.83017" lon="1.44118">
        <ele>2169.8327636719</ele>
        <time>2013-09-28T10:53:08Z</time>
      </trkpt>
      <trkpt lat="42.83018" lon="1.44115">
        <ele>2169.8327636719</ele>
        <time>2013-09-28T10:53:13Z</time>
      </trkpt>
      <trkpt lat="42.83018" lon="1.44109">
        <ele>2170.3134765625</ele>
        <time>2013-09-28T10:53:18Z</time>
      </trkpt>
      <trkpt lat="42.8302" lon="1.44102">
        <ele>2170.3134765625</ele>
        <time>2013-09-28T10:53:25Z</time>
      </trkpt>
      <trkpt lat="42.83021" lon="1.44097">
        <ele>2170.3134765625</ele>
        <time>2013-09-28T10:53:31Z</time>
      </trkpt>
      <trkpt lat="42.83022" lon="1.44095">
        <ele>2169.3522949219</ele>
        <time>2013-09-28T10:53:38Z</time>
      </trkpt>
      <trkpt lat="42.83022" lon="1.44091">
        <ele>2168.8715820312</ele>
        <time>2013-09-28T10:53:47Z</time>
      </trkpt>
      <trkpt lat="42.83022" lon="1.44085">
        <ele>2169.8327636719</ele>
        <time>2013-09-28T10:53:53Z</time>
      </trkpt>
      <trkpt lat="42.83023" lon="1.44078">
        <ele>2171.2746582031</ele>
        <time>2013-09-28T10:53:59Z</time>
      </trkpt>
      <trkpt lat="42.83023" lon="1.44073">
        <ele>2172.7170410156</ele>
        <time>2013-09-28T10:54:05Z</time>
      </trkpt>
      <trkpt lat="42.83023" lon="1.44068">
        <ele>2173.1977539062</ele>
        <time>2013-09-28T10:54:12Z</time>
      </trkpt>
      <trkpt lat="42.83023" lon="1.44064">
        <ele>2174.1589355469</ele>
        <time>2013-09-28T10:54:18Z</time>
      </trkpt>
      <trkpt lat="42.83023" lon="1.44061">
        <ele>2175.1201171875</ele>
        <time>2013-09-28T10:54:24Z</time>
      </trkpt>
      <trkpt lat="42.83024" lon="1.44059">
        <ele>2176.0815429688</ele>
        <time>2013-09-28T10:54:30Z</time>
      </trkpt>
      <trkpt lat="42.83025" lon="1.44055">
        <ele>2177.04296875</ele>
        <time>2013-09-28T10:54:35Z</time>
      </trkpt>
      <trkpt lat="42.83025" lon="1.44053">
        <ele>2177.5234375</ele>
        <time>2013-09-28T10:54:41Z</time>
      </trkpt>
      <trkpt lat="42.83025" lon="1.44053">
        <ele>2178.4848632812</ele>
        <time>2013-09-28T10:54:55Z</time>
      </trkpt>
      <trkpt lat="42.83024" lon="1.44053">
        <ele>2178.4848632812</ele>
        <time>2013-09-28T10:55:19Z</time>
      </trkpt>
      <trkpt lat="42.83026" lon="1.44051">
        <ele>2178.9653320312</ele>
        <time>2013-09-28T10:55:27Z</time>
      </trkpt>
      <trkpt lat="42.83027" lon="1.4405">
        <ele>2179.9267578125</ele>
        <time>2013-09-28T10:55:33Z</time>
      </trkpt>
      <trkpt lat="42.8303" lon="1.44051">
        <ele>2182.330078125</ele>
        <time>2013-09-28T10:55:40Z</time>
      </trkpt>
      <trkpt lat="42.83032" lon="1.4405">
        <ele>2184.2526855469</ele>
        <time>2013-09-28T10:55:47Z</time>
      </trkpt>
      <trkpt lat="42.83033" lon="1.4405">
        <ele>2184.7333984375</ele>
        <time>2013-09-28T10:55:54Z</time>
      </trkpt>
      <trkpt lat="42.83035" lon="1.44049">
        <ele>2185.2138671875</ele>
        <time>2013-09-28T10:56:01Z</time>
      </trkpt>
      <trkpt lat="42.83034" lon="1.44047">
        <ele>2185.6945800781</ele>
        <time>2013-09-28T10:56:07Z</time>
      </trkpt>
      <trkpt lat="42.83033" lon="1.44044">
        <ele>2185.2138671875</ele>
        <time>2013-09-28T10:56:14Z</time>
      </trkpt>
      <trkpt lat="42.83031" lon="1.44042">
        <ele>2184.2526855469</ele>
        <time>2013-09-28T10:56:20Z</time>
      </trkpt>
      <trkpt lat="42.83033" lon="1.44038">
        <ele>2185.2138671875</ele>
        <time>2013-09-28T10:56:26Z</time>
      </trkpt>
      <trkpt lat="42.83034" lon="1.44037">
        <ele>2187.1364746094</ele>
        <time>2013-09-28T10:56:34Z</time>
      </trkpt>
      <trkpt lat="42.83035" lon="1.44035">
        <ele>2187.1364746094</ele>
        <time>2013-09-28T10:56:41Z</time>
      </trkpt>
      <trkpt lat="42.83035" lon="1.44033">
        <ele>2188.0981445312</ele>
        <time>2013-09-28T10:56:52Z</time>
      </trkpt>
      <trkpt lat="42.83035" lon="1.44029">
        <ele>2189.0593261719</ele>
        <time>2013-09-28T10:56:57Z</time>
      </trkpt>
      <trkpt lat="42.83035" lon="1.44026">
        <ele>2190.5012207031</ele>
        <time>2013-09-28T10:57:02Z</time>
      </trkpt>
      <trkpt lat="42.83035" lon="1.44022">
        <ele>2190.5012207031</ele>
        <time>2013-09-28T10:57:08Z</time>
      </trkpt>
      <trkpt lat="42.83035" lon="1.44019">
        <ele>2190.9819335938</ele>
        <time>2013-09-28T10:57:13Z</time>
      </trkpt>
      <trkpt lat="42.83037" lon="1.44018">
        <ele>2192.9045410156</ele>
        <time>2013-09-28T10:57:19Z</time>
      </trkpt>
      <trkpt lat="42.83037" lon="1.44018">
        <ele>2193.3852539062</ele>
        <time>2013-09-28T10:57:25Z</time>
      </trkpt>
      <trkpt lat="42.83037" lon="1.44016">
        <ele>2193.3852539062</ele>
        <time>2013-09-28T10:57:33Z</time>
      </trkpt>
      <trkpt lat="42.83037" lon="1.44014">
        <ele>2195.3078613281</ele>
        <time>2013-09-28T10:57:44Z</time>
      </trkpt>
      <trkpt lat="42.83039" lon="1.44012">
        <ele>2197.23046875</ele>
        <time>2013-09-28T10:57:52Z</time>
      </trkpt>
      <trkpt lat="42.83041" lon="1.44013">
        <ele>2198.6723632812</ele>
        <time>2013-09-28T10:57:57Z</time>
      </trkpt>
      <trkpt lat="42.83041" lon="1.44014">
        <ele>2198.1916503906</ele>
        <time>2013-09-28T10:58:06Z</time>
      </trkpt>
      <trkpt lat="42.83043" lon="1.44015">
        <ele>2200.1145019531</ele>
        <time>2013-09-28T10:58:14Z</time>
      </trkpt>
      <trkpt lat="42.83044" lon="1.44014">
        <ele>2201.5563964844</ele>
        <time>2013-09-28T10:58:21Z</time>
      </trkpt>
      <trkpt lat="42.83046" lon="1.44013">
        <ele>2202.517578125</ele>
        <time>2013-09-28T10:58:28Z</time>
      </trkpt>
      <trkpt lat="42.83047" lon="1.44013">
        <ele>2202.9982910156</ele>
        <time>2013-09-28T10:58:35Z</time>
      </trkpt>
      <trkpt lat="42.83049" lon="1.4401">
        <ele>2203.4790039062</ele>
        <time>2013-09-28T10:58:42Z</time>
      </trkpt>
      <trkpt lat="42.8305" lon="1.4401">
        <ele>2203.9597167969</ele>
        <time>2013-09-28T10:58:50Z</time>
      </trkpt>
      <trkpt lat="42.83051" lon="1.44007">
        <ele>2204.9211425781</ele>
        <time>2013-09-28T10:58:56Z</time>
      </trkpt>
      <trkpt lat="42.83051" lon="1.44008">
        <ele>2204.9211425781</ele>
        <time>2013-09-28T10:59:07Z</time>
      </trkpt>
      <trkpt lat="42.8305" lon="1.44005">
        <ele>2205.4018554688</ele>
        <time>2013-09-28T10:59:13Z</time>
      </trkpt>
      <trkpt lat="42.83048" lon="1.44003">
        <ele>2204.9211425781</ele>
        <time>2013-09-28T10:59:18Z</time>
      </trkpt>
      <trkpt lat="42.83047" lon="1.44">
        <ele>2205.4018554688</ele>
        <time>2013-09-28T10:59:23Z</time>
      </trkpt>
      <trkpt lat="42.83047" lon="1.43999">
        <ele>2205.8823242188</ele>
        <time>2013-09-28T10:59:31Z</time>
      </trkpt>
      <trkpt lat="42.83047" lon="1.43999">
        <ele>2205.8823242188</ele>
        <time>2013-09-28T10:59:32Z</time>
      </trkpt>
      <trkpt lat="42.83047" lon="1.43998">
        <ele>2208.7663574219</ele>
        <time>2013-09-28T11:21:46Z</time>
      </trkpt>
      <trkpt lat="42.83047" lon="1.43998">
        <ele>2209.2470703125</ele>
        <time>2013-09-28T11:21:54Z</time>
      </trkpt>
      <trkpt lat="42.83048" lon="1.43998">
        <ele>2208.2856445312</ele>
        <time>2013-09-28T11:22:06Z</time>
      </trkpt>
      <trkpt lat="42.83049" lon="1.43998">
        <ele>2208.2856445312</ele>
        <time>2013-09-28T11:22:11Z</time>
      </trkpt>
      <trkpt lat="42.8305" lon="1.43999">
        <ele>2207.8051757812</ele>
        <time>2013-09-28T11:22:16Z</time>
      </trkpt>
      <trkpt lat="42.8305" lon="1.43999">
        <ele>2208.2856445312</ele>
        <time>2013-09-28T11:22:22Z</time>
      </trkpt>
      <trkpt lat="42.8305" lon="1.43999">
        <ele>2207.3244628906</ele>
        <time>2013-09-28T11:22:30Z</time>
      </trkpt>
      <trkpt lat="42.83051" lon="1.44">
        <ele>2206.84375</ele>
        <time>2013-09-28T11:22:35Z</time>
      </trkpt>
      <trkpt lat="42.83051" lon="1.44002">
        <ele>2205.8823242188</ele>
        <time>2013-09-28T11:22:42Z</time>
      </trkpt>
      <trkpt lat="42.83053" lon="1.44007">
        <ele>2205.8823242188</ele>
        <time>2013-09-28T11:22:46Z</time>
      </trkpt>
      <trkpt lat="42.83056" lon="1.44015">
        <ele>2206.3630371094</ele>
        <time>2013-09-28T11:22:53Z</time>
      </trkpt>
      <trkpt lat="42.83057" lon="1.44016">
        <ele>2206.3630371094</ele>
        <time>2013-09-28T11:23:01Z</time>
      </trkpt>
      <trkpt lat="42.83057" lon="1.44019">
        <ele>2205.4018554688</ele>
        <time>2013-09-28T11:23:08Z</time>
      </trkpt>
      <trkpt lat="42.83059" lon="1.44019">
        <ele>2203.9597167969</ele>
        <time>2013-09-28T11:23:18Z</time>
      </trkpt>
      <trkpt lat="42.8306" lon="1.4402">
        <ele>2202.517578125</ele>
        <time>2013-09-28T11:23:26Z</time>
      </trkpt>
      <trkpt lat="42.83062" lon="1.44021">
        <ele>2201.5563964844</ele>
        <time>2013-09-28T11:23:32Z</time>
      </trkpt>
      <trkpt lat="42.83063" lon="1.44018">
        <ele>2199.6337890625</ele>
        <time>2013-09-28T11:23:40Z</time>
      </trkpt>
      <trkpt lat="42.83064" lon="1.44018">
        <ele>2197.7111816406</ele>
        <time>2013-09-28T11:23:47Z</time>
      </trkpt>
      <trkpt lat="42.83064" lon="1.44015">
        <ele>2197.23046875</ele>
        <time>2013-09-28T11:23:53Z</time>
      </trkpt>
      <trkpt lat="42.83063" lon="1.44015">
        <ele>2195.7885742188</ele>
        <time>2013-09-28T11:24:00Z</time>
      </trkpt>
      <trkpt lat="42.83064" lon="1.44014">
        <ele>2194.8271484375</ele>
        <time>2013-09-28T11:24:06Z</time>
      </trkpt>
      <trkpt lat="42.83064" lon="1.44016">
        <ele>2193.8659667969</ele>
        <time>2013-09-28T11:24:13Z</time>
      </trkpt>
      <trkpt lat="42.83065" lon="1.44016">
        <ele>2193.3852539062</ele>
        <time>2013-09-28T11:24:21Z</time>
      </trkpt>
      <trkpt lat="42.83067" lon="1.44012">
        <ele>2191.943359375</ele>
        <time>2013-09-28T11:24:28Z</time>
      </trkpt>
      <trkpt lat="42.83069" lon="1.44012">
        <ele>2190.9819335938</ele>
        <time>2013-09-28T11:24:33Z</time>
      </trkpt>
      <trkpt lat="42.8307" lon="1.44016">
        <ele>2190.9819335938</ele>
        <time>2013-09-28T11:24:38Z</time>
      </trkpt>
      <trkpt lat="42.83072" lon="1.44019">
        <ele>2190.0207519531</ele>
        <time>2013-09-28T11:24:44Z</time>
      </trkpt>
      <trkpt lat="42.83074" lon="1.44022">
        <ele>2188.5788574219</ele>
        <time>2013-09-28T11:24:50Z</time>
      </trkpt>
      <trkpt lat="42.83078" lon="1.44025">
        <ele>2187.1364746094</ele>
        <time>2013-09-28T11:24:56Z</time>
      </trkpt>
      <trkpt lat="42.8308" lon="1.44024">
        <ele>2185.2138671875</ele>
        <time>2013-09-28T11:25:03Z</time>
      </trkpt>
      <trkpt lat="42.83082" lon="1.44021">
        <ele>2183.7719726562</ele>
        <time>2013-09-28T11:25:09Z</time>
      </trkpt>
      <trkpt lat="42.83083" lon="1.44018">
        <ele>2182.330078125</ele>
        <time>2013-09-28T11:25:14Z</time>
      </trkpt>
      <trkpt lat="42.83087" lon="1.44021">
        <ele>2180.8881835938</ele>
        <time>2013-09-28T11:25:20Z</time>
      </trkpt>
      <trkpt lat="42.83088" lon="1.44024">
        <ele>2179.9267578125</ele>
        <time>2013-09-28T11:25:25Z</time>
      </trkpt>
      <trkpt lat="42.8309" lon="1.44025">
        <ele>2178.9653320312</ele>
        <time>2013-09-28T11:25:30Z</time>
      </trkpt>
      <trkpt lat="42.83093" lon="1.44026">
        <ele>2177.5234375</ele>
        <time>2013-09-28T11:25:36Z</time>
      </trkpt>
      <trkpt lat="42.83095" lon="1.44028">
        <ele>2176.0815429688</ele>
        <time>2013-09-28T11:25:41Z</time>
      </trkpt>
      <trkpt lat="42.83097" lon="1.44029">
        <ele>2175.1201171875</ele>
        <time>2013-09-28T11:25:47Z</time>
      </trkpt>
      <trkpt lat="42.83097" lon="1.4403">
        <ele>2175.1201171875</ele>
        <time>2013-09-28T11:26:02Z</time>
      </trkpt>
      <trkpt lat="42.831" lon="1.4403">
        <ele>2173.6782226562</ele>
        <time>2013-09-28T11:26:08Z</time>
      </trkpt>
      <trkpt lat="42.83103" lon="1.44029">
        <ele>2172.236328125</ele>
        <time>2013-09-28T11:26:14Z</time>
      </trkpt>
      <trkpt lat="42.83108" lon="1.44033">
        <ele>2169.3522949219</ele>
        <time>2013-09-28T11:26:20Z</time>
      </trkpt>
      <trkpt lat="42.83111" lon="1.44034">
        <ele>2167.91015625</ele>
        <time>2013-09-28T11:26:23Z</time>
      </trkpt>
      <trkpt lat="42.83121" lon="1.44033">
        <ele>2163.5842285156</ele>
        <time>2013-09-28T11:26:31Z</time>
      </trkpt>
      <trkpt lat="42.83125" lon="1.44032">
        <ele>2161.6618652344</ele>
        <time>2013-09-28T11:26:34Z</time>
      </trkpt>
      <trkpt lat="42.83133" lon="1.44037">
        <ele>2159.2585449219</ele>
        <time>2013-09-28T11:26:40Z</time>
      </trkpt>
      <trkpt lat="42.83134" lon="1.44038">
        <ele>2158.2971191406</ele>
        <time>2013-09-28T11:26:41Z</time>
      </trkpt>
      <trkpt lat="42.83136" lon="1.44039">
        <ele>2157.8166503906</ele>
        <time>2013-09-28T11:26:43Z</time>
      </trkpt>
      <trkpt lat="42.83138" lon="1.44042">
        <ele>2156.3745117188</ele>
        <time>2013-09-28T11:26:49Z</time>
      </trkpt>
      <trkpt lat="42.83142" lon="1.44042">
        <ele>2154.4516601562</ele>
        <time>2013-09-28T11:26:53Z</time>
      </trkpt>
      <trkpt lat="42.83146" lon="1.44042">
        <ele>2152.5290527344</ele>
        <time>2013-09-28T11:26:58Z</time>
      </trkpt>
      <trkpt lat="42.8315" lon="1.44044">
        <ele>2150.6064453125</ele>
        <time>2013-09-28T11:27:03Z</time>
      </trkpt>
      <trkpt lat="42.83152" lon="1.44047">
        <ele>2149.1645507812</ele>
        <time>2013-09-28T11:27:08Z</time>
      </trkpt>
      <trkpt lat="42.83155" lon="1.44049">
        <ele>2146.7612304688</ele>
        <time>2013-09-28T11:27:13Z</time>
      </trkpt>
      <trkpt lat="42.8316" lon="1.44049">
        <ele>2144.3579101562</ele>
        <time>2013-09-28T11:27:18Z</time>
      </trkpt>
      <trkpt lat="42.83164" lon="1.44048">
        <ele>2142.435546875</ele>
        <time>2013-09-28T11:27:23Z</time>
      </trkpt>
      <trkpt lat="42.83168" lon="1.44051">
        <ele>2140.0322265625</ele>
        <time>2013-09-28T11:27:29Z</time>
      </trkpt>
      <trkpt lat="42.83172" lon="1.44051">
        <ele>2138.5900878906</ele>
        <time>2013-09-28T11:27:36Z</time>
      </trkpt>
      <trkpt lat="42.83175" lon="1.44053">
        <ele>2136.6672363281</ele>
        <time>2013-09-28T11:27:42Z</time>
      </trkpt>
      <trkpt lat="42.83179" lon="1.4405">
        <ele>2134.7448730469</ele>
        <time>2013-09-28T11:27:48Z</time>
      </trkpt>
      <trkpt lat="42.83183" lon="1.44054">
        <ele>2132.8220214844</ele>
        <time>2013-09-28T11:27:53Z</time>
      </trkpt>
      <trkpt lat="42.83188" lon="1.44057">
        <ele>2130.4189453125</ele>
        <time>2013-09-28T11:28:01Z</time>
      </trkpt>
      <trkpt lat="42.83192" lon="1.44056">
        <ele>2129.4575195312</ele>
        <time>2013-09-28T11:28:05Z</time>
      </trkpt>
      <trkpt lat="42.83195" lon="1.44058">
        <ele>2127.0544433594</ele>
        <time>2013-09-28T11:28:13Z</time>
      </trkpt>
      <trkpt lat="42.83197" lon="1.4406">
        <ele>2126.0930175781</ele>
        <time>2013-09-28T11:28:19Z</time>
      </trkpt>
      <trkpt lat="42.83197" lon="1.44062">
        <ele>2125.1315917969</ele>
        <time>2013-09-28T11:28:24Z</time>
      </trkpt>
      <trkpt lat="42.83202" lon="1.44063">
        <ele>2122.2475585938</ele>
        <time>2013-09-28T11:28:31Z</time>
      </trkpt>
      <trkpt lat="42.83204" lon="1.44067">
        <ele>2121.7668457031</ele>
        <time>2013-09-28T11:28:36Z</time>
      </trkpt>
      <trkpt lat="42.83204" lon="1.44071">
        <ele>2120.8056640625</ele>
        <time>2013-09-28T11:28:41Z</time>
      </trkpt>
      <trkpt lat="42.83205" lon="1.44076">
        <ele>2119.8442382812</ele>
        <time>2013-09-28T11:28:48Z</time>
      </trkpt>
      <trkpt lat="42.83209" lon="1.44077">
        <ele>2117.9216308594</ele>
        <time>2013-09-28T11:28:55Z</time>
      </trkpt>
      <trkpt lat="42.83212" lon="1.44075">
        <ele>2116.9604492188</ele>
        <time>2013-09-28T11:29:00Z</time>
      </trkpt>
      <trkpt lat="42.83214" lon="1.44078">
        <ele>2115.9990234375</ele>
        <time>2013-09-28T11:29:05Z</time>
      </trkpt>
      <trkpt lat="42.83216" lon="1.44081">
        <ele>2114.5571289062</ele>
        <time>2013-09-28T11:29:12Z</time>
      </trkpt>
      <trkpt lat="42.83219" lon="1.44085">
        <ele>2113.595703125</ele>
        <time>2013-09-28T11:29:17Z</time>
      </trkpt>
      <trkpt lat="42.83223" lon="1.44091">
        <ele>2112.1538085938</ele>
        <time>2013-09-28T11:29:24Z</time>
      </trkpt>
      <trkpt lat="42.83227" lon="1.44094">
        <ele>2111.1926269531</ele>
        <time>2013-09-28T11:29:28Z</time>
      </trkpt>
      <trkpt lat="42.83238" lon="1.44102">
        <ele>2109.2700195312</ele>
        <time>2013-09-28T11:29:34Z</time>
      </trkpt>
      <trkpt lat="42.83249" lon="1.44108">
        <ele>2107.3471679688</ele>
        <time>2013-09-28T11:29:39Z</time>
      </trkpt>
      <trkpt lat="42.8326" lon="1.44115">
        <ele>2106.3857421875</ele>
        <time>2013-09-28T11:29:44Z</time>
      </trkpt>
      <trkpt lat="42.83268" lon="1.44121">
        <ele>2105.9050292969</ele>
        <time>2013-09-28T11:29:49Z</time>
      </trkpt>
      <trkpt lat="42.83278" lon="1.44124">
        <ele>2105.4245605469</ele>
        <time>2013-09-28T11:29:55Z</time>
      </trkpt>
      <trkpt lat="42.83289" lon="1.44128">
        <ele>2104.9438476562</ele>
        <time>2013-09-28T11:30:01Z</time>
      </trkpt>
      <trkpt lat="42.83298" lon="1.4413">
        <ele>2105.9050292969</ele>
        <time>2013-09-28T11:30:07Z</time>
      </trkpt>
      <trkpt lat="42.83305" lon="1.44133">
        <ele>2106.3857421875</ele>
        <time>2013-09-28T11:30:13Z</time>
      </trkpt>
      <trkpt lat="42.83305" lon="1.44133">
        <ele>2106.3857421875</ele>
        <time>2013-09-28T11:30:14Z</time>
      </trkpt>
      <trkpt lat="42.8331" lon="1.44133">
        <ele>2106.3857421875</ele>
        <time>2013-09-28T11:30:18Z</time>
      </trkpt>
      <trkpt lat="42.83319" lon="1.44136">
        <ele>2107.3471679688</ele>
        <time>2013-09-28T11:30:27Z</time>
      </trkpt>
      <trkpt lat="42.83327" lon="1.44143">
        <ele>2108.30859375</ele>
        <time>2013-09-28T11:30:36Z</time>
      </trkpt>
      <trkpt lat="42.83331" lon="1.44146">
        <ele>2109.2700195312</ele>
        <time>2013-09-28T11:30:42Z</time>
      </trkpt>
      <trkpt lat="42.83338" lon="1.44149">
        <ele>2109.2700195312</ele>
        <time>2013-09-28T11:30:49Z</time>
      </trkpt>
      <trkpt lat="42.83343" lon="1.44152">
        <ele>2109.7504882812</ele>
        <time>2013-09-28T11:30:55Z</time>
      </trkpt>
      <trkpt lat="42.83349" lon="1.44157">
        <ele>2109.2700195312</ele>
        <time>2013-09-28T11:31:02Z</time>
      </trkpt>
      <trkpt lat="42.83355" lon="1.44161">
        <ele>2108.30859375</ele>
        <time>2013-09-28T11:31:08Z</time>
      </trkpt>
      <trkpt lat="42.8336" lon="1.44163">
        <ele>2107.8278808594</ele>
        <time>2013-09-28T11:31:13Z</time>
      </trkpt>
      <trkpt lat="42.83367" lon="1.44172">
        <ele>2107.3471679688</ele>
        <time>2013-09-28T11:31:21Z</time>
      </trkpt>
      <trkpt lat="42.83372" lon="1.44176">
        <ele>2107.3471679688</ele>
        <time>2013-09-28T11:31:26Z</time>
      </trkpt>
      <trkpt lat="42.83376" lon="1.4418">
        <ele>2107.3471679688</ele>
        <time>2013-09-28T11:31:30Z</time>
      </trkpt>
      <trkpt lat="42.83384" lon="1.44187">
        <ele>2107.3471679688</ele>
        <time>2013-09-28T11:31:37Z</time>
      </trkpt>
      <trkpt lat="42.83389" lon="1.44192">
        <ele>2107.3471679688</ele>
        <time>2013-09-28T11:31:42Z</time>
      </trkpt>
      <trkpt lat="42.83394" lon="1.44194">
        <ele>2107.3471679688</ele>
        <time>2013-09-28T11:31:46Z</time>
      </trkpt>
      <trkpt lat="42.83397" lon="1.44196">
        <ele>2107.3471679688</ele>
        <time>2013-09-28T11:31:48Z</time>
      </trkpt>
      <trkpt lat="42.83401" lon="1.44198">
        <ele>2106.8664550781</ele>
        <time>2013-09-28T11:31:52Z</time>
      </trkpt>
      <trkpt lat="42.83408" lon="1.44202">
        <ele>2106.8664550781</ele>
        <time>2013-09-28T11:31:58Z</time>
      </trkpt>
      <trkpt lat="42.83411" lon="1.44204">
        <ele>2106.8664550781</ele>
        <time>2013-09-28T11:32:01Z</time>
      </trkpt>
      <trkpt lat="42.83421" lon="1.44209">
        <ele>2106.3857421875</ele>
        <time>2013-09-28T11:32:09Z</time>
      </trkpt>
      <trkpt lat="42.83431" lon="1.44211">
        <ele>2105.4245605469</ele>
        <time>2013-09-28T11:32:16Z</time>
      </trkpt>
      <trkpt lat="42.83445" lon="1.44213">
        <ele>2104.9438476562</ele>
        <time>2013-09-28T11:32:23Z</time>
      </trkpt>
      <trkpt lat="42.83455" lon="1.44213">
        <ele>2104.4631347656</ele>
        <time>2013-09-28T11:32:28Z</time>
      </trkpt>
      <trkpt lat="42.83461" lon="1.44215">
        <ele>2103.9826660156</ele>
        <time>2013-09-28T11:32:33Z</time>
      </trkpt>
      <trkpt lat="42.83473" lon="1.44217">
        <ele>2103.0212402344</ele>
        <time>2013-09-28T11:32:39Z</time>
      </trkpt>
      <trkpt lat="42.8348" lon="1.44217">
        <ele>2102.0598144531</ele>
        <time>2013-09-28T11:32:43Z</time>
      </trkpt>
      <trkpt lat="42.8349" lon="1.44219">
        <ele>2101.0986328125</ele>
        <time>2013-09-28T11:32:49Z</time>
      </trkpt>
      <trkpt lat="42.83497" lon="1.44221">
        <ele>2100.6179199219</ele>
        <time>2013-09-28T11:32:53Z</time>
      </trkpt>
      <trkpt lat="42.83511" lon="1.44223">
        <ele>2099.1760253906</ele>
        <time>2013-09-28T11:33:00Z</time>
      </trkpt>
      <trkpt lat="42.83517" lon="1.44225">
        <ele>2098.6953125</ele>
        <time>2013-09-28T11:33:04Z</time>
      </trkpt>
      <trkpt lat="42.83528" lon="1.44224">
        <ele>2097.7341308594</ele>
        <time>2013-09-28T11:33:11Z</time>
      </trkpt>
      <trkpt lat="42.83537" lon="1.44223">
        <ele>2097.2534179688</ele>
        <time>2013-09-28T11:33:20Z</time>
      </trkpt>
      <trkpt lat="42.83545" lon="1.44221">
        <ele>2097.2534179688</ele>
        <time>2013-09-28T11:33:27Z</time>
      </trkpt>
      <trkpt lat="42.83553" lon="1.44221">
        <ele>2097.7341308594</ele>
        <time>2013-09-28T11:33:35Z</time>
      </trkpt>
      <trkpt lat="42.83558" lon="1.4422">
        <ele>2097.7341308594</ele>
        <time>2013-09-28T11:33:39Z</time>
      </trkpt>
      <trkpt lat="42.83567" lon="1.44218">
        <ele>2096.7727050781</ele>
        <time>2013-09-28T11:33:47Z</time>
      </trkpt>
      <trkpt lat="42.83577" lon="1.44215">
        <ele>2095.8115234375</ele>
        <time>2013-09-28T11:33:55Z</time>
      </trkpt>
      <trkpt lat="42.83583" lon="1.44213">
        <ele>2095.3308105469</ele>
        <time>2013-09-28T11:34:01Z</time>
      </trkpt>
      <trkpt lat="42.83587" lon="1.44211">
        <ele>2094.8500976562</ele>
        <time>2013-09-28T11:34:07Z</time>
      </trkpt>
      <trkpt lat="42.83588" lon="1.44211">
        <ele>2094.8500976562</ele>
        <time>2013-09-28T11:34:15Z</time>
      </trkpt>
      <trkpt lat="42.83588" lon="1.44211">
        <ele>2094.8500976562</ele>
        <time>2013-09-28T11:34:24Z</time>
      </trkpt>
      <trkpt lat="42.83588" lon="1.44211">
        <ele>2095.8115234375</ele>
        <time>2013-09-28T11:34:40Z</time>
      </trkpt>
      <trkpt lat="42.83593" lon="1.44208">
        <ele>2095.8115234375</ele>
        <time>2013-09-28T11:34:47Z</time>
      </trkpt>
      <trkpt lat="42.83599" lon="1.44202">
        <ele>2095.3308105469</ele>
        <time>2013-09-28T11:34:55Z</time>
      </trkpt>
      <trkpt lat="42.83606" lon="1.44199">
        <ele>2094.3693847656</ele>
        <time>2013-09-28T11:35:02Z</time>
      </trkpt>
      <trkpt lat="42.83613" lon="1.44196">
        <ele>2092.4470214844</ele>
        <time>2013-09-28T11:35:08Z</time>
      </trkpt>
      <trkpt lat="42.83617" lon="1.44196">
        <ele>2091.4853515625</ele>
        <time>2013-09-28T11:35:13Z</time>
      </trkpt>
      <trkpt lat="42.83625" lon="1.44194">
        <ele>2089.08203125</ele>
        <time>2013-09-28T11:35:19Z</time>
      </trkpt>
      <trkpt lat="42.83633" lon="1.44193">
        <ele>2087.1594238281</ele>
        <time>2013-09-28T11:35:26Z</time>
      </trkpt>
      <trkpt lat="42.8364" lon="1.4419">
        <ele>2086.6787109375</ele>
        <time>2013-09-28T11:35:32Z</time>
      </trkpt>
      <trkpt lat="42.83647" lon="1.44187">
        <ele>2086.1982421875</ele>
        <time>2013-09-28T11:35:38Z</time>
      </trkpt>
      <trkpt lat="42.83656" lon="1.44183">
        <ele>2085.7175292969</ele>
        <time>2013-09-28T11:35:46Z</time>
      </trkpt>
      <trkpt lat="42.83663" lon="1.44179">
        <ele>2085.2368164062</ele>
        <time>2013-09-28T11:35:52Z</time>
      </trkpt>
      <trkpt lat="42.8367" lon="1.44176">
        <ele>2084.7563476562</ele>
        <time>2013-09-28T11:35:58Z</time>
      </trkpt>
      <trkpt lat="42.83681" lon="1.44173">
        <ele>2085.2368164062</ele>
        <time>2013-09-28T11:36:07Z</time>
      </trkpt>
      <trkpt lat="42.83691" lon="1.44174">
        <ele>2084.7563476562</ele>
        <time>2013-09-28T11:36:15Z</time>
      </trkpt>
      <trkpt lat="42.83698" lon="1.44169">
        <ele>2084.2756347656</ele>
        <time>2013-09-28T11:36:22Z</time>
      </trkpt>
      <trkpt lat="42.83705" lon="1.44164">
        <ele>2083.3142089844</ele>
        <time>2013-09-28T11:36:29Z</time>
      </trkpt>
      <trkpt lat="42.83707" lon="1.44163">
        <ele>2082.8334960938</ele>
        <time>2013-09-28T11:36:31Z</time>
      </trkpt>
      <trkpt lat="42.8371" lon="1.44162">
        <ele>2081.3916015625</ele>
        <time>2013-09-28T11:36:35Z</time>
      </trkpt>
      <trkpt lat="42.83714" lon="1.44163">
        <ele>2080.9111328125</ele>
        <time>2013-09-28T11:36:38Z</time>
      </trkpt>
      <trkpt lat="42.8372" lon="1.44157">
        <ele>2080.4304199219</ele>
        <time>2013-09-28T11:36:45Z</time>
      </trkpt>
      <trkpt lat="42.83725" lon="1.44153">
        <ele>2080.4304199219</ele>
        <time>2013-09-28T11:36:50Z</time>
      </trkpt>
      <trkpt lat="42.83733" lon="1.44149">
        <ele>2079.9497070312</ele>
        <time>2013-09-28T11:36:58Z</time>
      </trkpt>
      <trkpt lat="42.83738" lon="1.44146">
        <ele>2079.9497070312</ele>
        <time>2013-09-28T11:37:05Z</time>
      </trkpt>
      <trkpt lat="42.83745" lon="1.44145">
        <ele>2078.98828125</ele>
        <time>2013-09-28T11:37:12Z</time>
      </trkpt>
      <trkpt lat="42.83747" lon="1.44146">
        <ele>2078.5078125</ele>
        <time>2013-09-28T11:37:15Z</time>
      </trkpt>
      <trkpt lat="42.83752" lon="1.44148">
        <ele>2077.5463867188</ele>
        <time>2013-09-28T11:37:19Z</time>
      </trkpt>
      <trkpt lat="42.83756" lon="1.44146">
        <ele>2076.1044921875</ele>
        <time>2013-09-28T11:37:26Z</time>
      </trkpt>
      <trkpt lat="42.8376" lon="1.44143">
        <ele>2073.7009277344</ele>
        <time>2013-09-28T11:37:32Z</time>
      </trkpt>
      <trkpt lat="42.83764" lon="1.44136">
        <ele>2072.2590332031</ele>
        <time>2013-09-28T11:37:38Z</time>
      </trkpt>
      <trkpt lat="42.83768" lon="1.44126">
        <ele>2069.8557128906</ele>
        <time>2013-09-28T11:37:46Z</time>
      </trkpt>
      <trkpt lat="42.8377" lon="1.44117">
        <ele>2066.9719238281</ele>
        <time>2013-09-28T11:37:54Z</time>
      </trkpt>
      <trkpt lat="42.83771" lon="1.44111">
        <ele>2064.5686035156</ele>
        <time>2013-09-28T11:38:00Z</time>
      </trkpt>
      <trkpt lat="42.83773" lon="1.44106">
        <ele>2062.1652832031</ele>
        <time>2013-09-28T11:38:06Z</time>
      </trkpt>
      <trkpt lat="42.83775" lon="1.44102">
        <ele>2059.76171875</ele>
        <time>2013-09-28T11:38:12Z</time>
      </trkpt>
      <trkpt lat="42.83776" lon="1.44098">
        <ele>2058.8005371094</ele>
        <time>2013-09-28T11:38:17Z</time>
      </trkpt>
      <trkpt lat="42.83777" lon="1.44094">
        <ele>2057.8393554688</ele>
        <time>2013-09-28T11:38:21Z</time>
      </trkpt>
      <trkpt lat="42.83779" lon="1.44089">
        <ele>2055.4360351562</ele>
        <time>2013-09-28T11:38:27Z</time>
      </trkpt>
      <trkpt lat="42.83781" lon="1.44083">
        <ele>2053.0327148438</ele>
        <time>2013-09-28T11:38:34Z</time>
      </trkpt>
      <trkpt lat="42.83784" lon="1.4408">
        <ele>2052.0712890625</ele>
        <time>2013-09-28T11:38:40Z</time>
      </trkpt>
      <trkpt lat="42.83786" lon="1.44079">
        <ele>2050.6293945312</ele>
        <time>2013-09-28T11:38:47Z</time>
      </trkpt>
      <trkpt lat="42.83787" lon="1.44074">
        <ele>2048.7067871094</ele>
        <time>2013-09-28T11:38:53Z</time>
      </trkpt>
      <trkpt lat="42.83791" lon="1.44073">
        <ele>2046.7841796875</ele>
        <time>2013-09-28T11:38:59Z</time>
      </trkpt>
      <trkpt lat="42.83794" lon="1.44073">
        <ele>2044.8615722656</ele>
        <time>2013-09-28T11:39:05Z</time>
      </trkpt>
      <trkpt lat="42.83797" lon="1.44074">
        <ele>2042.9387207031</ele>
        <time>2013-09-28T11:39:12Z</time>
      </trkpt>
      <trkpt lat="42.83802" lon="1.44075">
        <ele>2041.0161132812</ele>
        <time>2013-09-28T11:39:19Z</time>
      </trkpt>
      <trkpt lat="42.83804" lon="1.44072">
        <ele>2039.57421875</ele>
        <time>2013-09-28T11:39:24Z</time>
      </trkpt>
      <trkpt lat="42.83805" lon="1.44068">
        <ele>2038.1323242188</ele>
        <time>2013-09-28T11:39:31Z</time>
      </trkpt>
      <trkpt lat="42.8381" lon="1.44068">
        <ele>2035.7290039062</ele>
        <time>2013-09-28T11:39:37Z</time>
      </trkpt>
      <trkpt lat="42.83816" lon="1.44073">
        <ele>2033.8063964844</ele>
        <time>2013-09-28T11:39:45Z</time>
      </trkpt>
      <trkpt lat="42.8382" lon="1.44076">
        <ele>2032.8449707031</ele>
        <time>2013-09-28T11:39:51Z</time>
      </trkpt>
      <trkpt lat="42.83823" lon="1.44075">
        <ele>2030.9226074219</ele>
        <time>2013-09-28T11:39:58Z</time>
      </trkpt>
      <trkpt lat="42.83826" lon="1.4407">
        <ele>2028.9997558594</ele>
        <time>2013-09-28T11:40:04Z</time>
      </trkpt>
      <trkpt lat="42.83827" lon="1.44067">
        <ele>2028.0385742188</ele>
        <time>2013-09-28T11:40:08Z</time>
      </trkpt>
      <trkpt lat="42.83832" lon="1.44065">
        <ele>2026.1157226562</ele>
        <time>2013-09-28T11:40:14Z</time>
      </trkpt>
      <trkpt lat="42.83838" lon="1.44062">
        <ele>2024.1931152344</ele>
        <time>2013-09-28T11:40:21Z</time>
      </trkpt>
      <trkpt lat="42.83842" lon="1.44061">
        <ele>2021.7897949219</ele>
        <time>2013-09-28T11:40:27Z</time>
      </trkpt>
      <trkpt lat="42.83847" lon="1.4406">
        <ele>2019.38671875</ele>
        <time>2013-09-28T11:40:34Z</time>
      </trkpt>
      <trkpt lat="42.83852" lon="1.44055">
        <ele>2017.9445800781</ele>
        <time>2013-09-28T11:40:40Z</time>
      </trkpt>
      <trkpt lat="42.83857" lon="1.44055">
        <ele>2016.0219726562</ele>
        <time>2013-09-28T11:40:46Z</time>
      </trkpt>
      <trkpt lat="42.83862" lon="1.44049">
        <ele>2014.0993652344</ele>
        <time>2013-09-28T11:40:52Z</time>
      </trkpt>
      <trkpt lat="42.83867" lon="1.44048">
        <ele>2011.6960449219</ele>
        <time>2013-09-28T11:40:58Z</time>
      </trkpt>
      <trkpt lat="42.83869" lon="1.44047">
        <ele>2010.7346191406</ele>
        <time>2013-09-28T11:41:01Z</time>
      </trkpt>
      <trkpt lat="42.83878" lon="1.44046">
        <ele>2008.3312988281</ele>
        <time>2013-09-28T11:41:09Z</time>
      </trkpt>
      <trkpt lat="42.83884" lon="1.44048">
        <ele>2007.3701171875</ele>
        <time>2013-09-28T11:41:14Z</time>
      </trkpt>
      <trkpt lat="42.83891" lon="1.44048">
        <ele>2005.4475097656</ele>
        <time>2013-09-28T11:41:22Z</time>
      </trkpt>
      <trkpt lat="42.83895" lon="1.44048">
        <ele>2004.0056152344</ele>
        <time>2013-09-28T11:41:29Z</time>
      </trkpt>
      <trkpt lat="42.83898" lon="1.44052">
        <ele>2002.5634765625</ele>
        <time>2013-09-28T11:41:34Z</time>
      </trkpt>
      <trkpt lat="42.839" lon="1.44055">
        <ele>2001.1215820312</ele>
        <time>2013-09-28T11:41:39Z</time>
      </trkpt>
      <trkpt lat="42.83906" lon="1.44054">
        <ele>1998.7182617188</ele>
        <time>2013-09-28T11:41:44Z</time>
      </trkpt>
      <trkpt lat="42.83909" lon="1.44056">
        <ele>1996.3151855469</ele>
        <time>2013-09-28T11:41:50Z</time>
      </trkpt>
      <trkpt lat="42.83912" lon="1.44055">
        <ele>1995.353515625</ele>
        <time>2013-09-28T11:41:54Z</time>
      </trkpt>
      <trkpt lat="42.83915" lon="1.44056">
        <ele>1993.4309082031</ele>
        <time>2013-09-28T11:42:01Z</time>
      </trkpt>
      <trkpt lat="42.83919" lon="1.44055">
        <ele>1991.9890136719</ele>
        <time>2013-09-28T11:42:06Z</time>
      </trkpt>
      <trkpt lat="42.83924" lon="1.4405">
        <ele>1989.5856933594</ele>
        <time>2013-09-28T11:42:13Z</time>
      </trkpt>
      <trkpt lat="42.83928" lon="1.44047">
        <ele>1987.6630859375</ele>
        <time>2013-09-28T11:42:19Z</time>
      </trkpt>
      <trkpt lat="42.8393" lon="1.44048">
        <ele>1985.7404785156</ele>
        <time>2013-09-28T11:42:24Z</time>
      </trkpt>
      <trkpt lat="42.83935" lon="1.44045">
        <ele>1983.8178710938</ele>
        <time>2013-09-28T11:42:30Z</time>
      </trkpt>
      <trkpt lat="42.83938" lon="1.44044">
        <ele>1982.3759765625</ele>
        <time>2013-09-28T11:42:35Z</time>
      </trkpt>
      <trkpt lat="42.83942" lon="1.44044">
        <ele>1979.9724121094</ele>
        <time>2013-09-28T11:42:41Z</time>
      </trkpt>
      <trkpt lat="42.83945" lon="1.44045">
        <ele>1978.5305175781</ele>
        <time>2013-09-28T11:42:45Z</time>
      </trkpt>
      <trkpt lat="42.83947" lon="1.44043">
        <ele>1977.0886230469</ele>
        <time>2013-09-28T11:42:50Z</time>
      </trkpt>
      <trkpt lat="42.8395" lon="1.44045">
        <ele>1975.1657714844</ele>
        <time>2013-09-28T11:42:55Z</time>
      </trkpt>
      <trkpt lat="42.83954" lon="1.44046">
        <ele>1973.2434082031</ele>
        <time>2013-09-28T11:43:01Z</time>
      </trkpt>
      <trkpt lat="42.83957" lon="1.4405">
        <ele>1971.3205566406</ele>
        <time>2013-09-28T11:43:07Z</time>
      </trkpt>
      <trkpt lat="42.83961" lon="1.44049">
        <ele>1969.8786621094</ele>
        <time>2013-09-28T11:43:12Z</time>
      </trkpt>
      <trkpt lat="42.83967" lon="1.44049">
        <ele>1967.9560546875</ele>
        <time>2013-09-28T11:43:19Z</time>
      </trkpt>
      <trkpt lat="42.83971" lon="1.44048">
        <ele>1966.5141601562</ele>
        <time>2013-09-28T11:43:24Z</time>
      </trkpt>
      <trkpt lat="42.83975" lon="1.44045">
        <ele>1965.072265625</ele>
        <time>2013-09-28T11:43:30Z</time>
      </trkpt>
      <trkpt lat="42.83979" lon="1.44042">
        <ele>1962.6687011719</ele>
        <time>2013-09-28T11:43:37Z</time>
      </trkpt>
      <trkpt lat="42.83983" lon="1.44037">
        <ele>1960.74609375</ele>
        <time>2013-09-28T11:43:43Z</time>
      </trkpt>
      <trkpt lat="42.83987" lon="1.44038">
        <ele>1958.8234863281</ele>
        <time>2013-09-28T11:43:48Z</time>
      </trkpt>
      <trkpt lat="42.8399" lon="1.44034">
        <ele>1957.3815917969</ele>
        <time>2013-09-28T11:43:53Z</time>
      </trkpt>
      <trkpt lat="42.83994" lon="1.44034">
        <ele>1955.458984375</ele>
        <time>2013-09-28T11:43:59Z</time>
      </trkpt>
      <trkpt lat="42.83995" lon="1.44038">
        <ele>1954.0170898438</ele>
        <time>2013-09-28T11:44:05Z</time>
      </trkpt>
      <trkpt lat="42.83998" lon="1.44045">
        <ele>1951.6137695312</ele>
        <time>2013-09-28T11:44:11Z</time>
      </trkpt>
      <trkpt lat="42.84001" lon="1.44046">
        <ele>1950.65234375</ele>
        <time>2013-09-28T11:44:15Z</time>
      </trkpt>
      <trkpt lat="42.84008" lon="1.44044">
        <ele>1948.2490234375</ele>
        <time>2013-09-28T11:44:22Z</time>
      </trkpt>
      <trkpt lat="42.84013" lon="1.44042">
        <ele>1946.3264160156</ele>
        <time>2013-09-28T11:44:28Z</time>
      </trkpt>
      <trkpt lat="42.84016" lon="1.44042">
        <ele>1944.8842773438</ele>
        <time>2013-09-28T11:44:33Z</time>
      </trkpt>
      <trkpt lat="42.84021" lon="1.4404">
        <ele>1942.0004882812</ele>
        <time>2013-09-28T11:44:39Z</time>
      </trkpt>
      <trkpt lat="42.84025" lon="1.44039">
        <ele>1940.5583496094</ele>
        <time>2013-09-28T11:44:44Z</time>
      </trkpt>
      <trkpt lat="42.8403" lon="1.44037">
        <ele>1938.6359863281</ele>
        <time>2013-09-28T11:44:50Z</time>
      </trkpt>
      <trkpt lat="42.84035" lon="1.44035">
        <ele>1937.1938476562</ele>
        <time>2013-09-28T11:44:56Z</time>
      </trkpt>
      <trkpt lat="42.8404" lon="1.44031">
        <ele>1934.7907714844</ele>
        <time>2013-09-28T11:45:05Z</time>
      </trkpt>
      <trkpt lat="42.84046" lon="1.44028">
        <ele>1933.3486328125</ele>
        <time>2013-09-28T11:45:11Z</time>
      </trkpt>
      <trkpt lat="42.84052" lon="1.44028">
        <ele>1931.9064941406</ele>
        <time>2013-09-28T11:45:17Z</time>
      </trkpt>
      <trkpt lat="42.84057" lon="1.44025">
        <ele>1929.9838867188</ele>
        <time>2013-09-28T11:45:24Z</time>
      </trkpt>
      <trkpt lat="42.84064" lon="1.44022">
        <ele>1928.0612792969</ele>
        <time>2013-09-28T11:45:32Z</time>
      </trkpt>
      <trkpt lat="42.84068" lon="1.4402">
        <ele>1927.1000976562</ele>
        <time>2013-09-28T11:45:36Z</time>
      </trkpt>
      <trkpt lat="42.84072" lon="1.44017">
        <ele>1925.6579589844</ele>
        <time>2013-09-28T11:45:41Z</time>
      </trkpt>
      <trkpt lat="42.84079" lon="1.44018">
        <ele>1923.2548828125</ele>
        <time>2013-09-28T11:45:48Z</time>
      </trkpt>
      <trkpt lat="42.84085" lon="1.44016">
        <ele>1921.33203125</ele>
        <time>2013-09-28T11:45:55Z</time>
      </trkpt>
      <trkpt lat="42.8409" lon="1.44018">
        <ele>1919.4096679688</ele>
        <time>2013-09-28T11:46:01Z</time>
      </trkpt>
      <trkpt lat="42.84097" lon="1.44016">
        <ele>1917.9675292969</ele>
        <time>2013-09-28T11:46:08Z</time>
      </trkpt>
      <trkpt lat="42.84103" lon="1.44015">
        <ele>1916.5256347656</ele>
        <time>2013-09-28T11:46:14Z</time>
      </trkpt>
      <trkpt lat="42.84107" lon="1.44021">
        <ele>1914.6027832031</ele>
        <time>2013-09-28T11:46:22Z</time>
      </trkpt>
      <trkpt lat="42.8411" lon="1.44026">
        <ele>1912.6801757812</ele>
        <time>2013-09-28T11:46:29Z</time>
      </trkpt>
      <trkpt lat="42.84113" lon="1.44032">
        <ele>1910.7575683594</ele>
        <time>2013-09-28T11:46:36Z</time>
      </trkpt>
      <trkpt lat="42.84115" lon="1.44034">
        <ele>1909.3156738281</ele>
        <time>2013-09-28T11:46:44Z</time>
      </trkpt>
      <trkpt lat="42.84118" lon="1.44036">
        <ele>1907.8737792969</ele>
        <time>2013-09-28T11:46:52Z</time>
      </trkpt>
      <trkpt lat="42.84122" lon="1.44037">
        <ele>1905.9509277344</ele>
        <time>2013-09-28T11:46:59Z</time>
      </trkpt>
      <trkpt lat="42.84125" lon="1.44039">
        <ele>1904.5090332031</ele>
        <time>2013-09-28T11:47:08Z</time>
      </trkpt>
      <trkpt lat="42.84129" lon="1.44037">
        <ele>1903.5478515625</ele>
        <time>2013-09-28T11:47:16Z</time>
      </trkpt>
      <trkpt lat="42.84132" lon="1.44036">
        <ele>1902.1057128906</ele>
        <time>2013-09-28T11:47:22Z</time>
      </trkpt>
      <trkpt lat="42.84135" lon="1.44034">
        <ele>1901.14453125</ele>
        <time>2013-09-28T11:47:27Z</time>
      </trkpt>
      <trkpt lat="42.84138" lon="1.44036">
        <ele>1899.7023925781</ele>
        <time>2013-09-28T11:47:34Z</time>
      </trkpt>
      <trkpt lat="42.8414" lon="1.44033">
        <ele>1898.2602539062</ele>
        <time>2013-09-28T11:47:41Z</time>
      </trkpt>
      <trkpt lat="42.84143" lon="1.4403">
        <ele>1897.7797851562</ele>
        <time>2013-09-28T11:47:49Z</time>
      </trkpt>
      <trkpt lat="42.84146" lon="1.44026">
        <ele>1895.8571777344</ele>
        <time>2013-09-28T11:47:55Z</time>
      </trkpt>
      <trkpt lat="42.84151" lon="1.4402">
        <ele>1893.4538574219</ele>
        <time>2013-09-28T11:48:02Z</time>
      </trkpt>
      <trkpt lat="42.84155" lon="1.44017">
        <ele>1891.0505371094</ele>
        <time>2013-09-28T11:48:09Z</time>
      </trkpt>
      <trkpt lat="42.84157" lon="1.44015">
        <ele>1890.0893554688</ele>
        <time>2013-09-28T11:48:14Z</time>
      </trkpt>
      <trkpt lat="42.84161" lon="1.44011">
        <ele>1888.1667480469</ele>
        <time>2013-09-28T11:48:20Z</time>
      </trkpt>
      <trkpt lat="42.84164" lon="1.44006">
        <ele>1886.244140625</ele>
        <time>2013-09-28T11:48:28Z</time>
      </trkpt>
      <trkpt lat="42.84166" lon="1.44003">
        <ele>1884.8022460938</ele>
        <time>2013-09-28T11:48:34Z</time>
      </trkpt>
      <trkpt lat="42.84168" lon="1.44002">
        <ele>1882.8791503906</ele>
        <time>2013-09-28T11:48:39Z</time>
      </trkpt>
      <trkpt lat="42.8417" lon="1.43997">
        <ele>1881.4372558594</ele>
        <time>2013-09-28T11:48:45Z</time>
      </trkpt>
      <trkpt lat="42.84172" lon="1.43996">
        <ele>1880.4760742188</ele>
        <time>2013-09-28T11:48:51Z</time>
      </trkpt>
      <trkpt lat="42.84174" lon="1.43996">
        <ele>1879.0339355469</ele>
        <time>2013-09-28T11:49:15Z</time>
      </trkpt>
      <trkpt lat="42.84178" lon="1.43993">
        <ele>1877.5920410156</ele>
        <time>2013-09-28T11:49:21Z</time>
      </trkpt>
      <trkpt lat="42.84181" lon="1.43992">
        <ele>1875.1887207031</ele>
        <time>2013-09-28T11:49:26Z</time>
      </trkpt>
      <trkpt lat="42.84187" lon="1.4399">
        <ele>1872.7856445312</ele>
        <time>2013-09-28T11:49:32Z</time>
      </trkpt>
      <trkpt lat="42.8419" lon="1.43987">
        <ele>1870.3823242188</ele>
        <time>2013-09-28T11:49:37Z</time>
      </trkpt>
      <trkpt lat="42.84193" lon="1.43982">
        <ele>1867.9787597656</ele>
        <time>2013-09-28T11:49:43Z</time>
      </trkpt>
      <trkpt lat="42.84196" lon="1.43978">
        <ele>1867.017578125</ele>
        <time>2013-09-28T11:49:49Z</time>
      </trkpt>
      <trkpt lat="42.84196" lon="1.43972">
        <ele>1865.0949707031</ele>
        <time>2013-09-28T11:49:55Z</time>
      </trkpt>
      <trkpt lat="42.84198" lon="1.43969">
        <ele>1863.6528320312</ele>
        <time>2013-09-28T11:50:00Z</time>
      </trkpt>
      <trkpt lat="42.84199" lon="1.43967">
        <ele>1862.2109375</ele>
        <time>2013-09-28T11:50:05Z</time>
      </trkpt>
      <trkpt lat="42.84199" lon="1.43963">
        <ele>1860.7690429688</ele>
        <time>2013-09-28T11:50:11Z</time>
      </trkpt>
      <trkpt lat="42.84198" lon="1.43959">
        <ele>1858.8464355469</ele>
        <time>2013-09-28T11:50:16Z</time>
      </trkpt>
      <trkpt lat="42.84199" lon="1.43957">
        <ele>1857.4045410156</ele>
        <time>2013-09-28T11:50:21Z</time>
      </trkpt>
      <trkpt lat="42.84201" lon="1.43955">
        <ele>1856.4431152344</ele>
        <time>2013-09-28T11:50:26Z</time>
      </trkpt>
      <trkpt lat="42.84207" lon="1.43958">
        <ele>1853.5593261719</ele>
        <time>2013-09-28T11:50:35Z</time>
      </trkpt>
      <trkpt lat="42.8421" lon="1.43959">
        <ele>1852.1171875</ele>
        <time>2013-09-28T11:50:42Z</time>
      </trkpt>
      <trkpt lat="42.84215" lon="1.4396">
        <ele>1850.1945800781</ele>
        <time>2013-09-28T11:50:49Z</time>
      </trkpt>
      <trkpt lat="42.8422" lon="1.4396">
        <ele>1848.2717285156</ele>
        <time>2013-09-28T11:50:55Z</time>
      </trkpt>
      <trkpt lat="42.84226" lon="1.43958">
        <ele>1845.8686523438</ele>
        <time>2013-09-28T11:51:02Z</time>
      </trkpt>
      <trkpt lat="42.8423" lon="1.43958">
        <ele>1843.9460449219</ele>
        <time>2013-09-28T11:51:07Z</time>
      </trkpt>
      <trkpt lat="42.84234" lon="1.43958">
        <ele>1842.5041503906</ele>
        <time>2013-09-28T11:51:12Z</time>
      </trkpt>
      <trkpt lat="42.84238" lon="1.43958">
        <ele>1842.0234375</ele>
        <time>2013-09-28T11:51:17Z</time>
      </trkpt>
      <trkpt lat="42.84245" lon="1.43958">
        <ele>1840.5812988281</ele>
        <time>2013-09-28T11:51:23Z</time>
      </trkpt>
      <trkpt lat="42.84251" lon="1.43955">
        <ele>1839.1394042969</ele>
        <time>2013-09-28T11:51:30Z</time>
      </trkpt>
      <trkpt lat="42.84254" lon="1.43954">
        <ele>1837.6975097656</ele>
        <time>2013-09-28T11:51:36Z</time>
      </trkpt>
      <trkpt lat="42.84259" lon="1.43952">
        <ele>1836.2556152344</ele>
        <time>2013-09-28T11:51:42Z</time>
      </trkpt>
      <trkpt lat="42.84264" lon="1.43952">
        <ele>1833.8520507812</ele>
        <time>2013-09-28T11:51:47Z</time>
      </trkpt>
      <trkpt lat="42.84268" lon="1.43953">
        <ele>1832.890625</ele>
        <time>2013-09-28T11:51:50Z</time>
      </trkpt>
      <trkpt lat="42.84274" lon="1.43952">
        <ele>1831.9294433594</ele>
        <time>2013-09-28T11:51:55Z</time>
      </trkpt>
      <trkpt lat="42.84284" lon="1.4395">
        <ele>1830.0068359375</ele>
        <time>2013-09-28T11:52:05Z</time>
      </trkpt>
      <trkpt lat="42.84292" lon="1.4395">
        <ele>1828.0842285156</ele>
        <time>2013-09-28T11:52:12Z</time>
      </trkpt>
      <trkpt lat="42.84299" lon="1.43952">
        <ele>1827.603515625</ele>
        <time>2013-09-28T11:52:19Z</time>
      </trkpt>
      <trkpt lat="42.84307" lon="1.43953">
        <ele>1826.6423339844</ele>
        <time>2013-09-28T11:52:25Z</time>
      </trkpt>
      <trkpt lat="42.84312" lon="1.43954">
        <ele>1826.1616210938</ele>
        <time>2013-09-28T11:52:30Z</time>
      </trkpt>
      <trkpt lat="42.84321" lon="1.43952">
        <ele>1824.2390136719</ele>
        <time>2013-09-28T11:52:38Z</time>
      </trkpt>
      <trkpt lat="42.84329" lon="1.43952">
        <ele>1823.2778320312</ele>
        <time>2013-09-28T11:52:46Z</time>
      </trkpt>
      <trkpt lat="42.84337" lon="1.43949">
        <ele>1821.3549804688</ele>
        <time>2013-09-28T11:52:54Z</time>
      </trkpt>
      <trkpt lat="42.84344" lon="1.43948">
        <ele>1820.3937988281</ele>
        <time>2013-09-28T11:53:01Z</time>
      </trkpt>
      <trkpt lat="42.84347" lon="1.43946">
        <ele>1820.8745117188</ele>
        <time>2013-09-28T11:53:06Z</time>
      </trkpt>
      <trkpt lat="42.84352" lon="1.43945">
        <ele>1820.3937988281</ele>
        <time>2013-09-28T11:53:12Z</time>
      </trkpt>
      <trkpt lat="42.84359" lon="1.43944">
        <ele>1819.9128417969</ele>
        <time>2013-09-28T11:53:19Z</time>
      </trkpt>
      <trkpt lat="42.84364" lon="1.43942">
        <ele>1819.4323730469</ele>
        <time>2013-09-28T11:53:25Z</time>
      </trkpt>
      <trkpt lat="42.84369" lon="1.4394">
        <ele>1818.4709472656</ele>
        <time>2013-09-28T11:53:30Z</time>
      </trkpt>
      <trkpt lat="42.84375" lon="1.43937">
        <ele>1817.0290527344</ele>
        <time>2013-09-28T11:53:38Z</time>
      </trkpt>
      <trkpt lat="42.8438" lon="1.43935">
        <ele>1815.5871582031</ele>
        <time>2013-09-28T11:53:43Z</time>
      </trkpt>
      <trkpt lat="42.84387" lon="1.43935">
        <ele>1814.6257324219</ele>
        <time>2013-09-28T11:53:49Z</time>
      </trkpt>
      <trkpt lat="42.84389" lon="1.43934">
        <ele>1814.1450195312</ele>
        <time>2013-09-28T11:53:51Z</time>
      </trkpt>
      <trkpt lat="42.84393" lon="1.43932">
        <ele>1813.1838378906</ele>
        <time>2013-09-28T11:53:56Z</time>
      </trkpt>
      <trkpt lat="42.84401" lon="1.4393">
        <ele>1810.7805175781</ele>
        <time>2013-09-28T11:54:04Z</time>
      </trkpt>
      <trkpt lat="42.84407" lon="1.43929">
        <ele>1809.8190917969</ele>
        <time>2013-09-28T11:54:11Z</time>
      </trkpt>
      <trkpt lat="42.84414" lon="1.43929">
        <ele>1808.3771972656</ele>
        <time>2013-09-28T11:54:18Z</time>
      </trkpt>
      <trkpt lat="42.84418" lon="1.43931">
        <ele>1807.8967285156</ele>
        <time>2013-09-28T11:54:23Z</time>
      </trkpt>
      <trkpt lat="42.84424" lon="1.43929">
        <ele>1806.4545898438</ele>
        <time>2013-09-28T11:54:30Z</time>
      </trkpt>
      <trkpt lat="42.8443" lon="1.43929">
        <ele>1805.0126953125</ele>
        <time>2013-09-28T11:54:38Z</time>
      </trkpt>
      <trkpt lat="42.84435" lon="1.43925">
        <ele>1803.5705566406</ele>
        <time>2013-09-28T11:54:45Z</time>
      </trkpt>
      <trkpt lat="42.84439" lon="1.43924">
        <ele>1802.6091308594</ele>
        <time>2013-09-28T11:54:54Z</time>
      </trkpt>
      <trkpt lat="42.84442" lon="1.43925">
        <ele>1802.1284179688</ele>
        <time>2013-09-28T11:55:01Z</time>
      </trkpt>
      <trkpt lat="42.84444" lon="1.43931">
        <ele>1800.2060546875</ele>
        <time>2013-09-28T11:55:07Z</time>
      </trkpt>
      <trkpt lat="42.84446" lon="1.43938">
        <ele>1799.2446289062</ele>
        <time>2013-09-28T11:55:15Z</time>
      </trkpt>
      <trkpt lat="42.84448" lon="1.43939">
        <ele>1798.283203125</ele>
        <time>2013-09-28T11:55:21Z</time>
      </trkpt>
      <trkpt lat="42.84448" lon="1.43943">
        <ele>1797.3220214844</ele>
        <time>2013-09-28T11:55:26Z</time>
      </trkpt>
      <trkpt lat="42.84451" lon="1.43946">
        <ele>1795.8801269531</ele>
        <time>2013-09-28T11:55:32Z</time>
      </trkpt>
      <trkpt lat="42.84452" lon="1.43949">
        <ele>1793.4768066406</ele>
        <time>2013-09-28T11:55:37Z</time>
      </trkpt>
      <trkpt lat="42.84455" lon="1.4395">
        <ele>1792.515625</ele>
        <time>2013-09-28T11:55:45Z</time>
      </trkpt>
      <trkpt lat="42.8446" lon="1.43952">
        <ele>1790.5927734375</ele>
        <time>2013-09-28T11:56:05Z</time>
      </trkpt>
      <trkpt lat="42.84462" lon="1.43956">
        <ele>1788.6704101562</ele>
        <time>2013-09-28T11:56:13Z</time>
      </trkpt>
      <trkpt lat="42.8446" lon="1.43962">
        <ele>1786.7473144531</ele>
        <time>2013-09-28T11:56:19Z</time>
      </trkpt>
      <trkpt lat="42.84457" lon="1.43966">
        <ele>1784.8249511719</ele>
        <time>2013-09-28T11:56:25Z</time>
      </trkpt>
      <trkpt lat="42.84456" lon="1.43969">
        <ele>1783.3828125</ele>
        <time>2013-09-28T11:56:32Z</time>
      </trkpt>
      <trkpt lat="42.84455" lon="1.43972">
        <ele>1781.9409179688</ele>
        <time>2013-09-28T11:56:38Z</time>
      </trkpt>
      <trkpt lat="42.84454" lon="1.43974">
        <ele>1780.9797363281</ele>
        <time>2013-09-28T11:56:48Z</time>
      </trkpt>
      <trkpt lat="42.84454" lon="1.43978">
        <ele>1779.5375976562</ele>
        <time>2013-09-28T11:56:56Z</time>
      </trkpt>
      <trkpt lat="42.84454" lon="1.4398">
        <ele>1778.5764160156</ele>
        <time>2013-09-28T11:57:02Z</time>
      </trkpt>
      <trkpt lat="42.84454" lon="1.43982">
        <ele>1777.1345214844</ele>
        <time>2013-09-28T11:57:10Z</time>
      </trkpt>
      <trkpt lat="42.84452" lon="1.43984">
        <ele>1776.1730957031</ele>
        <time>2013-09-28T11:57:17Z</time>
      </trkpt>
      <trkpt lat="42.84451" lon="1.43985">
        <ele>1773.7697753906</ele>
        <time>2013-09-28T11:57:38Z</time>
      </trkpt>
      <trkpt lat="42.8445" lon="1.43985">
        <ele>1770.4050292969</ele>
        <time>2013-09-28T11:57:52Z</time>
      </trkpt>
      <trkpt lat="42.84449" lon="1.43985">
        <ele>1768.9631347656</ele>
        <time>2013-09-28T11:58:01Z</time>
      </trkpt>
      <trkpt lat="42.84448" lon="1.43986">
        <ele>1767.0405273438</ele>
        <time>2013-09-28T11:58:30Z</time>
      </trkpt>
      <trkpt lat="42.84447" lon="1.43988">
        <ele>1766.0791015625</ele>
        <time>2013-09-28T11:58:36Z</time>
      </trkpt>
      <trkpt lat="42.84448" lon="1.43992">
        <ele>1767.0405273438</ele>
        <time>2013-09-28T11:59:10Z</time>
      </trkpt>
      <trkpt lat="42.8445" lon="1.43997">
        <ele>1765.5986328125</ele>
        <time>2013-09-28T11:59:31Z</time>
      </trkpt>
      <trkpt lat="42.84453" lon="1.43999">
        <ele>1764.6372070312</ele>
        <time>2013-09-28T11:59:39Z</time>
      </trkpt>
      <trkpt lat="42.84454" lon="1.44002">
        <ele>1764.1564941406</ele>
        <time>2013-09-28T11:59:46Z</time>
      </trkpt>
      <trkpt lat="42.84455" lon="1.44005">
        <ele>1763.67578125</ele>
        <time>2013-09-28T11:59:51Z</time>
      </trkpt>
      <trkpt lat="42.84457" lon="1.44005">
        <ele>1763.1953125</ele>
        <time>2013-09-28T11:59:57Z</time>
      </trkpt>
      <trkpt lat="42.8446" lon="1.44006">
        <ele>1761.7534179688</ele>
        <time>2013-09-28T12:00:02Z</time>
      </trkpt>
      <trkpt lat="42.8446" lon="1.44007">
        <ele>1760.7919921875</ele>
        <time>2013-09-28T12:00:09Z</time>
      </trkpt>
      <trkpt lat="42.84462" lon="1.44013">
        <ele>1758.8693847656</ele>
        <time>2013-09-28T12:00:16Z</time>
      </trkpt>
      <trkpt lat="42.84464" lon="1.44017">
        <ele>1757.4274902344</ele>
        <time>2013-09-28T12:00:21Z</time>
      </trkpt>
      <trkpt lat="42.84466" lon="1.44023">
        <ele>1755.5046386719</ele>
        <time>2013-09-28T12:00:28Z</time>
      </trkpt>
      <trkpt lat="42.84467" lon="1.44029">
        <ele>1753.1013183594</ele>
        <time>2013-09-28T12:00:34Z</time>
      </trkpt>
      <trkpt lat="42.84468" lon="1.44039">
        <ele>1751.1787109375</ele>
        <time>2013-09-28T12:00:41Z</time>
      </trkpt>
      <trkpt lat="42.84472" lon="1.44048">
        <ele>1748.2946777344</ele>
        <time>2013-09-28T12:00:49Z</time>
      </trkpt>
      <trkpt lat="42.84476" lon="1.44055">
        <ele>1746.3723144531</ele>
        <time>2013-09-28T12:00:56Z</time>
      </trkpt>
      <trkpt lat="42.84481" lon="1.44061">
        <ele>1744.9301757812</ele>
        <time>2013-09-28T12:01:02Z</time>
      </trkpt>
      <trkpt lat="42.84483" lon="1.44065">
        <ele>1744.9301757812</ele>
        <time>2013-09-28T12:01:06Z</time>
      </trkpt>
      <trkpt lat="42.84485" lon="1.44076">
        <ele>1743.9689941406</ele>
        <time>2013-09-28T12:01:15Z</time>
      </trkpt>
      <trkpt lat="42.84489" lon="1.44077">
        <ele>1743.0075683594</ele>
        <time>2013-09-28T12:01:21Z</time>
      </trkpt>
      <trkpt lat="42.84493" lon="1.44082">
        <ele>1741.5656738281</ele>
        <time>2013-09-28T12:01:29Z</time>
      </trkpt>
      <trkpt lat="42.84496" lon="1.44082">
        <ele>1741.5656738281</ele>
        <time>2013-09-28T12:01:35Z</time>
      </trkpt>
      <trkpt lat="42.84501" lon="1.44083">
        <ele>1740.1237792969</ele>
        <time>2013-09-28T12:01:42Z</time>
      </trkpt>
      <trkpt lat="42.84504" lon="1.44085">
        <ele>1738.681640625</ele>
        <time>2013-09-28T12:01:46Z</time>
      </trkpt>
      <trkpt lat="42.84508" lon="1.44089">
        <ele>1736.7587890625</ele>
        <time>2013-09-28T12:01:52Z</time>
      </trkpt>
      <trkpt lat="42.84511" lon="1.44093">
        <ele>1734.8364257812</ele>
        <time>2013-09-28T12:01:58Z</time>
      </trkpt>
      <trkpt lat="42.84514" lon="1.44096">
        <ele>1732.9135742188</ele>
        <time>2013-09-28T12:02:03Z</time>
      </trkpt>
      <trkpt lat="42.84516" lon="1.44102">
        <ele>1730.9912109375</ele>
        <time>2013-09-28T12:02:09Z</time>
      </trkpt>
      <trkpt lat="42.84517" lon="1.44105">
        <ele>1729.5490722656</ele>
        <time>2013-09-28T12:02:14Z</time>
      </trkpt>
      <trkpt lat="42.84522" lon="1.44109">
        <ele>1727.1459960938</ele>
        <time>2013-09-28T12:02:21Z</time>
      </trkpt>
      <trkpt lat="42.84526" lon="1.44113">
        <ele>1725.2231445312</ele>
        <time>2013-09-28T12:02:27Z</time>
      </trkpt>
      <trkpt lat="42.84529" lon="1.44117">
        <ele>1723.3005371094</ele>
        <time>2013-09-28T12:02:33Z</time>
      </trkpt>
      <trkpt lat="42.84534" lon="1.44125">
        <ele>1719.9357910156</ele>
        <time>2013-09-28T12:02:41Z</time>
      </trkpt>
      <trkpt lat="42.84536" lon="1.44131">
        <ele>1717.5324707031</ele>
        <time>2013-09-28T12:02:47Z</time>
      </trkpt>
      <trkpt lat="42.84538" lon="1.44138">
        <ele>1715.1293945312</ele>
        <time>2013-09-28T12:02:55Z</time>
      </trkpt>
      <trkpt lat="42.84541" lon="1.44144">
        <ele>1713.6872558594</ele>
        <time>2013-09-28T12:03:01Z</time>
      </trkpt>
      <trkpt lat="42.84546" lon="1.44151">
        <ele>1711.7648925781</ele>
        <time>2013-09-28T12:03:08Z</time>
      </trkpt>
      <trkpt lat="42.84547" lon="1.44157">
        <ele>1709.8420410156</ele>
        <time>2013-09-28T12:03:13Z</time>
      </trkpt>
      <trkpt lat="42.84549" lon="1.44164">
        <ele>1708.4001464844</ele>
        <time>2013-09-28T12:03:19Z</time>
      </trkpt>
      <trkpt lat="42.84552" lon="1.44173">
        <ele>1706.4772949219</ele>
        <time>2013-09-28T12:03:27Z</time>
      </trkpt>
      <trkpt lat="42.84557" lon="1.44181">
        <ele>1704.5546875</ele>
        <time>2013-09-28T12:03:35Z</time>
      </trkpt>
      <trkpt lat="42.84559" lon="1.4419">
        <ele>1703.1127929688</ele>
        <time>2013-09-28T12:03:42Z</time>
      </trkpt>
      <trkpt lat="42.84562" lon="1.442">
        <ele>1700.2290039062</ele>
        <time>2013-09-28T12:03:51Z</time>
      </trkpt>
      <trkpt lat="42.84565" lon="1.44207">
        <ele>1698.3061523438</ele>
        <time>2013-09-28T12:03:57Z</time>
      </trkpt>
      <trkpt lat="42.84568" lon="1.44215">
        <ele>1695.9030761719</ele>
        <time>2013-09-28T12:04:04Z</time>
      </trkpt>
      <trkpt lat="42.8457" lon="1.44223">
        <ele>1693.4997558594</ele>
        <time>2013-09-28T12:04:10Z</time>
      </trkpt>
      <trkpt lat="42.84571" lon="1.4423">
        <ele>1691.5769042969</ele>
        <time>2013-09-28T12:04:17Z</time>
      </trkpt>
      <trkpt lat="42.84576" lon="1.44234">
        <ele>1689.654296875</ele>
        <time>2013-09-28T12:04:23Z</time>
      </trkpt>
      <trkpt lat="42.84581" lon="1.44239">
        <ele>1689.1735839844</ele>
        <time>2013-09-28T12:04:29Z</time>
      </trkpt>
      <trkpt lat="42.84586" lon="1.44244">
        <ele>1687.7316894531</ele>
        <time>2013-09-28T12:04:36Z</time>
      </trkpt>
      <trkpt lat="42.84589" lon="1.44251">
        <ele>1686.2897949219</ele>
        <time>2013-09-28T12:04:42Z</time>
      </trkpt>
      <trkpt lat="42.8459" lon="1.44255">
        <ele>1685.3283691406</ele>
        <time>2013-09-28T12:04:45Z</time>
      </trkpt>
      <trkpt lat="42.84588" lon="1.44264">
        <ele>1682.9250488281</ele>
        <time>2013-09-28T12:04:53Z</time>
      </trkpt>
      <trkpt lat="42.84586" lon="1.4427">
        <ele>1681.0026855469</ele>
        <time>2013-09-28T12:04:59Z</time>
      </trkpt>
      <trkpt lat="42.84583" lon="1.44273">
        <ele>1679.0798339844</ele>
        <time>2013-09-28T12:05:05Z</time>
      </trkpt>
      <trkpt lat="42.84584" lon="1.44276">
        <ele>1677.1574707031</ele>
        <time>2013-09-28T12:05:11Z</time>
      </trkpt>
      <trkpt lat="42.84583" lon="1.44281">
        <ele>1674.2731933594</ele>
        <time>2013-09-28T12:05:17Z</time>
      </trkpt>
      <trkpt lat="42.84581" lon="1.44283">
        <ele>1672.8312988281</ele>
        <time>2013-09-28T12:05:21Z</time>
      </trkpt>
      <trkpt lat="42.8458" lon="1.44288">
        <ele>1670.4279785156</ele>
        <time>2013-09-28T12:05:28Z</time>
      </trkpt>
      <trkpt lat="42.84581" lon="1.44294">
        <ele>1667.5439453125</ele>
        <time>2013-09-28T12:05:34Z</time>
      </trkpt>
      <trkpt lat="42.84581" lon="1.44302">
        <ele>1663.6987304688</ele>
        <time>2013-09-28T12:05:41Z</time>
      </trkpt>
      <trkpt lat="42.84581" lon="1.44309">
        <ele>1659.8532714844</ele>
        <time>2013-09-28T12:05:47Z</time>
      </trkpt>
      <trkpt lat="42.84583" lon="1.44315">
        <ele>1657.4501953125</ele>
        <time>2013-09-28T12:05:53Z</time>
      </trkpt>
      <trkpt lat="42.84584" lon="1.44325">
        <ele>1653.1242675781</ele>
        <time>2013-09-28T12:06:01Z</time>
      </trkpt>
      <trkpt lat="42.84585" lon="1.44331">
        <ele>1651.6823730469</ele>
        <time>2013-09-28T12:06:07Z</time>
      </trkpt>
      <trkpt lat="42.84588" lon="1.44339">
        <ele>1648.7983398438</ele>
        <time>2013-09-28T12:06:15Z</time>
      </trkpt>
      <trkpt lat="42.84591" lon="1.44342">
        <ele>1646.3952636719</ele>
        <time>2013-09-28T12:06:21Z</time>
      </trkpt>
      <trkpt lat="42.84593" lon="1.44343">
        <ele>1644.4724121094</ele>
        <time>2013-09-28T12:06:27Z</time>
      </trkpt>
      <trkpt lat="42.84598" lon="1.44348">
        <ele>1642.0690917969</ele>
        <time>2013-09-28T12:06:33Z</time>
      </trkpt>
      <trkpt lat="42.84601" lon="1.44354">
        <ele>1640.146484375</ele>
        <time>2013-09-28T12:06:38Z</time>
      </trkpt>
      <trkpt lat="42.84604" lon="1.44359">
        <ele>1639.1850585938</ele>
        <time>2013-09-28T12:06:43Z</time>
      </trkpt>
      <trkpt lat="42.84608" lon="1.44359">
        <ele>1638.2238769531</ele>
        <time>2013-09-28T12:06:51Z</time>
      </trkpt>
      <trkpt lat="42.84614" lon="1.44362">
        <ele>1636.3012695312</ele>
        <time>2013-09-28T12:06:59Z</time>
      </trkpt>
      <trkpt lat="42.84616" lon="1.44359">
        <ele>1635.33984375</ele>
        <time>2013-09-28T12:07:05Z</time>
      </trkpt>
      <trkpt lat="42.84618" lon="1.44358">
        <ele>1634.3786621094</ele>
        <time>2013-09-28T12:07:10Z</time>
      </trkpt>
      <trkpt lat="42.84622" lon="1.44362">
        <ele>1632.9365234375</ele>
        <time>2013-09-28T12:07:16Z</time>
      </trkpt>
      <trkpt lat="42.84628" lon="1.44361">
        <ele>1631.4946289062</ele>
        <time>2013-09-28T12:07:22Z</time>
      </trkpt>
      <trkpt lat="42.84631" lon="1.44366">
        <ele>1629.0913085938</ele>
        <time>2013-09-28T12:07:28Z</time>
      </trkpt>
      <trkpt lat="42.84634" lon="1.44373">
        <ele>1626.6879882812</ele>
        <time>2013-09-28T12:07:37Z</time>
      </trkpt>
      <trkpt lat="42.84637" lon="1.44381">
        <ele>1623.8039550781</ele>
        <time>2013-09-28T12:07:45Z</time>
      </trkpt>
      <trkpt lat="42.8464" lon="1.44386">
        <ele>1620.9201660156</ele>
        <time>2013-09-28T12:07:51Z</time>
      </trkpt>
      <trkpt lat="42.84644" lon="1.44392">
        <ele>1618.0361328125</ele>
        <time>2013-09-28T12:07:58Z</time>
      </trkpt>
      <trkpt lat="42.84649" lon="1.44398">
        <ele>1615.15234375</ele>
        <time>2013-09-28T12:08:06Z</time>
      </trkpt>
      <trkpt lat="42.84652" lon="1.44403">
        <ele>1612.7490234375</ele>
        <time>2013-09-28T12:08:12Z</time>
      </trkpt>
      <trkpt lat="42.84653" lon="1.44408">
        <ele>1610.3454589844</ele>
        <time>2013-09-28T12:08:19Z</time>
      </trkpt>
      <trkpt lat="42.84653" lon="1.44409">
        <ele>1608.9035644531</ele>
        <time>2013-09-28T12:08:27Z</time>
      </trkpt>
      <trkpt lat="42.84656" lon="1.4441">
        <ele>1607.4616699219</ele>
        <time>2013-09-28T12:08:33Z</time>
      </trkpt>
      <trkpt lat="42.84659" lon="1.44411">
        <ele>1606.5002441406</ele>
        <time>2013-09-28T12:08:38Z</time>
      </trkpt>
      <trkpt lat="42.84661" lon="1.44414">
        <ele>1605.5390625</ele>
        <time>2013-09-28T12:08:45Z</time>
      </trkpt>
      <trkpt lat="42.84663" lon="1.44414">
        <ele>1604.5776367188</ele>
        <time>2013-09-28T12:08:51Z</time>
      </trkpt>
      <trkpt lat="42.84663" lon="1.44416">
        <ele>1604.0971679688</ele>
        <time>2013-09-28T12:08:56Z</time>
      </trkpt>
      <trkpt lat="42.84665" lon="1.4442">
        <ele>1602.6550292969</ele>
        <time>2013-09-28T12:09:07Z</time>
      </trkpt>
      <trkpt lat="42.84667" lon="1.44427">
        <ele>1600.251953125</ele>
        <time>2013-09-28T12:09:16Z</time>
      </trkpt>
      <trkpt lat="42.84668" lon="1.44433">
        <ele>1598.8098144531</ele>
        <time>2013-09-28T12:09:24Z</time>
      </trkpt>
      <trkpt lat="42.84668" lon="1.44437">
        <ele>1597.8486328125</ele>
        <time>2013-09-28T12:09:31Z</time>
      </trkpt>
      <trkpt lat="42.84669" lon="1.4444">
        <ele>1596.4067382812</ele>
        <time>2013-09-28T12:09:39Z</time>
      </trkpt>
      <trkpt lat="42.84669" lon="1.44443">
        <ele>1594.4836425781</ele>
        <time>2013-09-28T12:09:46Z</time>
      </trkpt>
      <trkpt lat="42.84669" lon="1.44444">
        <ele>1593.5224609375</ele>
        <time>2013-09-28T12:09:52Z</time>
      </trkpt>
      <trkpt lat="42.84669" lon="1.44448">
        <ele>1591.5998535156</ele>
        <time>2013-09-28T12:10:03Z</time>
      </trkpt>
      <trkpt lat="42.84671" lon="1.44448">
        <ele>1591.119140625</ele>
        <time>2013-09-28T12:10:10Z</time>
      </trkpt>
      <trkpt lat="42.84672" lon="1.44447">
        <ele>1590.1579589844</ele>
        <time>2013-09-28T12:10:15Z</time>
      </trkpt>
      <trkpt lat="42.84675" lon="1.44447">
        <ele>1589.1965332031</ele>
        <time>2013-09-28T12:10:22Z</time>
      </trkpt>
      <trkpt lat="42.84677" lon="1.44448">
        <ele>1588.7160644531</ele>
        <time>2013-09-28T12:10:26Z</time>
      </trkpt>
      <trkpt lat="42.8468" lon="1.44452">
        <ele>1587.2739257812</ele>
        <time>2013-09-28T12:10:34Z</time>
      </trkpt>
      <trkpt lat="42.84682" lon="1.44448">
        <ele>1586.7932128906</ele>
        <time>2013-09-28T12:10:40Z</time>
      </trkpt>
      <trkpt lat="42.84683" lon="1.44446">
        <ele>1586.7932128906</ele>
        <time>2013-09-28T12:10:45Z</time>
      </trkpt>
      <trkpt lat="42.84686" lon="1.44448">
        <ele>1585.83203125</ele>
        <time>2013-09-28T12:10:50Z</time>
      </trkpt>
      <trkpt lat="42.84687" lon="1.44451">
        <ele>1585.3513183594</ele>
        <time>2013-09-28T12:10:57Z</time>
      </trkpt>
      <trkpt lat="42.84686" lon="1.44456">
        <ele>1583.9094238281</ele>
        <time>2013-09-28T12:11:04Z</time>
      </trkpt>
      <trkpt lat="42.84686" lon="1.4446">
        <ele>1581.9868164062</ele>
        <time>2013-09-28T12:11:12Z</time>
      </trkpt>
      <trkpt lat="42.8469" lon="1.44458">
        <ele>1581.5061035156</ele>
        <time>2013-09-28T12:11:19Z</time>
      </trkpt>
      <trkpt lat="42.84692" lon="1.44455">
        <ele>1580.0642089844</ele>
        <time>2013-09-28T12:11:24Z</time>
      </trkpt>
      <trkpt lat="42.84695" lon="1.44449">
        <ele>1580.544921875</ele>
        <time>2013-09-28T12:11:31Z</time>
      </trkpt>
      <trkpt lat="42.84697" lon="1.44443">
        <ele>1579.5832519531</ele>
        <time>2013-09-28T12:11:37Z</time>
      </trkpt>
      <trkpt lat="42.84699" lon="1.44438">
        <ele>1578.6220703125</ele>
        <time>2013-09-28T12:11:45Z</time>
      </trkpt>
      <trkpt lat="42.847" lon="1.44435">
        <ele>1578.6220703125</ele>
        <time>2013-09-28T12:11:52Z</time>
      </trkpt>
      <trkpt lat="42.84701" lon="1.44433">
        <ele>1577.6606445312</ele>
        <time>2013-09-28T12:11:58Z</time>
      </trkpt>
      <trkpt lat="42.84706" lon="1.4443">
        <ele>1577.1801757812</ele>
        <time>2013-09-28T12:12:07Z</time>
      </trkpt>
      <trkpt lat="42.84708" lon="1.4443">
        <ele>1576.21875</ele>
        <time>2013-09-28T12:12:22Z</time>
      </trkpt>
      <trkpt lat="42.84711" lon="1.4443">
        <ele>1575.2573242188</ele>
        <time>2013-09-28T12:12:29Z</time>
      </trkpt>
      <trkpt lat="42.84712" lon="1.44431">
        <ele>1574.2961425781</ele>
        <time>2013-09-28T12:12:34Z</time>
      </trkpt>
      <trkpt lat="42.84711" lon="1.44432">
        <ele>1571.412109375</ele>
        <time>2013-09-28T12:12:44Z</time>
      </trkpt>
      <trkpt lat="42.84713" lon="1.44435">
        <ele>1570.4509277344</ele>
        <time>2013-09-28T12:12:51Z</time>
      </trkpt>
      <trkpt lat="42.84713" lon="1.44438">
        <ele>1569.4897460938</ele>
        <time>2013-09-28T12:12:56Z</time>
      </trkpt>
      <trkpt lat="42.84715" lon="1.44443">
        <ele>1570.4509277344</ele>
        <time>2013-09-28T12:13:05Z</time>
      </trkpt>
      <trkpt lat="42.84715" lon="1.44445">
        <ele>1569.9702148438</ele>
        <time>2013-09-28T12:13:12Z</time>
      </trkpt>
      <trkpt lat="42.84716" lon="1.44447">
        <ele>1571.412109375</ele>
        <time>2013-09-28T12:13:20Z</time>
      </trkpt>
      <trkpt lat="42.84719" lon="1.4445">
        <ele>1572.3735351562</ele>
        <time>2013-09-28T12:13:27Z</time>
      </trkpt>
      <trkpt lat="42.8472" lon="1.44453">
        <ele>1573.3349609375</ele>
        <time>2013-09-28T12:13:33Z</time>
      </trkpt>
      <trkpt lat="42.8472" lon="1.44457">
        <ele>1571.412109375</ele>
        <time>2013-09-28T12:13:40Z</time>
      </trkpt>
      <trkpt lat="42.84719" lon="1.44464">
        <ele>1567.0864257812</ele>
        <time>2013-09-28T12:13:48Z</time>
      </trkpt>
      <trkpt lat="42.84717" lon="1.44466">
        <ele>1563.7214355469</ele>
        <time>2013-09-28T12:13:55Z</time>
      </trkpt>
      <trkpt lat="42.84717" lon="1.44469">
        <ele>1560.8376464844</ele>
        <time>2013-09-28T12:14:02Z</time>
      </trkpt>
      <trkpt lat="42.84717" lon="1.44471">
        <ele>1559.3957519531</ele>
        <time>2013-09-28T12:14:09Z</time>
      </trkpt>
      <trkpt lat="42.8472" lon="1.44471">
        <ele>1556.9924316406</ele>
        <time>2013-09-28T12:14:17Z</time>
      </trkpt>
      <trkpt lat="42.84721" lon="1.44472">
        <ele>1555.0698242188</ele>
        <time>2013-09-28T12:14:24Z</time>
      </trkpt>
      <trkpt lat="42.84725" lon="1.44475">
        <ele>1554.1086425781</ele>
        <time>2013-09-28T12:14:31Z</time>
      </trkpt>
      <trkpt lat="42.84726" lon="1.44478">
        <ele>1552.1857910156</ele>
        <time>2013-09-28T12:14:37Z</time>
      </trkpt>
      <trkpt lat="42.84727" lon="1.44481">
        <ele>1550.2634277344</ele>
        <time>2013-09-28T12:14:44Z</time>
      </trkpt>
      <trkpt lat="42.84729" lon="1.44485">
        <ele>1550.2634277344</ele>
        <time>2013-09-28T12:14:50Z</time>
      </trkpt>
      <trkpt lat="42.84731" lon="1.44488">
        <ele>1548.8212890625</ele>
        <time>2013-09-28T12:14:56Z</time>
      </trkpt>
      <trkpt lat="42.84733" lon="1.44493">
        <ele>1548.3405761719</ele>
        <time>2013-09-28T12:15:02Z</time>
      </trkpt>
      <trkpt lat="42.84735" lon="1.44498">
        <ele>1547.8598632812</ele>
        <time>2013-09-28T12:15:10Z</time>
      </trkpt>
      <trkpt lat="42.84738" lon="1.44503">
        <ele>1544.9758300781</ele>
        <time>2013-09-28T12:15:19Z</time>
      </trkpt>
      <trkpt lat="42.8474" lon="1.44507">
        <ele>1542.0920410156</ele>
        <time>2013-09-28T12:15:28Z</time>
      </trkpt>
      <trkpt lat="42.84743" lon="1.44509">
        <ele>1540.1694335938</ele>
        <time>2013-09-28T12:15:35Z</time>
      </trkpt>
      <trkpt lat="42.84744" lon="1.44512">
        <ele>1539.2080078125</ele>
        <time>2013-09-28T12:15:39Z</time>
      </trkpt>
      <trkpt lat="42.84746" lon="1.44518">
        <ele>1537.7661132812</ele>
        <time>2013-09-28T12:15:46Z</time>
      </trkpt>
      <trkpt lat="42.84746" lon="1.44523">
        <ele>1536.8046875</ele>
        <time>2013-09-28T12:15:51Z</time>
      </trkpt>
      <trkpt lat="42.84747" lon="1.44528">
        <ele>1534.8823242188</ele>
        <time>2013-09-28T12:15:58Z</time>
      </trkpt>
      <trkpt lat="42.84745" lon="1.44533">
        <ele>1533.4401855469</ele>
        <time>2013-09-28T12:16:04Z</time>
      </trkpt>
      <trkpt lat="42.84744" lon="1.44538">
        <ele>1531.998046875</ele>
        <time>2013-09-28T12:16:11Z</time>
      </trkpt>
      <trkpt lat="42.84744" lon="1.44547">
        <ele>1530.5561523438</ele>
        <time>2013-09-28T12:16:19Z</time>
      </trkpt>
      <trkpt lat="42.84744" lon="1.44552">
        <ele>1529.1140136719</ele>
        <time>2013-09-28T12:16:26Z</time>
      </trkpt>
      <trkpt lat="42.84742" lon="1.44557">
        <ele>1528.6335449219</ele>
        <time>2013-09-28T12:16:33Z</time>
      </trkpt>
      <trkpt lat="42.84741" lon="1.44563">
        <ele>1527.6721191406</ele>
        <time>2013-09-28T12:16:39Z</time>
      </trkpt>
      <trkpt lat="42.84737" lon="1.44568">
        <ele>1526.2302246094</ele>
        <time>2013-09-28T12:16:47Z</time>
      </trkpt>
      <trkpt lat="42.84729" lon="1.44573">
        <ele>1521.904296875</ele>
        <time>2013-09-28T12:16:56Z</time>
      </trkpt>
      <trkpt lat="42.84723" lon="1.44579">
        <ele>1517.5783691406</ele>
        <time>2013-09-28T12:17:04Z</time>
      </trkpt>
      <trkpt lat="42.8472" lon="1.44583">
        <ele>1515.1750488281</ele>
        <time>2013-09-28T12:17:11Z</time>
      </trkpt>
      <trkpt lat="42.84716" lon="1.44586">
        <ele>1515.1750488281</ele>
        <time>2013-09-28T12:17:20Z</time>
      </trkpt>
      <trkpt lat="42.84713" lon="1.44592">
        <ele>1514.6943359375</ele>
        <time>2013-09-28T12:17:25Z</time>
      </trkpt>
      <trkpt lat="42.84712" lon="1.44594">
        <ele>1514.6943359375</ele>
        <time>2013-09-28T12:17:27Z</time>
      </trkpt>
      <trkpt lat="42.84709" lon="1.44602">
        <ele>1513.7329101562</ele>
        <time>2013-09-28T12:17:34Z</time>
      </trkpt>
      <trkpt lat="42.84707" lon="1.44609">
        <ele>1513.2524414062</ele>
        <time>2013-09-28T12:17:41Z</time>
      </trkpt>
      <trkpt lat="42.84704" lon="1.44615">
        <ele>1512.7717285156</ele>
        <time>2013-09-28T12:17:48Z</time>
      </trkpt>
      <trkpt lat="42.847" lon="1.44626">
        <ele>1512.291015625</ele>
        <time>2013-09-28T12:17:57Z</time>
      </trkpt>
      <trkpt lat="42.84696" lon="1.44632">
        <ele>1512.291015625</ele>
        <time>2013-09-28T12:18:05Z</time>
      </trkpt>
      <trkpt lat="42.84693" lon="1.44637">
        <ele>1511.810546875</ele>
        <time>2013-09-28T12:18:11Z</time>
      </trkpt>
      <trkpt lat="42.8469" lon="1.44641">
        <ele>1511.810546875</ele>
        <time>2013-09-28T12:18:16Z</time>
      </trkpt>
      <trkpt lat="42.84686" lon="1.44642">
        <ele>1511.810546875</ele>
        <time>2013-09-28T12:18:20Z</time>
      </trkpt>
      <trkpt lat="42.84675" lon="1.44649">
        <ele>1512.7717285156</ele>
        <time>2013-09-28T12:18:30Z</time>
      </trkpt>
      <trkpt lat="42.84668" lon="1.44653">
        <ele>1511.3298339844</ele>
        <time>2013-09-28T12:18:38Z</time>
      </trkpt>
      <trkpt lat="42.84661" lon="1.44655">
        <ele>1509.8876953125</ele>
        <time>2013-09-28T12:18:45Z</time>
      </trkpt>
      <trkpt lat="42.84657" lon="1.4466">
        <ele>1507.4846191406</ele>
        <time>2013-09-28T12:18:52Z</time>
      </trkpt>
      <trkpt lat="42.84652" lon="1.44666">
        <ele>1504.6005859375</ele>
        <time>2013-09-28T12:19:00Z</time>
      </trkpt>
      <trkpt lat="42.84645" lon="1.44669">
        <ele>1503.1586914062</ele>
        <time>2013-09-28T12:19:07Z</time>
      </trkpt>
      <trkpt lat="42.84639" lon="1.44675">
        <ele>1501.2360839844</ele>
        <time>2013-09-28T12:19:14Z</time>
      </trkpt>
      <trkpt lat="42.84631" lon="1.44679">
        <ele>1499.3132324219</ele>
        <time>2013-09-28T12:19:23Z</time>
      </trkpt>
      <trkpt lat="42.84623" lon="1.4468">
        <ele>1498.8325195312</ele>
        <time>2013-09-28T12:19:31Z</time>
      </trkpt>
      <trkpt lat="42.84615" lon="1.44681">
        <ele>1496.9099121094</ele>
        <time>2013-09-28T12:19:38Z</time>
      </trkpt>
      <trkpt lat="42.84608" lon="1.44679">
        <ele>1496.4294433594</ele>
        <time>2013-09-28T12:19:46Z</time>
      </trkpt>
      <trkpt lat="42.84602" lon="1.44679">
        <ele>1496.4294433594</ele>
        <time>2013-09-28T12:19:53Z</time>
      </trkpt>
      <trkpt lat="42.84598" lon="1.44678">
        <ele>1497.390625</ele>
        <time>2013-09-28T12:19:57Z</time>
      </trkpt>
      <trkpt lat="42.8459" lon="1.44676">
        <ele>1496.9099121094</ele>
        <time>2013-09-28T12:20:05Z</time>
      </trkpt>
      <trkpt lat="42.84584" lon="1.44677">
        <ele>1496.4294433594</ele>
        <time>2013-09-28T12:20:12Z</time>
      </trkpt>
      <trkpt lat="42.8458" lon="1.44683">
        <ele>1497.390625</ele>
        <time>2013-09-28T12:20:17Z</time>
      </trkpt>
      <trkpt lat="42.84579" lon="1.44685">
        <ele>1497.8713378906</ele>
        <time>2013-09-28T12:20:19Z</time>
      </trkpt>
      <trkpt lat="42.84574" lon="1.44694">
        <ele>1496.9099121094</ele>
        <time>2013-09-28T12:20:27Z</time>
      </trkpt>
      <trkpt lat="42.84568" lon="1.44697">
        <ele>1495.4680175781</ele>
        <time>2013-09-28T12:20:34Z</time>
      </trkpt>
      <trkpt lat="42.84562" lon="1.44706">
        <ele>1495.4680175781</ele>
        <time>2013-09-28T12:20:43Z</time>
      </trkpt>
      <trkpt lat="42.84557" lon="1.44706">
        <ele>1495.9487304688</ele>
        <time>2013-09-28T12:20:47Z</time>
      </trkpt>
      <trkpt lat="42.8455" lon="1.4471">
        <ele>1495.9487304688</ele>
        <time>2013-09-28T12:20:55Z</time>
      </trkpt>
      <trkpt lat="42.84544" lon="1.44718">
        <ele>1494.9873046875</ele>
        <time>2013-09-28T12:21:02Z</time>
      </trkpt>
      <trkpt lat="42.84538" lon="1.44724">
        <ele>1494.9873046875</ele>
        <time>2013-09-28T12:21:09Z</time>
      </trkpt>
      <trkpt lat="42.8453" lon="1.44728">
        <ele>1495.4680175781</ele>
        <time>2013-09-28T12:21:16Z</time>
      </trkpt>
      <trkpt lat="42.84521" lon="1.44731">
        <ele>1496.9099121094</ele>
        <time>2013-09-28T12:21:26Z</time>
      </trkpt>
      <trkpt lat="42.84513" lon="1.44733">
        <ele>1496.4294433594</ele>
        <time>2013-09-28T12:21:34Z</time>
      </trkpt>
      <trkpt lat="42.84503" lon="1.44736">
        <ele>1495.9487304688</ele>
        <time>2013-09-28T12:21:44Z</time>
      </trkpt>
      <trkpt lat="42.84497" lon="1.44739">
        <ele>1494.5065917969</ele>
        <time>2013-09-28T12:21:51Z</time>
      </trkpt>
      <trkpt lat="42.84495" lon="1.44744">
        <ele>1494.5065917969</ele>
        <time>2013-09-28T12:21:57Z</time>
      </trkpt>
      <trkpt lat="42.84494" lon="1.44748">
        <ele>1495.9487304688</ele>
        <time>2013-09-28T12:22:01Z</time>
      </trkpt>
      <trkpt lat="42.84492" lon="1.44751">
        <ele>1495.4680175781</ele>
        <time>2013-09-28T12:22:06Z</time>
      </trkpt>
      <trkpt lat="42.84486" lon="1.44756">
        <ele>1495.9487304688</ele>
        <time>2013-09-28T12:22:13Z</time>
      </trkpt>
      <trkpt lat="42.84484" lon="1.44757">
        <ele>1495.4680175781</ele>
        <time>2013-09-28T12:22:15Z</time>
      </trkpt>
      <trkpt lat="42.84478" lon="1.44763">
        <ele>1495.9487304688</ele>
        <time>2013-09-28T12:22:22Z</time>
      </trkpt>
      <trkpt lat="42.84472" lon="1.44769">
        <ele>1496.4294433594</ele>
        <time>2013-09-28T12:22:30Z</time>
      </trkpt>
      <trkpt lat="42.84464" lon="1.44775">
        <ele>1495.4680175781</ele>
        <time>2013-09-28T12:22:39Z</time>
      </trkpt>
      <trkpt lat="42.84456" lon="1.44781">
        <ele>1494.9873046875</ele>
        <time>2013-09-28T12:22:48Z</time>
      </trkpt>
      <trkpt lat="42.84447" lon="1.44785">
        <ele>1494.9873046875</ele>
        <time>2013-09-28T12:22:56Z</time>
      </trkpt>
      <trkpt lat="42.84441" lon="1.4479">
        <ele>1494.5065917969</ele>
        <time>2013-09-28T12:23:04Z</time>
      </trkpt>
      <trkpt lat="42.84435" lon="1.44795">
        <ele>1494.0261230469</ele>
        <time>2013-09-28T12:23:12Z</time>
      </trkpt>
      <trkpt lat="42.8443" lon="1.448">
        <ele>1493.0646972656</ele>
        <time>2013-09-28T12:23:20Z</time>
      </trkpt>
      <trkpt lat="42.84426" lon="1.44808">
        <ele>1492.103515625</ele>
        <time>2013-09-28T12:23:27Z</time>
      </trkpt>
      <trkpt lat="42.84425" lon="1.44814">
        <ele>1492.103515625</ele>
        <time>2013-09-28T12:23:32Z</time>
      </trkpt>
      <trkpt lat="42.84422" lon="1.44827">
        <ele>1492.103515625</ele>
        <time>2013-09-28T12:23:42Z</time>
      </trkpt>
      <trkpt lat="42.84422" lon="1.44837">
        <ele>1492.103515625</ele>
        <time>2013-09-28T12:23:50Z</time>
      </trkpt>
      <trkpt lat="42.8442" lon="1.44844">
        <ele>1491.1420898438</ele>
        <time>2013-09-28T12:23:57Z</time>
      </trkpt>
      <trkpt lat="42.84419" lon="1.44852">
        <ele>1489.7001953125</ele>
        <time>2013-09-28T12:24:03Z</time>
      </trkpt>
      <trkpt lat="42.8442" lon="1.44858">
        <ele>1489.7001953125</ele>
        <time>2013-09-28T12:24:07Z</time>
      </trkpt>
      <trkpt lat="42.84421" lon="1.44867">
        <ele>1489.2194824219</ele>
        <time>2013-09-28T12:24:16Z</time>
      </trkpt>
      <trkpt lat="42.84423" lon="1.44872">
        <ele>1489.7001953125</ele>
        <time>2013-09-28T12:24:23Z</time>
      </trkpt>
      <trkpt lat="42.84424" lon="1.44878">
        <ele>1489.7001953125</ele>
        <time>2013-09-28T12:24:30Z</time>
      </trkpt>
      <trkpt lat="42.84426" lon="1.44885">
        <ele>1488.7390136719</ele>
        <time>2013-09-28T12:24:36Z</time>
      </trkpt>
      <trkpt lat="42.84427" lon="1.44891">
        <ele>1488.2583007812</ele>
        <time>2013-09-28T12:24:43Z</time>
      </trkpt>
      <trkpt lat="42.84428" lon="1.44897">
        <ele>1487.7775878906</ele>
        <time>2013-09-28T12:24:50Z</time>
      </trkpt>
      <trkpt lat="42.84428" lon="1.44902">
        <ele>1485.8549804688</ele>
        <time>2013-09-28T12:24:56Z</time>
      </trkpt>
      <trkpt lat="42.84427" lon="1.44907">
        <ele>1483.4514160156</ele>
        <time>2013-09-28T12:25:02Z</time>
      </trkpt>
      <trkpt lat="42.84428" lon="1.44912">
        <ele>1483.4514160156</ele>
        <time>2013-09-28T12:25:07Z</time>
      </trkpt>
      <trkpt lat="42.8443" lon="1.44917">
        <ele>1482.970703125</ele>
        <time>2013-09-28T12:25:13Z</time>
      </trkpt>
      <trkpt lat="42.84432" lon="1.44922">
        <ele>1482.970703125</ele>
        <time>2013-09-28T12:25:21Z</time>
      </trkpt>
      <trkpt lat="42.84435" lon="1.4493">
        <ele>1482.0095214844</ele>
        <time>2013-09-28T12:25:27Z</time>
      </trkpt>
      <trkpt lat="42.84436" lon="1.44931">
        <ele>1482.0095214844</ele>
        <time>2013-09-28T12:25:28Z</time>
      </trkpt>
      <trkpt lat="42.84439" lon="1.44935">
        <ele>1481.5288085938</ele>
        <time>2013-09-28T12:25:32Z</time>
      </trkpt>
      <trkpt lat="42.8444" lon="1.44943">
        <ele>1480.0869140625</ele>
        <time>2013-09-28T12:25:38Z</time>
      </trkpt>
      <trkpt lat="42.84443" lon="1.44949">
        <ele>1478.1643066406</ele>
        <time>2013-09-28T12:25:44Z</time>
      </trkpt>
      <trkpt lat="42.84444" lon="1.44956">
        <ele>1473.8383789062</ele>
        <time>2013-09-28T12:25:50Z</time>
      </trkpt>
      <trkpt lat="42.84447" lon="1.44961">
        <ele>1473.3579101562</ele>
        <time>2013-09-28T12:25:55Z</time>
      </trkpt>
      <trkpt lat="42.84447" lon="1.44967">
        <ele>1471.9157714844</ele>
        <time>2013-09-28T12:25:59Z</time>
      </trkpt>
      <trkpt lat="42.84446" lon="1.44978">
        <ele>1472.8771972656</ele>
        <time>2013-09-28T12:26:06Z</time>
      </trkpt>
      <trkpt lat="42.84444" lon="1.4499">
        <ele>1470.9545898438</ele>
        <time>2013-09-28T12:26:14Z</time>
      </trkpt>
      <trkpt lat="42.84444" lon="1.44997">
        <ele>1469.9931640625</ele>
        <time>2013-09-28T12:26:18Z</time>
      </trkpt>
      <trkpt lat="42.84442" lon="1.45004">
        <ele>1468.0705566406</ele>
        <time>2013-09-28T12:26:23Z</time>
      </trkpt>
      <trkpt lat="42.84441" lon="1.45007">
        <ele>1467.1091308594</ele>
        <time>2013-09-28T12:26:25Z</time>
      </trkpt>
      <trkpt lat="42.84439" lon="1.45018">
        <ele>1466.1477050781</ele>
        <time>2013-09-28T12:26:33Z</time>
      </trkpt>
      <trkpt lat="42.84439" lon="1.45019">
        <ele>1466.6284179688</ele>
        <time>2013-09-28T12:26:34Z</time>
      </trkpt>
      <trkpt lat="42.84436" lon="1.45029">
        <ele>1468.5512695312</ele>
        <time>2013-09-28T12:26:42Z</time>
      </trkpt>
      <trkpt lat="42.84436" lon="1.45034">
        <ele>1467.1091308594</ele>
        <time>2013-09-28T12:26:46Z</time>
      </trkpt>
      <trkpt lat="42.84437" lon="1.45041">
        <ele>1467.1091308594</ele>
        <time>2013-09-28T12:26:51Z</time>
      </trkpt>
      <trkpt lat="42.8444" lon="1.45051">
        <ele>1468.0705566406</ele>
        <time>2013-09-28T12:26:59Z</time>
      </trkpt>
      <trkpt lat="42.84444" lon="1.45056">
        <ele>1467.5895996094</ele>
        <time>2013-09-28T12:27:06Z</time>
      </trkpt>
      <trkpt lat="42.84451" lon="1.4506">
        <ele>1468.5512695312</ele>
        <time>2013-09-28T12:27:13Z</time>
      </trkpt>
      <trkpt lat="42.84454" lon="1.45065">
        <ele>1467.1091308594</ele>
        <time>2013-09-28T12:27:19Z</time>
      </trkpt>
      <trkpt lat="42.84457" lon="1.45071">
        <ele>1467.1091308594</ele>
        <time>2013-09-28T12:27:26Z</time>
      </trkpt>
      <trkpt lat="42.8446" lon="1.45075">
        <ele>1467.1091308594</ele>
        <time>2013-09-28T12:27:32Z</time>
      </trkpt>
      <trkpt lat="42.84462" lon="1.45079">
        <ele>1466.6284179688</ele>
        <time>2013-09-28T12:27:37Z</time>
      </trkpt>
      <trkpt lat="42.84465" lon="1.45085">
        <ele>1466.1477050781</ele>
        <time>2013-09-28T12:27:44Z</time>
      </trkpt>
      <trkpt lat="42.84462" lon="1.45088">
        <ele>1463.2639160156</ele>
        <time>2013-09-28T12:27:49Z</time>
      </trkpt>
      <trkpt lat="42.84457" lon="1.45093">
        <ele>1457.9768066406</ele>
        <time>2013-09-28T12:27:56Z</time>
      </trkpt>
      <trkpt lat="42.84452" lon="1.45099">
        <ele>1457.0153808594</ele>
        <time>2013-09-28T12:28:02Z</time>
      </trkpt>
      <trkpt lat="42.84447" lon="1.45107">
        <ele>1452.689453125</ele>
        <time>2013-09-28T12:28:11Z</time>
      </trkpt>
      <trkpt lat="42.84443" lon="1.45114">
        <ele>1449.3247070312</ele>
        <time>2013-09-28T12:28:18Z</time>
      </trkpt>
      <trkpt lat="42.84439" lon="1.45118">
        <ele>1448.8439941406</ele>
        <time>2013-09-28T12:28:22Z</time>
      </trkpt>
      <trkpt lat="42.84433" lon="1.45124">
        <ele>1447.8828125</ele>
        <time>2013-09-28T12:28:29Z</time>
      </trkpt>
      <trkpt lat="42.84432" lon="1.45124">
        <ele>1447.8828125</ele>
        <time>2013-09-28T12:28:30Z</time>
      </trkpt>
      <trkpt lat="42.8443" lon="1.45125">
        <ele>1447.4020996094</ele>
        <time>2013-09-28T12:28:32Z</time>
      </trkpt>
      <trkpt lat="42.84426" lon="1.45127">
        <ele>1445.9602050781</ele>
        <time>2013-09-28T12:28:36Z</time>
      </trkpt>
      <trkpt lat="42.84422" lon="1.45131">
        <ele>1444.5180664062</ele>
        <time>2013-09-28T12:28:42Z</time>
      </trkpt>
      <trkpt lat="42.84415" lon="1.45132">
        <ele>1443.5568847656</ele>
        <time>2013-09-28T12:28:48Z</time>
      </trkpt>
      <trkpt lat="42.84409" lon="1.45126">
        <ele>1443.5568847656</ele>
        <time>2013-09-28T12:28:56Z</time>
      </trkpt>
      <trkpt lat="42.84402" lon="1.45123">
        <ele>1442.1149902344</ele>
        <time>2013-09-28T12:29:04Z</time>
      </trkpt>
      <trkpt lat="42.844" lon="1.45124">
        <ele>1445.9602050781</ele>
        <time>2013-09-28T12:29:10Z</time>
      </trkpt>
      <trkpt lat="42.84401" lon="1.45129">
        <ele>1446.9213867188</ele>
        <time>2013-09-28T12:29:16Z</time>
      </trkpt>
      <trkpt lat="42.84398" lon="1.45134">
        <ele>1445.9602050781</ele>
        <time>2013-09-28T12:29:20Z</time>
      </trkpt>
      <trkpt lat="42.84393" lon="1.45145">
        <ele>1443.5568847656</ele>
        <time>2013-09-28T12:29:29Z</time>
      </trkpt>
      <trkpt lat="42.84389" lon="1.45155">
        <ele>1441.6342773438</ele>
        <time>2013-09-28T12:29:36Z</time>
      </trkpt>
      <trkpt lat="42.84385" lon="1.45163">
        <ele>1440.1923828125</ele>
        <time>2013-09-28T12:29:43Z</time>
      </trkpt>
      <trkpt lat="42.8438" lon="1.45175">
        <ele>1439.7116699219</ele>
        <time>2013-09-28T12:29:52Z</time>
      </trkpt>
      <trkpt lat="42.84378" lon="1.45189">
        <ele>1438.2697753906</ele>
        <time>2013-09-28T12:30:01Z</time>
      </trkpt>
      <trkpt lat="42.84378" lon="1.4519">
        <ele>1438.2697753906</ele>
        <time>2013-09-28T12:30:02Z</time>
      </trkpt>
      <trkpt lat="42.84373" lon="1.452">
        <ele>1439.2309570312</ele>
        <time>2013-09-28T12:30:10Z</time>
      </trkpt>
      <trkpt lat="42.84373" lon="1.45201">
        <ele>1439.2309570312</ele>
        <time>2013-09-28T12:30:11Z</time>
      </trkpt>
      <trkpt lat="42.8437" lon="1.45212">
        <ele>1440.1923828125</ele>
        <time>2013-09-28T12:30:20Z</time>
      </trkpt>
      <trkpt lat="42.84369" lon="1.45222">
        <ele>1441.1535644531</ele>
        <time>2013-09-28T12:30:27Z</time>
      </trkpt>
      <trkpt lat="42.84369" lon="1.45228">
        <ele>1441.6342773438</ele>
        <time>2013-09-28T12:30:31Z</time>
      </trkpt>
      <trkpt lat="42.84368" lon="1.45234">
        <ele>1443.076171875</ele>
        <time>2013-09-28T12:30:37Z</time>
      </trkpt>
      <trkpt lat="42.84366" lon="1.45242">
        <ele>1444.5180664062</ele>
        <time>2013-09-28T12:30:44Z</time>
      </trkpt>
      <trkpt lat="42.84368" lon="1.45248">
        <ele>1445.4794921875</ele>
        <time>2013-09-28T12:30:50Z</time>
      </trkpt>
      <trkpt lat="42.84368" lon="1.45254">
        <ele>1444.9987792969</ele>
        <time>2013-09-28T12:30:56Z</time>
      </trkpt>
      <trkpt lat="42.84368" lon="1.45259">
        <ele>1444.0375976562</ele>
        <time>2013-09-28T12:31:02Z</time>
      </trkpt>
      <trkpt lat="42.84366" lon="1.45265">
        <ele>1442.595703125</ele>
        <time>2013-09-28T12:31:08Z</time>
      </trkpt>
      <trkpt lat="42.84364" lon="1.45263">
        <ele>1443.076171875</ele>
        <time>2013-09-28T12:31:14Z</time>
      </trkpt>
      <trkpt lat="42.84362" lon="1.45261">
        <ele>1443.076171875</ele>
        <time>2013-09-28T12:31:20Z</time>
      </trkpt>
      <trkpt lat="42.8436" lon="1.45263">
        <ele>1444.0375976562</ele>
        <time>2013-09-28T12:31:26Z</time>
      </trkpt>
      <trkpt lat="42.84356" lon="1.45265">
        <ele>1444.0375976562</ele>
        <time>2013-09-28T12:31:32Z</time>
      </trkpt>
      <trkpt lat="42.84351" lon="1.45265">
        <ele>1445.4794921875</ele>
        <time>2013-09-28T12:31:38Z</time>
      </trkpt>
      <trkpt lat="42.84347" lon="1.45266">
        <ele>1446.9213867188</ele>
        <time>2013-09-28T12:31:44Z</time>
      </trkpt>
      <trkpt lat="42.84343" lon="1.4527">
        <ele>1448.36328125</ele>
        <time>2013-09-28T12:31:49Z</time>
      </trkpt>
      <trkpt lat="42.8434" lon="1.45271">
        <ele>1449.3247070312</ele>
        <time>2013-09-28T12:31:54Z</time>
      </trkpt>
      <trkpt lat="42.84335" lon="1.45271">
        <ele>1449.3247070312</ele>
        <time>2013-09-28T12:31:59Z</time>
      </trkpt>
      <trkpt lat="42.84332" lon="1.4527">
        <ele>1450.7666015625</ele>
        <time>2013-09-28T12:32:04Z</time>
      </trkpt>
      <trkpt lat="42.84329" lon="1.45269">
        <ele>1451.7280273438</ele>
        <time>2013-09-28T12:32:09Z</time>
      </trkpt>
      <trkpt lat="42.84325" lon="1.45268">
        <ele>1452.689453125</ele>
        <time>2013-09-28T12:32:15Z</time>
      </trkpt>
      <trkpt lat="42.84322" lon="1.45272">
        <ele>1453.1701660156</ele>
        <time>2013-09-28T12:32:22Z</time>
      </trkpt>
      <trkpt lat="42.84321" lon="1.45271">
        <ele>1452.2087402344</ele>
        <time>2013-09-28T12:32:32Z</time>
      </trkpt>
      <trkpt lat="42.8432" lon="1.4527">
        <ele>1451.2473144531</ele>
        <time>2013-09-28T12:32:39Z</time>
      </trkpt>
      <trkpt lat="42.8432" lon="1.45265">
        <ele>1451.2473144531</ele>
        <time>2013-09-28T12:32:47Z</time>
      </trkpt>
      <trkpt lat="42.84322" lon="1.45263">
        <ele>1453.1701660156</ele>
        <time>2013-09-28T12:32:55Z</time>
      </trkpt>
      <trkpt lat="42.8432" lon="1.45267">
        <ele>1461.8220214844</ele>
        <time>2013-09-28T12:33:06Z</time>
      </trkpt>
      <trkpt lat="42.84319" lon="1.45265">
        <ele>1461.8220214844</ele>
        <time>2013-09-28T12:33:11Z</time>
      </trkpt>
      <trkpt lat="42.84319" lon="1.45263">
        <ele>1457.9768066406</ele>
        <time>2013-09-28T12:33:18Z</time>
      </trkpt>
      <trkpt lat="42.84301" lon="1.45245">
        <ele>1471.9157714844</ele>
        <time>2013-09-28T12:35:09Z</time>
      </trkpt>
      <trkpt lat="42.84302" lon="1.45245">
        <ele>1473.3579101562</ele>
        <time>2013-09-28T12:35:15Z</time>
      </trkpt>
      <trkpt lat="42.84302" lon="1.45244">
        <ele>1471.9157714844</ele>
        <time>2013-09-28T12:35:22Z</time>
      </trkpt>
      <trkpt lat="42.84303" lon="1.45246">
        <ele>1470.9545898438</ele>
        <time>2013-09-28T12:35:29Z</time>
      </trkpt>
      <trkpt lat="42.84301" lon="1.45243">
        <ele>1469.5126953125</ele>
        <time>2013-09-28T12:35:35Z</time>
      </trkpt>
      <trkpt lat="42.843" lon="1.45239">
        <ele>1468.5512695312</ele>
        <time>2013-09-28T12:35:41Z</time>
      </trkpt>
      <trkpt lat="42.84299" lon="1.45238">
        <ele>1468.5512695312</ele>
        <time>2013-09-28T12:35:43Z</time>
      </trkpt>
      <trkpt lat="42.84297" lon="1.45234">
        <ele>1467.5895996094</ele>
        <time>2013-09-28T12:35:48Z</time>
      </trkpt>
      <trkpt lat="42.84295" lon="1.45224">
        <ele>1466.1477050781</ele>
        <time>2013-09-28T12:35:56Z</time>
      </trkpt>
      <trkpt lat="42.84294" lon="1.45224">
        <ele>1464.7058105469</ele>
        <time>2013-09-28T12:36:02Z</time>
      </trkpt>
      <trkpt lat="42.84292" lon="1.4522">
        <ele>1463.7443847656</ele>
        <time>2013-09-28T12:36:07Z</time>
      </trkpt>
      <trkpt lat="42.8429" lon="1.45216">
        <ele>1460.8605957031</ele>
        <time>2013-09-28T12:36:11Z</time>
      </trkpt>
      <trkpt lat="42.84286" lon="1.4521">
        <ele>1457.49609375</ele>
        <time>2013-09-28T12:36:18Z</time>
      </trkpt>
      <trkpt lat="42.84282" lon="1.45205">
        <ele>1456.5346679688</ele>
        <time>2013-09-28T12:36:25Z</time>
      </trkpt>
      <trkpt lat="42.84282" lon="1.45204">
        <ele>1457.49609375</ele>
        <time>2013-09-28T12:36:26Z</time>
      </trkpt>
      <trkpt lat="42.84278" lon="1.45198">
        <ele>1456.0539550781</ele>
        <time>2013-09-28T12:36:31Z</time>
      </trkpt>
      <trkpt lat="42.84277" lon="1.45193">
        <ele>1454.6120605469</ele>
        <time>2013-09-28T12:36:36Z</time>
      </trkpt>
      <trkpt lat="42.84275" lon="1.45188">
        <ele>1452.689453125</ele>
        <time>2013-09-28T12:36:42Z</time>
      </trkpt>
      <trkpt lat="42.84275" lon="1.45183">
        <ele>1447.4020996094</ele>
        <time>2013-09-28T12:36:48Z</time>
      </trkpt>
      <trkpt lat="42.84272" lon="1.4518">
        <ele>1445.9602050781</ele>
        <time>2013-09-28T12:36:54Z</time>
      </trkpt>
      <trkpt lat="42.84268" lon="1.45176">
        <ele>1444.5180664062</ele>
        <time>2013-09-28T12:37:02Z</time>
      </trkpt>
      <trkpt lat="42.84265" lon="1.45174">
        <ele>1441.1535644531</ele>
        <time>2013-09-28T12:37:10Z</time>
      </trkpt>
      <trkpt lat="42.84258" lon="1.45173">
        <ele>1438.2697753906</ele>
        <time>2013-09-28T12:37:18Z</time>
      </trkpt>
      <trkpt lat="42.84255" lon="1.45171">
        <ele>1439.2309570312</ele>
        <time>2013-09-28T12:37:22Z</time>
      </trkpt>
      <trkpt lat="42.84251" lon="1.4517">
        <ele>1437.3083496094</ele>
        <time>2013-09-28T12:37:28Z</time>
      </trkpt>
      <trkpt lat="42.84246" lon="1.45172">
        <ele>1438.7504882812</ele>
        <time>2013-09-28T12:37:34Z</time>
      </trkpt>
      <trkpt lat="42.84243" lon="1.45173">
        <ele>1440.1923828125</ele>
        <time>2013-09-28T12:37:39Z</time>
      </trkpt>
      <trkpt lat="42.84238" lon="1.45174">
        <ele>1439.7116699219</ele>
        <time>2013-09-28T12:37:44Z</time>
      </trkpt>
      <trkpt lat="42.84234" lon="1.45174">
        <ele>1440.6728515625</ele>
        <time>2013-09-28T12:37:48Z</time>
      </trkpt>
      <trkpt lat="42.84232" lon="1.45174">
        <ele>1440.1923828125</ele>
        <time>2013-09-28T12:37:50Z</time>
      </trkpt>
      <trkpt lat="42.84227" lon="1.45177">
        <ele>1438.7504882812</ele>
        <time>2013-09-28T12:37:56Z</time>
      </trkpt>
      <trkpt lat="42.84222" lon="1.45178">
        <ele>1435.3854980469</ele>
        <time>2013-09-28T12:38:01Z</time>
      </trkpt>
      <trkpt lat="42.84216" lon="1.45181">
        <ele>1434.4243164062</ele>
        <time>2013-09-28T12:38:07Z</time>
      </trkpt>
      <trkpt lat="42.84207" lon="1.45182">
        <ele>1428.6564941406</ele>
        <time>2013-09-28T12:38:12Z</time>
      </trkpt>
      <trkpt lat="42.84203" lon="1.45185">
        <ele>1427.6950683594</ele>
        <time>2013-09-28T12:38:15Z</time>
      </trkpt>
      <trkpt lat="42.84197" lon="1.45185">
        <ele>1426.2531738281</ele>
        <time>2013-09-28T12:38:20Z</time>
      </trkpt>
      <trkpt lat="42.84191" lon="1.45184">
        <ele>1424.3305664062</ele>
        <time>2013-09-28T12:38:25Z</time>
      </trkpt>
      <trkpt lat="42.84187" lon="1.45182">
        <ele>1420.4853515625</ele>
        <time>2013-09-28T12:38:28Z</time>
      </trkpt>
      <trkpt lat="42.84182" lon="1.45179">
        <ele>1417.1206054688</ele>
        <time>2013-09-28T12:38:34Z</time>
      </trkpt>
      <trkpt lat="42.84179" lon="1.45178">
        <ele>1417.1206054688</ele>
        <time>2013-09-28T12:38:39Z</time>
      </trkpt>
      <trkpt lat="42.84175" lon="1.45182">
        <ele>1420.0046386719</ele>
        <time>2013-09-28T12:38:44Z</time>
      </trkpt>
      <trkpt lat="42.84169" lon="1.45185">
        <ele>1423.8498535156</ele>
        <time>2013-09-28T12:38:50Z</time>
      </trkpt>
      <trkpt lat="42.84162" lon="1.45188">
        <ele>1423.3693847656</ele>
        <time>2013-09-28T12:38:56Z</time>
      </trkpt>
      <trkpt lat="42.84158" lon="1.4519">
        <ele>1422.888671875</ele>
        <time>2013-09-28T12:39:00Z</time>
      </trkpt>
      <trkpt lat="42.84153" lon="1.45191">
        <ele>1421.9272460938</ele>
        <time>2013-09-28T12:39:04Z</time>
      </trkpt>
      <trkpt lat="42.84149" lon="1.45195">
        <ele>1419.5239257812</ele>
        <time>2013-09-28T12:39:12Z</time>
      </trkpt>
      <trkpt lat="42.84146" lon="1.45198">
        <ele>1420.0046386719</ele>
        <time>2013-09-28T12:39:17Z</time>
      </trkpt>
      <trkpt lat="42.84143" lon="1.45204">
        <ele>1421.9272460938</ele>
        <time>2013-09-28T12:39:24Z</time>
      </trkpt>
      <trkpt lat="42.8414" lon="1.45208">
        <ele>1422.888671875</ele>
        <time>2013-09-28T12:39:29Z</time>
      </trkpt>
      <trkpt lat="42.84138" lon="1.45213">
        <ele>1419.0432128906</ele>
        <time>2013-09-28T12:39:37Z</time>
      </trkpt>
      <trkpt lat="42.84136" lon="1.45216">
        <ele>1413.755859375</ele>
        <time>2013-09-28T12:39:42Z</time>
      </trkpt>
      <trkpt lat="42.84132" lon="1.45219">
        <ele>1407.0268554688</ele>
        <time>2013-09-28T12:39:48Z</time>
      </trkpt>
      <trkpt lat="42.8413" lon="1.45222">
        <ele>1405.1042480469</ele>
        <time>2013-09-28T12:39:52Z</time>
      </trkpt>
      <trkpt lat="42.84127" lon="1.45226">
        <ele>1404.1430664062</ele>
        <time>2013-09-28T12:39:57Z</time>
      </trkpt>
      <trkpt lat="42.84124" lon="1.45231">
        <ele>1403.1813964844</ele>
        <time>2013-09-28T12:40:02Z</time>
      </trkpt>
      <trkpt lat="42.84119" lon="1.45224">
        <ele>1399.3361816406</ele>
        <time>2013-09-28T12:40:10Z</time>
      </trkpt>
      <trkpt lat="42.84119" lon="1.45221">
        <ele>1402.2199707031</ele>
        <time>2013-09-28T12:40:14Z</time>
      </trkpt>
      <trkpt lat="42.84115" lon="1.45211">
        <ele>1395.9716796875</ele>
        <time>2013-09-28T12:40:23Z</time>
      </trkpt>
      <trkpt lat="42.84112" lon="1.45211">
        <ele>1395.4909667969</ele>
        <time>2013-09-28T12:40:26Z</time>
      </trkpt>
      <trkpt lat="42.84107" lon="1.45217">
        <ele>1394.5295410156</ele>
        <time>2013-09-28T12:40:34Z</time>
      </trkpt>
      <trkpt lat="42.84106" lon="1.45221">
        <ele>1392.6071777344</ele>
        <time>2013-09-28T12:40:39Z</time>
      </trkpt>
      <trkpt lat="42.84099" lon="1.45227">
        <ele>1399.3361816406</ele>
        <time>2013-09-28T12:40:49Z</time>
      </trkpt>
      <trkpt lat="42.84096" lon="1.45231">
        <ele>1402.2199707031</ele>
        <time>2013-09-28T12:40:54Z</time>
      </trkpt>
      <trkpt lat="42.84093" lon="1.45236">
        <ele>1402.2199707031</ele>
        <time>2013-09-28T12:41:00Z</time>
      </trkpt>
      <trkpt lat="42.8409" lon="1.4524">
        <ele>1397.4135742188</ele>
        <time>2013-09-28T12:41:06Z</time>
      </trkpt>
      <trkpt lat="42.84083" lon="1.45237">
        <ele>1389.2424316406</ele>
        <time>2013-09-28T12:41:19Z</time>
      </trkpt>
      <trkpt lat="42.84079" lon="1.45233">
        <ele>1388.7619628906</ele>
        <time>2013-09-28T12:41:25Z</time>
      </trkpt>
      <trkpt lat="42.84075" lon="1.45231">
        <ele>1392.1264648438</ele>
        <time>2013-09-28T12:41:32Z</time>
      </trkpt>
      <trkpt lat="42.8407" lon="1.45227">
        <ele>1391.1650390625</ele>
        <time>2013-09-28T12:41:39Z</time>
      </trkpt>
      <trkpt lat="42.84062" lon="1.45225">
        <ele>1391.1650390625</ele>
        <time>2013-09-28T12:41:49Z</time>
      </trkpt>
      <trkpt lat="42.84058" lon="1.45226">
        <ele>1387.3195800781</ele>
        <time>2013-09-28T12:41:55Z</time>
      </trkpt>
      <trkpt lat="42.84053" lon="1.4523">
        <ele>1380.5905761719</ele>
        <time>2013-09-28T12:42:02Z</time>
      </trkpt>
      <trkpt lat="42.84051" lon="1.45236">
        <ele>1377.7065429688</ele>
        <time>2013-09-28T12:42:08Z</time>
      </trkpt>
      <trkpt lat="42.84049" lon="1.4524">
        <ele>1371.4577636719</ele>
        <time>2013-09-28T12:42:14Z</time>
      </trkpt>
      <trkpt lat="42.84048" lon="1.4525">
        <ele>1376.2646484375</ele>
        <time>2013-09-28T12:42:19Z</time>
      </trkpt>
      <trkpt lat="42.84048" lon="1.45252">
        <ele>1380.1098632812</ele>
        <time>2013-09-28T12:42:21Z</time>
      </trkpt>
      <trkpt lat="42.84047" lon="1.45259">
        <ele>1375.7839355469</ele>
        <time>2013-09-28T12:42:28Z</time>
      </trkpt>
      <trkpt lat="42.84045" lon="1.45262">
        <ele>1371.9384765625</ele>
        <time>2013-09-28T12:42:32Z</time>
      </trkpt>
      <trkpt lat="42.84043" lon="1.45265">
        <ele>1370.9772949219</ele>
        <time>2013-09-28T12:42:37Z</time>
      </trkpt>
      <trkpt lat="42.84037" lon="1.4527">
        <ele>1371.4577636719</ele>
        <time>2013-09-28T12:42:43Z</time>
      </trkpt>
      <trkpt lat="42.84034" lon="1.45274">
        <ele>1372.9001464844</ele>
        <time>2013-09-28T12:42:47Z</time>
      </trkpt>
      <trkpt lat="42.84032" lon="1.45274">
        <ele>1372.4194335938</ele>
        <time>2013-09-28T12:42:49Z</time>
      </trkpt>
      <trkpt lat="42.8403" lon="1.45278">
        <ele>1374.3420410156</ele>
        <time>2013-09-28T12:42:53Z</time>
      </trkpt>
      <trkpt lat="42.84025" lon="1.45282">
        <ele>1376.7453613281</ele>
        <time>2013-09-28T12:42:59Z</time>
      </trkpt>
      <trkpt lat="42.84023" lon="1.45287">
        <ele>1377.2260742188</ele>
        <time>2013-09-28T12:43:04Z</time>
      </trkpt>
      <trkpt lat="42.84021" lon="1.45291">
        <ele>1375.3032226562</ele>
        <time>2013-09-28T12:43:10Z</time>
      </trkpt>
      <trkpt lat="42.84021" lon="1.45295">
        <ele>1375.3032226562</ele>
        <time>2013-09-28T12:43:15Z</time>
      </trkpt>
      <trkpt lat="42.84014" lon="1.45304">
        <ele>1370.4965820312</ele>
        <time>2013-09-28T12:43:26Z</time>
      </trkpt>
      <trkpt lat="42.84013" lon="1.45307">
        <ele>1371.4577636719</ele>
        <time>2013-09-28T12:43:29Z</time>
      </trkpt>
      <trkpt lat="42.8401" lon="1.45311">
        <ele>1365.2094726562</ele>
        <time>2013-09-28T12:43:35Z</time>
      </trkpt>
      <trkpt lat="42.84007" lon="1.45316">
        <ele>1363.7673339844</ele>
        <time>2013-09-28T12:43:40Z</time>
      </trkpt>
      <trkpt lat="42.84003" lon="1.45319">
        <ele>1358.4802246094</ele>
        <time>2013-09-28T12:43:45Z</time>
      </trkpt>
      <trkpt lat="42.84" lon="1.45324">
        <ele>1346.9443359375</ele>
        <time>2013-09-28T12:43:51Z</time>
      </trkpt>
      <trkpt lat="42.83994" lon="1.45328">
        <ele>1346.4638671875</ele>
        <time>2013-09-28T12:43:58Z</time>
      </trkpt>
      <trkpt lat="42.83992" lon="1.45331">
        <ele>1345.9831542969</ele>
        <time>2013-09-28T12:44:00Z</time>
      </trkpt>
      <trkpt lat="42.83991" lon="1.45336">
        <ele>1341.1765136719</ele>
        <time>2013-09-28T12:44:04Z</time>
      </trkpt>
      <trkpt lat="42.8399" lon="1.45344">
        <ele>1334.9279785156</ele>
        <time>2013-09-28T12:44:10Z</time>
      </trkpt>
      <trkpt lat="42.83987" lon="1.45357">
        <ele>1340.6958007812</ele>
        <time>2013-09-28T12:44:18Z</time>
      </trkpt>
      <trkpt lat="42.83987" lon="1.45359">
        <ele>1343.5798339844</ele>
        <time>2013-09-28T12:44:19Z</time>
      </trkpt>
      <trkpt lat="42.83987" lon="1.4537">
        <ele>1351.2702636719</ele>
        <time>2013-09-28T12:44:25Z</time>
      </trkpt>
      <trkpt lat="42.83984" lon="1.45379">
        <ele>1347.4250488281</ele>
        <time>2013-09-28T12:44:33Z</time>
      </trkpt>
      <trkpt lat="42.8398" lon="1.45386">
        <ele>1343.5798339844</ele>
        <time>2013-09-28T12:44:39Z</time>
      </trkpt>
      <trkpt lat="42.83979" lon="1.45387">
        <ele>1343.0991210938</ele>
        <time>2013-09-28T12:44:40Z</time>
      </trkpt>
      <trkpt lat="42.83977" lon="1.45395">
        <ele>1332.5246582031</ele>
        <time>2013-09-28T12:44:47Z</time>
      </trkpt>
      <trkpt lat="42.83977" lon="1.454">
        <ele>1330.6020507812</ele>
        <time>2013-09-28T12:44:51Z</time>
      </trkpt>
      <trkpt lat="42.83975" lon="1.45407">
        <ele>1329.640625</ele>
        <time>2013-09-28T12:44:56Z</time>
      </trkpt>
      <trkpt lat="42.83973" lon="1.4541">
        <ele>1330.6020507812</ele>
        <time>2013-09-28T12:44:59Z</time>
      </trkpt>
      <trkpt lat="42.83971" lon="1.45419">
        <ele>1334.447265625</ele>
        <time>2013-09-28T12:45:05Z</time>
      </trkpt>
      <trkpt lat="42.83971" lon="1.45421">
        <ele>1337.3310546875</ele>
        <time>2013-09-28T12:45:07Z</time>
      </trkpt>
      <trkpt lat="42.8397" lon="1.45432">
        <ele>1338.2924804688</ele>
        <time>2013-09-28T12:45:14Z</time>
      </trkpt>
      <trkpt lat="42.8397" lon="1.4544">
        <ele>1339.2536621094</ele>
        <time>2013-09-28T12:45:21Z</time>
      </trkpt>
      <trkpt lat="42.83969" lon="1.45447">
        <ele>1340.2153320312</ele>
        <time>2013-09-28T12:45:26Z</time>
      </trkpt>
      <trkpt lat="42.83969" lon="1.4545">
        <ele>1340.6958007812</ele>
        <time>2013-09-28T12:45:28Z</time>
      </trkpt>
      <trkpt lat="42.83969" lon="1.45454">
        <ele>1338.2924804688</ele>
        <time>2013-09-28T12:45:31Z</time>
      </trkpt>
      <trkpt lat="42.83972" lon="1.45464">
        <ele>1336.8503417969</ele>
        <time>2013-09-28T12:45:36Z</time>
      </trkpt>
      <trkpt lat="42.83972" lon="1.45475">
        <ele>1339.2536621094</ele>
        <time>2013-09-28T12:45:44Z</time>
      </trkpt>
      <trkpt lat="42.83972" lon="1.45483">
        <ele>1338.2924804688</ele>
        <time>2013-09-28T12:45:51Z</time>
      </trkpt>
      <trkpt lat="42.83969" lon="1.4549">
        <ele>1336.3698730469</ele>
        <time>2013-09-28T12:45:57Z</time>
      </trkpt>
      <trkpt lat="42.83968" lon="1.45497">
        <ele>1337.3310546875</ele>
        <time>2013-09-28T12:46:02Z</time>
      </trkpt>
      <trkpt lat="42.83966" lon="1.45502">
        <ele>1338.7731933594</ele>
        <time>2013-09-28T12:46:06Z</time>
      </trkpt>
      <trkpt lat="42.83963" lon="1.4551">
        <ele>1342.1379394531</ele>
        <time>2013-09-28T12:46:12Z</time>
      </trkpt>
      <trkpt lat="42.83962" lon="1.45514">
        <ele>1345.5024414062</ele>
        <time>2013-09-28T12:46:16Z</time>
      </trkpt>
      <trkpt lat="42.83958" lon="1.45512">
        <ele>1339.734375</ele>
        <time>2013-09-28T12:46:22Z</time>
      </trkpt>
      <trkpt lat="42.83957" lon="1.45505">
        <ele>1331.5632324219</ele>
        <time>2013-09-28T12:46:26Z</time>
      </trkpt>
      <trkpt lat="42.83957" lon="1.45504">
        <ele>1331.5632324219</ele>
        <time>2013-09-28T12:46:28Z</time>
      </trkpt>
      <trkpt lat="42.83954" lon="1.45498">
        <ele>1326.7568359375</ele>
        <time>2013-09-28T12:46:33Z</time>
      </trkpt>
      <trkpt lat="42.83953" lon="1.45496">
        <ele>1329.640625</ele>
        <time>2013-09-28T12:46:38Z</time>
      </trkpt>
      <trkpt lat="42.83951" lon="1.4549">
        <ele>1329.640625</ele>
        <time>2013-09-28T12:46:43Z</time>
      </trkpt>
      <trkpt lat="42.8395" lon="1.45486">
        <ele>1329.1599121094</ele>
        <time>2013-09-28T12:46:49Z</time>
      </trkpt>
      <trkpt lat="42.83947" lon="1.45479">
        <ele>1330.6020507812</ele>
        <time>2013-09-28T12:46:55Z</time>
      </trkpt>
      <trkpt lat="42.83944" lon="1.45473">
        <ele>1334.447265625</ele>
        <time>2013-09-28T12:46:59Z</time>
      </trkpt>
      <trkpt lat="42.83939" lon="1.45469">
        <ele>1333.4858398438</ele>
        <time>2013-09-28T12:47:08Z</time>
      </trkpt>
      <trkpt lat="42.83936" lon="1.45472">
        <ele>1328.6794433594</ele>
        <time>2013-09-28T12:47:13Z</time>
      </trkpt>
      <trkpt lat="42.83934" lon="1.45474">
        <ele>1323.8725585938</ele>
        <time>2013-09-28T12:47:19Z</time>
      </trkpt>
      <trkpt lat="42.83932" lon="1.45476">
        <ele>1312.3369140625</ele>
        <time>2013-09-28T12:47:26Z</time>
      </trkpt>
      <trkpt lat="42.8393" lon="1.4548">
        <ele>1307.5302734375</ele>
        <time>2013-09-28T12:47:31Z</time>
      </trkpt>
      <trkpt lat="42.83929" lon="1.45485">
        <ele>1303.6850585938</ele>
        <time>2013-09-28T12:47:37Z</time>
      </trkpt>
      <trkpt lat="42.83929" lon="1.45489">
        <ele>1300.3205566406</ele>
        <time>2013-09-28T12:47:43Z</time>
      </trkpt>
      <trkpt lat="42.83927" lon="1.45494">
        <ele>1298.3977050781</ele>
        <time>2013-09-28T12:47:50Z</time>
      </trkpt>
      <trkpt lat="42.83926" lon="1.45498">
        <ele>1295.9946289062</ele>
        <time>2013-09-28T12:47:55Z</time>
      </trkpt>
      <trkpt lat="42.83924" lon="1.45505">
        <ele>1295.033203125</ele>
        <time>2013-09-28T12:48:01Z</time>
      </trkpt>
      <trkpt lat="42.83923" lon="1.45511">
        <ele>1295.9946289062</ele>
        <time>2013-09-28T12:48:08Z</time>
      </trkpt>
      <trkpt lat="42.83921" lon="1.45516">
        <ele>1294.5524902344</ele>
        <time>2013-09-28T12:48:14Z</time>
      </trkpt>
      <trkpt lat="42.8392" lon="1.45521">
        <ele>1291.1877441406</ele>
        <time>2013-09-28T12:48:20Z</time>
      </trkpt>
      <trkpt lat="42.83916" lon="1.45527">
        <ele>1288.3039550781</ele>
        <time>2013-09-28T12:48:27Z</time>
      </trkpt>
      <trkpt lat="42.83916" lon="1.45532">
        <ele>1288.7846679688</ele>
        <time>2013-09-28T12:48:34Z</time>
      </trkpt>
      <trkpt lat="42.83915" lon="1.45539">
        <ele>1284.4587402344</ele>
        <time>2013-09-28T12:48:41Z</time>
      </trkpt>
      <trkpt lat="42.83913" lon="1.45547">
        <ele>1280.6135253906</ele>
        <time>2013-09-28T12:48:48Z</time>
      </trkpt>
      <trkpt lat="42.83913" lon="1.45554">
        <ele>1276.7683105469</ele>
        <time>2013-09-28T12:48:54Z</time>
      </trkpt>
      <trkpt lat="42.83912" lon="1.4556">
        <ele>1276.7683105469</ele>
        <time>2013-09-28T12:49:00Z</time>
      </trkpt>
      <trkpt lat="42.8391" lon="1.45565">
        <ele>1279.1713867188</ele>
        <time>2013-09-28T12:49:05Z</time>
      </trkpt>
      <trkpt lat="42.83908" lon="1.45572">
        <ele>1277.7294921875</ele>
        <time>2013-09-28T12:49:11Z</time>
      </trkpt>
      <trkpt lat="42.83907" lon="1.4558">
        <ele>1275.3259277344</ele>
        <time>2013-09-28T12:49:18Z</time>
      </trkpt>
      <trkpt lat="42.83907" lon="1.45588">
        <ele>1273.8840332031</ele>
        <time>2013-09-28T12:49:24Z</time>
      </trkpt>
      <trkpt lat="42.83908" lon="1.45598">
        <ele>1271.0002441406</ele>
        <time>2013-09-28T12:49:31Z</time>
      </trkpt>
      <trkpt lat="42.83907" lon="1.45603">
        <ele>1269.0776367188</ele>
        <time>2013-09-28T12:49:36Z</time>
      </trkpt>
      <trkpt lat="42.83907" lon="1.45615">
        <ele>1264.7517089844</ele>
        <time>2013-09-28T12:49:44Z</time>
      </trkpt>
      <trkpt lat="42.83907" lon="1.45621">
        <ele>1262.8291015625</ele>
        <time>2013-09-28T12:49:49Z</time>
      </trkpt>
      <trkpt lat="42.83907" lon="1.45628">
        <ele>1261.8679199219</ele>
        <time>2013-09-28T12:49:55Z</time>
      </trkpt>
      <trkpt lat="42.83908" lon="1.45638">
        <ele>1261.3872070312</ele>
        <time>2013-09-28T12:50:03Z</time>
      </trkpt>
      <trkpt lat="42.83907" lon="1.45643">
        <ele>1259.4643554688</ele>
        <time>2013-09-28T12:50:07Z</time>
      </trkpt>
      <trkpt lat="42.83907" lon="1.45645">
        <ele>1258.0224609375</ele>
        <time>2013-09-28T12:50:08Z</time>
      </trkpt>
      <trkpt lat="42.83905" lon="1.45651">
        <ele>1253.6965332031</ele>
        <time>2013-09-28T12:50:14Z</time>
      </trkpt>
      <trkpt lat="42.83902" lon="1.45657">
        <ele>1253.6965332031</ele>
        <time>2013-09-28T12:50:19Z</time>
      </trkpt>
      <trkpt lat="42.83901" lon="1.45661">
        <ele>1251.7739257812</ele>
        <time>2013-09-28T12:50:24Z</time>
      </trkpt>
      <trkpt lat="42.83899" lon="1.45668">
        <ele>1250.33203125</ele>
        <time>2013-09-28T12:50:32Z</time>
      </trkpt>
      <trkpt lat="42.83898" lon="1.45672">
        <ele>1248.4091796875</ele>
        <time>2013-09-28T12:50:37Z</time>
      </trkpt>
      <trkpt lat="42.83899" lon="1.45679">
        <ele>1241.6799316406</ele>
        <time>2013-09-28T12:50:42Z</time>
      </trkpt>
      <trkpt lat="42.83898" lon="1.4568">
        <ele>1241.19921875</ele>
        <time>2013-09-28T12:50:43Z</time>
      </trkpt>
      <trkpt lat="42.83898" lon="1.45691">
        <ele>1240.7185058594</ele>
        <time>2013-09-28T12:50:50Z</time>
      </trkpt>
      <trkpt lat="42.83897" lon="1.45694">
        <ele>1239.7573242188</ele>
        <time>2013-09-28T12:50:52Z</time>
      </trkpt>
      <trkpt lat="42.83895" lon="1.45697">
        <ele>1237.3540039062</ele>
        <time>2013-09-28T12:50:56Z</time>
      </trkpt>
      <trkpt lat="42.83895" lon="1.45703">
        <ele>1230.1442871094</ele>
        <time>2013-09-28T12:51:04Z</time>
      </trkpt>
      <trkpt lat="42.83894" lon="1.45712">
        <ele>1227.7407226562</ele>
        <time>2013-09-28T12:51:11Z</time>
      </trkpt>
      <trkpt lat="42.83895" lon="1.45719">
        <ele>1228.2216796875</ele>
        <time>2013-09-28T12:51:17Z</time>
      </trkpt>
      <trkpt lat="42.83896" lon="1.4573">
        <ele>1226.7795410156</ele>
        <time>2013-09-28T12:51:26Z</time>
      </trkpt>
      <trkpt lat="42.83897" lon="1.45735">
        <ele>1227.7407226562</ele>
        <time>2013-09-28T12:51:32Z</time>
      </trkpt>
      <trkpt lat="42.83897" lon="1.45743">
        <ele>1226.7795410156</ele>
        <time>2013-09-28T12:51:39Z</time>
      </trkpt>
      <trkpt lat="42.83897" lon="1.45748">
        <ele>1223.4150390625</ele>
        <time>2013-09-28T12:51:46Z</time>
      </trkpt>
      <trkpt lat="42.83896" lon="1.45756">
        <ele>1223.8955078125</ele>
        <time>2013-09-28T12:51:52Z</time>
      </trkpt>
      <trkpt lat="42.83897" lon="1.45761">
        <ele>1221.4921875</ele>
        <time>2013-09-28T12:51:58Z</time>
      </trkpt>
      <trkpt lat="42.83895" lon="1.45765">
        <ele>1218.6083984375</ele>
        <time>2013-09-28T12:52:04Z</time>
      </trkpt>
      <trkpt lat="42.83894" lon="1.45772">
        <ele>1218.1276855469</ele>
        <time>2013-09-28T12:52:10Z</time>
      </trkpt>
      <trkpt lat="42.83893" lon="1.45779">
        <ele>1215.724609375</ele>
        <time>2013-09-28T12:52:18Z</time>
      </trkpt>
      <trkpt lat="42.83892" lon="1.45786">
        <ele>1216.205078125</ele>
        <time>2013-09-28T12:52:24Z</time>
      </trkpt>
      <trkpt lat="42.83889" lon="1.45793">
        <ele>1211.8791503906</ele>
        <time>2013-09-28T12:52:30Z</time>
      </trkpt>
      <trkpt lat="42.83889" lon="1.45799">
        <ele>1210.9177246094</ele>
        <time>2013-09-28T12:52:34Z</time>
      </trkpt>
      <trkpt lat="42.83891" lon="1.45805">
        <ele>1209.9562988281</ele>
        <time>2013-09-28T12:52:38Z</time>
      </trkpt>
      <trkpt lat="42.83891" lon="1.45816">
        <ele>1209.4758300781</ele>
        <time>2013-09-28T12:52:43Z</time>
      </trkpt>
      <trkpt lat="42.83893" lon="1.45827">
        <ele>1210.4370117188</ele>
        <time>2013-09-28T12:52:51Z</time>
      </trkpt>
      <trkpt lat="42.83894" lon="1.45836">
        <ele>1208.5144042969</ele>
        <time>2013-09-28T12:52:58Z</time>
      </trkpt>
      <trkpt lat="42.83896" lon="1.4584">
        <ele>1209.4758300781</ele>
        <time>2013-09-28T12:53:01Z</time>
      </trkpt>
      <trkpt lat="42.83897" lon="1.45849">
        <ele>1210.9177246094</ele>
        <time>2013-09-28T12:53:07Z</time>
      </trkpt>
      <trkpt lat="42.83898" lon="1.45857">
        <ele>1211.8791503906</ele>
        <time>2013-09-28T12:53:11Z</time>
      </trkpt>
      <trkpt lat="42.839" lon="1.45866">
        <ele>1212.3598632812</ele>
        <time>2013-09-28T12:53:17Z</time>
      </trkpt>
      <trkpt lat="42.83901" lon="1.45873">
        <ele>1217.1665039062</ele>
        <time>2013-09-28T12:53:22Z</time>
      </trkpt>
      <trkpt lat="42.83902" lon="1.4588">
        <ele>1215.724609375</ele>
        <time>2013-09-28T12:53:29Z</time>
      </trkpt>
      <trkpt lat="42.83903" lon="1.45887">
        <ele>1216.205078125</ele>
        <time>2013-09-28T12:53:34Z</time>
      </trkpt>
      <trkpt lat="42.83904" lon="1.45893">
        <ele>1212.8405761719</ele>
        <time>2013-09-28T12:53:38Z</time>
      </trkpt>
      <trkpt lat="42.83905" lon="1.45897">
        <ele>1208.9951171875</ele>
        <time>2013-09-28T12:53:42Z</time>
      </trkpt>
      <trkpt lat="42.83906" lon="1.45899">
        <ele>1208.9951171875</ele>
        <time>2013-09-28T12:53:44Z</time>
      </trkpt>
      <trkpt lat="42.83905" lon="1.45908">
        <ele>1205.6306152344</ele>
        <time>2013-09-28T12:53:51Z</time>
      </trkpt>
      <trkpt lat="42.83907" lon="1.45912">
        <ele>1205.1499023438</ele>
        <time>2013-09-28T12:53:55Z</time>
      </trkpt>
      <trkpt lat="42.83907" lon="1.45921">
        <ele>1203.7080078125</ele>
        <time>2013-09-28T12:54:00Z</time>
      </trkpt>
      <trkpt lat="42.83906" lon="1.45932">
        <ele>1207.0725097656</ele>
        <time>2013-09-28T12:54:06Z</time>
      </trkpt>
      <trkpt lat="42.83907" lon="1.45938">
        <ele>1201.7854003906</ele>
        <time>2013-09-28T12:54:11Z</time>
      </trkpt>
      <trkpt lat="42.83906" lon="1.45944">
        <ele>1198.9013671875</ele>
        <time>2013-09-28T12:54:16Z</time>
      </trkpt>
      <trkpt lat="42.83901" lon="1.45948">
        <ele>1198.4206542969</ele>
        <time>2013-09-28T12:54:23Z</time>
      </trkpt>
      <trkpt lat="42.83899" lon="1.45949">
        <ele>1198.9013671875</ele>
        <time>2013-09-28T12:54:25Z</time>
      </trkpt>
      <trkpt lat="42.83892" lon="1.45953">
        <ele>1204.1887207031</ele>
        <time>2013-09-28T12:54:33Z</time>
      </trkpt>
      <trkpt lat="42.8389" lon="1.45954">
        <ele>1209.4758300781</ele>
        <time>2013-09-28T12:54:39Z</time>
      </trkpt>
      <trkpt lat="42.83889" lon="1.45955">
        <ele>1215.2438964844</ele>
        <time>2013-09-28T12:54:46Z</time>
      </trkpt>
      <trkpt lat="42.83886" lon="1.45958">
        <ele>1219.5698242188</ele>
        <time>2013-09-28T12:54:54Z</time>
      </trkpt>
      <trkpt lat="42.83882" lon="1.4596">
        <ele>1221.01171875</ele>
        <time>2013-09-28T12:55:01Z</time>
      </trkpt>
      <trkpt lat="42.83881" lon="1.45962">
        <ele>1220.0502929688</ele>
        <time>2013-09-28T12:55:05Z</time>
      </trkpt>
      <trkpt lat="42.83893" lon="1.45952">
        <ele>1211.3984375</ele>
        <time>2013-09-28T12:56:05Z</time>
      </trkpt>
      <trkpt lat="42.83893" lon="1.45952">
        <ele>1211.8791503906</ele>
        <time>2013-09-28T12:56:06Z</time>
      </trkpt>
      <trkpt lat="42.83895" lon="1.45954">
        <ele>1213.8017578125</ele>
        <time>2013-09-28T12:56:08Z</time>
      </trkpt>
      <trkpt lat="42.839" lon="1.45965">
        <ele>1208.0339355469</ele>
        <time>2013-09-28T12:56:17Z</time>
      </trkpt>
      <trkpt lat="42.83902" lon="1.45969">
        <ele>1208.0339355469</ele>
        <time>2013-09-28T12:56:21Z</time>
      </trkpt>
      <trkpt lat="42.83904" lon="1.45976">
        <ele>1208.9951171875</ele>
        <time>2013-09-28T12:56:26Z</time>
      </trkpt>
      <trkpt lat="42.83906" lon="1.45982">
        <ele>1213.3212890625</ele>
        <time>2013-09-28T12:56:29Z</time>
      </trkpt>
      <trkpt lat="42.83902" lon="1.45987">
        <ele>1212.3598632812</ele>
        <time>2013-09-28T12:56:33Z</time>
      </trkpt>
      <trkpt lat="42.839" lon="1.45998">
        <ele>1210.4370117188</ele>
        <time>2013-09-28T12:56:41Z</time>
      </trkpt>
      <trkpt lat="42.83896" lon="1.46007">
        <ele>1208.0339355469</ele>
        <time>2013-09-28T12:56:49Z</time>
      </trkpt>
      <trkpt lat="42.83892" lon="1.46014">
        <ele>1206.1110839844</ele>
        <time>2013-09-28T12:56:55Z</time>
      </trkpt>
      <trkpt lat="42.83887" lon="1.46021">
        <ele>1205.1499023438</ele>
        <time>2013-09-28T12:57:01Z</time>
      </trkpt>
      <trkpt lat="42.83886" lon="1.46028">
        <ele>1202.7465820312</ele>
        <time>2013-09-28T12:57:07Z</time>
      </trkpt>
      <trkpt lat="42.83886" lon="1.46035">
        <ele>1197.9401855469</ele>
        <time>2013-09-28T12:57:13Z</time>
      </trkpt>
      <trkpt lat="42.83887" lon="1.4604">
        <ele>1193.1333007812</ele>
        <time>2013-09-28T12:57:17Z</time>
      </trkpt>
      <trkpt lat="42.83886" lon="1.46047">
        <ele>1196.017578125</ele>
        <time>2013-09-28T12:57:22Z</time>
      </trkpt>
      <trkpt lat="42.83886" lon="1.46049">
        <ele>1197.9401855469</ele>
        <time>2013-09-28T12:57:23Z</time>
      </trkpt>
      <trkpt lat="42.83887" lon="1.46055">
        <ele>1195.0559082031</ele>
        <time>2013-09-28T12:57:31Z</time>
      </trkpt>
      <trkpt lat="42.83886" lon="1.4606">
        <ele>1192.6528320312</ele>
        <time>2013-09-28T12:57:36Z</time>
      </trkpt>
      <trkpt lat="42.83885" lon="1.46065">
        <ele>1197.9401855469</ele>
        <time>2013-09-28T12:57:47Z</time>
      </trkpt>
      <trkpt lat="42.83883" lon="1.46067">
        <ele>1201.3046875</ele>
        <time>2013-09-28T12:57:53Z</time>
      </trkpt>
      <trkpt lat="42.83881" lon="1.46067">
        <ele>1201.7854003906</ele>
        <time>2013-09-28T12:57:59Z</time>
      </trkpt>
      <trkpt lat="42.83878" lon="1.46065">
        <ele>1200.3435058594</ele>
        <time>2013-09-28T12:58:05Z</time>
      </trkpt>
      <trkpt lat="42.83876" lon="1.46068">
        <ele>1198.9013671875</ele>
        <time>2013-09-28T12:58:12Z</time>
      </trkpt>
      <trkpt lat="42.83875" lon="1.46067">
        <ele>1197.4594726562</ele>
        <time>2013-09-28T12:58:17Z</time>
      </trkpt>
      <trkpt lat="42.83874" lon="1.4607">
        <ele>1198.9013671875</ele>
        <time>2013-09-28T12:58:25Z</time>
      </trkpt>
      <trkpt lat="42.83873" lon="1.46072">
        <ele>1202.2658691406</ele>
        <time>2013-09-28T12:58:37Z</time>
      </trkpt>
      <trkpt lat="42.83875" lon="1.46075">
        <ele>1209.9562988281</ele>
        <time>2013-09-28T12:58:42Z</time>
      </trkpt>
      <trkpt lat="42.83875" lon="1.46081">
        <ele>1223.8955078125</ele>
        <time>2013-09-28T12:58:51Z</time>
      </trkpt>
      <trkpt lat="42.83872" lon="1.4608">
        <ele>1222.9343261719</ele>
        <time>2013-09-28T12:58:58Z</time>
      </trkpt>
      <trkpt lat="42.83869" lon="1.46081">
        <ele>1218.6083984375</ele>
        <time>2013-09-28T12:59:05Z</time>
      </trkpt>
      <trkpt lat="42.83867" lon="1.46082">
        <ele>1210.4370117188</ele>
        <time>2013-09-28T12:59:14Z</time>
      </trkpt>
      <trkpt lat="42.83867" lon="1.46085">
        <ele>1206.1110839844</ele>
        <time>2013-09-28T12:59:21Z</time>
      </trkpt>
      <trkpt lat="42.83867" lon="1.46091">
        <ele>1200.8239746094</ele>
        <time>2013-09-28T12:59:28Z</time>
      </trkpt>
      <trkpt lat="42.83865" lon="1.46098">
        <ele>1198.4206542969</ele>
        <time>2013-09-28T12:59:34Z</time>
      </trkpt>
      <trkpt lat="42.83863" lon="1.46102">
        <ele>1197.4594726562</ele>
        <time>2013-09-28T12:59:39Z</time>
      </trkpt>
      <trkpt lat="42.83857" lon="1.46104">
        <ele>1195.5366210938</ele>
        <time>2013-09-28T12:59:45Z</time>
      </trkpt>
      <trkpt lat="42.83855" lon="1.46106">
        <ele>1193.1333007812</ele>
        <time>2013-09-28T12:59:52Z</time>
      </trkpt>
      <trkpt lat="42.83852" lon="1.4611">
        <ele>1189.2880859375</ele>
        <time>2013-09-28T12:59:59Z</time>
      </trkpt>
      <trkpt lat="42.83854" lon="1.46119">
        <ele>1194.0947265625</ele>
        <time>2013-09-28T13:00:10Z</time>
      </trkpt>
      <trkpt lat="42.83856" lon="1.46123">
        <ele>1194.0947265625</ele>
        <time>2013-09-28T13:00:13Z</time>
      </trkpt>
      <trkpt lat="42.83855" lon="1.46128">
        <ele>1191.69140625</ele>
        <time>2013-09-28T13:00:19Z</time>
      </trkpt>
      <trkpt lat="42.83854" lon="1.46132">
        <ele>1187.3654785156</ele>
        <time>2013-09-28T13:00:26Z</time>
      </trkpt>
      <trkpt lat="42.83853" lon="1.46136">
        <ele>1191.2106933594</ele>
        <time>2013-09-28T13:00:32Z</time>
      </trkpt>
      <trkpt lat="42.83852" lon="1.46137">
        <ele>1194.5751953125</ele>
        <time>2013-09-28T13:00:38Z</time>
      </trkpt>
      <trkpt lat="42.83849" lon="1.46136">
        <ele>1196.9787597656</ele>
        <time>2013-09-28T13:00:44Z</time>
      </trkpt>
      <trkpt lat="42.83846" lon="1.46138">
        <ele>1198.4206542969</ele>
        <time>2013-09-28T13:00:49Z</time>
      </trkpt>
      <trkpt lat="42.83844" lon="1.46141">
        <ele>1199.3820800781</ele>
        <time>2013-09-28T13:00:55Z</time>
      </trkpt>
      <trkpt lat="42.83842" lon="1.46142">
        <ele>1193.1333007812</ele>
        <time>2013-09-28T13:01:02Z</time>
      </trkpt>
      <trkpt lat="42.83842" lon="1.46143">
        <ele>1193.1333007812</ele>
        <time>2013-09-28T13:01:09Z</time>
      </trkpt>
      <trkpt lat="42.83841" lon="1.46145">
        <ele>1194.5751953125</ele>
        <time>2013-09-28T13:01:15Z</time>
      </trkpt>
      <trkpt lat="42.83839" lon="1.4615">
        <ele>1194.5751953125</ele>
        <time>2013-09-28T13:01:22Z</time>
      </trkpt>
      <trkpt lat="42.8384" lon="1.46158">
        <ele>1194.5751953125</ele>
        <time>2013-09-28T13:01:29Z</time>
      </trkpt>
      <trkpt lat="42.83841" lon="1.46162">
        <ele>1193.6140136719</ele>
        <time>2013-09-28T13:01:32Z</time>
      </trkpt>
      <trkpt lat="42.83844" lon="1.46169">
        <ele>1194.0947265625</ele>
        <time>2013-09-28T13:01:37Z</time>
      </trkpt>
      <trkpt lat="42.83844" lon="1.46179">
        <ele>1195.0559082031</ele>
        <time>2013-09-28T13:01:44Z</time>
      </trkpt>
      <trkpt lat="42.83845" lon="1.46182">
        <ele>1196.017578125</ele>
        <time>2013-09-28T13:01:47Z</time>
      </trkpt>
      <trkpt lat="42.83844" lon="1.46188">
        <ele>1197.4594726562</ele>
        <time>2013-09-28T13:01:51Z</time>
      </trkpt>
      <trkpt lat="42.83843" lon="1.46195">
        <ele>1200.3435058594</ele>
        <time>2013-09-28T13:01:57Z</time>
      </trkpt>
      <trkpt lat="42.83843" lon="1.46198">
        <ele>1199.3820800781</ele>
        <time>2013-09-28T13:02:00Z</time>
      </trkpt>
      <trkpt lat="42.83845" lon="1.46206">
        <ele>1195.5366210938</ele>
        <time>2013-09-28T13:02:05Z</time>
      </trkpt>
      <trkpt lat="42.83845" lon="1.4621">
        <ele>1193.1333007812</ele>
        <time>2013-09-28T13:02:08Z</time>
      </trkpt>
      <trkpt lat="42.83844" lon="1.46216">
        <ele>1191.2106933594</ele>
        <time>2013-09-28T13:02:12Z</time>
      </trkpt>
      <trkpt lat="42.83842" lon="1.4622">
        <ele>1192.1721191406</ele>
        <time>2013-09-28T13:02:16Z</time>
      </trkpt>
      <trkpt lat="42.83842" lon="1.46226">
        <ele>1189.2880859375</ele>
        <time>2013-09-28T13:02:20Z</time>
      </trkpt>
      <trkpt lat="42.83839" lon="1.46233">
        <ele>1183.0395507812</ele>
        <time>2013-09-28T13:02:26Z</time>
      </trkpt>
      <trkpt lat="42.83838" lon="1.4624">
        <ele>1179.1940917969</ele>
        <time>2013-09-28T13:02:31Z</time>
      </trkpt>
      <trkpt lat="42.83838" lon="1.4625">
        <ele>1182.5590820312</ele>
        <time>2013-09-28T13:02:37Z</time>
      </trkpt>
      <trkpt lat="42.83839" lon="1.46257">
        <ele>1191.2106933594</ele>
        <time>2013-09-28T13:02:40Z</time>
      </trkpt>
      <trkpt lat="42.83839" lon="1.46269">
        <ele>1193.6140136719</ele>
        <time>2013-09-28T13:02:47Z</time>
      </trkpt>
      <trkpt lat="42.83841" lon="1.46277">
        <ele>1197.9401855469</ele>
        <time>2013-09-28T13:02:52Z</time>
      </trkpt>
      <trkpt lat="42.83841" lon="1.46282">
        <ele>1197.4594726562</ele>
        <time>2013-09-28T13:02:56Z</time>
      </trkpt>
      <trkpt lat="42.83843" lon="1.46287">
        <ele>1198.4206542969</ele>
        <time>2013-09-28T13:02:58Z</time>
      </trkpt>
      <trkpt lat="42.83844" lon="1.46299">
        <ele>1196.9787597656</ele>
        <time>2013-09-28T13:03:05Z</time>
      </trkpt>
      <trkpt lat="42.83844" lon="1.46301">
        <ele>1196.017578125</ele>
        <time>2013-09-28T13:03:06Z</time>
      </trkpt>
      <trkpt lat="42.83847" lon="1.46313">
        <ele>1196.4982910156</ele>
        <time>2013-09-28T13:03:13Z</time>
      </trkpt>
      <trkpt lat="42.83849" lon="1.46314">
        <ele>1195.0559082031</ele>
        <time>2013-09-28T13:03:15Z</time>
      </trkpt>
      <trkpt lat="42.83852" lon="1.46321">
        <ele>1200.8239746094</ele>
        <time>2013-09-28T13:03:20Z</time>
      </trkpt>
      <trkpt lat="42.83852" lon="1.46326">
        <ele>1202.7465820312</ele>
        <time>2013-09-28T13:03:26Z</time>
      </trkpt>
      <trkpt lat="42.83852" lon="1.46326">
        <ele>1195.5366210938</ele>
        <time>2013-09-28T13:03:32Z</time>
      </trkpt>
      <trkpt lat="42.83854" lon="1.46329">
        <ele>1192.6528320312</ele>
        <time>2013-09-28T13:03:36Z</time>
      </trkpt>
      <trkpt lat="42.83856" lon="1.46332">
        <ele>1190.2495117188</ele>
        <time>2013-09-28T13:03:41Z</time>
      </trkpt>
      <trkpt lat="42.83858" lon="1.46339">
        <ele>1189.7687988281</ele>
        <time>2013-09-28T13:03:46Z</time>
      </trkpt>
      <trkpt lat="42.83861" lon="1.46344">
        <ele>1188.8076171875</ele>
        <time>2013-09-28T13:03:52Z</time>
      </trkpt>
      <trkpt lat="42.83864" lon="1.46347">
        <ele>1189.2880859375</ele>
        <time>2013-09-28T13:03:57Z</time>
      </trkpt>
      <trkpt lat="42.83867" lon="1.46351">
        <ele>1188.3269042969</ele>
        <time>2013-09-28T13:04:01Z</time>
      </trkpt>
      <trkpt lat="42.8387" lon="1.46353">
        <ele>1188.3269042969</ele>
        <time>2013-09-28T13:04:03Z</time>
      </trkpt>
      <trkpt lat="42.83873" lon="1.4636">
        <ele>1187.8461914062</ele>
        <time>2013-09-28T13:04:09Z</time>
      </trkpt>
      <trkpt lat="42.83872" lon="1.46367">
        <ele>1186.404296875</ele>
        <time>2013-09-28T13:04:13Z</time>
      </trkpt>
      <trkpt lat="42.83875" lon="1.46381">
        <ele>1187.8461914062</ele>
        <time>2013-09-28T13:04:23Z</time>
      </trkpt>
      <trkpt lat="42.83876" lon="1.46383">
        <ele>1187.8461914062</ele>
        <time>2013-09-28T13:04:25Z</time>
      </trkpt>
      <trkpt lat="42.83875" lon="1.46391">
        <ele>1187.3654785156</ele>
        <time>2013-09-28T13:04:30Z</time>
      </trkpt>
      <trkpt lat="42.83875" lon="1.46393">
        <ele>1187.3654785156</ele>
        <time>2013-09-28T13:04:31Z</time>
      </trkpt>
      <trkpt lat="42.83875" lon="1.46401">
        <ele>1187.8461914062</ele>
        <time>2013-09-28T13:04:38Z</time>
      </trkpt>
      <trkpt lat="42.83882" lon="1.46406">
        <ele>1187.8461914062</ele>
        <time>2013-09-28T13:04:47Z</time>
      </trkpt>
      <trkpt lat="42.83885" lon="1.46408">
        <ele>1185.9235839844</ele>
        <time>2013-09-28T13:04:52Z</time>
      </trkpt>
      <trkpt lat="42.83886" lon="1.46413">
        <ele>1184.4816894531</ele>
        <time>2013-09-28T13:04:56Z</time>
      </trkpt>
      <trkpt lat="42.83887" lon="1.46417">
        <ele>1183.5202636719</ele>
        <time>2013-09-28T13:04:59Z</time>
      </trkpt>
      <trkpt lat="42.83887" lon="1.46423">
        <ele>1183.0395507812</ele>
        <time>2013-09-28T13:05:03Z</time>
      </trkpt>
      <trkpt lat="42.83885" lon="1.46435">
        <ele>1181.59765625</ele>
        <time>2013-09-28T13:05:11Z</time>
      </trkpt>
      <trkpt lat="42.83884" lon="1.46445">
        <ele>1181.1171875</ele>
        <time>2013-09-28T13:05:18Z</time>
      </trkpt>
      <trkpt lat="42.83885" lon="1.46457">
        <ele>1180.1557617188</ele>
        <time>2013-09-28T13:05:27Z</time>
      </trkpt>
      <trkpt lat="42.83886" lon="1.4647">
        <ele>1179.1940917969</ele>
        <time>2013-09-28T13:05:35Z</time>
      </trkpt>
      <trkpt lat="42.8389" lon="1.46482">
        <ele>1179.6748046875</ele>
        <time>2013-09-28T13:05:44Z</time>
      </trkpt>
      <trkpt lat="42.83894" lon="1.46494">
        <ele>1179.6748046875</ele>
        <time>2013-09-28T13:05:53Z</time>
      </trkpt>
      <trkpt lat="42.83894" lon="1.46495">
        <ele>1179.6748046875</ele>
        <time>2013-09-28T13:05:54Z</time>
      </trkpt>
      <trkpt lat="42.83897" lon="1.46505">
        <ele>1176.791015625</ele>
        <time>2013-09-28T13:06:02Z</time>
      </trkpt>
      <trkpt lat="42.83899" lon="1.46511">
        <ele>1176.791015625</ele>
        <time>2013-09-28T13:06:06Z</time>
      </trkpt>
      <trkpt lat="42.83901" lon="1.46525">
        <ele>1178.2329101562</ele>
        <time>2013-09-28T13:06:14Z</time>
      </trkpt>
      <trkpt lat="42.839" lon="1.46531">
        <ele>1178.7136230469</ele>
        <time>2013-09-28T13:06:17Z</time>
      </trkpt>
      <trkpt lat="42.839" lon="1.46544">
        <ele>1180.1557617188</ele>
        <time>2013-09-28T13:06:25Z</time>
      </trkpt>
      <trkpt lat="42.83904" lon="1.46559">
        <ele>1180.6364746094</ele>
        <time>2013-09-28T13:06:34Z</time>
      </trkpt>
      <trkpt lat="42.83906" lon="1.46565">
        <ele>1180.6364746094</ele>
        <time>2013-09-28T13:06:38Z</time>
      </trkpt>
      <trkpt lat="42.83908" lon="1.46576">
        <ele>1178.7136230469</ele>
        <time>2013-09-28T13:06:45Z</time>
      </trkpt>
      <trkpt lat="42.83911" lon="1.46579">
        <ele>1178.7136230469</ele>
        <time>2013-09-28T13:06:47Z</time>
      </trkpt>
      <trkpt lat="42.83912" lon="1.46581">
        <ele>1178.2329101562</ele>
        <time>2013-09-28T13:06:49Z</time>
      </trkpt>
      <trkpt lat="42.83915" lon="1.46586">
        <ele>1178.7136230469</ele>
        <time>2013-09-28T13:06:54Z</time>
      </trkpt>
      <trkpt lat="42.83921" lon="1.46593">
        <ele>1176.791015625</ele>
        <time>2013-09-28T13:07:00Z</time>
      </trkpt>
      <trkpt lat="42.83922" lon="1.46597">
        <ele>1175.3488769531</ele>
        <time>2013-09-28T13:07:03Z</time>
      </trkpt>
      <trkpt lat="42.83922" lon="1.46606">
        <ele>1173.4265136719</ele>
        <time>2013-09-28T13:07:10Z</time>
      </trkpt>
      <trkpt lat="42.83921" lon="1.46611">
        <ele>1171.984375</ele>
        <time>2013-09-28T13:07:13Z</time>
      </trkpt>
      <trkpt lat="42.83921" lon="1.4662">
        <ele>1171.984375</ele>
        <time>2013-09-28T13:07:18Z</time>
      </trkpt>
      <trkpt lat="42.83921" lon="1.46633">
        <ele>1173.9069824219</ele>
        <time>2013-09-28T13:07:25Z</time>
      </trkpt>
      <trkpt lat="42.8392" lon="1.46641">
        <ele>1173.4265136719</ele>
        <time>2013-09-28T13:07:30Z</time>
      </trkpt>
      <trkpt lat="42.83918" lon="1.4665">
        <ele>1173.9069824219</ele>
        <time>2013-09-28T13:07:35Z</time>
      </trkpt>
      <trkpt lat="42.83918" lon="1.46653">
        <ele>1171.0231933594</ele>
        <time>2013-09-28T13:07:37Z</time>
      </trkpt>
      <trkpt lat="42.83916" lon="1.46663">
        <ele>1168.6198730469</ele>
        <time>2013-09-28T13:07:45Z</time>
      </trkpt>
      <trkpt lat="42.83915" lon="1.46672">
        <ele>1167.6584472656</ele>
        <time>2013-09-28T13:07:52Z</time>
      </trkpt>
      <trkpt lat="42.83914" lon="1.46679">
        <ele>1169.5812988281</ele>
        <time>2013-09-28T13:07:56Z</time>
      </trkpt>
      <trkpt lat="42.83913" lon="1.46685">
        <ele>1171.0231933594</ele>
        <time>2013-09-28T13:08:00Z</time>
      </trkpt>
      <trkpt lat="42.83911" lon="1.46694">
        <ele>1171.0231933594</ele>
        <time>2013-09-28T13:08:07Z</time>
      </trkpt>
      <trkpt lat="42.83909" lon="1.46703">
        <ele>1169.5812988281</ele>
        <time>2013-09-28T13:08:14Z</time>
      </trkpt>
      <trkpt lat="42.83908" lon="1.46706">
        <ele>1168.1391601562</ele>
        <time>2013-09-28T13:08:16Z</time>
      </trkpt>
      <trkpt lat="42.83907" lon="1.46709">
        <ele>1167.1779785156</ele>
        <time>2013-09-28T13:08:19Z</time>
      </trkpt>
      <trkpt lat="42.83906" lon="1.46715">
        <ele>1167.1779785156</ele>
        <time>2013-09-28T13:08:23Z</time>
      </trkpt>
      <trkpt lat="42.83905" lon="1.46725">
        <ele>1168.6198730469</ele>
        <time>2013-09-28T13:08:30Z</time>
      </trkpt>
      <trkpt lat="42.83905" lon="1.46727">
        <ele>1169.1005859375</ele>
        <time>2013-09-28T13:08:31Z</time>
      </trkpt>
      <trkpt lat="42.839" lon="1.46736">
        <ele>1172.4650878906</ele>
        <time>2013-09-28T13:08:39Z</time>
      </trkpt>
      <trkpt lat="42.83897" lon="1.46744">
        <ele>1171.0231933594</ele>
        <time>2013-09-28T13:08:45Z</time>
      </trkpt>
      <trkpt lat="42.83896" lon="1.46746">
        <ele>1170.5424804688</ele>
        <time>2013-09-28T13:08:47Z</time>
      </trkpt>
      <trkpt lat="42.83896" lon="1.46753">
        <ele>1171.0231933594</ele>
        <time>2013-09-28T13:08:51Z</time>
      </trkpt>
      <trkpt lat="42.83895" lon="1.46763">
        <ele>1170.0617675781</ele>
        <time>2013-09-28T13:08:58Z</time>
      </trkpt>
      <trkpt lat="42.83892" lon="1.4677">
        <ele>1169.1005859375</ele>
        <time>2013-09-28T13:09:05Z</time>
      </trkpt>
      <trkpt lat="42.8389" lon="1.46779">
        <ele>1164.7746582031</ele>
        <time>2013-09-28T13:09:13Z</time>
      </trkpt>
      <trkpt lat="42.83887" lon="1.46791">
        <ele>1164.2939453125</ele>
        <time>2013-09-28T13:09:21Z</time>
      </trkpt>
      <trkpt lat="42.83887" lon="1.46799">
        <ele>1161.890625</ele>
        <time>2013-09-28T13:09:27Z</time>
      </trkpt>
      <trkpt lat="42.83885" lon="1.46811">
        <ele>1157.5646972656</ele>
        <time>2013-09-28T13:09:36Z</time>
      </trkpt>
      <trkpt lat="42.83884" lon="1.46822">
        <ele>1152.7580566406</ele>
        <time>2013-09-28T13:09:45Z</time>
      </trkpt>
      <trkpt lat="42.83884" lon="1.46837">
        <ele>1155.1613769531</ele>
        <time>2013-09-28T13:09:55Z</time>
      </trkpt>
      <trkpt lat="42.83883" lon="1.46846">
        <ele>1152.7580566406</ele>
        <time>2013-09-28T13:10:02Z</time>
      </trkpt>
      <trkpt lat="42.83882" lon="1.46859">
        <ele>1149.3935546875</ele>
        <time>2013-09-28T13:10:12Z</time>
      </trkpt>
      <trkpt lat="42.83881" lon="1.46874">
        <ele>1148.9128417969</ele>
        <time>2013-09-28T13:10:22Z</time>
      </trkpt>
      <trkpt lat="42.83879" lon="1.46876">
        <ele>1147.9514160156</ele>
        <time>2013-09-28T13:10:24Z</time>
      </trkpt>
      <trkpt lat="42.83878" lon="1.46888">
        <ele>1150.8354492188</ele>
        <time>2013-09-28T13:10:32Z</time>
      </trkpt>
      <trkpt lat="42.83879" lon="1.46904">
        <ele>1153.2387695312</ele>
        <time>2013-09-28T13:10:43Z</time>
      </trkpt>
      <trkpt lat="42.8388" lon="1.46913">
        <ele>1152.7580566406</ele>
        <time>2013-09-28T13:10:50Z</time>
      </trkpt>
      <trkpt lat="42.83881" lon="1.46923">
        <ele>1152.27734375</ele>
        <time>2013-09-28T13:10:58Z</time>
      </trkpt>
      <trkpt lat="42.83881" lon="1.46928">
        <ele>1149.8742675781</ele>
        <time>2013-09-28T13:11:04Z</time>
      </trkpt>
      <trkpt lat="42.83884" lon="1.46935">
        <ele>1148.9128417969</ele>
        <time>2013-09-28T13:11:10Z</time>
      </trkpt>
      <trkpt lat="42.83883" lon="1.46943">
        <ele>1146.0288085938</ele>
        <time>2013-09-28T13:11:16Z</time>
      </trkpt>
      <trkpt lat="42.83885" lon="1.46953">
        <ele>1144.1062011719</ele>
        <time>2013-09-28T13:11:24Z</time>
      </trkpt>
      <trkpt lat="42.83885" lon="1.46963">
        <ele>1142.18359375</ele>
        <time>2013-09-28T13:11:31Z</time>
      </trkpt>
      <trkpt lat="42.83887" lon="1.46971">
        <ele>1138.8190917969</ele>
        <time>2013-09-28T13:11:39Z</time>
      </trkpt>
      <trkpt lat="42.83887" lon="1.46978">
        <ele>1135.4543457031</ele>
        <time>2013-09-28T13:11:45Z</time>
      </trkpt>
      <trkpt lat="42.83887" lon="1.4698">
        <ele>1135.4543457031</ele>
        <time>2013-09-28T13:11:47Z</time>
      </trkpt>
      <trkpt lat="42.83891" lon="1.46991">
        <ele>1137.8576660156</ele>
        <time>2013-09-28T13:11:54Z</time>
      </trkpt>
      <trkpt lat="42.83892" lon="1.47004">
        <ele>1141.2221679688</ele>
        <time>2013-09-28T13:12:02Z</time>
      </trkpt>
      <trkpt lat="42.83892" lon="1.47014">
        <ele>1141.7028808594</ele>
        <time>2013-09-28T13:12:08Z</time>
      </trkpt>
      <trkpt lat="42.83892" lon="1.47016">
        <ele>1140.7414550781</ele>
        <time>2013-09-28T13:12:10Z</time>
      </trkpt>
      <trkpt lat="42.83891" lon="1.47023">
        <ele>1139.7802734375</ele>
        <time>2013-09-28T13:12:14Z</time>
      </trkpt>
      <trkpt lat="42.83891" lon="1.47024">
        <ele>1138.8190917969</ele>
        <time>2013-09-28T13:12:16Z</time>
      </trkpt>
      <trkpt lat="42.83888" lon="1.47031">
        <ele>1139.2995605469</ele>
        <time>2013-09-28T13:12:21Z</time>
      </trkpt>
      <trkpt lat="42.83886" lon="1.47037">
        <ele>1141.7028808594</ele>
        <time>2013-09-28T13:12:25Z</time>
      </trkpt>
      <trkpt lat="42.8388" lon="1.47048">
        <ele>1139.2995605469</ele>
        <time>2013-09-28T13:12:34Z</time>
      </trkpt>
      <trkpt lat="42.83876" lon="1.47055">
        <ele>1137.8576660156</ele>
        <time>2013-09-28T13:12:40Z</time>
      </trkpt>
      <trkpt lat="42.83876" lon="1.47056">
        <ele>1136.8962402344</ele>
        <time>2013-09-28T13:12:41Z</time>
      </trkpt>
      <trkpt lat="42.83873" lon="1.47061">
        <ele>1134.4931640625</ele>
        <time>2013-09-28T13:12:46Z</time>
      </trkpt>
      <trkpt lat="42.8387" lon="1.47071">
        <ele>1133.0510253906</ele>
        <time>2013-09-28T13:12:54Z</time>
      </trkpt>
      <trkpt lat="42.83868" lon="1.47074">
        <ele>1128.7250976562</ele>
        <time>2013-09-28T13:12:58Z</time>
      </trkpt>
      <trkpt lat="42.83868" lon="1.4708">
        <ele>1124.8798828125</ele>
        <time>2013-09-28T13:13:03Z</time>
      </trkpt>
      <trkpt lat="42.83867" lon="1.47085">
        <ele>1117.189453125</ele>
        <time>2013-09-28T13:13:09Z</time>
      </trkpt>
      <trkpt lat="42.83867" lon="1.47094">
        <ele>1114.7858886719</ele>
        <time>2013-09-28T13:13:15Z</time>
      </trkpt>
      <trkpt lat="42.83867" lon="1.47095">
        <ele>1114.3051757812</ele>
        <time>2013-09-28T13:13:16Z</time>
      </trkpt>
      <trkpt lat="42.83867" lon="1.47103">
        <ele>1115.7473144531</ele>
        <time>2013-09-28T13:13:20Z</time>
      </trkpt>
      <trkpt lat="42.8387" lon="1.47113">
        <ele>1118.1506347656</ele>
        <time>2013-09-28T13:13:26Z</time>
      </trkpt>
      <trkpt lat="42.8387" lon="1.47115">
        <ele>1118.6313476562</ele>
        <time>2013-09-28T13:13:27Z</time>
      </trkpt>
      <trkpt lat="42.83869" lon="1.47118">
        <ele>1116.7087402344</ele>
        <time>2013-09-28T13:13:29Z</time>
      </trkpt>
      <trkpt lat="42.8387" lon="1.4712">
        <ele>1116.7087402344</ele>
        <time>2013-09-28T13:13:31Z</time>
      </trkpt>
      <trkpt lat="42.83871" lon="1.47126">
        <ele>1114.7858886719</ele>
        <time>2013-09-28T13:13:35Z</time>
      </trkpt>
      <trkpt lat="42.83876" lon="1.47136">
        <ele>1113.8244628906</ele>
        <time>2013-09-28T13:13:42Z</time>
      </trkpt>
      <trkpt lat="42.83879" lon="1.47144">
        <ele>1115.7473144531</ele>
        <time>2013-09-28T13:13:47Z</time>
      </trkpt>
      <trkpt lat="42.8388" lon="1.47147">
        <ele>1116.7087402344</ele>
        <time>2013-09-28T13:13:49Z</time>
      </trkpt>
      <trkpt lat="42.83883" lon="1.47161">
        <ele>1117.189453125</ele>
        <time>2013-09-28T13:13:59Z</time>
      </trkpt>
      <trkpt lat="42.83882" lon="1.47162">
        <ele>1117.669921875</ele>
        <time>2013-09-28T13:14:00Z</time>
      </trkpt>
      <trkpt lat="42.83879" lon="1.47173">
        <ele>1118.1506347656</ele>
        <time>2013-09-28T13:14:09Z</time>
      </trkpt>
      <trkpt lat="42.83878" lon="1.47176">
        <ele>1118.1506347656</ele>
        <time>2013-09-28T13:14:11Z</time>
      </trkpt>
      <trkpt lat="42.83878" lon="1.47183">
        <ele>1118.6313476562</ele>
        <time>2013-09-28T13:14:15Z</time>
      </trkpt>
      <trkpt lat="42.83876" lon="1.47194">
        <ele>1118.1506347656</ele>
        <time>2013-09-28T13:14:22Z</time>
      </trkpt>
      <trkpt lat="42.83873" lon="1.47203">
        <ele>1120.5539550781</ele>
        <time>2013-09-28T13:14:28Z</time>
      </trkpt>
      <trkpt lat="42.83871" lon="1.47212">
        <ele>1118.6313476562</ele>
        <time>2013-09-28T13:14:35Z</time>
      </trkpt>
      <trkpt lat="42.83871" lon="1.47222">
        <ele>1118.1506347656</ele>
        <time>2013-09-28T13:14:41Z</time>
      </trkpt>
      <trkpt lat="42.8387" lon="1.47228">
        <ele>1115.7473144531</ele>
        <time>2013-09-28T13:14:46Z</time>
      </trkpt>
      <trkpt lat="42.83869" lon="1.47229">
        <ele>1115.7473144531</ele>
        <time>2013-09-28T13:14:47Z</time>
      </trkpt>
      <trkpt lat="42.83869" lon="1.47238">
        <ele>1121.0346679688</ele>
        <time>2013-09-28T13:14:52Z</time>
      </trkpt>
      <trkpt lat="42.83868" lon="1.47245">
        <ele>1120.5539550781</ele>
        <time>2013-09-28T13:14:56Z</time>
      </trkpt>
      <trkpt lat="42.83866" lon="1.47255">
        <ele>1116.7087402344</ele>
        <time>2013-09-28T13:15:04Z</time>
      </trkpt>
      <trkpt lat="42.83865" lon="1.47268">
        <ele>1121.0346679688</ele>
        <time>2013-09-28T13:15:10Z</time>
      </trkpt>
      <trkpt lat="42.8386" lon="1.47271">
        <ele>1122.9572753906</ele>
        <time>2013-09-28T13:15:14Z</time>
      </trkpt>
      <trkpt lat="42.83857" lon="1.47275">
        <ele>1121.5151367188</ele>
        <time>2013-09-28T13:15:18Z</time>
      </trkpt>
      <trkpt lat="42.83855" lon="1.47288">
        <ele>1122.9572753906</ele>
        <time>2013-09-28T13:15:26Z</time>
      </trkpt>
      <trkpt lat="42.83852" lon="1.47295">
        <ele>1120.0732421875</ele>
        <time>2013-09-28T13:15:32Z</time>
      </trkpt>
      <trkpt lat="42.83849" lon="1.47306">
        <ele>1118.6313476562</ele>
        <time>2013-09-28T13:15:40Z</time>
      </trkpt>
      <trkpt lat="42.83846" lon="1.47314">
        <ele>1117.189453125</ele>
        <time>2013-09-28T13:15:46Z</time>
      </trkpt>
      <trkpt lat="42.83848" lon="1.47321">
        <ele>1117.189453125</ele>
        <time>2013-09-28T13:15:50Z</time>
      </trkpt>
      <trkpt lat="42.8385" lon="1.47329">
        <ele>1119.5927734375</ele>
        <time>2013-09-28T13:15:55Z</time>
      </trkpt>
      <trkpt lat="42.83853" lon="1.47337">
        <ele>1119.5927734375</ele>
        <time>2013-09-28T13:16:01Z</time>
      </trkpt>
      <trkpt lat="42.83855" lon="1.47342">
        <ele>1115.2666015625</ele>
        <time>2013-09-28T13:16:07Z</time>
      </trkpt>
      <trkpt lat="42.83859" lon="1.47351">
        <ele>1114.3051757812</ele>
        <time>2013-09-28T13:16:13Z</time>
      </trkpt>
      <trkpt lat="42.83862" lon="1.47355">
        <ele>1115.7473144531</ele>
        <time>2013-09-28T13:16:16Z</time>
      </trkpt>
      <trkpt lat="42.83868" lon="1.47364">
        <ele>1118.1506347656</ele>
        <time>2013-09-28T13:16:21Z</time>
      </trkpt>
      <trkpt lat="42.83867" lon="1.47366">
        <ele>1117.189453125</ele>
        <time>2013-09-28T13:16:22Z</time>
      </trkpt>
      <trkpt lat="42.83865" lon="1.47369">
        <ele>1113.3439941406</ele>
        <time>2013-09-28T13:16:26Z</time>
      </trkpt>
      <trkpt lat="42.83867" lon="1.47375">
        <ele>1110.9406738281</ele>
        <time>2013-09-28T13:16:31Z</time>
      </trkpt>
      <trkpt lat="42.83868" lon="1.4738">
        <ele>1106.6147460938</ele>
        <time>2013-09-28T13:16:35Z</time>
      </trkpt>
      <trkpt lat="42.83872" lon="1.47381">
        <ele>1104.2116699219</ele>
        <time>2013-09-28T13:16:38Z</time>
      </trkpt>
      <trkpt lat="42.83873" lon="1.47388">
        <ele>1097.4821777344</ele>
        <time>2013-09-28T13:16:45Z</time>
      </trkpt>
      <trkpt lat="42.83875" lon="1.47396">
        <ele>1097.962890625</ele>
        <time>2013-09-28T13:16:50Z</time>
      </trkpt>
      <trkpt lat="42.83875" lon="1.47398">
        <ele>1098.443359375</ele>
        <time>2013-09-28T13:16:51Z</time>
      </trkpt>
      <trkpt lat="42.83878" lon="1.4741">
        <ele>1098.9240722656</ele>
        <time>2013-09-28T13:16:58Z</time>
      </trkpt>
      <trkpt lat="42.83879" lon="1.47419">
        <ele>1098.443359375</ele>
        <time>2013-09-28T13:17:04Z</time>
      </trkpt>
      <trkpt lat="42.83879" lon="1.47421">
        <ele>1098.443359375</ele>
        <time>2013-09-28T13:17:06Z</time>
      </trkpt>
      <trkpt lat="42.83879" lon="1.47427">
        <ele>1098.9240722656</ele>
        <time>2013-09-28T13:17:11Z</time>
      </trkpt>
      <trkpt lat="42.83879" lon="1.47435">
        <ele>1100.8469238281</ele>
        <time>2013-09-28T13:17:15Z</time>
      </trkpt>
      <trkpt lat="42.83879" lon="1.47439">
        <ele>1099.8854980469</ele>
        <time>2013-09-28T13:17:18Z</time>
      </trkpt>
      <trkpt lat="42.83879" lon="1.47446">
        <ele>1101.3276367188</ele>
        <time>2013-09-28T13:17:22Z</time>
      </trkpt>
      <trkpt lat="42.83878" lon="1.47453">
        <ele>1101.3276367188</ele>
        <time>2013-09-28T13:17:28Z</time>
      </trkpt>
      <trkpt lat="42.83877" lon="1.47454">
        <ele>1100.8469238281</ele>
        <time>2013-09-28T13:17:29Z</time>
      </trkpt>
      <trkpt lat="42.83877" lon="1.47464">
        <ele>1101.3276367188</ele>
        <time>2013-09-28T13:17:35Z</time>
      </trkpt>
      <trkpt lat="42.83879" lon="1.47468">
        <ele>1098.9240722656</ele>
        <time>2013-09-28T13:17:38Z</time>
      </trkpt>
      <trkpt lat="42.83879" lon="1.47476">
        <ele>1095.0788574219</ele>
        <time>2013-09-28T13:17:44Z</time>
      </trkpt>
      <trkpt lat="42.83878" lon="1.47482">
        <ele>1093.6369628906</ele>
        <time>2013-09-28T13:17:49Z</time>
      </trkpt>
      <trkpt lat="42.83878" lon="1.47483">
        <ele>1092.67578125</ele>
        <time>2013-09-28T13:17:50Z</time>
      </trkpt>
      <trkpt lat="42.83878" lon="1.4749">
        <ele>1089.7917480469</ele>
        <time>2013-09-28T13:17:55Z</time>
      </trkpt>
      <trkpt lat="42.8388" lon="1.47498">
        <ele>1088.8305664062</ele>
        <time>2013-09-28T13:18:01Z</time>
      </trkpt>
      <trkpt lat="42.83881" lon="1.475">
        <ele>1088.8305664062</ele>
        <time>2013-09-28T13:18:02Z</time>
      </trkpt>
      <trkpt lat="42.83881" lon="1.47509">
        <ele>1082.5817871094</ele>
        <time>2013-09-28T13:18:08Z</time>
      </trkpt>
      <trkpt lat="42.83883" lon="1.47519">
        <ele>1085.4658203125</ele>
        <time>2013-09-28T13:18:13Z</time>
      </trkpt>
      <trkpt lat="42.83884" lon="1.47524">
        <ele>1084.0239257812</ele>
        <time>2013-09-28T13:18:16Z</time>
      </trkpt>
      <trkpt lat="42.83886" lon="1.47528">
        <ele>1082.5817871094</ele>
        <time>2013-09-28T13:18:19Z</time>
      </trkpt>
      <trkpt lat="42.83886" lon="1.47531">
        <ele>1081.6203613281</ele>
        <time>2013-09-28T13:18:21Z</time>
      </trkpt>
      <trkpt lat="42.83887" lon="1.4754">
        <ele>1084.9853515625</ele>
        <time>2013-09-28T13:18:26Z</time>
      </trkpt>
      <trkpt lat="42.83889" lon="1.47549">
        <ele>1086.9077148438</ele>
        <time>2013-09-28T13:18:31Z</time>
      </trkpt>
      <trkpt lat="42.8389" lon="1.47555">
        <ele>1085.4658203125</ele>
        <time>2013-09-28T13:18:35Z</time>
      </trkpt>
      <trkpt lat="42.83891" lon="1.4756">
        <ele>1084.9853515625</ele>
        <time>2013-09-28T13:18:39Z</time>
      </trkpt>
      <trkpt lat="42.83892" lon="1.47571">
        <ele>1085.4658203125</ele>
        <time>2013-09-28T13:18:46Z</time>
      </trkpt>
      <trkpt lat="42.83892" lon="1.47577">
        <ele>1082.5817871094</ele>
        <time>2013-09-28T13:18:51Z</time>
      </trkpt>
      <trkpt lat="42.83892" lon="1.47578">
        <ele>1081.1398925781</ele>
        <time>2013-09-28T13:18:53Z</time>
      </trkpt>
      <trkpt lat="42.8389" lon="1.47586">
        <ele>1075.3718261719</ele>
        <time>2013-09-28T13:19:00Z</time>
      </trkpt>
      <trkpt lat="42.83891" lon="1.47592">
        <ele>1073.9299316406</ele>
        <time>2013-09-28T13:19:04Z</time>
      </trkpt>
      <trkpt lat="42.83895" lon="1.47602">
        <ele>1075.3718261719</ele>
        <time>2013-09-28T13:19:12Z</time>
      </trkpt>
      <trkpt lat="42.83899" lon="1.47607">
        <ele>1077.7751464844</ele>
        <time>2013-09-28T13:19:15Z</time>
      </trkpt>
      <trkpt lat="42.83901" lon="1.47614">
        <ele>1081.1398925781</ele>
        <time>2013-09-28T13:19:19Z</time>
      </trkpt>
      <trkpt lat="42.83902" lon="1.47622">
        <ele>1080.1784667969</ele>
        <time>2013-09-28T13:19:24Z</time>
      </trkpt>
      <trkpt lat="42.83902" lon="1.47633">
        <ele>1085.4658203125</ele>
        <time>2013-09-28T13:19:31Z</time>
      </trkpt>
      <trkpt lat="42.83902" lon="1.47641">
        <ele>1087.3884277344</ele>
        <time>2013-09-28T13:19:37Z</time>
      </trkpt>
      <trkpt lat="42.83904" lon="1.47652">
        <ele>1089.3110351562</ele>
        <time>2013-09-28T13:19:43Z</time>
      </trkpt>
      <trkpt lat="42.83905" lon="1.47666">
        <ele>1088.3498535156</ele>
        <time>2013-09-28T13:19:51Z</time>
      </trkpt>
      <trkpt lat="42.83905" lon="1.47673">
        <ele>1086.9077148438</ele>
        <time>2013-09-28T13:19:56Z</time>
      </trkpt>
      <trkpt lat="42.83905" lon="1.47677">
        <ele>1086.4272460938</ele>
        <time>2013-09-28T13:19:59Z</time>
      </trkpt>
      <trkpt lat="42.83905" lon="1.47691">
        <ele>1085.9465332031</ele>
        <time>2013-09-28T13:20:08Z</time>
      </trkpt>
      <trkpt lat="42.83904" lon="1.47703">
        <ele>1085.4658203125</ele>
        <time>2013-09-28T13:20:16Z</time>
      </trkpt>
      <trkpt lat="42.83904" lon="1.47711">
        <ele>1084.5046386719</ele>
        <time>2013-09-28T13:20:22Z</time>
      </trkpt>
      <trkpt lat="42.83902" lon="1.47719">
        <ele>1084.0239257812</ele>
        <time>2013-09-28T13:20:28Z</time>
      </trkpt>
      <trkpt lat="42.83899" lon="1.47728">
        <ele>1083.54296875</ele>
        <time>2013-09-28T13:20:36Z</time>
      </trkpt>
      <trkpt lat="42.83898" lon="1.47731">
        <ele>1083.0622558594</ele>
        <time>2013-09-28T13:20:38Z</time>
      </trkpt>
      <trkpt lat="42.83895" lon="1.47744">
        <ele>1083.0622558594</ele>
        <time>2013-09-28T13:20:47Z</time>
      </trkpt>
      <trkpt lat="42.83895" lon="1.47754">
        <ele>1084.0239257812</ele>
        <time>2013-09-28T13:20:53Z</time>
      </trkpt>
      <trkpt lat="42.83895" lon="1.47766">
        <ele>1082.5817871094</ele>
        <time>2013-09-28T13:21:00Z</time>
      </trkpt>
      <trkpt lat="42.83896" lon="1.47783">
        <ele>1083.0622558594</ele>
        <time>2013-09-28T13:21:10Z</time>
      </trkpt>
      <trkpt lat="42.83897" lon="1.47789">
        <ele>1079.6977539062</ele>
        <time>2013-09-28T13:21:15Z</time>
      </trkpt>
      <trkpt lat="42.83898" lon="1.47802">
        <ele>1076.8139648438</ele>
        <time>2013-09-28T13:21:24Z</time>
      </trkpt>
      <trkpt lat="42.839" lon="1.47814">
        <ele>1075.8525390625</ele>
        <time>2013-09-28T13:21:32Z</time>
      </trkpt>
      <trkpt lat="42.83901" lon="1.47824">
        <ele>1072.96875</ele>
        <time>2013-09-28T13:21:39Z</time>
      </trkpt>
      <trkpt lat="42.83908" lon="1.47835">
        <ele>1072.4880371094</ele>
        <time>2013-09-28T13:21:47Z</time>
      </trkpt>
      <trkpt lat="42.83914" lon="1.47844">
        <ele>1072.4880371094</ele>
        <time>2013-09-28T13:21:54Z</time>
      </trkpt>
      <trkpt lat="42.8392" lon="1.47856">
        <ele>1072.96875</ele>
        <time>2013-09-28T13:22:02Z</time>
      </trkpt>
      <trkpt lat="42.83921" lon="1.47858">
        <ele>1072.4880371094</ele>
        <time>2013-09-28T13:22:04Z</time>
      </trkpt>
      <trkpt lat="42.83928" lon="1.47869">
        <ele>1072.4880371094</ele>
        <time>2013-09-28T13:22:12Z</time>
      </trkpt>
      <trkpt lat="42.83929" lon="1.47871">
        <ele>1073.9299316406</ele>
        <time>2013-09-28T13:22:13Z</time>
      </trkpt>
      <trkpt lat="42.83935" lon="1.47882">
        <ele>1077.2946777344</ele>
        <time>2013-09-28T13:22:20Z</time>
      </trkpt>
      <trkpt lat="42.83936" lon="1.47888">
        <ele>1074.8913574219</ele>
        <time>2013-09-28T13:22:24Z</time>
      </trkpt>
      <trkpt lat="42.83937" lon="1.47892">
        <ele>1074.8913574219</ele>
        <time>2013-09-28T13:22:27Z</time>
      </trkpt>
      <trkpt lat="42.83938" lon="1.47899">
        <ele>1069.1235351562</ele>
        <time>2013-09-28T13:22:34Z</time>
      </trkpt>
      <trkpt lat="42.83938" lon="1.47909">
        <ele>1063.8359375</ele>
        <time>2013-09-28T13:22:42Z</time>
      </trkpt>
      <trkpt lat="42.8394" lon="1.47923">
        <ele>1062.8747558594</ele>
        <time>2013-09-28T13:22:51Z</time>
      </trkpt>
      <trkpt lat="42.83941" lon="1.47934">
        <ele>1062.3940429688</ele>
        <time>2013-09-28T13:22:58Z</time>
      </trkpt>
      <trkpt lat="42.83942" lon="1.47948">
        <ele>1059.0295410156</ele>
        <time>2013-09-28T13:23:08Z</time>
      </trkpt>
      <trkpt lat="42.83947" lon="1.47962">
        <ele>1061.4328613281</ele>
        <time>2013-09-28T13:23:16Z</time>
      </trkpt>
      <trkpt lat="42.83954" lon="1.47972">
        <ele>1063.8359375</ele>
        <time>2013-09-28T13:23:22Z</time>
      </trkpt>
      <trkpt lat="42.83958" lon="1.47979">
        <ele>1064.3166503906</ele>
        <time>2013-09-28T13:23:27Z</time>
      </trkpt>
      <trkpt lat="42.83961" lon="1.47984">
        <ele>1063.35546875</ele>
        <time>2013-09-28T13:23:31Z</time>
      </trkpt>
      <trkpt lat="42.83961" lon="1.47987">
        <ele>1062.8747558594</ele>
        <time>2013-09-28T13:23:33Z</time>
      </trkpt>
      <trkpt lat="42.83961" lon="1.47996">
        <ele>1060.9521484375</ele>
        <time>2013-09-28T13:23:40Z</time>
      </trkpt>
      <trkpt lat="42.83961" lon="1.48002">
        <ele>1062.8747558594</ele>
        <time>2013-09-28T13:23:44Z</time>
      </trkpt>
      <trkpt lat="42.8396" lon="1.48015">
        <ele>1068.6428222656</ele>
        <time>2013-09-28T13:23:52Z</time>
      </trkpt>
      <trkpt lat="42.83957" lon="1.4802">
        <ele>1070.5654296875</ele>
        <time>2013-09-28T13:23:56Z</time>
      </trkpt>
      <trkpt lat="42.83956" lon="1.4803">
        <ele>1072.4880371094</ele>
        <time>2013-09-28T13:24:02Z</time>
      </trkpt>
      <trkpt lat="42.83956" lon="1.48044">
        <ele>1070.0847167969</ele>
        <time>2013-09-28T13:24:10Z</time>
      </trkpt>
      <trkpt lat="42.83956" lon="1.48045">
        <ele>1070.0847167969</ele>
        <time>2013-09-28T13:24:11Z</time>
      </trkpt>
      <trkpt lat="42.83955" lon="1.48051">
        <ele>1068.162109375</ele>
        <time>2013-09-28T13:24:15Z</time>
      </trkpt>
      <trkpt lat="42.83957" lon="1.48058">
        <ele>1068.162109375</ele>
        <time>2013-09-28T13:24:19Z</time>
      </trkpt>
      <trkpt lat="42.83961" lon="1.48068">
        <ele>1066.7199707031</ele>
        <time>2013-09-28T13:24:25Z</time>
      </trkpt>
      <trkpt lat="42.83963" lon="1.48076">
        <ele>1067.6811523438</ele>
        <time>2013-09-28T13:24:29Z</time>
      </trkpt>
      <trkpt lat="42.83963" lon="1.48081">
        <ele>1064.3166503906</ele>
        <time>2013-09-28T13:24:34Z</time>
      </trkpt>
      <trkpt lat="42.83965" lon="1.48091">
        <ele>1064.3166503906</ele>
        <time>2013-09-28T13:24:40Z</time>
      </trkpt>
      <trkpt lat="42.83966" lon="1.48092">
        <ele>1064.3166503906</ele>
        <time>2013-09-28T13:24:41Z</time>
      </trkpt>
      <trkpt lat="42.83966" lon="1.481">
        <ele>1065.7587890625</ele>
        <time>2013-09-28T13:24:46Z</time>
      </trkpt>
      <trkpt lat="42.83966" lon="1.48105">
        <ele>1062.3940429688</ele>
        <time>2013-09-28T13:24:51Z</time>
      </trkpt>
      <trkpt lat="42.83967" lon="1.48111">
        <ele>1057.5876464844</ele>
        <time>2013-09-28T13:24:56Z</time>
      </trkpt>
      <trkpt lat="42.83968" lon="1.4812">
        <ele>1055.6650390625</ele>
        <time>2013-09-28T13:25:02Z</time>
      </trkpt>
      <trkpt lat="42.83972" lon="1.48126">
        <ele>1054.7036132812</ele>
        <time>2013-09-28T13:25:07Z</time>
      </trkpt>
      <trkpt lat="42.83973" lon="1.48131">
        <ele>1052.3002929688</ele>
        <time>2013-09-28T13:25:11Z</time>
      </trkpt>
      <trkpt lat="42.83973" lon="1.48135">
        <ele>1051.8195800781</ele>
        <time>2013-09-28T13:25:14Z</time>
      </trkpt>
      <trkpt lat="42.83975" lon="1.48148">
        <ele>1051.3388671875</ele>
        <time>2013-09-28T13:25:23Z</time>
      </trkpt>
      <trkpt lat="42.83977" lon="1.48165">
        <ele>1057.5876464844</ele>
        <time>2013-09-28T13:25:32Z</time>
      </trkpt>
      <trkpt lat="42.83979" lon="1.4818">
        <ele>1065.7587890625</ele>
        <time>2013-09-28T13:25:39Z</time>
      </trkpt>
      <trkpt lat="42.83977" lon="1.48184">
        <ele>1061.9135742188</ele>
        <time>2013-09-28T13:25:45Z</time>
      </trkpt>
      <trkpt lat="42.83975" lon="1.48191">
        <ele>1062.3940429688</ele>
        <time>2013-09-28T13:25:52Z</time>
      </trkpt>
      <trkpt lat="42.83975" lon="1.48199">
        <ele>1061.9135742188</ele>
        <time>2013-09-28T13:25:57Z</time>
      </trkpt>
      <trkpt lat="42.83977" lon="1.4821">
        <ele>1062.8747558594</ele>
        <time>2013-09-28T13:26:03Z</time>
      </trkpt>
      <trkpt lat="42.83978" lon="1.48219">
        <ele>1061.9135742188</ele>
        <time>2013-09-28T13:26:09Z</time>
      </trkpt>
      <trkpt lat="42.8398" lon="1.48232">
        <ele>1058.548828125</ele>
        <time>2013-09-28T13:26:17Z</time>
      </trkpt>
      <trkpt lat="42.83981" lon="1.48242">
        <ele>1057.1069335938</ele>
        <time>2013-09-28T13:26:24Z</time>
      </trkpt>
      <trkpt lat="42.83981" lon="1.48246">
        <ele>1059.9907226562</ele>
        <time>2013-09-28T13:26:26Z</time>
      </trkpt>
      <trkpt lat="42.83981" lon="1.4825">
        <ele>1061.9135742188</ele>
        <time>2013-09-28T13:26:28Z</time>
      </trkpt>
      <trkpt lat="42.83981" lon="1.48255">
        <ele>1061.9135742188</ele>
        <time>2013-09-28T13:26:31Z</time>
      </trkpt>
      <trkpt lat="42.83981" lon="1.48259">
        <ele>1058.068359375</ele>
        <time>2013-09-28T13:26:35Z</time>
      </trkpt>
      <trkpt lat="42.83981" lon="1.48269">
        <ele>1056.1455078125</ele>
        <time>2013-09-28T13:26:41Z</time>
      </trkpt>
      <trkpt lat="42.83983" lon="1.48274">
        <ele>1056.1455078125</ele>
        <time>2013-09-28T13:26:44Z</time>
      </trkpt>
      <trkpt lat="42.83984" lon="1.48282">
        <ele>1057.1069335938</ele>
        <time>2013-09-28T13:26:49Z</time>
      </trkpt>
      <trkpt lat="42.83988" lon="1.48293">
        <ele>1059.9907226562</ele>
        <time>2013-09-28T13:26:55Z</time>
      </trkpt>
      <trkpt lat="42.83991" lon="1.48301">
        <ele>1055.6650390625</ele>
        <time>2013-09-28T13:27:02Z</time>
      </trkpt>
      <trkpt lat="42.83991" lon="1.48305">
        <ele>1055.6650390625</ele>
        <time>2013-09-28T13:27:04Z</time>
      </trkpt>
      <trkpt lat="42.83992" lon="1.48311">
        <ele>1056.1455078125</ele>
        <time>2013-09-28T13:27:08Z</time>
      </trkpt>
      <trkpt lat="42.83994" lon="1.48316">
        <ele>1056.1455078125</ele>
        <time>2013-09-28T13:27:11Z</time>
      </trkpt>
      <trkpt lat="42.83995" lon="1.48323">
        <ele>1052.7810058594</ele>
        <time>2013-09-28T13:27:17Z</time>
      </trkpt>
      <trkpt lat="42.83995" lon="1.48329">
        <ele>1050.3776855469</ele>
        <time>2013-09-28T13:27:22Z</time>
      </trkpt>
      <trkpt lat="42.83999" lon="1.4834">
        <ele>1049.8969726562</ele>
        <time>2013-09-28T13:27:30Z</time>
      </trkpt>
      <trkpt lat="42.84001" lon="1.48345">
        <ele>1050.3776855469</ele>
        <time>2013-09-28T13:27:35Z</time>
      </trkpt>
      <trkpt lat="42.84" lon="1.48354">
        <ele>1051.8195800781</ele>
        <time>2013-09-28T13:27:40Z</time>
      </trkpt>
      <trkpt lat="42.84" lon="1.48362">
        <ele>1053.26171875</ele>
        <time>2013-09-28T13:27:46Z</time>
      </trkpt>
      <trkpt lat="42.84001" lon="1.48366">
        <ele>1052.3002929688</ele>
        <time>2013-09-28T13:27:49Z</time>
      </trkpt>
      <trkpt lat="42.84004" lon="1.48378">
        <ele>1054.2231445312</ele>
        <time>2013-09-28T13:27:55Z</time>
      </trkpt>
      <trkpt lat="42.84004" lon="1.48381">
        <ele>1053.26171875</ele>
        <time>2013-09-28T13:27:57Z</time>
      </trkpt>
      <trkpt lat="42.84005" lon="1.48391">
        <ele>1053.7424316406</ele>
        <time>2013-09-28T13:28:03Z</time>
      </trkpt>
      <trkpt lat="42.84005" lon="1.48395">
        <ele>1055.1843261719</ele>
        <time>2013-09-28T13:28:05Z</time>
      </trkpt>
      <trkpt lat="42.84007" lon="1.48403">
        <ele>1056.6262207031</ele>
        <time>2013-09-28T13:28:10Z</time>
      </trkpt>
      <trkpt lat="42.84007" lon="1.48406">
        <ele>1055.6650390625</ele>
        <time>2013-09-28T13:28:12Z</time>
      </trkpt>
      <trkpt lat="42.84012" lon="1.48415">
        <ele>1053.26171875</ele>
        <time>2013-09-28T13:28:18Z</time>
      </trkpt>
      <trkpt lat="42.84013" lon="1.48424">
        <ele>1048.935546875</ele>
        <time>2013-09-28T13:28:24Z</time>
      </trkpt>
      <trkpt lat="42.84016" lon="1.48429">
        <ele>1045.0903320312</ele>
        <time>2013-09-28T13:28:29Z</time>
      </trkpt>
      <trkpt lat="42.84017" lon="1.48431">
        <ele>1044.1291503906</ele>
        <time>2013-09-28T13:28:31Z</time>
      </trkpt>
      <trkpt lat="42.84019" lon="1.48442">
        <ele>1041.7258300781</ele>
        <time>2013-09-28T13:28:37Z</time>
      </trkpt>
      <trkpt lat="42.84021" lon="1.48448">
        <ele>1040.7644042969</ele>
        <time>2013-09-28T13:28:41Z</time>
      </trkpt>
      <trkpt lat="42.84026" lon="1.48461">
        <ele>1041.2451171875</ele>
        <time>2013-09-28T13:28:50Z</time>
      </trkpt>
      <trkpt lat="42.84027" lon="1.48462">
        <ele>1041.2451171875</ele>
        <time>2013-09-28T13:28:51Z</time>
      </trkpt>
      <trkpt lat="42.84026" lon="1.48468">
        <ele>1043.1677246094</ele>
        <time>2013-09-28T13:28:54Z</time>
      </trkpt>
      <trkpt lat="42.84028" lon="1.48475">
        <ele>1042.6872558594</ele>
        <time>2013-09-28T13:28:59Z</time>
      </trkpt>
      <trkpt lat="42.84031" lon="1.48485">
        <ele>1042.2065429688</ele>
        <time>2013-09-28T13:29:06Z</time>
      </trkpt>
      <trkpt lat="42.84033" lon="1.48489">
        <ele>1043.6484375</ele>
        <time>2013-09-28T13:29:09Z</time>
      </trkpt>
      <trkpt lat="42.84036" lon="1.48492">
        <ele>1047.4936523438</ele>
        <time>2013-09-28T13:29:12Z</time>
      </trkpt>
      <trkpt lat="42.84036" lon="1.48499">
        <ele>1049.8969726562</ele>
        <time>2013-09-28T13:29:16Z</time>
      </trkpt>
      <trkpt lat="42.84036" lon="1.48502">
        <ele>1049.4162597656</ele>
        <time>2013-09-28T13:29:18Z</time>
      </trkpt>
      <trkpt lat="42.84034" lon="1.48507">
        <ele>1039.8032226562</ele>
        <time>2013-09-28T13:29:25Z</time>
      </trkpt>
      <trkpt lat="42.84035" lon="1.48516">
        <ele>1036.9191894531</ele>
        <time>2013-09-28T13:29:31Z</time>
      </trkpt>
      <trkpt lat="42.84036" lon="1.48525">
        <ele>1035.9577636719</ele>
        <time>2013-09-28T13:29:38Z</time>
      </trkpt>
    </trkseg>
  </trk>
</gpx>